<?xml version='1.0' encoding='UTF-8'?><gpx version="1.1" creator="JPX - https://github.com/jenetics/jpx" xmlns="http://www.topografix.com/GPX/1/1"><trk><trkseg><trkpt lat="42.0324802" lon="11.9398821"><ele>16.0</ele><time>2026-04-24T08:38:51.257Z</time></trkpt><trkpt lat="42.0324889" lon="11.9399691"><ele>16.0</ele><time>2026-04-24T08:38:52.217Z</time></trkpt><trkpt lat="42.0325902" lon="11.9402701"><ele>16.0</ele><time>2026-04-24T08:38:57.062Z</time></trkpt><trkpt lat="42.0326301" lon="11.9403378"><ele>16.0</ele><time>2026-04-24T08:39:02.062Z</time></trkpt><trkpt lat="42.0327775" lon="11.9401459"><ele>15.999999999999998</ele><time>2026-04-24T08:40:00.066Z</time></trkpt><trkpt lat="42.0327939" lon="11.9400387"><ele>16.0</ele><time>2026-04-24T08:40:01.067Z</time></trkpt><trkpt lat="42.0327986" lon="11.9399351"><ele>16.0</ele><time>2026-04-24T08:40:02.066Z</time></trkpt><trkpt lat="42.0328043" lon="11.9398043"><ele>16.0</ele><time>2026-04-24T08:40:04.064Z</time></trkpt><trkpt lat="42.032855" lon="11.9398667"><ele>15.999999999999998</ele><time>2026-04-24T08:40:08.065Z</time></trkpt><trkpt lat="42.0328633" lon="11.9399883"><ele>16.0</ele><time>2026-04-24T08:40:10.065Z</time></trkpt><trkpt lat="42.032875" lon="11.9401133"><ele>15.4</ele><time>2026-04-24T08:40:12.064Z</time></trkpt><trkpt lat="42.03289" lon="11.940255"><ele>14.8</ele><time>2026-04-24T08:40:14.066Z</time></trkpt><trkpt lat="42.0329133" lon="11.940395"><ele>14.200000000000001</ele><time>2026-04-24T08:40:16.066Z</time></trkpt><trkpt lat="42.03295" lon="11.940545"><ele>13.600000000000001</ele><time>2026-04-24T08:40:18.066Z</time></trkpt><trkpt lat="42.0329733" lon="11.9406283"><ele>13.0</ele><time>2026-04-24T08:40:19.066Z</time></trkpt><trkpt lat="42.033005" lon="11.94072"><ele>12.999999999999998</ele><time>2026-04-24T08:40:20.066Z</time></trkpt><trkpt lat="42.03303" lon="11.9408067"><ele>13.0</ele><time>2026-04-24T08:40:21.065Z</time></trkpt><trkpt lat="42.0330517" lon="11.94089"><ele>13.0</ele><time>2026-04-24T08:40:22.064Z</time></trkpt><trkpt lat="42.0330767" lon="11.9409767"><ele>13.0</ele><time>2026-04-24T08:40:23.066Z</time></trkpt><trkpt lat="42.03311" lon="11.9410833"><ele>12.999999999999998</ele><time>2026-04-24T08:40:24.066Z</time></trkpt><trkpt lat="42.0331433" lon="11.9411867"><ele>13.0</ele><time>2026-04-24T08:40:25.065Z</time></trkpt><trkpt lat="42.03318" lon="11.9412933"><ele>12.8</ele><time>2026-04-24T08:40:26.065Z</time></trkpt><trkpt lat="42.0332183" lon="11.9414033"><ele>12.600000000000001</ele><time>2026-04-24T08:40:27.066Z</time></trkpt><trkpt lat="42.0332583" lon="11.9415133"><ele>12.399999999999999</ele><time>2026-04-24T08:40:28.064Z</time></trkpt><trkpt lat="42.0332983" lon="11.9416267"><ele>12.2</ele><time>2026-04-24T08:40:29.065Z</time></trkpt><trkpt lat="42.0333383" lon="11.94174"><ele>12.0</ele><time>2026-04-24T08:40:30.065Z</time></trkpt><trkpt lat="42.033375" lon="11.9418467"><ele>12.0</ele><time>2026-04-24T08:40:31.068Z</time></trkpt><trkpt lat="42.03341" lon="11.9419467"><ele>12.0</ele><time>2026-04-24T08:40:32.064Z</time></trkpt><trkpt lat="42.03345" lon="11.9420617"><ele>12.0</ele><time>2026-04-24T08:40:33.065Z</time></trkpt><trkpt lat="42.0334867" lon="11.942165"><ele>12.0</ele><time>2026-04-24T08:40:34.062Z</time></trkpt><trkpt lat="42.033515" lon="11.9422483"><ele>12.0</ele><time>2026-04-24T08:40:35.064Z</time></trkpt><trkpt lat="42.0335433" lon="11.9423267"><ele>12.0</ele><time>2026-04-24T08:40:36.064Z</time></trkpt><trkpt lat="42.0335967" lon="11.9424767"><ele>12.0</ele><time>2026-04-24T08:40:38.065Z</time></trkpt><trkpt lat="42.0336233" lon="11.9425617"><ele>12.0</ele><time>2026-04-24T08:40:39.065Z</time></trkpt><trkpt lat="42.0336567" lon="11.9426483"><ele>12.0</ele><time>2026-04-24T08:40:40.066Z</time></trkpt><trkpt lat="42.0336883" lon="11.9427433"><ele>12.0</ele><time>2026-04-24T08:40:41.065Z</time></trkpt><trkpt lat="42.0337217" lon="11.9428383"><ele>12.0</ele><time>2026-04-24T08:40:42.064Z</time></trkpt><trkpt lat="42.03375" lon="11.9429367"><ele>12.0</ele><time>2026-04-24T08:40:43.065Z</time></trkpt><trkpt lat="42.0337817" lon="11.9430383"><ele>12.0</ele><time>2026-04-24T08:40:44.064Z</time></trkpt><trkpt lat="42.0338133" lon="11.94314"><ele>12.0</ele><time>2026-04-24T08:40:45.066Z</time></trkpt><trkpt lat="42.0338433" lon="11.943235"><ele>12.0</ele><time>2026-04-24T08:40:46.065Z</time></trkpt><trkpt lat="42.03388" lon="11.9433617"><ele>12.0</ele><time>2026-04-24T08:40:48.065Z</time></trkpt><trkpt lat="42.033895" lon="11.94346"><ele>12.0</ele><time>2026-04-24T08:40:51.064Z</time></trkpt><trkpt lat="42.0338983" lon="11.943305"><ele>12.0</ele><time>2026-04-24T08:40:57.064Z</time></trkpt><trkpt lat="42.0338667" lon="11.9432083"><ele>12.0</ele><time>2026-04-24T08:40:58.062Z</time></trkpt><trkpt lat="42.0338333" lon="11.943105"><ele>12.0</ele><time>2026-04-24T08:40:59.066Z</time></trkpt><trkpt lat="42.0337967" lon="11.9429933"><ele>12.0</ele><time>2026-04-24T08:41:00.065Z</time></trkpt><trkpt lat="42.033755" lon="11.942865"><ele>12.0</ele><time>2026-04-24T08:41:01.066Z</time></trkpt><trkpt lat="42.0337167" lon="11.9427467"><ele>12.0</ele><time>2026-04-24T08:41:02.065Z</time></trkpt><trkpt lat="42.0336767" lon="11.9426283"><ele>12.0</ele><time>2026-04-24T08:41:03.064Z</time></trkpt><trkpt lat="42.033635" lon="11.94251"><ele>12.0</ele><time>2026-04-24T08:41:04.064Z</time></trkpt><trkpt lat="42.033595" lon="11.9424"><ele>12.0</ele><time>2026-04-24T08:41:05.064Z</time></trkpt><trkpt lat="42.0335567" lon="11.9422917"><ele>12.0</ele><time>2026-04-24T08:41:06.064Z</time></trkpt><trkpt lat="42.0335167" lon="11.9421767"><ele>12.0</ele><time>2026-04-24T08:41:07.065Z</time></trkpt><trkpt lat="42.0334733" lon="11.9420567"><ele>12.0</ele><time>2026-04-24T08:41:08.066Z</time></trkpt><trkpt lat="42.033435" lon="11.9419467"><ele>12.0</ele><time>2026-04-24T08:41:09.065Z</time></trkpt><trkpt lat="42.033395" lon="11.9418317"><ele>12.0</ele><time>2026-04-24T08:41:10.064Z</time></trkpt><trkpt lat="42.03335" lon="11.9417067"><ele>12.0</ele><time>2026-04-24T08:41:11.065Z</time></trkpt><trkpt lat="42.0333067" lon="11.9415767"><ele>12.0</ele><time>2026-04-24T08:41:12.063Z</time></trkpt><trkpt lat="42.0332617" lon="11.941445"><ele>12.0</ele><time>2026-04-24T08:41:13.065Z</time></trkpt><trkpt lat="42.0332167" lon="11.94131"><ele>12.0</ele><time>2026-04-24T08:41:14.065Z</time></trkpt><trkpt lat="42.0331683" lon="11.9411667"><ele>12.0</ele><time>2026-04-24T08:41:15.064Z</time></trkpt><trkpt lat="42.0331217" lon="11.94102"><ele>12.0</ele><time>2026-04-24T08:41:16.065Z</time></trkpt><trkpt lat="42.0330767" lon="11.9408717"><ele>12.25</ele><time>2026-04-24T08:41:17.065Z</time></trkpt><trkpt lat="42.0330333" lon="11.9407217"><ele>12.5</ele><time>2026-04-24T08:41:18.064Z</time></trkpt><trkpt lat="42.0329883" lon="11.9405667"><ele>12.75</ele><time>2026-04-24T08:41:19.065Z</time></trkpt><trkpt lat="42.0329483" lon="11.9404167"><ele>13.0</ele><time>2026-04-24T08:41:20.065Z</time></trkpt><trkpt lat="42.0329183" lon="11.9402867"><ele>12.999999999999998</ele><time>2026-04-24T08:41:21.063Z</time></trkpt><trkpt lat="42.0328967" lon="11.9401767"><ele>13.0</ele><time>2026-04-24T08:41:22.064Z</time></trkpt><trkpt lat="42.0328867" lon="11.9400767"><ele>13.0</ele><time>2026-04-24T08:41:23.064Z</time></trkpt><trkpt lat="42.0328767" lon="11.9399867"><ele>13.0</ele><time>2026-04-24T08:41:24.065Z</time></trkpt><trkpt lat="42.0328617" lon="11.9398333"><ele>12.999999999999998</ele><time>2026-04-24T08:41:26.064Z</time></trkpt><trkpt lat="42.0328233" lon="11.9397333"><ele>13.0</ele><time>2026-04-24T08:41:28.065Z</time></trkpt><trkpt lat="42.032735" lon="11.939725"><ele>12.999999999999998</ele><time>2026-04-24T08:41:30.064Z</time></trkpt><trkpt lat="42.0326717" lon="11.9398483"><ele>13.0</ele><time>2026-04-24T08:41:32.064Z</time></trkpt><trkpt lat="42.0326583" lon="11.93996"><ele>13.0</ele><time>2026-04-24T08:41:33.065Z</time></trkpt><trkpt lat="42.0326467" lon="11.9400683"><ele>13.0</ele><time>2026-04-24T08:41:34.064Z</time></trkpt><trkpt lat="42.0326367" lon="11.9401583"><ele>12.999999999999998</ele><time>2026-04-24T08:41:35.063Z</time></trkpt><trkpt lat="42.03265" lon="11.94026"><ele>13.0</ele><time>2026-04-24T08:41:37.065Z</time></trkpt><trkpt lat="42.0327317" lon="11.9402633"><ele>13.0</ele><time>2026-04-24T08:46:10.065Z</time></trkpt><trkpt lat="42.0327817" lon="11.9401483"><ele>13.0</ele><time>2026-04-24T08:46:12.066Z</time></trkpt><trkpt lat="42.03279" lon="11.9400533"><ele>13.0</ele><time>2026-04-24T08:46:13.064Z</time></trkpt><trkpt lat="42.0327917" lon="11.9399567"><ele>13.0</ele><time>2026-04-24T08:46:14.065Z</time></trkpt><trkpt lat="42.0327917" lon="11.9398717"><ele>13.0</ele><time>2026-04-24T08:46:15.064Z</time></trkpt><trkpt lat="42.0328083" lon="11.939775"><ele>13.0</ele><time>2026-04-24T08:46:17.063Z</time></trkpt><trkpt lat="42.0328633" lon="11.9398333"><ele>13.0</ele><time>2026-04-24T08:46:20.063Z</time></trkpt><trkpt lat="42.0328767" lon="11.9399183"><ele>13.0</ele><time>2026-04-24T08:46:21.064Z</time></trkpt><trkpt lat="42.0328883" lon="11.94004"><ele>13.0</ele><time>2026-04-24T08:46:22.064Z</time></trkpt><trkpt lat="42.0329017" lon="11.9401767"><ele>13.0</ele><time>2026-04-24T08:46:23.065Z</time></trkpt><trkpt lat="42.0329183" lon="11.94032"><ele>13.0</ele><time>2026-04-24T08:46:24.066Z</time></trkpt><trkpt lat="42.0329467" lon="11.9404633"><ele>13.0</ele><time>2026-04-24T08:46:25.065Z</time></trkpt><trkpt lat="42.0329783" lon="11.9406033"><ele>13.0</ele><time>2026-04-24T08:46:26.064Z</time></trkpt><trkpt lat="42.0330133" lon="11.9407367"><ele>13.0</ele><time>2026-04-24T08:46:27.064Z</time></trkpt><trkpt lat="42.0330483" lon="11.9408633"><ele>13.0</ele><time>2026-04-24T08:46:28.063Z</time></trkpt><trkpt lat="42.033085" lon="11.9409817"><ele>13.0</ele><time>2026-04-24T08:46:29.063Z</time></trkpt><trkpt lat="42.0331217" lon="11.9411"><ele>13.0</ele><time>2026-04-24T08:46:30.062Z</time></trkpt><trkpt lat="42.0331617" lon="11.9412183"><ele>12.8</ele><time>2026-04-24T08:46:31.065Z</time></trkpt><trkpt lat="42.0332" lon="11.9413383"><ele>12.600000000000001</ele><time>2026-04-24T08:46:32.065Z</time></trkpt><trkpt lat="42.0332383" lon="11.9414583"><ele>12.399999999999999</ele><time>2026-04-24T08:46:33.064Z</time></trkpt><trkpt lat="42.0332767" lon="11.94158"><ele>12.2</ele><time>2026-04-24T08:46:34.062Z</time></trkpt><trkpt lat="42.03332" lon="11.9417"><ele>12.0</ele><time>2026-04-24T08:46:35.063Z</time></trkpt><trkpt lat="42.033365" lon="11.94182"><ele>12.0</ele><time>2026-04-24T08:46:36.064Z</time></trkpt><trkpt lat="42.03341" lon="11.941945"><ele>12.0</ele><time>2026-04-24T08:46:37.064Z</time></trkpt><trkpt lat="42.033455" lon="11.9420683"><ele>12.0</ele><time>2026-04-24T08:46:38.064Z</time></trkpt><trkpt lat="42.0334983" lon="11.9421883"><ele>12.0</ele><time>2026-04-24T08:46:39.064Z</time></trkpt><trkpt lat="42.0335383" lon="11.9423033"><ele>12.0</ele><time>2026-04-24T08:46:40.062Z</time></trkpt><trkpt lat="42.033575" lon="11.94241"><ele>12.0</ele><time>2026-04-24T08:46:41.064Z</time></trkpt><trkpt lat="42.0336117" lon="11.942515"><ele>12.0</ele><time>2026-04-24T08:46:42.064Z</time></trkpt><trkpt lat="42.03365" lon="11.9426283"><ele>12.0</ele><time>2026-04-24T08:46:43.065Z</time></trkpt><trkpt lat="42.03369" lon="11.9427417"><ele>12.0</ele><time>2026-04-24T08:46:44.064Z</time></trkpt><trkpt lat="42.0337267" lon="11.94286"><ele>12.0</ele><time>2026-04-24T08:46:45.063Z</time></trkpt><trkpt lat="42.0337633" lon="11.94298"><ele>12.0</ele><time>2026-04-24T08:46:46.064Z</time></trkpt><trkpt lat="42.0338017" lon="11.9431017"><ele>12.0</ele><time>2026-04-24T08:46:47.066Z</time></trkpt><trkpt lat="42.0338433" lon="11.943225"><ele>12.0</ele><time>2026-04-24T08:46:48.064Z</time></trkpt><trkpt lat="42.033885" lon="11.9433517"><ele>12.0</ele><time>2026-04-24T08:46:49.065Z</time></trkpt><trkpt lat="42.033925" lon="11.9434783"><ele>12.0</ele><time>2026-04-24T08:46:50.067Z</time></trkpt><trkpt lat="42.0339583" lon="11.9436033"><ele>12.399999999999999</ele><time>2026-04-24T08:46:51.064Z</time></trkpt><trkpt lat="42.0339867" lon="11.94373"><ele>12.799999999999999</ele><time>2026-04-24T08:46:52.063Z</time></trkpt><trkpt lat="42.0340083" lon="11.9438667"><ele>13.2</ele><time>2026-04-24T08:46:53.065Z</time></trkpt><trkpt lat="42.0340233" lon="11.944"><ele>13.6</ele><time>2026-04-24T08:46:54.066Z</time></trkpt><trkpt lat="42.0340333" lon="11.9441267"><ele>14.0</ele><time>2026-04-24T08:46:55.065Z</time></trkpt><trkpt lat="42.03404" lon="11.9442467"><ele>14.000000000000002</ele><time>2026-04-24T08:46:56.067Z</time></trkpt><trkpt lat="42.0340367" lon="11.944365"><ele>14.0</ele><time>2026-04-24T08:46:57.063Z</time></trkpt><trkpt lat="42.0340267" lon="11.9444817"><ele>14.0</ele><time>2026-04-24T08:46:58.064Z</time></trkpt><trkpt lat="42.03401" lon="11.944595"><ele>14.0</ele><time>2026-04-24T08:46:59.065Z</time></trkpt><trkpt lat="42.0339917" lon="11.9447"><ele>14.000000000000002</ele><time>2026-04-24T08:47:00.064Z</time></trkpt><trkpt lat="42.03397" lon="11.9448"><ele>14.0</ele><time>2026-04-24T08:47:01.065Z</time></trkpt><trkpt lat="42.0339483" lon="11.9449017"><ele>14.0</ele><time>2026-04-24T08:47:02.064Z</time></trkpt><trkpt lat="42.0339167" lon="11.9450167"><ele>13.999999999999998</ele><time>2026-04-24T08:47:03.066Z</time></trkpt><trkpt lat="42.0338767" lon="11.9451417"><ele>13.999999999999998</ele><time>2026-04-24T08:47:04.064Z</time></trkpt><trkpt lat="42.0338283" lon="11.9452667"><ele>14.0</ele><time>2026-04-24T08:47:05.064Z</time></trkpt><trkpt lat="42.0337733" lon="11.945385"><ele>14.0</ele><time>2026-04-24T08:47:06.066Z</time></trkpt><trkpt lat="42.033715" lon="11.9454983"><ele>14.2</ele><time>2026-04-24T08:47:07.065Z</time></trkpt><trkpt lat="42.03366" lon="11.945595"><ele>14.399999999999999</ele><time>2026-04-24T08:47:08.063Z</time></trkpt><trkpt lat="42.03361" lon="11.94568"><ele>14.6</ele><time>2026-04-24T08:47:09.063Z</time></trkpt><trkpt lat="42.033555" lon="11.94577"><ele>14.8</ele><time>2026-04-24T08:47:10.062Z</time></trkpt><trkpt lat="42.033495" lon="11.9458667"><ele>15.0</ele><time>2026-04-24T08:47:11.064Z</time></trkpt><trkpt lat="42.0334333" lon="11.945975"><ele>15.0</ele><time>2026-04-24T08:47:12.066Z</time></trkpt><trkpt lat="42.03337" lon="11.94609"><ele>15.0</ele><time>2026-04-24T08:47:13.065Z</time></trkpt><trkpt lat="42.033305" lon="11.9462083"><ele>15.0</ele><time>2026-04-24T08:47:14.064Z</time></trkpt><trkpt lat="42.0332467" lon="11.9463183"><ele>15.0</ele><time>2026-04-24T08:47:15.064Z</time></trkpt><trkpt lat="42.0331917" lon="11.9464167"><ele>15.0</ele><time>2026-04-24T08:47:16.065Z</time></trkpt><trkpt lat="42.0331433" lon="11.9465"><ele>14.666666666666666</ele><time>2026-04-24T08:47:17.065Z</time></trkpt><trkpt lat="42.0330983" lon="11.946575"><ele>14.333333333333332</ele><time>2026-04-24T08:47:18.067Z</time></trkpt><trkpt lat="42.0330583" lon="11.9466433"><ele>14.0</ele><time>2026-04-24T08:47:19.066Z</time></trkpt><trkpt lat="42.033015" lon="11.946715"><ele>13.666666666666666</ele><time>2026-04-24T08:47:20.066Z</time></trkpt><trkpt lat="42.0329633" lon="11.9468067"><ele>13.333333333333332</ele><time>2026-04-24T08:47:21.064Z</time></trkpt><trkpt lat="42.0329017" lon="11.9469167"><ele>13.0</ele><time>2026-04-24T08:47:22.067Z</time></trkpt><trkpt lat="42.032835" lon="11.9470317"><ele>13.0</ele><time>2026-04-24T08:47:23.064Z</time></trkpt><trkpt lat="42.032765" lon="11.9471383"><ele>13.0</ele><time>2026-04-24T08:47:24.065Z</time></trkpt><trkpt lat="42.032695" lon="11.9472367"><ele>13.0</ele><time>2026-04-24T08:47:25.065Z</time></trkpt><trkpt lat="42.0326217" lon="11.9473217"><ele>13.0</ele><time>2026-04-24T08:47:26.065Z</time></trkpt><trkpt lat="42.0325583" lon="11.9474"><ele>13.0</ele><time>2026-04-24T08:47:27.063Z</time></trkpt><trkpt lat="42.03251" lon="11.9474783"><ele>13.0</ele><time>2026-04-24T08:47:28.065Z</time></trkpt><trkpt lat="42.0324683" lon="11.9475783"><ele>13.0</ele><time>2026-04-24T08:47:29.066Z</time></trkpt><trkpt lat="42.032425" lon="11.9476883"><ele>13.0</ele><time>2026-04-24T08:47:30.065Z</time></trkpt><trkpt lat="42.0323767" lon="11.9478"><ele>13.0</ele><time>2026-04-24T08:47:31.064Z</time></trkpt><trkpt lat="42.0323183" lon="11.9479167"><ele>13.0</ele><time>2026-04-24T08:47:32.066Z</time></trkpt><trkpt lat="42.032255" lon="11.948035"><ele>13.0</ele><time>2026-04-24T08:47:33.063Z</time></trkpt><trkpt lat="42.0321917" lon="11.94816"><ele>13.0</ele><time>2026-04-24T08:47:34.063Z</time></trkpt><trkpt lat="42.0321317" lon="11.9482867"><ele>13.0</ele><time>2026-04-24T08:47:35.062Z</time></trkpt><trkpt lat="42.0320767" lon="11.9484117"><ele>13.0</ele><time>2026-04-24T08:47:36.063Z</time></trkpt><trkpt lat="42.0320267" lon="11.9485417"><ele>13.0</ele><time>2026-04-24T08:47:37.065Z</time></trkpt><trkpt lat="42.0319783" lon="11.9486733"><ele>13.2</ele><time>2026-04-24T08:47:38.065Z</time></trkpt><trkpt lat="42.0319317" lon="11.948805"><ele>13.4</ele><time>2026-04-24T08:47:39.064Z</time></trkpt><trkpt lat="42.03189" lon="11.9489317"><ele>13.599999999999998</ele><time>2026-04-24T08:47:40.067Z</time></trkpt><trkpt lat="42.0318483" lon="11.9490567"><ele>13.799999999999999</ele><time>2026-04-24T08:47:41.067Z</time></trkpt><trkpt lat="42.03181" lon="11.94918"><ele>14.0</ele><time>2026-04-24T08:47:42.064Z</time></trkpt><trkpt lat="42.03177" lon="11.949305"><ele>14.0</ele><time>2026-04-24T08:47:43.066Z</time></trkpt><trkpt lat="42.0317317" lon="11.9494283"><ele>13.999999999999998</ele><time>2026-04-24T08:47:44.065Z</time></trkpt><trkpt lat="42.0316933" lon="11.9495517"><ele>13.999999999999998</ele><time>2026-04-24T08:47:45.066Z</time></trkpt><trkpt lat="42.031655" lon="11.9496767"><ele>14.0</ele><time>2026-04-24T08:47:46.066Z</time></trkpt><trkpt lat="42.0316133" lon="11.9498033"><ele>14.0</ele><time>2026-04-24T08:47:47.065Z</time></trkpt><trkpt lat="42.0315733" lon="11.94993"><ele>13.799999999999999</ele><time>2026-04-24T08:47:48.068Z</time></trkpt><trkpt lat="42.0315333" lon="11.9500567"><ele>13.599999999999998</ele><time>2026-04-24T08:47:49.065Z</time></trkpt><trkpt lat="42.0314917" lon="11.950185"><ele>13.4</ele><time>2026-04-24T08:47:50.067Z</time></trkpt><trkpt lat="42.0314517" lon="11.95031"><ele>13.2</ele><time>2026-04-24T08:47:51.066Z</time></trkpt><trkpt lat="42.0314117" lon="11.9504367"><ele>13.0</ele><time>2026-04-24T08:47:52.067Z</time></trkpt><trkpt lat="42.03137" lon="11.9505633"><ele>13.0</ele><time>2026-04-24T08:47:53.066Z</time></trkpt><trkpt lat="42.0313283" lon="11.9506933"><ele>13.0</ele><time>2026-04-24T08:47:54.066Z</time></trkpt><trkpt lat="42.0312833" lon="11.9508233"><ele>13.0</ele><time>2026-04-24T08:47:55.065Z</time></trkpt><trkpt lat="42.0312417" lon="11.95095"><ele>13.0</ele><time>2026-04-24T08:47:56.065Z</time></trkpt><trkpt lat="42.0312033" lon="11.9510683"><ele>13.0</ele><time>2026-04-24T08:47:57.063Z</time></trkpt><trkpt lat="42.0311667" lon="11.95118"><ele>13.166666666666666</ele><time>2026-04-24T08:47:58.064Z</time></trkpt><trkpt lat="42.0311317" lon="11.9512833"><ele>13.333333333333332</ele><time>2026-04-24T08:47:59.062Z</time></trkpt><trkpt lat="42.0311" lon="11.951385"><ele>13.5</ele><time>2026-04-24T08:48:00.063Z</time></trkpt><trkpt lat="42.03107" lon="11.9514817"><ele>13.666666666666668</ele><time>2026-04-24T08:48:01.063Z</time></trkpt><trkpt lat="42.0310367" lon="11.951575"><ele>13.833333333333334</ele><time>2026-04-24T08:48:02.065Z</time></trkpt><trkpt lat="42.031005" lon="11.95167"><ele>14.0</ele><time>2026-04-24T08:48:03.066Z</time></trkpt><trkpt lat="42.0309767" lon="11.9517583"><ele>13.857142857142858</ele><time>2026-04-24T08:48:04.063Z</time></trkpt><trkpt lat="42.0309467" lon="11.951845"><ele>13.714285714285715</ele><time>2026-04-24T08:48:05.062Z</time></trkpt><trkpt lat="42.0309167" lon="11.95193"><ele>13.571428571428571</ele><time>2026-04-24T08:48:06.063Z</time></trkpt><trkpt lat="42.0308883" lon="11.9520183"><ele>13.428571428571429</ele><time>2026-04-24T08:48:07.065Z</time></trkpt><trkpt lat="42.0308617" lon="11.95211"><ele>13.285714285714286</ele><time>2026-04-24T08:48:08.066Z</time></trkpt><trkpt lat="42.0308317" lon="11.9522"><ele>13.142857142857142</ele><time>2026-04-24T08:48:09.064Z</time></trkpt><trkpt lat="42.0308017" lon="11.9522883"><ele>13.0</ele><time>2026-04-24T08:48:10.064Z</time></trkpt><trkpt lat="42.03077" lon="11.95238"><ele>12.999999999999998</ele><time>2026-04-24T08:48:11.062Z</time></trkpt><trkpt lat="42.0307383" lon="11.952475"><ele>13.0</ele><time>2026-04-24T08:48:12.063Z</time></trkpt><trkpt lat="42.0307083" lon="11.9525683"><ele>13.0</ele><time>2026-04-24T08:48:13.064Z</time></trkpt><trkpt lat="42.0306783" lon="11.9526583"><ele>13.0</ele><time>2026-04-24T08:48:14.064Z</time></trkpt><trkpt lat="42.0306467" lon="11.9527533"><ele>12.999999999999998</ele><time>2026-04-24T08:48:15.063Z</time></trkpt><trkpt lat="42.030615" lon="11.9528517"><ele>13.0</ele><time>2026-04-24T08:48:16.063Z</time></trkpt><trkpt lat="42.0305833" lon="11.9529533"><ele>13.166666666666666</ele><time>2026-04-24T08:48:17.065Z</time></trkpt><trkpt lat="42.0305517" lon="11.95306"><ele>13.333333333333332</ele><time>2026-04-24T08:48:18.064Z</time></trkpt><trkpt lat="42.0305167" lon="11.95317"><ele>13.5</ele><time>2026-04-24T08:48:19.062Z</time></trkpt><trkpt lat="42.0304783" lon="11.953285"><ele>13.666666666666668</ele><time>2026-04-24T08:48:20.064Z</time></trkpt><trkpt lat="42.0304433" lon="11.953395"><ele>13.833333333333334</ele><time>2026-04-24T08:48:21.064Z</time></trkpt><trkpt lat="42.0304083" lon="11.9535067"><ele>14.0</ele><time>2026-04-24T08:48:22.062Z</time></trkpt><trkpt lat="42.0303717" lon="11.9536183"><ele>14.6</ele><time>2026-04-24T08:48:23.065Z</time></trkpt><trkpt lat="42.030335" lon="11.9537317"><ele>15.2</ele><time>2026-04-24T08:48:24.065Z</time></trkpt><trkpt lat="42.0302967" lon="11.9538467"><ele>15.799999999999999</ele><time>2026-04-24T08:48:25.063Z</time></trkpt><trkpt lat="42.0302583" lon="11.9539667"><ele>16.4</ele><time>2026-04-24T08:48:26.067Z</time></trkpt><trkpt lat="42.0302183" lon="11.9540867"><ele>17.0</ele><time>2026-04-24T08:48:27.065Z</time></trkpt><trkpt lat="42.0301767" lon="11.9542067"><ele>17.0</ele><time>2026-04-24T08:48:28.062Z</time></trkpt><trkpt lat="42.030135" lon="11.9543267"><ele>17.0</ele><time>2026-04-24T08:48:29.063Z</time></trkpt><trkpt lat="42.0300867" lon="11.95444"><ele>17.0</ele><time>2026-04-24T08:48:30.064Z</time></trkpt><trkpt lat="42.0300333" lon="11.9545433"><ele>17.0</ele><time>2026-04-24T08:48:31.064Z</time></trkpt><trkpt lat="42.0299783" lon="11.95464"><ele>17.0</ele><time>2026-04-24T08:48:32.063Z</time></trkpt><trkpt lat="42.0299367" lon="11.9547233"><ele>17.0</ele><time>2026-04-24T08:48:33.062Z</time></trkpt><trkpt lat="42.0299217" lon="11.9548233"><ele>17.0</ele><time>2026-04-24T08:48:35.065Z</time></trkpt><trkpt lat="42.0299783" lon="11.954875"><ele>17.0</ele><time>2026-04-24T08:48:37.065Z</time></trkpt><trkpt lat="42.0301133" lon="11.95494"><ele>17.0</ele><time>2026-04-24T08:48:39.063Z</time></trkpt><trkpt lat="42.0302117" lon="11.954995"><ele>17.0</ele><time>2026-04-24T08:48:40.064Z</time></trkpt><trkpt lat="42.0303217" lon="11.9550567"><ele>17.25</ele><time>2026-04-24T08:48:41.064Z</time></trkpt><trkpt lat="42.030445" lon="11.9551183"><ele>17.5</ele><time>2026-04-24T08:48:42.064Z</time></trkpt><trkpt lat="42.0305833" lon="11.95518"><ele>17.75</ele><time>2026-04-24T08:48:43.062Z</time></trkpt><trkpt lat="42.03073" lon="11.955235"><ele>18.0</ele><time>2026-04-24T08:48:44.064Z</time></trkpt><trkpt lat="42.0308733" lon="11.9552967"><ele>18.666666666666668</ele><time>2026-04-24T08:48:45.062Z</time></trkpt><trkpt lat="42.0310167" lon="11.95537"><ele>19.333333333333336</ele><time>2026-04-24T08:48:46.062Z</time></trkpt><trkpt lat="42.0311583" lon="11.955445"><ele>20.0</ele><time>2026-04-24T08:48:47.063Z</time></trkpt><trkpt lat="42.031295" lon="11.95552"><ele>20.0</ele><time>2026-04-24T08:48:48.063Z</time></trkpt><trkpt lat="42.031425" lon="11.955585"><ele>20.0</ele><time>2026-04-24T08:48:49.064Z</time></trkpt><trkpt lat="42.0315617" lon="11.955635"><ele>20.0</ele><time>2026-04-24T08:48:50.066Z</time></trkpt><trkpt lat="42.0317017" lon="11.955675"><ele>20.0</ele><time>2026-04-24T08:48:51.063Z</time></trkpt><trkpt lat="42.0318467" lon="11.9557067"><ele>20.5</ele><time>2026-04-24T08:48:52.063Z</time></trkpt><trkpt lat="42.0319917" lon="11.955745"><ele>21.0</ele><time>2026-04-24T08:48:53.062Z</time></trkpt><trkpt lat="42.0321367" lon="11.95579"><ele>21.5</ele><time>2026-04-24T08:48:54.062Z</time></trkpt><trkpt lat="42.0322817" lon="11.9558417"><ele>22.0</ele><time>2026-04-24T08:48:55.065Z</time></trkpt><trkpt lat="42.0324267" lon="11.9559083"><ele>23.0</ele><time>2026-04-24T08:48:56.063Z</time></trkpt><trkpt lat="42.0325767" lon="11.955985"><ele>24.0</ele><time>2026-04-24T08:48:57.062Z</time></trkpt><trkpt lat="42.03273" lon="11.95606"><ele>25.0</ele><time>2026-04-24T08:48:58.065Z</time></trkpt><trkpt lat="42.032875" lon="11.9561267"><ele>25.0</ele><time>2026-04-24T08:48:59.063Z</time></trkpt><trkpt lat="42.033025" lon="11.9561933"><ele>25.0</ele><time>2026-04-24T08:49:00.064Z</time></trkpt><trkpt lat="42.0331767" lon="11.9562633"><ele>25.0</ele><time>2026-04-24T08:49:01.063Z</time></trkpt><trkpt lat="42.0333317" lon="11.9563333"><ele>25.333333333333336</ele><time>2026-04-24T08:49:02.066Z</time></trkpt><trkpt lat="42.0334833" lon="11.9564067"><ele>25.666666666666664</ele><time>2026-04-24T08:49:03.064Z</time></trkpt><trkpt lat="42.03363" lon="11.9564783"><ele>26.0</ele><time>2026-04-24T08:49:04.063Z</time></trkpt><trkpt lat="42.03378" lon="11.9565483"><ele>26.0</ele><time>2026-04-24T08:49:05.064Z</time></trkpt><trkpt lat="42.0339467" lon="11.9566117"><ele>26.0</ele><time>2026-04-24T08:49:06.065Z</time></trkpt><trkpt lat="42.03412" lon="11.9566717"><ele>26.0</ele><time>2026-04-24T08:49:07.064Z</time></trkpt><trkpt lat="42.0342967" lon="11.9567333"><ele>26.0</ele><time>2026-04-24T08:49:08.063Z</time></trkpt><trkpt lat="42.03447" lon="11.9567933"><ele>26.0</ele><time>2026-04-24T08:49:09.064Z</time></trkpt><trkpt lat="42.0346367" lon="11.9568583"><ele>26.0</ele><time>2026-04-24T08:49:10.062Z</time></trkpt><trkpt lat="42.0348" lon="11.956925"><ele>26.0</ele><time>2026-04-24T08:49:11.064Z</time></trkpt><trkpt lat="42.034965" lon="11.956995"><ele>26.0</ele><time>2026-04-24T08:49:12.064Z</time></trkpt><trkpt lat="42.0351267" lon="11.9570683"><ele>26.0</ele><time>2026-04-24T08:49:13.063Z</time></trkpt><trkpt lat="42.035275" lon="11.9571383"><ele>26.5</ele><time>2026-04-24T08:49:14.067Z</time></trkpt><trkpt lat="42.0354067" lon="11.9572017"><ele>27.0</ele><time>2026-04-24T08:49:15.065Z</time></trkpt><trkpt lat="42.0355233" lon="11.9572533"><ele>27.5</ele><time>2026-04-24T08:49:16.065Z</time></trkpt><trkpt lat="42.035635" lon="11.9573017"><ele>28.0</ele><time>2026-04-24T08:49:17.065Z</time></trkpt><trkpt lat="42.0357417" lon="11.9573617"><ele>28.75</ele><time>2026-04-24T08:49:18.062Z</time></trkpt><trkpt lat="42.0358417" lon="11.9574433"><ele>29.5</ele><time>2026-04-24T08:49:19.064Z</time></trkpt><trkpt lat="42.03594" lon="11.9575233"><ele>30.25</ele><time>2026-04-24T08:49:20.064Z</time></trkpt><trkpt lat="42.0360417" lon="11.9575767"><ele>31.0</ele><time>2026-04-24T08:49:21.062Z</time></trkpt><trkpt lat="42.0361533" lon="11.9576"><ele>31.0</ele><time>2026-04-24T08:49:22.062Z</time></trkpt><trkpt lat="42.03627" lon="11.9575983"><ele>31.0</ele><time>2026-04-24T08:49:23.065Z</time></trkpt><trkpt lat="42.0363767" lon="11.9575767"><ele>31.0</ele><time>2026-04-24T08:49:24.063Z</time></trkpt><trkpt lat="42.03647" lon="11.9575383"><ele>31.0</ele><time>2026-04-24T08:49:25.065Z</time></trkpt><trkpt lat="42.0365517" lon="11.95747"><ele>31.0</ele><time>2026-04-24T08:49:26.064Z</time></trkpt><trkpt lat="42.0366283" lon="11.9573767"><ele>31.666666666666668</ele><time>2026-04-24T08:49:27.063Z</time></trkpt><trkpt lat="42.036695" lon="11.9572833"><ele>32.333333333333336</ele><time>2026-04-24T08:49:28.063Z</time></trkpt><trkpt lat="42.03675" lon="11.9572067"><ele>33.0</ele><time>2026-04-24T08:49:29.065Z</time></trkpt><trkpt lat="42.0368267" lon="11.9571483"><ele>33.666666666666664</ele><time>2026-04-24T08:49:31.061Z</time></trkpt><trkpt lat="42.036875" lon="11.95721"><ele>34.33333333333333</ele><time>2026-04-24T08:49:33.063Z</time></trkpt><trkpt lat="42.03689" lon="11.9572933"><ele>35.0</ele><time>2026-04-24T08:49:34.062Z</time></trkpt><trkpt lat="42.0369" lon="11.95741"><ele>34.75</ele><time>2026-04-24T08:49:35.064Z</time></trkpt><trkpt lat="42.0369017" lon="11.9575617"><ele>34.5</ele><time>2026-04-24T08:49:36.066Z</time></trkpt><trkpt lat="42.0369" lon="11.9577383"><ele>34.25</ele><time>2026-04-24T08:49:37.065Z</time></trkpt><trkpt lat="42.03689" lon="11.9579367"><ele>34.0</ele><time>2026-04-24T08:49:38.065Z</time></trkpt><trkpt lat="42.0368717" lon="11.9581567"><ele>33.66666666666667</ele><time>2026-04-24T08:49:39.062Z</time></trkpt><trkpt lat="42.0368483" lon="11.95839"><ele>33.333333333333336</ele><time>2026-04-24T08:49:40.064Z</time></trkpt><trkpt lat="42.0368233" lon="11.9586367"><ele>33.0</ele><time>2026-04-24T08:49:41.064Z</time></trkpt><trkpt lat="42.0367983" lon="11.9588983"><ele>33.0</ele><time>2026-04-24T08:49:42.064Z</time></trkpt><trkpt lat="42.0367733" lon="11.95916"><ele>33.0</ele><time>2026-04-24T08:49:43.063Z</time></trkpt><trkpt lat="42.0367483" lon="11.9594183"><ele>33.0</ele><time>2026-04-24T08:49:44.063Z</time></trkpt><trkpt lat="42.0367233" lon="11.95967"><ele>32.666666666666664</ele><time>2026-04-24T08:49:45.063Z</time></trkpt><trkpt lat="42.0366983" lon="11.9599133"><ele>32.33333333333333</ele><time>2026-04-24T08:49:46.062Z</time></trkpt><trkpt lat="42.0366717" lon="11.9601533"><ele>32.0</ele><time>2026-04-24T08:49:47.062Z</time></trkpt><trkpt lat="42.036645" lon="11.96039"><ele>32.33333333333333</ele><time>2026-04-24T08:49:48.063Z</time></trkpt><trkpt lat="42.0366217" lon="11.960625"><ele>32.666666666666664</ele><time>2026-04-24T08:49:49.063Z</time></trkpt><trkpt lat="42.0365967" lon="11.96086"><ele>33.0</ele><time>2026-04-24T08:49:50.064Z</time></trkpt><trkpt lat="42.0365717" lon="11.9610933"><ele>33.0</ele><time>2026-04-24T08:49:51.064Z</time></trkpt><trkpt lat="42.0365433" lon="11.961325"><ele>33.0</ele><time>2026-04-24T08:49:52.062Z</time></trkpt><trkpt lat="42.0365133" lon="11.9615517"><ele>33.0</ele><time>2026-04-24T08:49:53.064Z</time></trkpt><trkpt lat="42.0364867" lon="11.96178"><ele>33.0</ele><time>2026-04-24T08:49:54.063Z</time></trkpt><trkpt lat="42.0364633" lon="11.9620033"><ele>33.0</ele><time>2026-04-24T08:49:55.065Z</time></trkpt><trkpt lat="42.03644" lon="11.9622233"><ele>33.0</ele><time>2026-04-24T08:49:56.065Z</time></trkpt><trkpt lat="42.0364167" lon="11.9624383"><ele>33.333333333333336</ele><time>2026-04-24T08:49:57.064Z</time></trkpt><trkpt lat="42.0363917" lon="11.962645"><ele>33.66666666666667</ele><time>2026-04-24T08:49:58.064Z</time></trkpt><trkpt lat="42.0363633" lon="11.9628483"><ele>34.0</ele><time>2026-04-24T08:49:59.065Z</time></trkpt><trkpt lat="42.036335" lon="11.96305"><ele>34.0</ele><time>2026-04-24T08:50:00.063Z</time></trkpt><trkpt lat="42.0363033" lon="11.9632517"><ele>34.0</ele><time>2026-04-24T08:50:01.062Z</time></trkpt><trkpt lat="42.0362767" lon="11.9634467"><ele>34.0</ele><time>2026-04-24T08:50:02.064Z</time></trkpt><trkpt lat="42.036265" lon="11.963625"><ele>34.0</ele><time>2026-04-24T08:50:03.065Z</time></trkpt><trkpt lat="42.0362683" lon="11.9637783"><ele>34.5</ele><time>2026-04-24T08:50:04.062Z</time></trkpt><trkpt lat="42.0362917" lon="11.96391"><ele>35.0</ele><time>2026-04-24T08:50:05.063Z</time></trkpt><trkpt lat="42.0363383" lon="11.9640383"><ele>35.5</ele><time>2026-04-24T08:50:06.063Z</time></trkpt><trkpt lat="42.0364" lon="11.9641717"><ele>36.0</ele><time>2026-04-24T08:50:07.063Z</time></trkpt><trkpt lat="42.0364667" lon="11.9643167"><ele>36.0</ele><time>2026-04-24T08:50:08.062Z</time></trkpt><trkpt lat="42.0365317" lon="11.9644733"><ele>36.0</ele><time>2026-04-24T08:50:09.063Z</time></trkpt><trkpt lat="42.0365967" lon="11.9646283"><ele>36.0</ele><time>2026-04-24T08:50:10.062Z</time></trkpt><trkpt lat="42.036665" lon="11.964775"><ele>36.0</ele><time>2026-04-24T08:50:11.064Z</time></trkpt><trkpt lat="42.0367317" lon="11.9649067"><ele>36.5</ele><time>2026-04-24T08:50:12.063Z</time></trkpt><trkpt lat="42.0367933" lon="11.9650117"><ele>37.0</ele><time>2026-04-24T08:50:13.065Z</time></trkpt><trkpt lat="42.0368433" lon="11.9650967"><ele>37.5</ele><time>2026-04-24T08:50:14.063Z</time></trkpt><trkpt lat="42.03688" lon="11.96518"><ele>38.0</ele><time>2026-04-24T08:50:15.064Z</time></trkpt><trkpt lat="42.0369" lon="11.9652717"><ele>38.5</ele><time>2026-04-24T08:50:16.065Z</time></trkpt><trkpt lat="42.0369083" lon="11.9653833"><ele>39.0</ele><time>2026-04-24T08:50:17.063Z</time></trkpt><trkpt lat="42.036905" lon="11.9654967"><ele>39.0</ele><time>2026-04-24T08:50:18.064Z</time></trkpt><trkpt lat="42.0368983" lon="11.96559"><ele>39.0</ele><time>2026-04-24T08:50:19.062Z</time></trkpt><trkpt lat="42.0368967" lon="11.9657317"><ele>39.0</ele><time>2026-04-24T08:50:21.063Z</time></trkpt><trkpt lat="42.0369283" lon="11.9658183"><ele>39.0</ele><time>2026-04-24T08:50:23.062Z</time></trkpt><trkpt lat="42.0369967" lon="11.965855"><ele>39.0</ele><time>2026-04-24T08:54:25.064Z</time></trkpt><trkpt lat="42.0370733" lon="11.965775"><ele>39.0</ele><time>2026-04-24T08:54:27.063Z</time></trkpt><trkpt lat="42.0371583" lon="11.9656367"><ele>39.0</ele><time>2026-04-24T08:54:29.064Z</time></trkpt><trkpt lat="42.0372083" lon="11.96555"><ele>39.0</ele><time>2026-04-24T08:54:30.064Z</time></trkpt><trkpt lat="42.037275" lon="11.9654667"><ele>39.0</ele><time>2026-04-24T08:54:31.061Z</time></trkpt><trkpt lat="42.0373433" lon="11.9653717"><ele>39.0</ele><time>2026-04-24T08:54:32.064Z</time></trkpt><trkpt lat="42.0374067" lon="11.965265"><ele>39.0</ele><time>2026-04-24T08:54:33.062Z</time></trkpt><trkpt lat="42.0374583" lon="11.9651533"><ele>41.2</ele><time>2026-04-24T08:54:34.064Z</time></trkpt><trkpt lat="42.0375" lon="11.965055"><ele>43.4</ele><time>2026-04-24T08:54:35.064Z</time></trkpt><trkpt lat="42.0375417" lon="11.9649817"><ele>45.6</ele><time>2026-04-24T08:54:36.063Z</time></trkpt><trkpt lat="42.03764" lon="11.9649217"><ele>47.8</ele><time>2026-04-24T08:54:38.064Z</time></trkpt><trkpt lat="42.0377733" lon="11.96497"><ele>50.0</ele><time>2026-04-24T08:54:40.064Z</time></trkpt><trkpt lat="42.0378567" lon="11.96502"><ele>50.0</ele><time>2026-04-24T08:54:41.063Z</time></trkpt><trkpt lat="42.0379533" lon="11.965075"><ele>50.0</ele><time>2026-04-24T08:54:42.063Z</time></trkpt><trkpt lat="42.0380533" lon="11.9651333"><ele>50.0</ele><time>2026-04-24T08:54:43.062Z</time></trkpt><trkpt lat="42.0381483" lon="11.9651967"><ele>50.0</ele><time>2026-04-24T08:54:44.064Z</time></trkpt><trkpt lat="42.0382433" lon="11.9652717"><ele>50.0</ele><time>2026-04-24T08:54:45.064Z</time></trkpt><trkpt lat="42.03834" lon="11.9653583"><ele>52.75</ele><time>2026-04-24T08:54:46.063Z</time></trkpt><trkpt lat="42.0384417" lon="11.965455"><ele>55.5</ele><time>2026-04-24T08:54:47.064Z</time></trkpt><trkpt lat="42.0385567" lon="11.9655483"><ele>58.25</ele><time>2026-04-24T08:54:48.064Z</time></trkpt><trkpt lat="42.0386817" lon="11.96562"><ele>61.0</ele><time>2026-04-24T08:54:49.063Z</time></trkpt><trkpt lat="42.03881" lon="11.9656717"><ele>61.0</ele><time>2026-04-24T08:54:50.065Z</time></trkpt><trkpt lat="42.0389283" lon="11.9656967"><ele>61.0</ele><time>2026-04-24T08:54:51.064Z</time></trkpt><trkpt lat="42.039045" lon="11.9656967"><ele>61.0</ele><time>2026-04-24T08:54:52.064Z</time></trkpt><trkpt lat="42.0391733" lon="11.9656667"><ele>61.0</ele><time>2026-04-24T08:54:53.063Z</time></trkpt><trkpt lat="42.039305" lon="11.9656217"><ele>64.2</ele><time>2026-04-24T08:54:54.063Z</time></trkpt><trkpt lat="42.03943" lon="11.9655733"><ele>67.39999999999999</ele><time>2026-04-24T08:54:55.063Z</time></trkpt><trkpt lat="42.0395433" lon="11.9655433"><ele>70.6</ele><time>2026-04-24T08:54:56.063Z</time></trkpt><trkpt lat="42.0396467" lon="11.96553"><ele>73.8</ele><time>2026-04-24T08:54:57.062Z</time></trkpt><trkpt lat="42.0397433" lon="11.9655317"><ele>77.0</ele><time>2026-04-24T08:54:58.065Z</time></trkpt><trkpt lat="42.039855" lon="11.9655533"><ele>78.75</ele><time>2026-04-24T08:54:59.064Z</time></trkpt><trkpt lat="42.039975" lon="11.9656"><ele>80.5</ele><time>2026-04-24T08:55:00.065Z</time></trkpt><trkpt lat="42.0401017" lon="11.9656617"><ele>82.25</ele><time>2026-04-24T08:55:01.066Z</time></trkpt><trkpt lat="42.0402317" lon="11.9657133"><ele>84.0</ele><time>2026-04-24T08:55:02.064Z</time></trkpt><trkpt lat="42.04037" lon="11.96576"><ele>84.0</ele><time>2026-04-24T08:55:03.066Z</time></trkpt><trkpt lat="42.04052" lon="11.9657983"><ele>84.0</ele><time>2026-04-24T08:55:04.064Z</time></trkpt><trkpt lat="42.0406733" lon="11.9658383"><ele>84.0</ele><time>2026-04-24T08:55:05.062Z</time></trkpt><trkpt lat="42.0408167" lon="11.9658817"><ele>81.25</ele><time>2026-04-24T08:55:06.064Z</time></trkpt><trkpt lat="42.0409517" lon="11.9659183"><ele>78.5</ele><time>2026-04-24T08:55:07.063Z</time></trkpt><trkpt lat="42.0410967" lon="11.96594"><ele>75.75</ele><time>2026-04-24T08:55:08.064Z</time></trkpt><trkpt lat="42.0412517" lon="11.96595"><ele>73.0</ele><time>2026-04-24T08:55:09.063Z</time></trkpt><trkpt lat="42.0414067" lon="11.9659583"><ele>73.0</ele><time>2026-04-24T08:55:10.064Z</time></trkpt><trkpt lat="42.0415467" lon="11.965975"><ele>73.0</ele><time>2026-04-24T08:55:11.065Z</time></trkpt><trkpt lat="42.04167" lon="11.9660067"><ele>73.0</ele><time>2026-04-24T08:55:12.062Z</time></trkpt><trkpt lat="42.04179" lon="11.9660583"><ele>73.0</ele><time>2026-04-24T08:55:13.063Z</time></trkpt><trkpt lat="42.0419133" lon="11.9661417"><ele>75.33333333333333</ele><time>2026-04-24T08:55:14.063Z</time></trkpt><trkpt lat="42.0420433" lon="11.9662483"><ele>77.66666666666667</ele><time>2026-04-24T08:55:15.062Z</time></trkpt><trkpt lat="42.0421733" lon="11.9663667"><ele>80.0</ele><time>2026-04-24T08:55:16.064Z</time></trkpt><trkpt lat="42.0423033" lon="11.9664867"><ele>80.0</ele><time>2026-04-24T08:55:17.064Z</time></trkpt><trkpt lat="42.0424367" lon="11.9666017"><ele>80.0</ele><time>2026-04-24T08:55:18.065Z</time></trkpt><trkpt lat="42.04257" lon="11.9667183"><ele>80.0</ele><time>2026-04-24T08:55:19.063Z</time></trkpt><trkpt lat="42.0427033" lon="11.966835"><ele>81.33333333333334</ele><time>2026-04-24T08:55:20.063Z</time></trkpt><trkpt lat="42.0428333" lon="11.9669533"><ele>82.66666666666667</ele><time>2026-04-24T08:55:21.065Z</time></trkpt><trkpt lat="42.042955" lon="11.967075"><ele>84.0</ele><time>2026-04-24T08:55:22.063Z</time></trkpt><trkpt lat="42.0430667" lon="11.9671967"><ele>84.0</ele><time>2026-04-24T08:55:23.065Z</time></trkpt><trkpt lat="42.04317" lon="11.9673133"><ele>84.0</ele><time>2026-04-24T08:55:24.064Z</time></trkpt><trkpt lat="42.0432567" lon="11.9674317"><ele>84.0</ele><time>2026-04-24T08:55:25.063Z</time></trkpt><trkpt lat="42.0433217" lon="11.9675533"><ele>84.0</ele><time>2026-04-24T08:55:26.067Z</time></trkpt><trkpt lat="42.0433767" lon="11.967665"><ele>85.0</ele><time>2026-04-24T08:55:27.064Z</time></trkpt><trkpt lat="42.0434283" lon="11.9677717"><ele>86.0</ele><time>2026-04-24T08:55:28.061Z</time></trkpt><trkpt lat="42.0434883" lon="11.9678533"><ele>87.0</ele><time>2026-04-24T08:55:29.062Z</time></trkpt><trkpt lat="42.04356" lon="11.9679083"><ele>88.0</ele><time>2026-04-24T08:55:30.063Z</time></trkpt><trkpt lat="42.0436433" lon="11.9679483"><ele>89.0</ele><time>2026-04-24T08:55:31.061Z</time></trkpt><trkpt lat="42.04374" lon="11.967965"><ele>90.0</ele><time>2026-04-24T08:55:32.063Z</time></trkpt><trkpt lat="42.0438367" lon="11.967955"><ele>90.0</ele><time>2026-04-24T08:55:33.064Z</time></trkpt><trkpt lat="42.0439317" lon="11.96793"><ele>90.0</ele><time>2026-04-24T08:55:34.063Z</time></trkpt><trkpt lat="42.0440367" lon="11.9678883"><ele>90.0</ele><time>2026-04-24T08:55:35.064Z</time></trkpt><trkpt lat="42.04414" lon="11.9678383"><ele>90.0</ele><time>2026-04-24T08:55:36.063Z</time></trkpt><trkpt lat="42.0442333" lon="11.9677917"><ele>90.0</ele><time>2026-04-24T08:55:37.063Z</time></trkpt><trkpt lat="42.0443067" lon="11.9677533"><ele>91.0</ele><time>2026-04-24T08:55:38.065Z</time></trkpt><trkpt lat="42.0443917" lon="11.9677117"><ele>92.0</ele><time>2026-04-24T08:55:40.061Z</time></trkpt><trkpt lat="42.044465" lon="11.9676883"><ele>93.0</ele><time>2026-04-24T08:56:20.064Z</time></trkpt><trkpt lat="42.0445283" lon="11.9676967"><ele>94.0</ele><time>2026-04-24T08:56:47.065Z</time></trkpt><trkpt lat="42.044645" lon="11.9677417"><ele>95.0</ele><time>2026-04-24T08:56:49.063Z</time></trkpt><trkpt lat="42.0446817" lon="11.9678567"><ele>96.0</ele><time>2026-04-24T08:56:51.064Z</time></trkpt><trkpt lat="42.0446767" lon="11.9679483"><ele>96.0</ele><time>2026-04-24T08:56:52.064Z</time></trkpt><trkpt lat="42.044665" lon="11.9680483"><ele>96.0</ele><time>2026-04-24T08:56:53.062Z</time></trkpt><trkpt lat="42.044655" lon="11.9681433"><ele>96.0</ele><time>2026-04-24T08:56:54.062Z</time></trkpt><trkpt lat="42.0447017" lon="11.96828"><ele>96.0</ele><time>2026-04-24T08:56:56.065Z</time></trkpt><trkpt lat="42.0447417" lon="11.96835"><ele>96.0</ele><time>2026-04-24T08:56:57.063Z</time></trkpt><trkpt lat="42.04476" lon="11.968485"><ele>96.0</ele><time>2026-04-24T08:56:59.064Z</time></trkpt><trkpt lat="42.0448017" lon="11.9685817"><ele>97.4</ele><time>2026-04-24T08:57:01.065Z</time></trkpt><trkpt lat="42.0449233" lon="11.96865"><ele>98.8</ele><time>2026-04-24T08:57:03.064Z</time></trkpt><trkpt lat="42.0450033" lon="11.9686717"><ele>100.2</ele><time>2026-04-24T08:57:04.064Z</time></trkpt><trkpt lat="42.0450867" lon="11.9687117"><ele>101.60000000000001</ele><time>2026-04-24T08:57:05.063Z</time></trkpt><trkpt lat="42.0451717" lon="11.968785"><ele>103.0</ele><time>2026-04-24T08:57:06.062Z</time></trkpt><trkpt lat="42.0452617" lon="11.9688817"><ele>105.5</ele><time>2026-04-24T08:57:07.063Z</time></trkpt><trkpt lat="42.0453533" lon="11.96901"><ele>108.0</ele><time>2026-04-24T08:57:08.064Z</time></trkpt><trkpt lat="42.045445" lon="11.9691267"><ele>110.5</ele><time>2026-04-24T08:57:09.063Z</time></trkpt><trkpt lat="42.0455283" lon="11.9692217"><ele>113.0</ele><time>2026-04-24T08:57:10.063Z</time></trkpt><trkpt lat="42.04564" lon="11.9692833"><ele>113.0</ele><time>2026-04-24T08:57:11.063Z</time></trkpt><trkpt lat="42.0457633" lon="11.9693333"><ele>113.0</ele><time>2026-04-24T08:57:12.063Z</time></trkpt><trkpt lat="42.0459" lon="11.96938"><ele>113.0</ele><time>2026-04-24T08:57:13.064Z</time></trkpt><trkpt lat="42.046055" lon="11.9694317"><ele>113.0</ele><time>2026-04-24T08:57:14.064Z</time></trkpt><trkpt lat="42.0462167" lon="11.9694967"><ele>115.33333333333333</ele><time>2026-04-24T08:57:15.063Z</time></trkpt><trkpt lat="42.0463717" lon="11.9695683"><ele>117.66666666666666</ele><time>2026-04-24T08:57:16.064Z</time></trkpt><trkpt lat="42.0465117" lon="11.9696383"><ele>120.0</ele><time>2026-04-24T08:57:17.062Z</time></trkpt><trkpt lat="42.046645" lon="11.9696967"><ele>122.25</ele><time>2026-04-24T08:57:18.062Z</time></trkpt><trkpt lat="42.0467683" lon="11.9697383"><ele>124.5</ele><time>2026-04-24T08:57:19.063Z</time></trkpt><trkpt lat="42.0468783" lon="11.9697633"><ele>126.75</ele><time>2026-04-24T08:57:20.063Z</time></trkpt><trkpt lat="42.046985" lon="11.9697983"><ele>129.0</ele><time>2026-04-24T08:57:21.065Z</time></trkpt><trkpt lat="42.0470917" lon="11.96986"><ele>129.0</ele><time>2026-04-24T08:57:22.066Z</time></trkpt><trkpt lat="42.047195" lon="11.96995"><ele>129.0</ele><time>2026-04-24T08:57:23.063Z</time></trkpt><trkpt lat="42.0472983" lon="11.9700633"><ele>129.0</ele><time>2026-04-24T08:57:24.064Z</time></trkpt><trkpt lat="42.0474" lon="11.970185"><ele>129.0</ele><time>2026-04-24T08:57:25.063Z</time></trkpt><trkpt lat="42.0475033" lon="11.9703067"><ele>133.25</ele><time>2026-04-24T08:57:26.066Z</time></trkpt><trkpt lat="42.0476067" lon="11.9704117"><ele>137.5</ele><time>2026-04-24T08:57:27.065Z</time></trkpt><trkpt lat="42.0477183" lon="11.970495"><ele>141.75</ele><time>2026-04-24T08:57:28.065Z</time></trkpt><trkpt lat="42.0478367" lon="11.97057"><ele>146.0</ele><time>2026-04-24T08:57:29.061Z</time></trkpt><trkpt lat="42.0479633" lon="11.9706383"><ele>146.0</ele><time>2026-04-24T08:57:30.064Z</time></trkpt><trkpt lat="42.0480983" lon="11.9707033"><ele>146.0</ele><time>2026-04-24T08:57:31.064Z</time></trkpt><trkpt lat="42.0482383" lon="11.97076"><ele>146.0</ele><time>2026-04-24T08:57:32.063Z</time></trkpt><trkpt lat="42.0483683" lon="11.970815"><ele>146.0</ele><time>2026-04-24T08:57:33.063Z</time></trkpt><trkpt lat="42.0484933" lon="11.9708817"><ele>148.2</ele><time>2026-04-24T08:57:34.063Z</time></trkpt><trkpt lat="42.04861" lon="11.97096"><ele>150.39999999999998</ele><time>2026-04-24T08:57:35.063Z</time></trkpt><trkpt lat="42.048705" lon="11.971045"><ele>152.6</ele><time>2026-04-24T08:57:36.062Z</time></trkpt><trkpt lat="42.0487783" lon="11.9711417"><ele>154.79999999999998</ele><time>2026-04-24T08:57:37.062Z</time></trkpt><trkpt lat="42.048835" lon="11.971255"><ele>157.0</ele><time>2026-04-24T08:57:38.065Z</time></trkpt><trkpt lat="42.0488833" lon="11.9713933"><ele>157.0</ele><time>2026-04-24T08:57:39.064Z</time></trkpt><trkpt lat="42.0489333" lon="11.9715567"><ele>157.0</ele><time>2026-04-24T08:57:40.063Z</time></trkpt><trkpt lat="42.0489917" lon="11.9717233"><ele>157.0</ele><time>2026-04-24T08:57:41.063Z</time></trkpt><trkpt lat="42.0490467" lon="11.9718817"><ele>157.0</ele><time>2026-04-24T08:57:42.063Z</time></trkpt><trkpt lat="42.0490933" lon="11.9720183"><ele>158.6</ele><time>2026-04-24T08:57:43.064Z</time></trkpt><trkpt lat="42.0491267" lon="11.97215"><ele>160.2</ele><time>2026-04-24T08:57:44.064Z</time></trkpt><trkpt lat="42.0491483" lon="11.9722817"><ele>161.8</ele><time>2026-04-24T08:57:45.064Z</time></trkpt><trkpt lat="42.0491533" lon="11.9724283"><ele>163.4</ele><time>2026-04-24T08:57:46.064Z</time></trkpt><trkpt lat="42.0491433" lon="11.9725833"><ele>165.0</ele><time>2026-04-24T08:57:47.064Z</time></trkpt><trkpt lat="42.049135" lon="11.9727417"><ele>165.0</ele><time>2026-04-24T08:57:48.065Z</time></trkpt><trkpt lat="42.04914" lon="11.972895"><ele>165.0</ele><time>2026-04-24T08:57:49.064Z</time></trkpt><trkpt lat="42.049165" lon="11.9730567"><ele>165.0</ele><time>2026-04-24T08:57:50.064Z</time></trkpt><trkpt lat="42.0492017" lon="11.973215"><ele>165.0</ele><time>2026-04-24T08:57:51.064Z</time></trkpt><trkpt lat="42.04925" lon="11.9733567"><ele>163.8</ele><time>2026-04-24T08:57:52.064Z</time></trkpt><trkpt lat="42.04931" lon="11.973475"><ele>162.6</ele><time>2026-04-24T08:57:53.063Z</time></trkpt><trkpt lat="42.0493783" lon="11.973565"><ele>161.4</ele><time>2026-04-24T08:57:54.065Z</time></trkpt><trkpt lat="42.0494533" lon="11.9736283"><ele>160.2</ele><time>2026-04-24T08:57:55.061Z</time></trkpt><trkpt lat="42.04954" lon="11.9736783"><ele>159.0</ele><time>2026-04-24T08:57:56.065Z</time></trkpt><trkpt lat="42.0496333" lon="11.9737317"><ele>159.0</ele><time>2026-04-24T08:57:57.063Z</time></trkpt><trkpt lat="42.0497267" lon="11.97378"><ele>159.0</ele><time>2026-04-24T08:57:58.062Z</time></trkpt><trkpt lat="42.0498183" lon="11.973835"><ele>159.0</ele><time>2026-04-24T08:57:59.062Z</time></trkpt><trkpt lat="42.0499033" lon="11.9739067"><ele>159.0</ele><time>2026-04-24T08:58:00.062Z</time></trkpt><trkpt lat="42.0499817" lon="11.974005"><ele>159.0</ele><time>2026-04-24T08:58:01.063Z</time></trkpt><trkpt lat="42.0500567" lon="11.97413"><ele>160.5</ele><time>2026-04-24T08:58:02.064Z</time></trkpt><trkpt lat="42.0501333" lon="11.9742667"><ele>162.0</ele><time>2026-04-24T08:58:03.063Z</time></trkpt><trkpt lat="42.0502167" lon="11.9744017"><ele>163.5</ele><time>2026-04-24T08:58:04.063Z</time></trkpt><trkpt lat="42.0503083" lon="11.9745317"><ele>165.0</ele><time>2026-04-24T08:58:05.066Z</time></trkpt><trkpt lat="42.0504017" lon="11.9746667"><ele>165.0</ele><time>2026-04-24T08:58:06.065Z</time></trkpt><trkpt lat="42.050495" lon="11.97479"><ele>165.0</ele><time>2026-04-24T08:58:07.064Z</time></trkpt><trkpt lat="42.0505883" lon="11.9749"><ele>165.0</ele><time>2026-04-24T08:58:08.066Z</time></trkpt><trkpt lat="42.0506767" lon="11.9749933"><ele>165.0</ele><time>2026-04-24T08:58:09.064Z</time></trkpt><trkpt lat="42.05077" lon="11.97508"><ele>166.5</ele><time>2026-04-24T08:58:10.063Z</time></trkpt><trkpt lat="42.0508717" lon="11.9751617"><ele>168.0</ele><time>2026-04-24T08:58:11.064Z</time></trkpt><trkpt lat="42.05098" lon="11.975235"><ele>169.5</ele><time>2026-04-24T08:58:12.064Z</time></trkpt><trkpt lat="42.0510933" lon="11.975295"><ele>171.0</ele><time>2026-04-24T08:58:13.063Z</time></trkpt><trkpt lat="42.0512133" lon="11.975335"><ele>171.0</ele><time>2026-04-24T08:58:14.063Z</time></trkpt><trkpt lat="42.051335" lon="11.9753733"><ele>171.0</ele><time>2026-04-24T08:58:15.063Z</time></trkpt><trkpt lat="42.0514567" lon="11.975415"><ele>171.0</ele><time>2026-04-24T08:58:16.062Z</time></trkpt><trkpt lat="42.0515767" lon="11.97547"><ele>171.0</ele><time>2026-04-24T08:58:17.065Z</time></trkpt><trkpt lat="42.0516933" lon="11.97553"><ele>172.4</ele><time>2026-04-24T08:58:18.064Z</time></trkpt><trkpt lat="42.05181" lon="11.975585"><ele>173.8</ele><time>2026-04-24T08:58:19.064Z</time></trkpt><trkpt lat="42.0519183" lon="11.9756267"><ele>175.20000000000002</ele><time>2026-04-24T08:58:20.063Z</time></trkpt><trkpt lat="42.0520167" lon="11.9756617"><ele>176.60000000000002</ele><time>2026-04-24T08:58:21.064Z</time></trkpt><trkpt lat="42.0521133" lon="11.9757067"><ele>178.0</ele><time>2026-04-24T08:58:22.062Z</time></trkpt><trkpt lat="42.0522167" lon="11.975755"><ele>178.0</ele><time>2026-04-24T08:58:23.063Z</time></trkpt><trkpt lat="42.0523267" lon="11.9757983"><ele>178.0</ele><time>2026-04-24T08:58:24.064Z</time></trkpt><trkpt lat="42.0524333" lon="11.9758333"><ele>178.0</ele><time>2026-04-24T08:58:25.064Z</time></trkpt><trkpt lat="42.0525383" lon="11.9758533"><ele>178.0</ele><time>2026-04-24T08:58:26.065Z</time></trkpt><trkpt lat="42.05265" lon="11.9758633"><ele>178.0</ele><time>2026-04-24T08:58:27.064Z</time></trkpt><trkpt lat="42.0527683" lon="11.9758617"><ele>180.25</ele><time>2026-04-24T08:58:28.063Z</time></trkpt><trkpt lat="42.05289" lon="11.9758433"><ele>182.5</ele><time>2026-04-24T08:58:29.063Z</time></trkpt><trkpt lat="42.053015" lon="11.9758133"><ele>184.75</ele><time>2026-04-24T08:58:30.064Z</time></trkpt><trkpt lat="42.0531433" lon="11.9757733"><ele>187.0</ele><time>2026-04-24T08:58:31.065Z</time></trkpt><trkpt lat="42.0532767" lon="11.97573"><ele>188.25</ele><time>2026-04-24T08:58:32.065Z</time></trkpt><trkpt lat="42.0534067" lon="11.9756833"><ele>189.5</ele><time>2026-04-24T08:58:33.065Z</time></trkpt><trkpt lat="42.05353" lon="11.975625"><ele>190.75</ele><time>2026-04-24T08:58:34.066Z</time></trkpt><trkpt lat="42.05365" lon="11.9755483"><ele>192.0</ele><time>2026-04-24T08:58:35.067Z</time></trkpt><trkpt lat="42.05376" lon="11.9754567"><ele>192.0</ele><time>2026-04-24T08:58:36.064Z</time></trkpt><trkpt lat="42.0538667" lon="11.9753483"><ele>192.0</ele><time>2026-04-24T08:58:37.063Z</time></trkpt><trkpt lat="42.053975" lon="11.97522"><ele>192.0</ele><time>2026-04-24T08:58:38.066Z</time></trkpt><trkpt lat="42.0540833" lon="11.975085"><ele>192.0</ele><time>2026-04-24T08:58:39.064Z</time></trkpt><trkpt lat="42.0541867" lon="11.97495"><ele>193.0</ele><time>2026-04-24T08:58:40.066Z</time></trkpt><trkpt lat="42.0542883" lon="11.9748317"><ele>194.0</ele><time>2026-04-24T08:58:41.066Z</time></trkpt><trkpt lat="42.0543917" lon="11.9747333"><ele>195.0</ele><time>2026-04-24T08:58:42.066Z</time></trkpt><trkpt lat="42.0545" lon="11.9746583"><ele>196.0</ele><time>2026-04-24T08:58:43.063Z</time></trkpt><trkpt lat="42.0546217" lon="11.974595"><ele>196.0</ele><time>2026-04-24T08:58:44.063Z</time></trkpt><trkpt lat="42.05475" lon="11.9745383"><ele>196.0</ele><time>2026-04-24T08:58:45.063Z</time></trkpt><trkpt lat="42.054865" lon="11.9744833"><ele>196.0</ele><time>2026-04-24T08:58:46.066Z</time></trkpt><trkpt lat="42.0549667" lon="11.97442"><ele>196.0</ele><time>2026-04-24T08:58:47.064Z</time></trkpt><trkpt lat="42.0550633" lon="11.9743433"><ele>195.25</ele><time>2026-04-24T08:58:48.063Z</time></trkpt><trkpt lat="42.0551617" lon="11.9742517"><ele>194.5</ele><time>2026-04-24T08:58:49.063Z</time></trkpt><trkpt lat="42.055265" lon="11.97416"><ele>193.75</ele><time>2026-04-24T08:58:50.065Z</time></trkpt><trkpt lat="42.055375" lon="11.9740833"><ele>193.0</ele><time>2026-04-24T08:58:51.065Z</time></trkpt><trkpt lat="42.0554883" lon="11.974025"><ele>195.0</ele><time>2026-04-24T08:58:52.064Z</time></trkpt><trkpt lat="42.0556083" lon="11.9739783"><ele>197.0</ele><time>2026-04-24T08:58:53.065Z</time></trkpt><trkpt lat="42.0557317" lon="11.9739367"><ele>199.0</ele><time>2026-04-24T08:58:54.065Z</time></trkpt><trkpt lat="42.0558583" lon="11.9739"><ele>201.0</ele><time>2026-04-24T08:58:55.064Z</time></trkpt><trkpt lat="42.0559867" lon="11.97387"><ele>201.0</ele><time>2026-04-24T08:58:56.065Z</time></trkpt><trkpt lat="42.0561117" lon="11.97385"><ele>201.0</ele><time>2026-04-24T08:58:57.064Z</time></trkpt><trkpt lat="42.05623" lon="11.9738317"><ele>201.0</ele><time>2026-04-24T08:58:58.062Z</time></trkpt><trkpt lat="42.0563483" lon="11.973805"><ele>201.0</ele><time>2026-04-24T08:58:59.065Z</time></trkpt><trkpt lat="42.056455" lon="11.9737633"><ele>201.0</ele><time>2026-04-24T08:59:00.064Z</time></trkpt><trkpt lat="42.0565483" lon="11.973705"><ele>201.0</ele><time>2026-04-24T08:59:01.064Z</time></trkpt><trkpt lat="42.056635" lon="11.9736267"><ele>201.0</ele><time>2026-04-24T08:59:02.065Z</time></trkpt><trkpt lat="42.0567167" lon="11.9735267"><ele>201.0</ele><time>2026-04-24T08:59:03.063Z</time></trkpt><trkpt lat="42.0568117" lon="11.9734283"><ele>201.0</ele><time>2026-04-24T08:59:04.064Z</time></trkpt><trkpt lat="42.05692" lon="11.973345"><ele>203.75</ele><time>2026-04-24T08:59:05.061Z</time></trkpt><trkpt lat="42.0570217" lon="11.973275"><ele>206.5</ele><time>2026-04-24T08:59:06.065Z</time></trkpt><trkpt lat="42.0571217" lon="11.9731983"><ele>209.25</ele><time>2026-04-24T08:59:07.066Z</time></trkpt><trkpt lat="42.0572183" lon="11.9731033"><ele>212.0</ele><time>2026-04-24T08:59:08.065Z</time></trkpt><trkpt lat="42.0573217" lon="11.972995"><ele>212.0</ele><time>2026-04-24T08:59:09.063Z</time></trkpt><trkpt lat="42.0574283" lon="11.972885"><ele>212.0</ele><time>2026-04-24T08:59:10.062Z</time></trkpt><trkpt lat="42.057545" lon="11.9727867"><ele>212.0</ele><time>2026-04-24T08:59:11.064Z</time></trkpt><trkpt lat="42.0576733" lon="11.9727033"><ele>212.0</ele><time>2026-04-24T08:59:12.063Z</time></trkpt><trkpt lat="42.0578" lon="11.9726233"><ele>211.0</ele><time>2026-04-24T08:59:13.064Z</time></trkpt><trkpt lat="42.057925" lon="11.9725367"><ele>210.0</ele><time>2026-04-24T08:59:14.064Z</time></trkpt><trkpt lat="42.0580417" lon="11.9724433"><ele>209.0</ele><time>2026-04-24T08:59:15.063Z</time></trkpt><trkpt lat="42.0581617" lon="11.9723333"><ele>208.0</ele><time>2026-04-24T08:59:16.064Z</time></trkpt><trkpt lat="42.0582767" lon="11.9722133"><ele>209.5</ele><time>2026-04-24T08:59:17.062Z</time></trkpt><trkpt lat="42.0583967" lon="11.9720967"><ele>211.0</ele><time>2026-04-24T08:59:18.064Z</time></trkpt><trkpt lat="42.058515" lon="11.9719817"><ele>212.5</ele><time>2026-04-24T08:59:19.066Z</time></trkpt><trkpt lat="42.0586333" lon="11.9718667"><ele>214.0</ele><time>2026-04-24T08:59:20.064Z</time></trkpt><trkpt lat="42.05875" lon="11.9717567"><ele>214.5</ele><time>2026-04-24T08:59:21.065Z</time></trkpt><trkpt lat="42.0588633" lon="11.97166"><ele>215.0</ele><time>2026-04-24T08:59:22.065Z</time></trkpt><trkpt lat="42.05898" lon="11.9715867"><ele>215.5</ele><time>2026-04-24T08:59:23.061Z</time></trkpt><trkpt lat="42.0591083" lon="11.9715283"><ele>216.0</ele><time>2026-04-24T08:59:24.064Z</time></trkpt><trkpt lat="42.05925" lon="11.9714833"><ele>216.0</ele><time>2026-04-24T08:59:25.064Z</time></trkpt><trkpt lat="42.0593933" lon="11.9714417"><ele>216.0</ele><time>2026-04-24T08:59:26.065Z</time></trkpt><trkpt lat="42.0595367" lon="11.9714"><ele>216.0</ele><time>2026-04-24T08:59:27.064Z</time></trkpt><trkpt lat="42.05966" lon="11.9713667"><ele>216.0</ele><time>2026-04-24T08:59:28.065Z</time></trkpt><trkpt lat="42.0597633" lon="11.97134"><ele>216.0</ele><time>2026-04-24T08:59:29.065Z</time></trkpt><trkpt lat="42.0598567" lon="11.9713033"><ele>216.0</ele><time>2026-04-24T08:59:30.065Z</time></trkpt><trkpt lat="42.0599533" lon="11.9712417"><ele>216.0</ele><time>2026-04-24T08:59:31.064Z</time></trkpt><trkpt lat="42.0600617" lon="11.9711583"><ele>216.0</ele><time>2026-04-24T08:59:32.067Z</time></trkpt><trkpt lat="42.0601767" lon="11.9710683"><ele>217.0</ele><time>2026-04-24T08:59:33.066Z</time></trkpt><trkpt lat="42.0603033" lon="11.9709917"><ele>218.0</ele><time>2026-04-24T08:59:34.064Z</time></trkpt><trkpt lat="42.0604267" lon="11.9709217"><ele>219.0</ele><time>2026-04-24T08:59:35.063Z</time></trkpt><trkpt lat="42.0605383" lon="11.9708533"><ele>220.0</ele><time>2026-04-24T08:59:36.064Z</time></trkpt><trkpt lat="42.0606283" lon="11.97078"><ele>219.99999999999997</ele><time>2026-04-24T08:59:37.066Z</time></trkpt><trkpt lat="42.0606967" lon="11.9706967"><ele>220.0</ele><time>2026-04-24T08:59:38.065Z</time></trkpt><trkpt lat="42.0607467" lon="11.970605"><ele>220.0</ele><time>2026-04-24T08:59:39.065Z</time></trkpt><trkpt lat="42.060795" lon="11.970515"><ele>220.0</ele><time>2026-04-24T08:59:40.063Z</time></trkpt><trkpt lat="42.0608383" lon="11.9704467"><ele>219.99999999999997</ele><time>2026-04-24T08:59:41.065Z</time></trkpt><trkpt lat="42.0608917" lon="11.9704017"><ele>220.0</ele><time>2026-04-24T08:59:42.065Z</time></trkpt><trkpt lat="42.0609633" lon="11.9703667"><ele>218.66666666666666</ele><time>2026-04-24T08:59:43.065Z</time></trkpt><trkpt lat="42.06106" lon="11.9703333"><ele>217.33333333333331</ele><time>2026-04-24T08:59:44.066Z</time></trkpt><trkpt lat="42.0611583" lon="11.970305"><ele>216.0</ele><time>2026-04-24T08:59:45.063Z</time></trkpt><trkpt lat="42.0612533" lon="11.9702733"><ele>214.66666666666669</ele><time>2026-04-24T08:59:46.064Z</time></trkpt><trkpt lat="42.0613283" lon="11.9702467"><ele>213.33333333333334</ele><time>2026-04-24T08:59:47.065Z</time></trkpt><trkpt lat="42.0613917" lon="11.97023"><ele>212.0</ele><time>2026-04-24T08:59:48.065Z</time></trkpt><trkpt lat="42.061455" lon="11.970215"><ele>212.00000000000003</ele><time>2026-04-24T08:59:50.066Z</time></trkpt><trkpt lat="42.06152" lon="11.9702717"><ele>212.0</ele><time>2026-04-24T09:00:28.064Z</time></trkpt><trkpt lat="42.061605" lon="11.9703367"><ele>212.0</ele><time>2026-04-24T09:01:07.065Z</time></trkpt><trkpt lat="42.0617083" lon="11.97035"><ele>212.0</ele><time>2026-04-24T09:01:09.061Z</time></trkpt><trkpt lat="42.0617767" lon="11.9703333"><ele>212.00000000000003</ele><time>2026-04-24T09:01:10.062Z</time></trkpt><trkpt lat="42.0618467" lon="11.9703167"><ele>212.0</ele><time>2026-04-24T09:01:11.063Z</time></trkpt><trkpt lat="42.0619233" lon="11.970305"><ele>212.33333333333334</ele><time>2026-04-24T09:01:12.064Z</time></trkpt><trkpt lat="42.062005" lon="11.9702933"><ele>212.66666666666669</ele><time>2026-04-24T09:01:13.063Z</time></trkpt><trkpt lat="42.0620783" lon="11.97028"><ele>213.0</ele><time>2026-04-24T09:01:14.064Z</time></trkpt><trkpt lat="42.0621933" lon="11.970225"><ele>213.33333333333331</ele><time>2026-04-24T09:01:16.064Z</time></trkpt><trkpt lat="42.0622733" lon="11.9701483"><ele>213.66666666666666</ele><time>2026-04-24T09:01:18.065Z</time></trkpt><trkpt lat="42.0623233" lon="11.97009"><ele>214.0</ele><time>2026-04-24T09:01:20.065Z</time></trkpt><trkpt lat="42.0623817" lon="11.97023"><ele>214.0</ele><time>2026-04-24T09:02:22.063Z</time></trkpt><trkpt lat="42.0623933" lon="11.970375"><ele>213.99999999999997</ele><time>2026-04-24T09:02:24.064Z</time></trkpt><trkpt lat="42.0624217" lon="11.9704883"><ele>213.99999999999997</ele><time>2026-04-24T09:02:26.063Z</time></trkpt><trkpt lat="42.0624567" lon="11.970565"><ele>214.0</ele><time>2026-04-24T09:02:28.065Z</time></trkpt><trkpt lat="42.0625" lon="11.970715"><ele>214.0</ele><time>2026-04-24T09:03:12.063Z</time></trkpt><trkpt lat="42.062475" lon="11.9708017"><ele>214.0</ele><time>2026-04-24T09:03:18.063Z</time></trkpt><trkpt lat="42.0625387" lon="11.9708367"><ele>214.0</ele><time>2026-04-24T09:04:00.092Z</time></trkpt><trkpt lat="42.0625258" lon="11.970751"><ele>214.0</ele><time>2026-04-24T09:05:22.189Z</time></trkpt><trkpt lat="42.0624633" lon="11.9705687"><ele>214.0</ele><time>2026-04-24T09:06:58.146Z</time></trkpt><trkpt lat="42.0624078" lon="11.9702925"><ele>214.0</ele><time>2026-04-24T09:07:02.061Z</time></trkpt><trkpt lat="42.0623956" lon="11.970198"><ele>213.99999999999997</ele><time>2026-04-24T09:07:04.121Z</time></trkpt><trkpt lat="42.0623383" lon="11.9700833"><ele>213.99999999999997</ele><time>2026-04-24T09:07:26.063Z</time></trkpt><trkpt lat="42.0622517" lon="11.9700183"><ele>214.0</ele><time>2026-04-24T09:08:04.063Z</time></trkpt><trkpt lat="42.0622017" lon="11.9698883"><ele>214.0</ele><time>2026-04-24T09:08:06.065Z</time></trkpt><trkpt lat="42.0621417" lon="11.9697867"><ele>214.66666666666666</ele><time>2026-04-24T09:08:08.065Z</time></trkpt><trkpt lat="42.0620767" lon="11.969765"><ele>215.33333333333331</ele><time>2026-04-24T09:08:09.065Z</time></trkpt><trkpt lat="42.0620083" lon="11.9697333"><ele>216.0</ele><time>2026-04-24T09:08:10.064Z</time></trkpt><trkpt lat="42.0619583" lon="11.9696783"><ele>216.66666666666669</ele><time>2026-04-24T09:08:11.065Z</time></trkpt><trkpt lat="42.0619267" lon="11.9695933"><ele>217.33333333333334</ele><time>2026-04-24T09:08:12.065Z</time></trkpt><trkpt lat="42.061905" lon="11.9694767"><ele>218.0</ele><time>2026-04-24T09:08:13.065Z</time></trkpt><trkpt lat="42.0619017" lon="11.9693183"><ele>219.5</ele><time>2026-04-24T09:08:14.064Z</time></trkpt><trkpt lat="42.0619067" lon="11.9691367"><ele>221.0</ele><time>2026-04-24T09:08:15.063Z</time></trkpt><trkpt lat="42.06191" lon="11.9689517"><ele>222.5</ele><time>2026-04-24T09:08:16.064Z</time></trkpt><trkpt lat="42.0619167" lon="11.96877"><ele>224.0</ele><time>2026-04-24T09:08:17.063Z</time></trkpt><trkpt lat="42.0619233" lon="11.9685983"><ele>224.0</ele><time>2026-04-24T09:08:18.064Z</time></trkpt><trkpt lat="42.0619333" lon="11.9684383"><ele>224.0</ele><time>2026-04-24T09:08:19.065Z</time></trkpt><trkpt lat="42.061945" lon="11.96828"><ele>224.0</ele><time>2026-04-24T09:08:20.066Z</time></trkpt><trkpt lat="42.0619567" lon="11.96813"><ele>224.0</ele><time>2026-04-24T09:08:21.067Z</time></trkpt><trkpt lat="42.0619633" lon="11.9679683"><ele>225.25</ele><time>2026-04-24T09:08:22.064Z</time></trkpt><trkpt lat="42.06197" lon="11.967785"><ele>226.5</ele><time>2026-04-24T09:08:23.064Z</time></trkpt><trkpt lat="42.06198" lon="11.9675967"><ele>227.75</ele><time>2026-04-24T09:08:24.064Z</time></trkpt><trkpt lat="42.06199" lon="11.9674167"><ele>229.0</ele><time>2026-04-24T09:08:25.066Z</time></trkpt><trkpt lat="42.0619983" lon="11.9672417"><ele>230.6</ele><time>2026-04-24T09:08:26.063Z</time></trkpt><trkpt lat="42.0620133" lon="11.96708"><ele>232.2</ele><time>2026-04-24T09:08:27.065Z</time></trkpt><trkpt lat="42.0620367" lon="11.96693"><ele>233.79999999999998</ele><time>2026-04-24T09:08:28.065Z</time></trkpt><trkpt lat="42.0620567" lon="11.9668067"><ele>235.39999999999998</ele><time>2026-04-24T09:08:29.065Z</time></trkpt><trkpt lat="42.0620683" lon="11.9667067"><ele>237.0</ele><time>2026-04-24T09:08:30.064Z</time></trkpt><trkpt lat="42.062085" lon="11.9665833"><ele>237.33333333333334</ele><time>2026-04-24T09:08:32.065Z</time></trkpt><trkpt lat="42.06212" lon="11.9665033"><ele>237.66666666666669</ele><time>2026-04-24T09:09:24.063Z</time></trkpt><trkpt lat="42.0621317" lon="11.9664033"><ele>238.0</ele><time>2026-04-24T09:09:27.064Z</time></trkpt><trkpt lat="42.0621017" lon="11.966485"><ele>238.33333333333334</ele><time>2026-04-24T09:10:12.063Z</time></trkpt><trkpt lat="42.0621267" lon="11.966405"><ele>238.66666666666669</ele><time>2026-04-24T09:10:37.062Z</time></trkpt><trkpt lat="42.0621817" lon="11.966275"><ele>239.0</ele><time>2026-04-24T09:11:09.062Z</time></trkpt><trkpt lat="42.0622167" lon="11.966185"><ele>239.0</ele><time>2026-04-24T09:11:10.063Z</time></trkpt><trkpt lat="42.0622583" lon="11.9660767"><ele>238.99999999999997</ele><time>2026-04-24T09:11:11.064Z</time></trkpt><trkpt lat="42.062295" lon="11.9659583"><ele>238.99999999999997</ele><time>2026-04-24T09:11:12.065Z</time></trkpt><trkpt lat="42.0623317" lon="11.96583"><ele>239.0</ele><time>2026-04-24T09:11:13.065Z</time></trkpt><trkpt lat="42.0623617" lon="11.9657017"><ele>239.0</ele><time>2026-04-24T09:11:14.063Z</time></trkpt><trkpt lat="42.0623917" lon="11.9655867"><ele>238.8571428571429</ele><time>2026-04-24T09:11:15.065Z</time></trkpt><trkpt lat="42.06243" lon="11.96549"><ele>238.71428571428572</ele><time>2026-04-24T09:11:16.065Z</time></trkpt><trkpt lat="42.06247" lon="11.9654133"><ele>238.57142857142858</ele><time>2026-04-24T09:11:17.065Z</time></trkpt><trkpt lat="42.06251" lon="11.9653433"><ele>238.42857142857144</ele><time>2026-04-24T09:11:18.064Z</time></trkpt><trkpt lat="42.062545" lon="11.965265"><ele>238.28571428571428</ele><time>2026-04-24T09:11:19.065Z</time></trkpt><trkpt lat="42.0625667" lon="11.9651767"><ele>238.14285714285714</ele><time>2026-04-24T09:11:20.065Z</time></trkpt><trkpt lat="42.0625867" lon="11.96509"><ele>238.0</ele><time>2026-04-24T09:11:21.064Z</time></trkpt><trkpt lat="42.0626117" lon="11.965005"><ele>237.33333333333331</ele><time>2026-04-24T09:11:22.065Z</time></trkpt><trkpt lat="42.062655" lon="11.9649"><ele>236.66666666666666</ele><time>2026-04-24T09:11:24.064Z</time></trkpt><trkpt lat="42.062735" lon="11.9647967"><ele>236.0</ele><time>2026-04-24T09:11:26.067Z</time></trkpt><trkpt lat="42.062805" lon="11.9647017"><ele>235.33333333333331</ele><time>2026-04-24T09:11:28.064Z</time></trkpt><trkpt lat="42.0628283" lon="11.964615"><ele>234.66666666666666</ele><time>2026-04-24T09:11:30.064Z</time></trkpt><trkpt lat="42.06284" lon="11.964515"><ele>234.0</ele><time>2026-04-24T09:11:32.063Z</time></trkpt><trkpt lat="42.0628417" lon="11.9644067"><ele>234.0</ele><time>2026-04-24T09:11:34.062Z</time></trkpt><trkpt lat="42.0628583" lon="11.9643167"><ele>234.0</ele><time>2026-04-24T09:11:37.063Z</time></trkpt><trkpt lat="42.0628717" lon="11.964175"><ele>234.0</ele><time>2026-04-24T09:11:40.064Z</time></trkpt><trkpt lat="42.0628683" lon="11.9640817"><ele>234.0</ele><time>2026-04-24T09:11:41.066Z</time></trkpt><trkpt lat="42.0628633" lon="11.9639967"><ele>234.0</ele><time>2026-04-24T09:11:42.067Z</time></trkpt><trkpt lat="42.0628567" lon="11.9639"><ele>234.0</ele><time>2026-04-24T09:11:43.063Z</time></trkpt><trkpt lat="42.0628417" lon="11.9638067"><ele>232.39999999999998</ele><time>2026-04-24T09:11:44.065Z</time></trkpt><trkpt lat="42.062805" lon="11.963665"><ele>230.79999999999998</ele><time>2026-04-24T09:11:46.062Z</time></trkpt><trkpt lat="42.0627833" lon="11.96353"><ele>229.20000000000002</ele><time>2026-04-24T09:11:48.064Z</time></trkpt><trkpt lat="42.0627633" lon="11.9634083"><ele>227.60000000000002</ele><time>2026-04-24T09:11:50.064Z</time></trkpt><trkpt lat="42.062725" lon="11.9632983"><ele>226.0</ele><time>2026-04-24T09:11:52.064Z</time></trkpt><trkpt lat="42.0626717" lon="11.9632233"><ele>223.33333333333331</ele><time>2026-04-24T09:11:54.064Z</time></trkpt><trkpt lat="42.0626167" lon="11.9631717"><ele>220.66666666666666</ele><time>2026-04-24T09:11:56.065Z</time></trkpt><trkpt lat="42.0625567" lon="11.9631117"><ele>218.0</ele><time>2026-04-24T09:11:58.063Z</time></trkpt><trkpt lat="42.0624967" lon="11.9630283"><ele>215.33333333333331</ele><time>2026-04-24T09:12:00.065Z</time></trkpt><trkpt lat="42.0624467" lon="11.96296"><ele>212.66666666666666</ele><time>2026-04-24T09:12:02.067Z</time></trkpt><trkpt lat="42.0623983" lon="11.9628633"><ele>210.0</ele><time>2026-04-24T09:12:05.062Z</time></trkpt><trkpt lat="42.0623817" lon="11.9627783"><ele>207.83333333333334</ele><time>2026-04-24T09:12:07.062Z</time></trkpt><trkpt lat="42.0623617" lon="11.962695"><ele>205.66666666666669</ele><time>2026-04-24T09:12:09.063Z</time></trkpt><trkpt lat="42.0623367" lon="11.962535"><ele>203.5</ele><time>2026-04-24T09:12:16.065Z</time></trkpt><trkpt lat="42.062315" lon="11.9624333"><ele>201.33333333333334</ele><time>2026-04-24T09:12:20.065Z</time></trkpt><trkpt lat="42.0622917" lon="11.9623467"><ele>199.16666666666669</ele><time>2026-04-24T09:12:23.067Z</time></trkpt><trkpt lat="42.0622383" lon="11.962255"><ele>197.0</ele><time>2026-04-24T09:12:26.064Z</time></trkpt><trkpt lat="42.0621883" lon="11.9621817"><ele>194.85714285714286</ele><time>2026-04-24T09:12:28.063Z</time></trkpt><trkpt lat="42.0621233" lon="11.9621367"><ele>192.71428571428572</ele><time>2026-04-24T09:12:30.064Z</time></trkpt><trkpt lat="42.0620517" lon="11.96212"><ele>190.57142857142856</ele><time>2026-04-24T09:12:32.064Z</time></trkpt><trkpt lat="42.0619817" lon="11.9621133"><ele>188.42857142857144</ele><time>2026-04-24T09:12:34.063Z</time></trkpt><trkpt lat="42.0619117" lon="11.9620967"><ele>186.28571428571428</ele><time>2026-04-24T09:12:36.065Z</time></trkpt><trkpt lat="42.0618467" lon="11.9620833"><ele>184.14285714285714</ele><time>2026-04-24T09:12:38.064Z</time></trkpt><trkpt lat="42.0617683" lon="11.962125"><ele>182.0</ele><time>2026-04-24T09:12:41.065Z</time></trkpt><trkpt lat="42.0617083" lon="11.9621517"><ele>182.0</ele><time>2026-04-24T09:12:44.064Z</time></trkpt><trkpt lat="42.06164" lon="11.9621433"><ele>182.0</ele><time>2026-04-24T09:14:04.063Z</time></trkpt><trkpt lat="42.0615467" lon="11.962145"><ele>182.0</ele><time>2026-04-24T09:14:51.064Z</time></trkpt><trkpt lat="42.06152" lon="11.9620133"><ele>182.0</ele><time>2026-04-24T09:14:54.065Z</time></trkpt><trkpt lat="42.0614933" lon="11.9618717"><ele>182.0</ele><time>2026-04-24T09:14:56.066Z</time></trkpt><trkpt lat="42.0614717" lon="11.9617917"><ele>182.0</ele><time>2026-04-24T09:14:57.063Z</time></trkpt><trkpt lat="42.0614483" lon="11.9617"><ele>178.71428571428572</ele><time>2026-04-24T09:14:58.064Z</time></trkpt><trkpt lat="42.06142" lon="11.9616083"><ele>175.42857142857144</ele><time>2026-04-24T09:14:59.064Z</time></trkpt><trkpt lat="42.06138" lon="11.9615183"><ele>172.14285714285714</ele><time>2026-04-24T09:15:00.065Z</time></trkpt><trkpt lat="42.0613333" lon="11.9614367"><ele>168.85714285714286</ele><time>2026-04-24T09:15:01.065Z</time></trkpt><trkpt lat="42.0612817" lon="11.9613667"><ele>165.57142857142858</ele><time>2026-04-24T09:15:02.064Z</time></trkpt><trkpt lat="42.061225" lon="11.961315"><ele>162.28571428571428</ele><time>2026-04-24T09:15:03.064Z</time></trkpt><trkpt lat="42.0611517" lon="11.9612733"><ele>159.0</ele><time>2026-04-24T09:15:04.064Z</time></trkpt><trkpt lat="42.0610783" lon="11.9612383"><ele>159.0</ele><time>2026-04-24T09:15:05.065Z</time></trkpt><trkpt lat="42.06101" lon="11.9612033"><ele>159.0</ele><time>2026-04-24T09:15:06.063Z</time></trkpt><trkpt lat="42.0609517" lon="11.9611667"><ele>159.0</ele><time>2026-04-24T09:15:07.063Z</time></trkpt><trkpt lat="42.0608833" lon="11.9610817"><ele>159.0</ele><time>2026-04-24T09:15:09.065Z</time></trkpt><trkpt lat="42.0608133" lon="11.9610017"><ele>159.0</ele><time>2026-04-24T09:15:11.065Z</time></trkpt><trkpt lat="42.060755" lon="11.96095"><ele>159.0</ele><time>2026-04-24T09:15:13.062Z</time></trkpt><trkpt lat="42.0606717" lon="11.9609283"><ele>158.5</ele><time>2026-04-24T09:15:16.064Z</time></trkpt><trkpt lat="42.0606067" lon="11.9609517"><ele>158.0</ele><time>2026-04-24T09:15:18.064Z</time></trkpt><trkpt lat="42.06051" lon="11.9609617"><ele>157.5</ele><time>2026-04-24T09:15:20.064Z</time></trkpt><trkpt lat="42.060405" lon="11.9609567"><ele>157.0</ele><time>2026-04-24T09:15:22.064Z</time></trkpt><trkpt lat="42.0603333" lon="11.9609817"><ele>156.5</ele><time>2026-04-24T09:15:24.063Z</time></trkpt><trkpt lat="42.0602783" lon="11.9610717"><ele>156.0</ele><time>2026-04-24T09:15:26.064Z</time></trkpt><trkpt lat="42.0602017" lon="11.96118"><ele>156.0</ele><time>2026-04-24T09:15:28.065Z</time></trkpt><trkpt lat="42.060105" lon="11.9612667"><ele>156.0</ele><time>2026-04-24T09:15:30.065Z</time></trkpt><trkpt lat="42.0599917" lon="11.9613083"><ele>156.0</ele><time>2026-04-24T09:15:32.064Z</time></trkpt><trkpt lat="42.05991" lon="11.9613133"><ele>156.0</ele><time>2026-04-24T09:15:33.064Z</time></trkpt><trkpt lat="42.0598217" lon="11.9613067"><ele>156.0</ele><time>2026-04-24T09:15:34.065Z</time></trkpt><trkpt lat="42.0597483" lon="11.9612867"><ele>157.2</ele><time>2026-04-24T09:15:35.063Z</time></trkpt><trkpt lat="42.0596567" lon="11.9612183"><ele>158.39999999999998</ele><time>2026-04-24T09:15:37.063Z</time></trkpt><trkpt lat="42.0595683" lon="11.9611417"><ele>159.6</ele><time>2026-04-24T09:15:39.063Z</time></trkpt><trkpt lat="42.0594883" lon="11.961105"><ele>160.79999999999998</ele><time>2026-04-24T09:15:41.063Z</time></trkpt><trkpt lat="42.0593967" lon="11.9611133"><ele>162.0</ele><time>2026-04-24T09:15:43.062Z</time></trkpt><trkpt lat="42.05931" lon="11.9611617"><ele>162.0</ele><time>2026-04-24T09:15:45.063Z</time></trkpt><trkpt lat="42.0592317" lon="11.9612367"><ele>162.0</ele><time>2026-04-24T09:15:47.065Z</time></trkpt><trkpt lat="42.0591283" lon="11.96134"><ele>162.0</ele><time>2026-04-24T09:15:49.065Z</time></trkpt><trkpt lat="42.0590733" lon="11.96139"><ele>162.0</ele><time>2026-04-24T09:15:50.064Z</time></trkpt><trkpt lat="42.0589717" lon="11.9614733"><ele>162.0</ele><time>2026-04-24T09:15:52.064Z</time></trkpt><trkpt lat="42.0588783" lon="11.961545"><ele>162.39999999999998</ele><time>2026-04-24T09:15:54.065Z</time></trkpt><trkpt lat="42.0588233" lon="11.9615917"><ele>162.79999999999998</ele><time>2026-04-24T09:15:55.065Z</time></trkpt><trkpt lat="42.058765" lon="11.9616317"><ele>163.2</ele><time>2026-04-24T09:15:56.067Z</time></trkpt><trkpt lat="42.058665" lon="11.96171"><ele>163.6</ele><time>2026-04-24T09:15:58.065Z</time></trkpt><trkpt lat="42.058565" lon="11.9617817"><ele>164.0</ele><time>2026-04-24T09:16:00.065Z</time></trkpt><trkpt lat="42.0584883" lon="11.96185"><ele>167.75</ele><time>2026-04-24T09:16:02.065Z</time></trkpt><trkpt lat="42.0583983" lon="11.9619183"><ele>171.5</ele><time>2026-04-24T09:16:04.064Z</time></trkpt><trkpt lat="42.0582883" lon="11.9619833"><ele>175.25</ele><time>2026-04-24T09:16:06.063Z</time></trkpt><trkpt lat="42.0581933" lon="11.9620517"><ele>179.0</ele><time>2026-04-24T09:16:08.065Z</time></trkpt><trkpt lat="42.0580917" lon="11.962135"><ele>179.2</ele><time>2026-04-24T09:16:10.064Z</time></trkpt><trkpt lat="42.0579917" lon="11.9622117"><ele>179.39999999999998</ele><time>2026-04-24T09:16:12.063Z</time></trkpt><trkpt lat="42.05789" lon="11.9622533"><ele>179.6</ele><time>2026-04-24T09:16:14.064Z</time></trkpt><trkpt lat="42.0577783" lon="11.9623383"><ele>179.8</ele><time>2026-04-24T09:16:16.064Z</time></trkpt><trkpt lat="42.0577333" lon="11.9623983"><ele>180.0</ele><time>2026-04-24T09:16:17.064Z</time></trkpt><trkpt lat="42.0576533" lon="11.9624683"><ele>180.0</ele><time>2026-04-24T09:16:19.062Z</time></trkpt><trkpt lat="42.057545" lon="11.9625017"><ele>180.0</ele><time>2026-04-24T09:16:21.064Z</time></trkpt><trkpt lat="42.057475" lon="11.962505"><ele>180.0</ele><time>2026-04-24T09:16:22.062Z</time></trkpt><trkpt lat="42.0574" lon="11.9625133"><ele>180.0</ele><time>2026-04-24T09:16:23.064Z</time></trkpt><trkpt lat="42.0573217" lon="11.9625117"><ele>180.0</ele><time>2026-04-24T09:16:24.064Z</time></trkpt><trkpt lat="42.0572417" lon="11.9625083"><ele>180.0</ele><time>2026-04-24T09:16:25.062Z</time></trkpt><trkpt lat="42.0571567" lon="11.9625033"><ele>180.0</ele><time>2026-04-24T09:16:26.063Z</time></trkpt><trkpt lat="42.05706" lon="11.9625017"><ele>180.0</ele><time>2026-04-24T09:16:27.065Z</time></trkpt><trkpt lat="42.0569567" lon="11.962495"><ele>180.0</ele><time>2026-04-24T09:16:28.065Z</time></trkpt><trkpt lat="42.0568517" lon="11.9624867"><ele>180.0</ele><time>2026-04-24T09:16:29.063Z</time></trkpt><trkpt lat="42.0567533" lon="11.9624767"><ele>180.0</ele><time>2026-04-24T09:16:30.064Z</time></trkpt><trkpt lat="42.0566667" lon="11.9624667"><ele>180.8</ele><time>2026-04-24T09:16:31.065Z</time></trkpt><trkpt lat="42.056585" lon="11.962465"><ele>181.6</ele><time>2026-04-24T09:16:32.064Z</time></trkpt><trkpt lat="42.0565017" lon="11.9624733"><ele>182.39999999999998</ele><time>2026-04-24T09:16:33.064Z</time></trkpt><trkpt lat="42.0564133" lon="11.96249"><ele>183.2</ele><time>2026-04-24T09:16:34.062Z</time></trkpt><trkpt lat="42.056315" lon="11.9625067"><ele>184.0</ele><time>2026-04-24T09:16:35.065Z</time></trkpt><trkpt lat="42.05621" lon="11.9625217"><ele>184.0</ele><time>2026-04-24T09:16:36.062Z</time></trkpt><trkpt lat="42.056115" lon="11.9625317"><ele>184.0</ele><time>2026-04-24T09:16:37.064Z</time></trkpt><trkpt lat="42.05603" lon="11.962535"><ele>184.0</ele><time>2026-04-24T09:16:38.063Z</time></trkpt><trkpt lat="42.0559433" lon="11.96253"><ele>184.0</ele><time>2026-04-24T09:16:39.063Z</time></trkpt><trkpt lat="42.0558517" lon="11.96253"><ele>184.0</ele><time>2026-04-24T09:16:40.063Z</time></trkpt><trkpt lat="42.0557667" lon="11.96254"><ele>184.0</ele><time>2026-04-24T09:16:41.064Z</time></trkpt><trkpt lat="42.055695" lon="11.9625617"><ele>188.33333333333334</ele><time>2026-04-24T09:16:42.064Z</time></trkpt><trkpt lat="42.0556283" lon="11.962595"><ele>192.66666666666669</ele><time>2026-04-24T09:16:43.063Z</time></trkpt><trkpt lat="42.0555567" lon="11.962625"><ele>197.0</ele><time>2026-04-24T09:16:44.062Z</time></trkpt><trkpt lat="42.0554583" lon="11.9626817"><ele>201.33333333333334</ele><time>2026-04-24T09:16:46.064Z</time></trkpt><trkpt lat="42.055425" lon="11.9627867"><ele>205.66666666666666</ele><time>2026-04-24T09:16:48.065Z</time></trkpt><trkpt lat="42.0554083" lon="11.9628767"><ele>210.0</ele><time>2026-04-24T09:16:49.064Z</time></trkpt><trkpt lat="42.0553917" lon="11.9629683"><ele>210.0</ele><time>2026-04-24T09:16:50.065Z</time></trkpt><trkpt lat="42.0553767" lon="11.96306"><ele>210.0</ele><time>2026-04-24T09:16:51.064Z</time></trkpt><trkpt lat="42.0553633" lon="11.96315"><ele>210.0</ele><time>2026-04-24T09:16:52.065Z</time></trkpt><trkpt lat="42.05532" lon="11.963295"><ele>210.0</ele><time>2026-04-24T09:16:54.064Z</time></trkpt><trkpt lat="42.055215" lon="11.9633717"><ele>210.0</ele><time>2026-04-24T09:16:56.063Z</time></trkpt><trkpt lat="42.0551433" lon="11.9633733"><ele>210.0</ele><time>2026-04-24T09:16:57.063Z</time></trkpt><trkpt lat="42.0550617" lon="11.963345"><ele>210.0</ele><time>2026-04-24T09:16:58.063Z</time></trkpt><trkpt lat="42.05498" lon="11.9633133"><ele>210.0</ele><time>2026-04-24T09:16:59.064Z</time></trkpt><trkpt lat="42.0549017" lon="11.9632933"><ele>210.0</ele><time>2026-04-24T09:17:00.064Z</time></trkpt><trkpt lat="42.05483" lon="11.9632867"><ele>210.0</ele><time>2026-04-24T09:17:01.066Z</time></trkpt><trkpt lat="42.0547317" lon="11.963335"><ele>210.0</ele><time>2026-04-24T09:17:03.063Z</time></trkpt><trkpt lat="42.0546383" lon="11.9633917"><ele>210.0</ele><time>2026-04-24T09:17:05.064Z</time></trkpt><trkpt lat="42.0545583" lon="11.96341"><ele>214.4</ele><time>2026-04-24T09:17:06.063Z</time></trkpt><trkpt lat="42.05445" lon="11.963405"><ele>218.8</ele><time>2026-04-24T09:17:07.065Z</time></trkpt><trkpt lat="42.0543317" lon="11.9633983"><ele>223.2</ele><time>2026-04-24T09:17:08.065Z</time></trkpt><trkpt lat="42.054225" lon="11.9633967"><ele>227.6</ele><time>2026-04-24T09:17:09.065Z</time></trkpt><trkpt lat="42.0541217" lon="11.9634033"><ele>232.0</ele><time>2026-04-24T09:17:10.065Z</time></trkpt><trkpt lat="42.054015" lon="11.9634133"><ele>233.0</ele><time>2026-04-24T09:17:11.063Z</time></trkpt><trkpt lat="42.0538983" lon="11.96341"><ele>234.0</ele><time>2026-04-24T09:17:12.065Z</time></trkpt><trkpt lat="42.0537767" lon="11.9634017"><ele>235.0</ele><time>2026-04-24T09:17:13.064Z</time></trkpt><trkpt lat="42.0536567" lon="11.9634"><ele>236.0</ele><time>2026-04-24T09:17:14.064Z</time></trkpt><trkpt lat="42.0535333" lon="11.963405"><ele>236.0</ele><time>2026-04-24T09:17:15.063Z</time></trkpt><trkpt lat="42.0534133" lon="11.9634133"><ele>236.00000000000003</ele><time>2026-04-24T09:17:16.062Z</time></trkpt><trkpt lat="42.053305" lon="11.9634267"><ele>236.00000000000003</ele><time>2026-04-24T09:17:17.064Z</time></trkpt><trkpt lat="42.0532067" lon="11.9634533"><ele>236.0</ele><time>2026-04-24T09:17:18.063Z</time></trkpt><trkpt lat="42.0531133" lon="11.96349"><ele>236.0</ele><time>2026-04-24T09:17:19.064Z</time></trkpt><trkpt lat="42.0530233" lon="11.9635283"><ele>234.42857142857142</ele><time>2026-04-24T09:17:20.064Z</time></trkpt><trkpt lat="42.052945" lon="11.9635583"><ele>232.8571428571429</ele><time>2026-04-24T09:17:21.064Z</time></trkpt><trkpt lat="42.052875" lon="11.96358"><ele>231.2857142857143</ele><time>2026-04-24T09:17:22.064Z</time></trkpt><trkpt lat="42.0528083" lon="11.9635917"><ele>229.71428571428572</ele><time>2026-04-24T09:17:23.064Z</time></trkpt><trkpt lat="42.0527183" lon="11.9636167"><ele>228.14285714285717</ele><time>2026-04-24T09:17:25.063Z</time></trkpt><trkpt lat="42.052655" lon="11.963625"><ele>226.5714285714286</ele><time>2026-04-24T09:17:27.062Z</time></trkpt><trkpt lat="42.052655" lon="11.963625"><ele>225.00000000000003</ele><time>2026-04-24T09:17:27.062Z</time></trkpt><trkpt lat="42.0525817" lon="11.9636133"><ele>225.0</ele><time>2026-04-24T09:18:37.063Z</time></trkpt><trkpt lat="42.05249" lon="11.9635183"><ele>225.0</ele><time>2026-04-24T09:22:59.064Z</time></trkpt><trkpt lat="42.0524283" lon="11.9634633"><ele>225.0</ele><time>2026-04-24T09:23:00.064Z</time></trkpt><trkpt lat="42.0523667" lon="11.9633833"><ele>225.0</ele><time>2026-04-24T09:23:01.064Z</time></trkpt><trkpt lat="42.0523083" lon="11.9632867"><ele>225.0</ele><time>2026-04-24T09:23:02.064Z</time></trkpt><trkpt lat="42.0522533" lon="11.9631833"><ele>222.0</ele><time>2026-04-24T09:23:03.063Z</time></trkpt><trkpt lat="42.0521983" lon="11.9630783"><ele>219.0</ele><time>2026-04-24T09:23:04.062Z</time></trkpt><trkpt lat="42.0521517" lon="11.9629817"><ele>216.0</ele><time>2026-04-24T09:23:05.065Z</time></trkpt><trkpt lat="42.0521167" lon="11.9628967"><ele>213.0</ele><time>2026-04-24T09:23:06.064Z</time></trkpt><trkpt lat="42.0520633" lon="11.9627567"><ele>210.0</ele><time>2026-04-24T09:23:08.063Z</time></trkpt><trkpt lat="42.0520017" lon="11.9626067"><ele>210.0</ele><time>2026-04-24T09:23:10.064Z</time></trkpt><trkpt lat="42.05197" lon="11.96252"><ele>210.0</ele><time>2026-04-24T09:23:11.065Z</time></trkpt><trkpt lat="42.0519383" lon="11.9624333"><ele>210.0</ele><time>2026-04-24T09:23:12.064Z</time></trkpt><trkpt lat="42.051905" lon="11.9623483"><ele>210.0</ele><time>2026-04-24T09:23:13.062Z</time></trkpt><trkpt lat="42.0518417" lon="11.9622167"><ele>210.0</ele><time>2026-04-24T09:23:15.065Z</time></trkpt><trkpt lat="42.0517867" lon="11.9621117"><ele>210.0</ele><time>2026-04-24T09:23:17.063Z</time></trkpt><trkpt lat="42.05171" lon="11.9620267"><ele>210.0</ele><time>2026-04-24T09:23:19.063Z</time></trkpt><trkpt lat="42.0516283" lon="11.9620233"><ele>210.0</ele><time>2026-04-24T09:23:21.065Z</time></trkpt><trkpt lat="42.0515533" lon="11.9620517"><ele>210.0</ele><time>2026-04-24T09:23:23.062Z</time></trkpt><trkpt lat="42.051485" lon="11.9620733"><ele>210.0</ele><time>2026-04-24T09:23:25.064Z</time></trkpt><trkpt lat="42.051405" lon="11.962105"><ele>210.0</ele><time>2026-04-24T09:23:28.063Z</time></trkpt><trkpt lat="42.0513233" lon="11.9620767"><ele>210.0</ele><time>2026-04-24T09:23:31.063Z</time></trkpt><trkpt lat="42.051235" lon="11.9620633"><ele>208.57142857142858</ele><time>2026-04-24T09:23:33.064Z</time></trkpt><trkpt lat="42.05117" lon="11.9620533"><ele>207.14285714285714</ele><time>2026-04-24T09:23:34.063Z</time></trkpt><trkpt lat="42.0511" lon="11.9620483"><ele>205.71428571428572</ele><time>2026-04-24T09:23:35.062Z</time></trkpt><trkpt lat="42.05102" lon="11.9620483"><ele>204.28571428571428</ele><time>2026-04-24T09:23:36.064Z</time></trkpt><trkpt lat="42.0509333" lon="11.9620433"><ele>202.85714285714286</ele><time>2026-04-24T09:23:37.063Z</time></trkpt><trkpt lat="42.0508567" lon="11.9620333"><ele>201.42857142857144</ele><time>2026-04-24T09:23:38.065Z</time></trkpt><trkpt lat="42.05079" lon="11.96203"><ele>200.0</ele><time>2026-04-24T09:23:39.063Z</time></trkpt><trkpt lat="42.0506733" lon="11.962075"><ele>198.83333333333334</ele><time>2026-04-24T09:23:41.063Z</time></trkpt><trkpt lat="42.0506133" lon="11.962105"><ele>197.66666666666669</ele><time>2026-04-24T09:23:42.064Z</time></trkpt><trkpt lat="42.0505317" lon="11.9621117"><ele>196.5</ele><time>2026-04-24T09:23:43.064Z</time></trkpt><trkpt lat="42.0504333" lon="11.9620983"><ele>195.33333333333331</ele><time>2026-04-24T09:23:44.063Z</time></trkpt><trkpt lat="42.0503267" lon="11.9620833"><ele>194.16666666666666</ele><time>2026-04-24T09:23:45.065Z</time></trkpt><trkpt lat="42.05023" lon="11.96208"><ele>193.0</ele><time>2026-04-24T09:23:46.062Z</time></trkpt><trkpt lat="42.0501367" lon="11.9620933"><ele>193.0</ele><time>2026-04-24T09:23:47.065Z</time></trkpt><trkpt lat="42.0500283" lon="11.9621233"><ele>193.0</ele><time>2026-04-24T09:23:48.063Z</time></trkpt><trkpt lat="42.049915" lon="11.962155"><ele>193.0</ele><time>2026-04-24T09:23:49.063Z</time></trkpt><trkpt lat="42.0498067" lon="11.962175"><ele>193.0</ele><time>2026-04-24T09:23:50.065Z</time></trkpt><trkpt lat="42.0496917" lon="11.9621883"><ele>192.60000000000002</ele><time>2026-04-24T09:23:51.063Z</time></trkpt><trkpt lat="42.0495767" lon="11.9622"><ele>192.20000000000002</ele><time>2026-04-24T09:23:52.062Z</time></trkpt><trkpt lat="42.0494667" lon="11.9622033"><ele>191.8</ele><time>2026-04-24T09:23:53.066Z</time></trkpt><trkpt lat="42.0493583" lon="11.962205"><ele>191.4</ele><time>2026-04-24T09:23:54.066Z</time></trkpt><trkpt lat="42.0492567" lon="11.9622017"><ele>191.0</ele><time>2026-04-24T09:23:55.065Z</time></trkpt><trkpt lat="42.049155" lon="11.9621917"><ele>190.83333333333331</ele><time>2026-04-24T09:23:56.065Z</time></trkpt><trkpt lat="42.049065" lon="11.96218"><ele>190.66666666666666</ele><time>2026-04-24T09:23:57.063Z</time></trkpt><trkpt lat="42.0489867" lon="11.9621617"><ele>190.5</ele><time>2026-04-24T09:23:58.062Z</time></trkpt><trkpt lat="42.04892" lon="11.962135"><ele>190.33333333333334</ele><time>2026-04-24T09:23:59.064Z</time></trkpt><trkpt lat="42.0488517" lon="11.9621167"><ele>190.16666666666669</ele><time>2026-04-24T09:24:00.062Z</time></trkpt><trkpt lat="42.048775" lon="11.9621133"><ele>190.0</ele><time>2026-04-24T09:24:01.062Z</time></trkpt><trkpt lat="42.048695" lon="11.9621167"><ele>190.0</ele><time>2026-04-24T09:24:02.064Z</time></trkpt><trkpt lat="42.048615" lon="11.9621083"><ele>190.0</ele><time>2026-04-24T09:24:03.063Z</time></trkpt><trkpt lat="42.0485383" lon="11.9620767"><ele>190.0</ele><time>2026-04-24T09:24:04.064Z</time></trkpt><trkpt lat="42.0484833" lon="11.9620183"><ele>190.0</ele><time>2026-04-24T09:24:05.066Z</time></trkpt><trkpt lat="42.0484267" lon="11.961875"><ele>190.0</ele><time>2026-04-24T09:24:07.063Z</time></trkpt><trkpt lat="42.0484317" lon="11.9617333"><ele>190.33333333333334</ele><time>2026-04-24T09:24:09.062Z</time></trkpt><trkpt lat="42.0484817" lon="11.9615983"><ele>190.66666666666669</ele><time>2026-04-24T09:24:11.063Z</time></trkpt><trkpt lat="42.0485333" lon="11.9614633"><ele>191.0</ele><time>2026-04-24T09:24:13.063Z</time></trkpt><trkpt lat="42.0485617" lon="11.9613833"><ele>191.33333333333334</ele><time>2026-04-24T09:24:14.065Z</time></trkpt><trkpt lat="42.04859" lon="11.9613"><ele>191.66666666666666</ele><time>2026-04-24T09:24:15.064Z</time></trkpt><trkpt lat="42.0486167" lon="11.9612117"><ele>192.0</ele><time>2026-04-24T09:24:16.064Z</time></trkpt><trkpt lat="42.048645" lon="11.9611217"><ele>192.0</ele><time>2026-04-24T09:24:17.064Z</time></trkpt><trkpt lat="42.04867" lon="11.9610367"><ele>192.0</ele><time>2026-04-24T09:24:18.064Z</time></trkpt><trkpt lat="42.0487167" lon="11.960885"><ele>192.0</ele><time>2026-04-24T09:24:20.063Z</time></trkpt><trkpt lat="42.04874" lon="11.9608017"><ele>192.0</ele><time>2026-04-24T09:24:21.062Z</time></trkpt><trkpt lat="42.0487617" lon="11.96072"><ele>192.0</ele><time>2026-04-24T09:24:22.063Z</time></trkpt><trkpt lat="42.048805" lon="11.9605783"><ele>192.0</ele><time>2026-04-24T09:24:24.062Z</time></trkpt><trkpt lat="42.048875" lon="11.96044"><ele>191.16666666666666</ele><time>2026-04-24T09:24:26.064Z</time></trkpt><trkpt lat="42.0489117" lon="11.96037"><ele>190.33333333333334</ele><time>2026-04-24T09:24:27.062Z</time></trkpt><trkpt lat="42.0489467" lon="11.9602917"><ele>189.5</ele><time>2026-04-24T09:24:28.067Z</time></trkpt><trkpt lat="42.0489833" lon="11.9602117"><ele>188.66666666666669</ele><time>2026-04-24T09:24:29.062Z</time></trkpt><trkpt lat="42.0490217" lon="11.9601433"><ele>187.83333333333334</ele><time>2026-04-24T09:24:30.064Z</time></trkpt><trkpt lat="42.0490617" lon="11.9599867"><ele>187.0</ele><time>2026-04-24T09:24:32.064Z</time></trkpt><trkpt lat="42.04907" lon="11.9598983"><ele>185.0</ele><time>2026-04-24T09:24:33.064Z</time></trkpt><trkpt lat="42.0490783" lon="11.9597567"><ele>183.0</ele><time>2026-04-24T09:24:35.065Z</time></trkpt><trkpt lat="42.049085" lon="11.9596317"><ele>181.0</ele><time>2026-04-24T09:24:37.063Z</time></trkpt><trkpt lat="42.0490933" lon="11.9594867"><ele>179.0</ele><time>2026-04-24T09:24:39.066Z</time></trkpt><trkpt lat="42.049115" lon="11.9593417"><ele>177.0</ele><time>2026-04-24T09:24:41.064Z</time></trkpt><trkpt lat="42.04915" lon="11.9592317"><ele>174.33333333333334</ele><time>2026-04-24T09:24:43.064Z</time></trkpt><trkpt lat="42.0491833" lon="11.959115"><ele>171.66666666666666</ele><time>2026-04-24T09:24:45.063Z</time></trkpt><trkpt lat="42.04922" lon="11.9590067"><ele>169.0</ele><time>2026-04-24T09:24:47.063Z</time></trkpt><trkpt lat="42.0492767" lon="11.9589233"><ele>166.33333333333331</ele><time>2026-04-24T09:24:49.061Z</time></trkpt><trkpt lat="42.0493267" lon="11.958865"><ele>163.66666666666666</ele><time>2026-04-24T09:24:51.062Z</time></trkpt><trkpt lat="42.0493633" lon="11.9587767"><ele>161.0</ele><time>2026-04-24T09:24:53.063Z</time></trkpt><trkpt lat="42.0493917" lon="11.9586817"><ele>161.0</ele><time>2026-04-24T09:24:55.064Z</time></trkpt><trkpt lat="42.0494133" lon="11.9585917"><ele>161.0</ele><time>2026-04-24T09:24:57.064Z</time></trkpt><trkpt lat="42.0494383" lon="11.95847"><ele>161.0</ele><time>2026-04-24T09:25:00.064Z</time></trkpt><trkpt lat="42.049445" lon="11.9583367"><ele>161.0</ele><time>2026-04-24T09:25:03.063Z</time></trkpt><trkpt lat="42.049465" lon="11.9582283"><ele>161.0</ele><time>2026-04-24T09:25:05.064Z</time></trkpt><trkpt lat="42.0494517" lon="11.95811"><ele>161.0</ele><time>2026-04-24T09:25:07.064Z</time></trkpt><trkpt lat="42.0494167" lon="11.95798"><ele>158.8</ele><time>2026-04-24T09:25:09.063Z</time></trkpt><trkpt lat="42.0494083" lon="11.957855"><ele>156.60000000000002</ele><time>2026-04-24T09:25:11.064Z</time></trkpt><trkpt lat="42.0494717" lon="11.95773"><ele>154.4</ele><time>2026-04-24T09:25:13.063Z</time></trkpt><trkpt lat="42.04952" lon="11.9575933"><ele>152.2</ele><time>2026-04-24T09:25:15.063Z</time></trkpt><trkpt lat="42.049565" lon="11.9574533"><ele>150.0</ele><time>2026-04-24T09:25:17.063Z</time></trkpt><trkpt lat="42.0495667" lon="11.9573"><ele>148.0</ele><time>2026-04-24T09:25:19.064Z</time></trkpt><trkpt lat="42.0495867" lon="11.95717"><ele>146.0</ele><time>2026-04-24T09:25:21.065Z</time></trkpt><trkpt lat="42.049605" lon="11.9570383"><ele>144.0</ele><time>2026-04-24T09:25:23.064Z</time></trkpt><trkpt lat="42.0495783" lon="11.956895"><ele>142.0</ele><time>2026-04-24T09:25:25.064Z</time></trkpt><trkpt lat="42.0495183" lon="11.9568033"><ele>140.0</ele><time>2026-04-24T09:25:27.064Z</time></trkpt><trkpt lat="42.04944" lon="11.95677"><ele>140.0</ele><time>2026-04-24T09:25:29.064Z</time></trkpt><trkpt lat="42.0493317" lon="11.9567383"><ele>140.0</ele><time>2026-04-24T09:25:31.063Z</time></trkpt><trkpt lat="42.0492333" lon="11.9566883"><ele>140.0</ele><time>2026-04-24T09:25:33.064Z</time></trkpt><trkpt lat="42.0491383" lon="11.9566867"><ele>140.0</ele><time>2026-04-24T09:25:35.064Z</time></trkpt><trkpt lat="42.0490417" lon="11.9566417"><ele>140.0</ele><time>2026-04-24T09:25:37.064Z</time></trkpt><trkpt lat="42.0489417" lon="11.9565233"><ele>138.33333333333331</ele><time>2026-04-24T09:25:39.064Z</time></trkpt><trkpt lat="42.0488783" lon="11.9564617"><ele>136.66666666666666</ele><time>2026-04-24T09:25:40.063Z</time></trkpt><trkpt lat="42.0488133" lon="11.9564183"><ele>135.0</ele><time>2026-04-24T09:25:41.065Z</time></trkpt><trkpt lat="42.0487417" lon="11.9563833"><ele>133.33333333333334</ele><time>2026-04-24T09:25:42.062Z</time></trkpt><trkpt lat="42.048665" lon="11.95635"><ele>131.66666666666669</ele><time>2026-04-24T09:25:43.064Z</time></trkpt><trkpt lat="42.04858" lon="11.956315"><ele>130.0</ele><time>2026-04-24T09:25:44.066Z</time></trkpt><trkpt lat="42.0484933" lon="11.956275"><ele>130.0</ele><time>2026-04-24T09:25:45.065Z</time></trkpt><trkpt lat="42.0484167" lon="11.9562233"><ele>130.0</ele><time>2026-04-24T09:25:46.062Z</time></trkpt><trkpt lat="42.0483517" lon="11.9561617"><ele>130.0</ele><time>2026-04-24T09:25:47.064Z</time></trkpt><trkpt lat="42.0482983" lon="11.9561133"><ele>130.0</ele><time>2026-04-24T09:25:48.064Z</time></trkpt><trkpt lat="42.0481983" lon="11.9560683"><ele>130.0</ele><time>2026-04-24T09:25:50.062Z</time></trkpt><trkpt lat="42.04813" lon="11.9560633"><ele>130.0</ele><time>2026-04-24T09:25:51.062Z</time></trkpt><trkpt lat="42.0480567" lon="11.9560483"><ele>129.4</ele><time>2026-04-24T09:25:52.065Z</time></trkpt><trkpt lat="42.0479883" lon="11.9560283"><ele>128.8</ele><time>2026-04-24T09:25:53.063Z</time></trkpt><trkpt lat="42.0478767" lon="11.9560017"><ele>128.2</ele><time>2026-04-24T09:25:55.064Z</time></trkpt><trkpt lat="42.0477967" lon="11.956055"><ele>127.6</ele><time>2026-04-24T09:25:57.065Z</time></trkpt><trkpt lat="42.0477217" lon="11.9561517"><ele>127.0</ele><time>2026-04-24T09:25:59.064Z</time></trkpt><trkpt lat="42.047625" lon="11.956175"><ele>127.00000000000001</ele><time>2026-04-24T09:26:01.064Z</time></trkpt><trkpt lat="42.0475483" lon="11.9561083"><ele>127.0</ele><time>2026-04-24T09:26:03.064Z</time></trkpt><trkpt lat="42.0475283" lon="11.9560217"><ele>127.0</ele><time>2026-04-24T09:26:04.062Z</time></trkpt><trkpt lat="42.0474767" lon="11.9558783"><ele>127.0</ele><time>2026-04-24T09:26:06.064Z</time></trkpt><trkpt lat="42.0474233" lon="11.9558267"><ele>127.00000000000001</ele><time>2026-04-24T09:26:07.062Z</time></trkpt><trkpt lat="42.0473483" lon="11.9557767"><ele>127.0</ele><time>2026-04-24T09:26:08.064Z</time></trkpt><trkpt lat="42.0472583" lon="11.95571"><ele>126.39999999999999</ele><time>2026-04-24T09:26:09.065Z</time></trkpt><trkpt lat="42.0471683" lon="11.955625"><ele>125.79999999999998</ele><time>2026-04-24T09:26:10.063Z</time></trkpt><trkpt lat="42.047075" lon="11.9555417"><ele>125.2</ele><time>2026-04-24T09:26:11.064Z</time></trkpt><trkpt lat="42.0469833" lon="11.95547"><ele>124.6</ele><time>2026-04-24T09:26:12.063Z</time></trkpt><trkpt lat="42.0469017" lon="11.9554017"><ele>124.0</ele><time>2026-04-24T09:26:13.063Z</time></trkpt><trkpt lat="42.0468367" lon="11.9553233"><ele>124.00000000000001</ele><time>2026-04-24T09:26:14.064Z</time></trkpt><trkpt lat="42.0467783" lon="11.9552433"><ele>124.0</ele><time>2026-04-24T09:26:15.065Z</time></trkpt><trkpt lat="42.0467167" lon="11.9551817"><ele>124.0</ele><time>2026-04-24T09:26:16.064Z</time></trkpt><trkpt lat="42.046645" lon="11.9551417"><ele>124.0</ele><time>2026-04-24T09:26:17.062Z</time></trkpt><trkpt lat="42.046555" lon="11.9551133"><ele>124.00000000000001</ele><time>2026-04-24T09:26:18.065Z</time></trkpt><trkpt lat="42.046465" lon="11.95507"><ele>124.0</ele><time>2026-04-24T09:26:19.062Z</time></trkpt><trkpt lat="42.04638" lon="11.9550083"><ele>121.4</ele><time>2026-04-24T09:26:20.064Z</time></trkpt><trkpt lat="42.0462933" lon="11.9549567"><ele>118.80000000000001</ele><time>2026-04-24T09:26:21.064Z</time></trkpt><trkpt lat="42.0462" lon="11.9549083"><ele>116.19999999999999</ele><time>2026-04-24T09:26:22.062Z</time></trkpt><trkpt lat="42.04611" lon="11.9548683"><ele>113.6</ele><time>2026-04-24T09:26:23.064Z</time></trkpt><trkpt lat="42.0460233" lon="11.954835"><ele>111.0</ele><time>2026-04-24T09:26:24.064Z</time></trkpt><trkpt lat="42.04594" lon="11.954805"><ele>111.0</ele><time>2026-04-24T09:26:25.065Z</time></trkpt><trkpt lat="42.0458617" lon="11.9547733"><ele>111.0</ele><time>2026-04-24T09:26:26.066Z</time></trkpt><trkpt lat="42.04579" lon="11.9547533"><ele>111.0</ele><time>2026-04-24T09:26:27.063Z</time></trkpt><trkpt lat="42.0457233" lon="11.9547567"><ele>111.0</ele><time>2026-04-24T09:26:28.063Z</time></trkpt><trkpt lat="42.0456517" lon="11.9547967"><ele>111.0</ele><time>2026-04-24T09:26:29.065Z</time></trkpt><trkpt lat="42.04558" lon="11.954825"><ele>111.0</ele><time>2026-04-24T09:26:30.063Z</time></trkpt><trkpt lat="42.0455083" lon="11.9548267"><ele>111.0</ele><time>2026-04-24T09:26:31.062Z</time></trkpt><trkpt lat="42.0454317" lon="11.9547767"><ele>109.83333333333333</ele><time>2026-04-24T09:26:32.064Z</time></trkpt><trkpt lat="42.045355" lon="11.9547183"><ele>108.66666666666666</ele><time>2026-04-24T09:26:33.066Z</time></trkpt><trkpt lat="42.0452767" lon="11.95467"><ele>107.5</ele><time>2026-04-24T09:26:34.062Z</time></trkpt><trkpt lat="42.0452033" lon="11.9546217"><ele>106.33333333333333</ele><time>2026-04-24T09:26:35.064Z</time></trkpt><trkpt lat="42.0451467" lon="11.9545767"><ele>105.16666666666666</ele><time>2026-04-24T09:26:36.065Z</time></trkpt><trkpt lat="42.0450933" lon="11.95449"><ele>104.0</ele><time>2026-04-24T09:26:38.064Z</time></trkpt><trkpt lat="42.0451183" lon="11.9544067"><ele>103.99999999999999</ele><time>2026-04-24T09:26:40.065Z</time></trkpt><trkpt lat="42.04522" lon="11.9543533"><ele>104.0</ele><time>2026-04-24T09:26:42.063Z</time></trkpt><trkpt lat="42.045295" lon="11.95432"><ele>104.0</ele><time>2026-04-24T09:26:43.068Z</time></trkpt><trkpt lat="42.0453783" lon="11.95429"><ele>104.0</ele><time>2026-04-24T09:26:44.066Z</time></trkpt><trkpt lat="42.0454567" lon="11.954265"><ele>103.99999999999999</ele><time>2026-04-24T09:26:45.062Z</time></trkpt><trkpt lat="42.045525" lon="11.95425"><ele>104.0</ele><time>2026-04-24T09:26:46.063Z</time></trkpt><trkpt lat="42.0455917" lon="11.9542467"><ele>103.99999999999999</ele><time>2026-04-24T09:26:47.063Z</time></trkpt><trkpt lat="42.0456583" lon="11.9542333"><ele>104.0</ele><time>2026-04-24T09:26:48.062Z</time></trkpt><trkpt lat="42.0457383" lon="11.954135"><ele>104.0</ele><time>2026-04-24T09:26:50.064Z</time></trkpt><trkpt lat="42.0457583" lon="11.9540467"><ele>104.0</ele><time>2026-04-24T09:26:51.064Z</time></trkpt><trkpt lat="42.0457667" lon="11.9539533"><ele>103.99999999999999</ele><time>2026-04-24T09:26:52.064Z</time></trkpt><trkpt lat="42.0457717" lon="11.95378"><ele>104.0</ele><time>2026-04-24T09:26:54.063Z</time></trkpt><trkpt lat="42.0457783" lon="11.953685"><ele>103.0</ele><time>2026-04-24T09:26:55.064Z</time></trkpt><trkpt lat="42.0457883" lon="11.953585"><ele>102.0</ele><time>2026-04-24T09:26:56.062Z</time></trkpt><trkpt lat="42.045805" lon="11.95349"><ele>101.0</ele><time>2026-04-24T09:26:57.065Z</time></trkpt><trkpt lat="42.0458267" lon="11.9534033"><ele>100.0</ele><time>2026-04-24T09:26:58.064Z</time></trkpt><trkpt lat="42.0458483" lon="11.9533183"><ele>99.0</ele><time>2026-04-24T09:26:59.065Z</time></trkpt><trkpt lat="42.04587" lon="11.9532317"><ele>98.0</ele><time>2026-04-24T09:27:00.064Z</time></trkpt><trkpt lat="42.045895" lon="11.9531517"><ele>97.0</ele><time>2026-04-24T09:27:01.064Z</time></trkpt><trkpt lat="42.0459233" lon="11.953065"><ele>94.50000000000001</ele><time>2026-04-24T09:27:02.064Z</time></trkpt><trkpt lat="42.0459533" lon="11.952965"><ele>92.0</ele><time>2026-04-24T09:27:03.062Z</time></trkpt><trkpt lat="42.0459817" lon="11.9528533"><ele>89.5</ele><time>2026-04-24T09:27:04.063Z</time></trkpt><trkpt lat="42.0460083" lon="11.9527433"><ele>87.0</ele><time>2026-04-24T09:27:05.064Z</time></trkpt><trkpt lat="42.0460367" lon="11.952645"><ele>84.5</ele><time>2026-04-24T09:27:06.064Z</time></trkpt><trkpt lat="42.0460633" lon="11.9525567"><ele>82.0</ele><time>2026-04-24T09:27:07.062Z</time></trkpt><trkpt lat="42.0460883" lon="11.9524567"><ele>81.0</ele><time>2026-04-24T09:27:08.063Z</time></trkpt><trkpt lat="42.046105" lon="11.9523483"><ele>80.0</ele><time>2026-04-24T09:27:09.064Z</time></trkpt><trkpt lat="42.0461183" lon="11.9522383"><ele>79.0</ele><time>2026-04-24T09:27:10.064Z</time></trkpt><trkpt lat="42.0461333" lon="11.95213"><ele>78.0</ele><time>2026-04-24T09:27:11.064Z</time></trkpt><trkpt lat="42.04615" lon="11.95203"><ele>77.0</ele><time>2026-04-24T09:27:12.064Z</time></trkpt><trkpt lat="42.0461717" lon="11.9519283"><ele>76.0</ele><time>2026-04-24T09:27:13.065Z</time></trkpt><trkpt lat="42.046195" lon="11.9518117"><ele>74.8</ele><time>2026-04-24T09:27:14.063Z</time></trkpt><trkpt lat="42.0462167" lon="11.9516817"><ele>73.6</ele><time>2026-04-24T09:27:15.064Z</time></trkpt><trkpt lat="42.046235" lon="11.9515433"><ele>72.4</ele><time>2026-04-24T09:27:16.062Z</time></trkpt><trkpt lat="42.0462517" lon="11.9514067"><ele>71.2</ele><time>2026-04-24T09:27:17.065Z</time></trkpt><trkpt lat="42.04627" lon="11.9512833"><ele>70.0</ele><time>2026-04-24T09:27:18.066Z</time></trkpt><trkpt lat="42.046285" lon="11.9511683"><ele>70.0</ele><time>2026-04-24T09:27:19.066Z</time></trkpt><trkpt lat="42.0462917" lon="11.9510517"><ele>70.0</ele><time>2026-04-24T09:27:20.064Z</time></trkpt><trkpt lat="42.0462933" lon="11.950935"><ele>70.0</ele><time>2026-04-24T09:27:21.065Z</time></trkpt><trkpt lat="42.0462983" lon="11.95083"><ele>70.0</ele><time>2026-04-24T09:27:22.066Z</time></trkpt><trkpt lat="42.0463167" lon="11.950745"><ele>70.0</ele><time>2026-04-24T09:27:23.065Z</time></trkpt><trkpt lat="42.0463433" lon="11.9506467"><ele>70.0</ele><time>2026-04-24T09:27:24.067Z</time></trkpt><trkpt lat="42.0463683" lon="11.95054"><ele>69.33333333333333</ele><time>2026-04-24T09:27:25.064Z</time></trkpt><trkpt lat="42.04639" lon="11.9504333"><ele>68.66666666666666</ele><time>2026-04-24T09:27:26.066Z</time></trkpt><trkpt lat="42.0464133" lon="11.9503333"><ele>68.0</ele><time>2026-04-24T09:27:27.065Z</time></trkpt><trkpt lat="42.04644" lon="11.9502433"><ele>67.33333333333333</ele><time>2026-04-24T09:27:28.064Z</time></trkpt><trkpt lat="42.0464667" lon="11.9501583"><ele>66.66666666666667</ele><time>2026-04-24T09:27:29.064Z</time></trkpt><trkpt lat="42.04648" lon="11.950075"><ele>66.0</ele><time>2026-04-24T09:27:30.065Z</time></trkpt><trkpt lat="42.0464517" lon="11.9499333"><ele>64.39999999999999</ele><time>2026-04-24T09:27:32.064Z</time></trkpt><trkpt lat="42.0463917" lon="11.9498283"><ele>62.8</ele><time>2026-04-24T09:27:34.063Z</time></trkpt><trkpt lat="42.0463783" lon="11.949685"><ele>61.199999999999996</ele><time>2026-04-24T09:27:36.063Z</time></trkpt><trkpt lat="42.0463683" lon="11.9495233"><ele>59.599999999999994</ele><time>2026-04-24T09:27:38.064Z</time></trkpt><trkpt lat="42.0463567" lon="11.9494333"><ele>58.0</ele><time>2026-04-24T09:27:39.062Z</time></trkpt><trkpt lat="42.0463367" lon="11.9493367"><ele>57.99999999999999</ele><time>2026-04-24T09:27:40.064Z</time></trkpt><trkpt lat="42.0463033" lon="11.949245"><ele>58.0</ele><time>2026-04-24T09:27:41.065Z</time></trkpt><trkpt lat="42.0462783" lon="11.9491617"><ele>58.0</ele><time>2026-04-24T09:27:42.063Z</time></trkpt><trkpt lat="42.046255" lon="11.94906"><ele>58.0</ele><time>2026-04-24T09:27:44.064Z</time></trkpt><trkpt lat="42.046265" lon="11.94894"><ele>57.99999999999999</ele><time>2026-04-24T09:27:47.063Z</time></trkpt><trkpt lat="42.0462983" lon="11.9488"><ele>58.0</ele><time>2026-04-24T09:27:49.065Z</time></trkpt><trkpt lat="42.0463283" lon="11.94872"><ele>57.166666666666664</ele><time>2026-04-24T09:27:50.065Z</time></trkpt><trkpt lat="42.046375" lon="11.9486517"><ele>56.33333333333333</ele><time>2026-04-24T09:27:51.064Z</time></trkpt><trkpt lat="42.0464333" lon="11.9486067"><ele>55.5</ele><time>2026-04-24T09:27:52.064Z</time></trkpt><trkpt lat="42.0465283" lon="11.9485467"><ele>54.66666666666667</ele><time>2026-04-24T09:27:54.065Z</time></trkpt><trkpt lat="42.046615" lon="11.9485417"><ele>53.833333333333336</ele><time>2026-04-24T09:27:56.065Z</time></trkpt><trkpt lat="42.0467217" lon="11.9485717"><ele>53.0</ele><time>2026-04-24T09:27:58.064Z</time></trkpt><trkpt lat="42.04681" lon="11.9486117"><ele>53.0</ele><time>2026-04-24T09:28:00.064Z</time></trkpt><trkpt lat="42.0468583" lon="11.9487017"><ele>53.0</ele><time>2026-04-24T09:28:02.063Z</time></trkpt><trkpt lat="42.0468783" lon="11.9487867"><ele>53.0</ele><time>2026-04-24T09:28:03.064Z</time></trkpt><trkpt lat="42.0469067" lon="11.9488717"><ele>53.0</ele><time>2026-04-24T09:28:04.066Z</time></trkpt><trkpt lat="42.0469367" lon="11.948955"><ele>53.0</ele><time>2026-04-24T09:28:05.063Z</time></trkpt><trkpt lat="42.0469833" lon="11.9490183"><ele>53.0</ele><time>2026-04-24T09:28:06.064Z</time></trkpt><trkpt lat="42.0470383" lon="11.9490817"><ele>53.0</ele><time>2026-04-24T09:28:07.066Z</time></trkpt><trkpt lat="42.0470883" lon="11.9491483"><ele>53.285714285714285</ele><time>2026-04-24T09:28:08.066Z</time></trkpt><trkpt lat="42.047135" lon="11.9492167"><ele>53.57142857142857</ele><time>2026-04-24T09:28:09.065Z</time></trkpt><trkpt lat="42.0471833" lon="11.9492883"><ele>53.857142857142854</ele><time>2026-04-24T09:28:10.063Z</time></trkpt><trkpt lat="42.04723" lon="11.9493633"><ele>54.14285714285714</ele><time>2026-04-24T09:28:11.066Z</time></trkpt><trkpt lat="42.047275" lon="11.9494417"><ele>54.42857142857143</ele><time>2026-04-24T09:28:12.066Z</time></trkpt><trkpt lat="42.0473133" lon="11.949525"><ele>54.71428571428571</ele><time>2026-04-24T09:28:13.065Z</time></trkpt><trkpt lat="42.0473533" lon="11.94961"><ele>55.0</ele><time>2026-04-24T09:28:14.065Z</time></trkpt><trkpt lat="42.0473967" lon="11.9496817"><ele>54.99999999999999</ele><time>2026-04-24T09:28:15.064Z</time></trkpt><trkpt lat="42.0474467" lon="11.9497367"><ele>55.0</ele><time>2026-04-24T09:28:16.065Z</time></trkpt><trkpt lat="42.0475467" lon="11.9498283"><ele>55.0</ele><time>2026-04-24T09:28:18.064Z</time></trkpt><trkpt lat="42.047645" lon="11.9499167"><ele>55.0</ele><time>2026-04-24T09:28:20.066Z</time></trkpt><trkpt lat="42.047695" lon="11.949975"><ele>54.99999999999999</ele><time>2026-04-24T09:28:21.066Z</time></trkpt><trkpt lat="42.0477517" lon="11.950035"><ele>55.0</ele><time>2026-04-24T09:28:22.064Z</time></trkpt><trkpt lat="42.047805" lon="11.950095"><ele>55.857142857142854</ele><time>2026-04-24T09:28:23.065Z</time></trkpt><trkpt lat="42.0478633" lon="11.9501567"><ele>56.71428571428571</ele><time>2026-04-24T09:28:24.065Z</time></trkpt><trkpt lat="42.0479133" lon="11.9502233"><ele>57.57142857142857</ele><time>2026-04-24T09:28:25.066Z</time></trkpt><trkpt lat="42.04796" lon="11.95029"><ele>58.42857142857142</ele><time>2026-04-24T09:28:26.066Z</time></trkpt><trkpt lat="42.0480133" lon="11.9503433"><ele>59.285714285714285</ele><time>2026-04-24T09:28:27.064Z</time></trkpt><trkpt lat="42.048075" lon="11.95039"><ele>60.14285714285713</ele><time>2026-04-24T09:28:28.064Z</time></trkpt><trkpt lat="42.048145" lon="11.9504367"><ele>60.99999999999999</ele><time>2026-04-24T09:28:29.065Z</time></trkpt><trkpt lat="42.0482183" lon="11.9504717"><ele>60.99999999999999</ele><time>2026-04-24T09:28:30.064Z</time></trkpt><trkpt lat="42.0482917" lon="11.950505"><ele>61.0</ele><time>2026-04-24T09:28:31.065Z</time></trkpt><trkpt lat="42.0483633" lon="11.950545"><ele>61.0</ele><time>2026-04-24T09:28:32.066Z</time></trkpt><trkpt lat="42.048435" lon="11.9505967"><ele>61.0</ele><time>2026-04-24T09:28:33.064Z</time></trkpt><trkpt lat="42.0485183" lon="11.9506717"><ele>60.99999999999999</ele><time>2026-04-24T09:28:34.063Z</time></trkpt><trkpt lat="42.0485983" lon="11.9507483"><ele>61.0</ele><time>2026-04-24T09:28:35.064Z</time></trkpt><trkpt lat="42.0486667" lon="11.9508183"><ele>62.0</ele><time>2026-04-24T09:28:36.063Z</time></trkpt><trkpt lat="42.04874" lon="11.9508833"><ele>62.99999999999999</ele><time>2026-04-24T09:28:37.065Z</time></trkpt><trkpt lat="42.0488233" lon="11.950945"><ele>63.99999999999999</ele><time>2026-04-24T09:28:38.064Z</time></trkpt><trkpt lat="42.048905" lon="11.95101"><ele>65.0</ele><time>2026-04-24T09:28:39.065Z</time></trkpt><trkpt lat="42.0489717" lon="11.9510867"><ele>66.0</ele><time>2026-04-24T09:28:40.064Z</time></trkpt><trkpt lat="42.0490283" lon="11.9511733"><ele>66.0</ele><time>2026-04-24T09:28:41.065Z</time></trkpt><trkpt lat="42.04909" lon="11.9512467"><ele>66.0</ele><time>2026-04-24T09:28:42.064Z</time></trkpt><trkpt lat="42.0491617" lon="11.9513"><ele>66.0</ele><time>2026-04-24T09:28:43.064Z</time></trkpt><trkpt lat="42.049245" lon="11.9513317"><ele>66.0</ele><time>2026-04-24T09:28:44.065Z</time></trkpt><trkpt lat="42.049325" lon="11.9513617"><ele>66.0</ele><time>2026-04-24T09:28:45.066Z</time></trkpt><trkpt lat="42.04939" lon="11.9513917"><ele>66.0</ele><time>2026-04-24T09:28:46.064Z</time></trkpt><trkpt lat="42.0494733" lon="11.9514817"><ele>67.5</ele><time>2026-04-24T09:28:48.065Z</time></trkpt><trkpt lat="42.0495383" lon="11.9515767"><ele>69.0</ele><time>2026-04-24T09:28:50.067Z</time></trkpt><trkpt lat="42.0495967" lon="11.9516433"><ele>70.5</ele><time>2026-04-24T09:28:52.065Z</time></trkpt><trkpt lat="42.04965" lon="11.95171"><ele>72.0</ele><time>2026-04-24T09:28:54.065Z</time></trkpt><trkpt lat="42.049705" lon="11.9517933"><ele>73.5</ele><time>2026-04-24T09:28:56.066Z</time></trkpt><trkpt lat="42.0497517" lon="11.9519133"><ele>75.0</ele><time>2026-04-24T09:28:59.065Z</time></trkpt><trkpt lat="42.0497833" lon="11.952045"><ele>75.6</ele><time>2026-04-24T09:29:01.065Z</time></trkpt><trkpt lat="42.04983" lon="11.9521583"><ele>76.2</ele><time>2026-04-24T09:29:03.066Z</time></trkpt><trkpt lat="42.049865" lon="11.952295"><ele>76.8</ele><time>2026-04-24T09:29:05.065Z</time></trkpt><trkpt lat="42.0498967" lon="11.9524467"><ele>77.4</ele><time>2026-04-24T09:29:07.065Z</time></trkpt><trkpt lat="42.0499383" lon="11.9526067"><ele>78.0</ele><time>2026-04-24T09:29:09.063Z</time></trkpt><trkpt lat="42.0499583" lon="11.9526883"><ele>79.66666666666667</ele><time>2026-04-24T09:29:10.063Z</time></trkpt><trkpt lat="42.0499783" lon="11.952855"><ele>81.33333333333333</ele><time>2026-04-24T09:29:12.064Z</time></trkpt><trkpt lat="42.0499783" lon="11.95294"><ele>83.0</ele><time>2026-04-24T09:29:13.066Z</time></trkpt><trkpt lat="42.0499733" lon="11.9530283"><ele>84.66666666666666</ele><time>2026-04-24T09:29:14.066Z</time></trkpt><trkpt lat="42.049965" lon="11.9531183"><ele>86.33333333333333</ele><time>2026-04-24T09:29:15.066Z</time></trkpt><trkpt lat="42.049955" lon="11.9532083"><ele>88.0</ele><time>2026-04-24T09:29:16.066Z</time></trkpt><trkpt lat="42.04995" lon="11.9533"><ele>89.5</ele><time>2026-04-24T09:29:17.063Z</time></trkpt><trkpt lat="42.0499517" lon="11.95339"><ele>91.0</ele><time>2026-04-24T09:29:18.064Z</time></trkpt><trkpt lat="42.0499717" lon="11.953485"><ele>92.5</ele><time>2026-04-24T09:29:19.065Z</time></trkpt><trkpt lat="42.05001" lon="11.953575"><ele>94.0</ele><time>2026-04-24T09:29:20.066Z</time></trkpt><trkpt lat="42.05006" lon="11.9536517"><ele>95.50000000000001</ele><time>2026-04-24T09:29:21.065Z</time></trkpt><trkpt lat="42.05013" lon="11.9536983"><ele>97.0</ele><time>2026-04-24T09:29:22.064Z</time></trkpt><trkpt lat="42.050215" lon="11.9537133"><ele>97.6</ele><time>2026-04-24T09:29:23.065Z</time></trkpt><trkpt lat="42.0503083" lon="11.9537283"><ele>98.19999999999999</ele><time>2026-04-24T09:29:24.066Z</time></trkpt><trkpt lat="42.0504133" lon="11.9537533"><ele>98.8</ele><time>2026-04-24T09:29:25.065Z</time></trkpt><trkpt lat="42.0505133" lon="11.9537783"><ele>99.4</ele><time>2026-04-24T09:29:26.066Z</time></trkpt><trkpt lat="42.0506017" lon="11.9537967"><ele>100.0</ele><time>2026-04-24T09:29:27.066Z</time></trkpt><trkpt lat="42.0506867" lon="11.9538"><ele>100.00000000000001</ele><time>2026-04-24T09:29:28.065Z</time></trkpt><trkpt lat="42.0507717" lon="11.953785"><ele>100.0</ele><time>2026-04-24T09:29:29.066Z</time></trkpt><trkpt lat="42.050855" lon="11.953755"><ele>100.0</ele><time>2026-04-24T09:29:30.065Z</time></trkpt><trkpt lat="42.0509317" lon="11.9537217"><ele>100.0</ele><time>2026-04-24T09:29:31.065Z</time></trkpt><trkpt lat="42.051" lon="11.953695"><ele>100.00000000000001</ele><time>2026-04-24T09:29:32.064Z</time></trkpt><trkpt lat="42.0510683" lon="11.9536783"><ele>100.0</ele><time>2026-04-24T09:29:33.064Z</time></trkpt><trkpt lat="42.0511417" lon="11.95367"><ele>101.00000000000001</ele><time>2026-04-24T09:29:34.065Z</time></trkpt><trkpt lat="42.051215" lon="11.9536717"><ele>102.0</ele><time>2026-04-24T09:29:35.065Z</time></trkpt><trkpt lat="42.05129" lon="11.9536833"><ele>103.0</ele><time>2026-04-24T09:29:36.065Z</time></trkpt><trkpt lat="42.05136" lon="11.9536983"><ele>104.0</ele><time>2026-04-24T09:29:37.063Z</time></trkpt><trkpt lat="42.0514267" lon="11.953705"><ele>105.0</ele><time>2026-04-24T09:29:38.063Z</time></trkpt><trkpt lat="42.05149" lon="11.9537217"><ele>106.00000000000001</ele><time>2026-04-24T09:29:39.065Z</time></trkpt><trkpt lat="42.0515483" lon="11.9537617"><ele>107.0</ele><time>2026-04-24T09:29:40.064Z</time></trkpt><trkpt lat="42.0516017" lon="11.953815"><ele>108.85714285714286</ele><time>2026-04-24T09:29:41.064Z</time></trkpt><trkpt lat="42.0516583" lon="11.9538733"><ele>110.71428571428572</ele><time>2026-04-24T09:29:42.065Z</time></trkpt><trkpt lat="42.051725" lon="11.953925"><ele>112.57142857142858</ele><time>2026-04-24T09:29:43.065Z</time></trkpt><trkpt lat="42.0517867" lon="11.953975"><ele>114.42857142857143</ele><time>2026-04-24T09:29:44.066Z</time></trkpt><trkpt lat="42.051845" lon="11.9540267"><ele>116.28571428571428</ele><time>2026-04-24T09:29:45.063Z</time></trkpt><trkpt lat="42.0518983" lon="11.9540883"><ele>118.14285714285715</ele><time>2026-04-24T09:29:46.064Z</time></trkpt><trkpt lat="42.0519517" lon="11.954155"><ele>120.0</ele><time>2026-04-24T09:29:47.065Z</time></trkpt><trkpt lat="42.052005" lon="11.9542267"><ele>121.16666666666667</ele><time>2026-04-24T09:29:48.063Z</time></trkpt><trkpt lat="42.0520683" lon="11.9542867"><ele>122.33333333333334</ele><time>2026-04-24T09:29:49.063Z</time></trkpt><trkpt lat="42.0521267" lon="11.9543367"><ele>123.5</ele><time>2026-04-24T09:29:50.064Z</time></trkpt><trkpt lat="42.052185" lon="11.9543933"><ele>124.66666666666667</ele><time>2026-04-24T09:29:51.064Z</time></trkpt><trkpt lat="42.05225" lon="11.95445"><ele>125.83333333333334</ele><time>2026-04-24T09:29:52.066Z</time></trkpt><trkpt lat="42.0523217" lon="11.9544983"><ele>127.0</ele><time>2026-04-24T09:29:53.064Z</time></trkpt><trkpt lat="42.0523983" lon="11.95454"><ele>127.57142857142858</ele><time>2026-04-24T09:29:54.063Z</time></trkpt><trkpt lat="42.0524733" lon="11.954585"><ele>128.14285714285714</ele><time>2026-04-24T09:29:55.063Z</time></trkpt><trkpt lat="42.0525433" lon="11.954635"><ele>128.71428571428572</ele><time>2026-04-24T09:29:56.065Z</time></trkpt><trkpt lat="42.052585" lon="11.9547017"><ele>129.28571428571428</ele><time>2026-04-24T09:29:57.063Z</time></trkpt><trkpt lat="42.0526217" lon="11.9547767"><ele>129.85714285714286</ele><time>2026-04-24T09:29:58.064Z</time></trkpt><trkpt lat="42.052665" lon="11.954855"><ele>130.42857142857144</ele><time>2026-04-24T09:29:59.065Z</time></trkpt><trkpt lat="42.0527117" lon="11.954915"><ele>131.0</ele><time>2026-04-24T09:30:00.065Z</time></trkpt><trkpt lat="42.0527733" lon="11.95495"><ele>131.0</ele><time>2026-04-24T09:30:01.065Z</time></trkpt><trkpt lat="42.0528467" lon="11.9549667"><ele>131.0</ele><time>2026-04-24T09:30:02.065Z</time></trkpt><trkpt lat="42.0529283" lon="11.9549867"><ele>131.0</ele><time>2026-04-24T09:30:03.064Z</time></trkpt><trkpt lat="42.0530117" lon="11.9550117"><ele>131.0</ele><time>2026-04-24T09:30:04.065Z</time></trkpt><trkpt lat="42.0530833" lon="11.9550417"><ele>131.0</ele><time>2026-04-24T09:30:05.066Z</time></trkpt><trkpt lat="42.0531883" lon="11.9551217"><ele>131.0</ele><time>2026-04-24T09:30:07.064Z</time></trkpt><trkpt lat="42.05324" lon="11.9551883"><ele>133.8</ele><time>2026-04-24T09:30:08.064Z</time></trkpt><trkpt lat="42.053305" lon="11.9552683"><ele>136.6</ele><time>2026-04-24T09:30:09.066Z</time></trkpt><trkpt lat="42.0533733" lon="11.9553633"><ele>139.4</ele><time>2026-04-24T09:30:10.065Z</time></trkpt><trkpt lat="42.0534383" lon="11.955465"><ele>142.2</ele><time>2026-04-24T09:30:11.064Z</time></trkpt><trkpt lat="42.0534917" lon="11.95558"><ele>145.0</ele><time>2026-04-24T09:30:12.063Z</time></trkpt><trkpt lat="42.0535367" lon="11.955685"><ele>145.0</ele><time>2026-04-24T09:30:13.065Z</time></trkpt><trkpt lat="42.05357" lon="11.9557867"><ele>145.0</ele><time>2026-04-24T09:30:14.065Z</time></trkpt><trkpt lat="42.0536017" lon="11.9558967"><ele>145.0</ele><time>2026-04-24T09:30:15.062Z</time></trkpt><trkpt lat="42.0536383" lon="11.9560133"><ele>145.0</ele><time>2026-04-24T09:30:16.064Z</time></trkpt><trkpt lat="42.05368" lon="11.9561283"><ele>145.0</ele><time>2026-04-24T09:30:17.062Z</time></trkpt><trkpt lat="42.05373" lon="11.9562433"><ele>147.0</ele><time>2026-04-24T09:30:18.064Z</time></trkpt><trkpt lat="42.0537883" lon="11.9563567"><ele>149.0</ele><time>2026-04-24T09:30:19.066Z</time></trkpt><trkpt lat="42.0538533" lon="11.956465"><ele>151.0</ele><time>2026-04-24T09:30:20.064Z</time></trkpt><trkpt lat="42.0539083" lon="11.9565667"><ele>153.0</ele><time>2026-04-24T09:30:21.064Z</time></trkpt><trkpt lat="42.0539617" lon="11.956665"><ele>155.0</ele><time>2026-04-24T09:30:22.063Z</time></trkpt><trkpt lat="42.0540167" lon="11.95675"><ele>155.83333333333331</ele><time>2026-04-24T09:30:23.065Z</time></trkpt><trkpt lat="42.0540783" lon="11.95683"><ele>156.66666666666666</ele><time>2026-04-24T09:30:24.063Z</time></trkpt><trkpt lat="42.054135" lon="11.9569033"><ele>157.5</ele><time>2026-04-24T09:30:25.063Z</time></trkpt><trkpt lat="42.0541883" lon="11.9569783"><ele>158.33333333333334</ele><time>2026-04-24T09:30:26.064Z</time></trkpt><trkpt lat="42.0542417" lon="11.9570583"><ele>159.16666666666669</ele><time>2026-04-24T09:30:27.064Z</time></trkpt><trkpt lat="42.0543" lon="11.9571383"><ele>160.0</ele><time>2026-04-24T09:30:28.065Z</time></trkpt><trkpt lat="42.054355" lon="11.9572217"><ele>160.0</ele><time>2026-04-24T09:30:29.065Z</time></trkpt><trkpt lat="42.0543967" lon="11.9573067"><ele>160.0</ele><time>2026-04-24T09:30:30.064Z</time></trkpt><trkpt lat="42.0544267" lon="11.95739"><ele>160.0</ele><time>2026-04-24T09:30:31.066Z</time></trkpt><trkpt lat="42.054455" lon="11.9574683"><ele>160.0</ele><time>2026-04-24T09:30:32.066Z</time></trkpt><trkpt lat="42.054495" lon="11.95754"><ele>160.0</ele><time>2026-04-24T09:30:33.064Z</time></trkpt><trkpt lat="42.0545433" lon="11.9576033"><ele>160.0</ele><time>2026-04-24T09:30:34.065Z</time></trkpt><trkpt lat="42.0545867" lon="11.957665"><ele>160.0</ele><time>2026-04-24T09:30:35.064Z</time></trkpt><trkpt lat="42.0546517" lon="11.957775"><ele>160.16666666666669</ele><time>2026-04-24T09:30:37.064Z</time></trkpt><trkpt lat="42.05468" lon="11.957875"><ele>160.33333333333334</ele><time>2026-04-24T09:30:39.064Z</time></trkpt><trkpt lat="42.05462" lon="11.9579717"><ele>160.5</ele><time>2026-04-24T09:30:41.064Z</time></trkpt><trkpt lat="42.05455" lon="11.9580267"><ele>160.66666666666666</ele><time>2026-04-24T09:30:43.065Z</time></trkpt><trkpt lat="42.05448" lon="11.9580783"><ele>160.83333333333331</ele><time>2026-04-24T09:30:47.062Z</time></trkpt><trkpt lat="42.0544267" lon="11.958125"><ele>161.0</ele><time>2026-04-24T09:30:48.062Z</time></trkpt><trkpt lat="42.0543717" lon="11.9581733"><ele>161.0</ele><time>2026-04-24T09:30:49.063Z</time></trkpt><trkpt lat="42.0543233" lon="11.95823"><ele>161.0</ele><time>2026-04-24T09:30:50.065Z</time></trkpt><trkpt lat="42.0542733" lon="11.95829"><ele>161.0</ele><time>2026-04-24T09:30:51.064Z</time></trkpt><trkpt lat="42.054175" lon="11.95838"><ele>161.0</ele><time>2026-04-24T09:30:53.065Z</time></trkpt><trkpt lat="42.05408" lon="11.9584667"><ele>161.0</ele><time>2026-04-24T09:30:55.064Z</time></trkpt><trkpt lat="42.054005" lon="11.9585583"><ele>163.66666666666666</ele><time>2026-04-24T09:30:57.063Z</time></trkpt><trkpt lat="42.0539433" lon="11.9586667"><ele>166.33333333333331</ele><time>2026-04-24T09:30:59.063Z</time></trkpt><trkpt lat="42.0538767" lon="11.9587317"><ele>169.0</ele><time>2026-04-24T09:31:01.064Z</time></trkpt><trkpt lat="42.05381" lon="11.9588367"><ele>171.66666666666666</ele><time>2026-04-24T09:31:03.064Z</time></trkpt><trkpt lat="42.0537767" lon="11.958915"><ele>174.33333333333334</ele><time>2026-04-24T09:31:04.063Z</time></trkpt><trkpt lat="42.053745" lon="11.95901"><ele>177.0</ele><time>2026-04-24T09:31:05.065Z</time></trkpt><trkpt lat="42.0537133" lon="11.9590983"><ele>177.0</ele><time>2026-04-24T09:31:06.064Z</time></trkpt><trkpt lat="42.0536833" lon="11.9591933"><ele>177.0</ele><time>2026-04-24T09:31:07.064Z</time></trkpt><trkpt lat="42.053655" lon="11.95929"><ele>177.0</ele><time>2026-04-24T09:31:08.065Z</time></trkpt><trkpt lat="42.0536283" lon="11.95937"><ele>177.0</ele><time>2026-04-24T09:31:09.063Z</time></trkpt><trkpt lat="42.053605" lon="11.9594517"><ele>177.0</ele><time>2026-04-24T09:31:10.066Z</time></trkpt><trkpt lat="42.053585" lon="11.95954"><ele>177.0</ele><time>2026-04-24T09:31:11.065Z</time></trkpt><trkpt lat="42.0535733" lon="11.959635"><ele>177.0</ele><time>2026-04-24T09:31:12.065Z</time></trkpt><trkpt lat="42.0535717" lon="11.9597417"><ele>178.39999999999998</ele><time>2026-04-24T09:31:13.064Z</time></trkpt><trkpt lat="42.0535733" lon="11.959845"><ele>179.79999999999998</ele><time>2026-04-24T09:31:14.064Z</time></trkpt><trkpt lat="42.0535767" lon="11.9599367"><ele>181.2</ele><time>2026-04-24T09:31:15.064Z</time></trkpt><trkpt lat="42.0536067" lon="11.9600733"><ele>182.6</ele><time>2026-04-24T09:31:17.063Z</time></trkpt><trkpt lat="42.0536533" lon="11.960205"><ele>184.0</ele><time>2026-04-24T09:31:19.064Z</time></trkpt><trkpt lat="42.0536983" lon="11.9603517"><ele>185.16666666666669</ele><time>2026-04-24T09:31:21.065Z</time></trkpt><trkpt lat="42.0537383" lon="11.9604517"><ele>186.33333333333334</ele><time>2026-04-24T09:31:23.063Z</time></trkpt><trkpt lat="42.0538067" lon="11.9605433"><ele>187.5</ele><time>2026-04-24T09:31:25.065Z</time></trkpt><trkpt lat="42.053855" lon="11.9606133"><ele>188.66666666666666</ele><time>2026-04-24T09:31:26.064Z</time></trkpt><trkpt lat="42.053895" lon="11.9606917"><ele>189.83333333333331</ele><time>2026-04-24T09:31:27.065Z</time></trkpt><trkpt lat="42.0539267" lon="11.9607683"><ele>191.0</ele><time>2026-04-24T09:31:28.064Z</time></trkpt><trkpt lat="42.053965" lon="11.9608483"><ele>191.33333333333331</ele><time>2026-04-24T09:31:29.064Z</time></trkpt><trkpt lat="42.0540167" lon="11.960945"><ele>191.66666666666666</ele><time>2026-04-24T09:31:30.063Z</time></trkpt><trkpt lat="42.0540717" lon="11.961045"><ele>192.0</ele><time>2026-04-24T09:31:31.064Z</time></trkpt><trkpt lat="42.0541233" lon="11.96113"><ele>192.33333333333331</ele><time>2026-04-24T09:31:32.064Z</time></trkpt><trkpt lat="42.0541767" lon="11.961205"><ele>192.66666666666666</ele><time>2026-04-24T09:31:33.064Z</time></trkpt><trkpt lat="42.0542233" lon="11.961275"><ele>193.0</ele><time>2026-04-24T09:31:34.064Z</time></trkpt><trkpt lat="42.0542967" lon="11.9614067"><ele>192.99999999999997</ele><time>2026-04-24T09:31:36.064Z</time></trkpt><trkpt lat="42.05433" lon="11.961485"><ele>193.0</ele><time>2026-04-24T09:31:37.064Z</time></trkpt><trkpt lat="42.05438" lon="11.9615633"><ele>193.0</ele><time>2026-04-24T09:31:38.064Z</time></trkpt><trkpt lat="42.0544417" lon="11.961645"><ele>193.0</ele><time>2026-04-24T09:31:39.065Z</time></trkpt><trkpt lat="42.0544967" lon="11.9617233"><ele>192.99999999999997</ele><time>2026-04-24T09:31:40.065Z</time></trkpt><trkpt lat="42.0545433" lon="11.9618083"><ele>193.0</ele><time>2026-04-24T09:31:41.065Z</time></trkpt><trkpt lat="42.0545833" lon="11.9618917"><ele>195.4</ele><time>2026-04-24T09:31:42.066Z</time></trkpt><trkpt lat="42.05463" lon="11.962025"><ele>197.8</ele><time>2026-04-24T09:31:44.063Z</time></trkpt><trkpt lat="42.0546917" lon="11.9621033"><ele>200.2</ele><time>2026-04-24T09:31:46.063Z</time></trkpt><trkpt lat="42.054795" lon="11.9621517"><ele>202.6</ele><time>2026-04-24T09:31:48.064Z</time></trkpt><trkpt lat="42.0548467" lon="11.962225"><ele>205.0</ele><time>2026-04-24T09:31:50.064Z</time></trkpt><trkpt lat="42.0548417" lon="11.962325"><ele>204.99999999999997</ele><time>2026-04-24T09:31:52.063Z</time></trkpt><trkpt lat="42.0548217" lon="11.962445"><ele>205.0</ele><time>2026-04-24T09:31:54.062Z</time></trkpt><trkpt lat="42.0547867" lon="11.9625617"><ele>205.0</ele><time>2026-04-24T09:31:56.064Z</time></trkpt><trkpt lat="42.05472" lon="11.9626567"><ele>205.0</ele><time>2026-04-24T09:31:58.062Z</time></trkpt><trkpt lat="42.0546633" lon="11.9626967"><ele>204.99999999999997</ele><time>2026-04-24T09:31:59.063Z</time></trkpt><trkpt lat="42.0545967" lon="11.9627233"><ele>205.0</ele><time>2026-04-24T09:32:00.066Z</time></trkpt><trkpt lat="42.0545283" lon="11.962735"><ele>206.57142857142858</ele><time>2026-04-24T09:32:01.064Z</time></trkpt><trkpt lat="42.0544583" lon="11.96275"><ele>208.14285714285714</ele><time>2026-04-24T09:32:02.065Z</time></trkpt><trkpt lat="42.05439" lon="11.9627683"><ele>209.71428571428572</ele><time>2026-04-24T09:32:03.064Z</time></trkpt><trkpt lat="42.0543183" lon="11.9627867"><ele>211.28571428571428</ele><time>2026-04-24T09:32:04.061Z</time></trkpt><trkpt lat="42.0542417" lon="11.9628017"><ele>212.85714285714283</ele><time>2026-04-24T09:32:05.063Z</time></trkpt><trkpt lat="42.0541633" lon="11.962805"><ele>214.42857142857142</ele><time>2026-04-24T09:32:06.064Z</time></trkpt><trkpt lat="42.0540883" lon="11.9627967"><ele>216.0</ele><time>2026-04-24T09:32:07.063Z</time></trkpt><trkpt lat="42.0540133" lon="11.9627867"><ele>217.5</ele><time>2026-04-24T09:32:08.065Z</time></trkpt><trkpt lat="42.0539367" lon="11.9627833"><ele>219.0</ele><time>2026-04-24T09:32:09.064Z</time></trkpt><trkpt lat="42.053865" lon="11.9627817"><ele>220.5</ele><time>2026-04-24T09:32:10.065Z</time></trkpt><trkpt lat="42.053745" lon="11.9628217"><ele>222.0</ele><time>2026-04-24T09:32:12.063Z</time></trkpt><trkpt lat="42.0536883" lon="11.9628783"><ele>223.5</ele><time>2026-04-24T09:32:13.064Z</time></trkpt><trkpt lat="42.0536483" lon="11.9629517"><ele>225.0</ele><time>2026-04-24T09:32:14.062Z</time></trkpt><trkpt lat="42.0536033" lon="11.9630133"><ele>225.0</ele><time>2026-04-24T09:32:15.062Z</time></trkpt><trkpt lat="42.05355" lon="11.9630717"><ele>225.0</ele><time>2026-04-24T09:32:16.064Z</time></trkpt><trkpt lat="42.0534867" lon="11.9631367"><ele>225.0</ele><time>2026-04-24T09:32:17.062Z</time></trkpt><trkpt lat="42.0534217" lon="11.9632033"><ele>225.0</ele><time>2026-04-24T09:32:18.063Z</time></trkpt><trkpt lat="42.0533617" lon="11.9632583"><ele>225.0</ele><time>2026-04-24T09:32:19.063Z</time></trkpt><trkpt lat="42.0533017" lon="11.9632867"><ele>225.0</ele><time>2026-04-24T09:32:20.062Z</time></trkpt><trkpt lat="42.0531783" lon="11.9633367"><ele>225.00000000000003</ele><time>2026-04-24T09:32:22.063Z</time></trkpt><trkpt lat="42.05311" lon="11.9633817"><ele>225.0</ele><time>2026-04-24T09:32:23.064Z</time></trkpt><trkpt lat="42.0530433" lon="11.96342"><ele>225.00000000000003</ele><time>2026-04-24T09:32:24.065Z</time></trkpt><trkpt lat="42.052975" lon="11.9634417"><ele>225.00000000000003</ele><time>2026-04-24T09:32:25.064Z</time></trkpt><trkpt lat="42.0529067" lon="11.9634533"><ele>225.0</ele><time>2026-04-24T09:32:26.065Z</time></trkpt><trkpt lat="42.0528383" lon="11.9634617"><ele>225.00000000000003</ele><time>2026-04-24T09:32:27.063Z</time></trkpt><trkpt lat="42.0527717" lon="11.963475"><ele>225.00000000000003</ele><time>2026-04-24T09:32:28.063Z</time></trkpt><trkpt lat="42.0527083" lon="11.963485"><ele>225.0</ele><time>2026-04-24T09:32:29.065Z</time></trkpt><trkpt lat="42.0526067" lon="11.9635133"><ele>225.0</ele><time>2026-04-24T09:32:31.064Z</time></trkpt><trkpt lat="42.0525533" lon="11.9635667"><ele>225.0</ele><time>2026-04-24T09:32:34.062Z</time></trkpt><trkpt lat="42.0526017" lon="11.9636333"><ele>225.0</ele><time>2026-04-24T09:32:38.066Z</time></trkpt></trkseg><trkseg><trkpt lat="42.0524933" lon="11.96352"><ele>223.2</ele><time>2026-04-24T09:52:08.066Z</time></trkpt><trkpt lat="42.05244" lon="11.96346"><ele>221.4</ele><time>2026-04-24T09:52:09.063Z</time></trkpt><trkpt lat="42.0523717" lon="11.96338"><ele>219.60000000000002</ele><time>2026-04-24T09:52:10.064Z</time></trkpt><trkpt lat="42.052285" lon="11.963275"><ele>217.8</ele><time>2026-04-24T09:52:11.065Z</time></trkpt><trkpt lat="42.0522033" lon="11.9631717"><ele>216.0</ele><time>2026-04-24T09:52:12.063Z</time></trkpt><trkpt lat="42.05213" lon="11.9630667"><ele>214.8</ele><time>2026-04-24T09:52:13.065Z</time></trkpt><trkpt lat="42.0520733" lon="11.962955"><ele>213.60000000000002</ele><time>2026-04-24T09:52:14.063Z</time></trkpt><trkpt lat="42.0520267" lon="11.9628283"><ele>212.4</ele><time>2026-04-24T09:52:15.063Z</time></trkpt><trkpt lat="42.0519817" lon="11.9626883"><ele>211.2</ele><time>2026-04-24T09:52:16.062Z</time></trkpt><trkpt lat="42.05193" lon="11.9625583"><ele>210.0</ele><time>2026-04-24T09:52:17.062Z</time></trkpt><trkpt lat="42.0518683" lon="11.9624533"><ele>210.0</ele><time>2026-04-24T09:52:18.064Z</time></trkpt><trkpt lat="42.0517967" lon="11.9623683"><ele>210.0</ele><time>2026-04-24T09:52:19.063Z</time></trkpt><trkpt lat="42.0517133" lon="11.9623017"><ele>210.0</ele><time>2026-04-24T09:52:20.065Z</time></trkpt><trkpt lat="42.0516083" lon="11.9622467"><ele>210.0</ele><time>2026-04-24T09:52:21.064Z</time></trkpt><trkpt lat="42.0514983" lon="11.9622"><ele>210.0</ele><time>2026-04-24T09:52:22.063Z</time></trkpt><trkpt lat="42.0513933" lon="11.962155"><ele>208.0</ele><time>2026-04-24T09:52:23.064Z</time></trkpt><trkpt lat="42.0512883" lon="11.9621083"><ele>206.0</ele><time>2026-04-24T09:52:24.064Z</time></trkpt><trkpt lat="42.0511917" lon="11.9620633"><ele>204.0</ele><time>2026-04-24T09:52:25.064Z</time></trkpt><trkpt lat="42.0511033" lon="11.9620317"><ele>202.0</ele><time>2026-04-24T09:52:26.065Z</time></trkpt><trkpt lat="42.051025" lon="11.9620183"><ele>200.0</ele><time>2026-04-24T09:52:27.064Z</time></trkpt><trkpt lat="42.050945" lon="11.9620183"><ele>200.00000000000003</ele><time>2026-04-24T09:52:28.065Z</time></trkpt><trkpt lat="42.0508633" lon="11.9620167"><ele>200.0</ele><time>2026-04-24T09:52:29.066Z</time></trkpt><trkpt lat="42.050795" lon="11.9620183"><ele>200.0</ele><time>2026-04-24T09:52:30.065Z</time></trkpt><trkpt lat="42.0506833" lon="11.962085"><ele>200.0</ele><time>2026-04-24T09:52:32.066Z</time></trkpt><trkpt lat="42.0506183" lon="11.96211"><ele>200.00000000000003</ele><time>2026-04-24T09:52:33.063Z</time></trkpt><trkpt lat="42.0505283" lon="11.962105"><ele>200.0</ele><time>2026-04-24T09:52:34.064Z</time></trkpt><trkpt lat="42.050415" lon="11.96208"><ele>198.6</ele><time>2026-04-24T09:52:35.064Z</time></trkpt><trkpt lat="42.0503017" lon="11.9620633"><ele>197.2</ele><time>2026-04-24T09:52:36.065Z</time></trkpt><trkpt lat="42.0502017" lon="11.9620667"><ele>195.8</ele><time>2026-04-24T09:52:37.064Z</time></trkpt><trkpt lat="42.0501067" lon="11.9620917"><ele>194.4</ele><time>2026-04-24T09:52:38.064Z</time></trkpt><trkpt lat="42.0500017" lon="11.9621267"><ele>193.0</ele><time>2026-04-24T09:52:39.064Z</time></trkpt><trkpt lat="42.049895" lon="11.962155"><ele>192.5</ele><time>2026-04-24T09:52:40.066Z</time></trkpt><trkpt lat="42.049785" lon="11.9621717"><ele>192.0</ele><time>2026-04-24T09:52:41.063Z</time></trkpt><trkpt lat="42.049665" lon="11.9621833"><ele>191.5</ele><time>2026-04-24T09:52:42.063Z</time></trkpt><trkpt lat="42.0495483" lon="11.96219"><ele>191.0</ele><time>2026-04-24T09:52:43.064Z</time></trkpt><trkpt lat="42.0494283" lon="11.962195"><ele>191.0</ele><time>2026-04-24T09:52:44.064Z</time></trkpt><trkpt lat="42.049315" lon="11.9621933"><ele>191.0</ele><time>2026-04-24T09:52:45.062Z</time></trkpt><trkpt lat="42.0492217" lon="11.9621883"><ele>191.0</ele><time>2026-04-24T09:52:46.064Z</time></trkpt><trkpt lat="42.0491283" lon="11.96218"><ele>191.0</ele><time>2026-04-24T09:52:47.064Z</time></trkpt><trkpt lat="42.0490417" lon="11.9621717"><ele>191.0</ele><time>2026-04-24T09:52:48.065Z</time></trkpt><trkpt lat="42.0489717" lon="11.9621517"><ele>190.83333333333331</ele><time>2026-04-24T09:52:49.065Z</time></trkpt><trkpt lat="42.0489033" lon="11.9621267"><ele>190.66666666666666</ele><time>2026-04-24T09:52:50.065Z</time></trkpt><trkpt lat="42.0488367" lon="11.962115"><ele>190.5</ele><time>2026-04-24T09:52:51.064Z</time></trkpt><trkpt lat="42.048755" lon="11.9621117"><ele>190.33333333333334</ele><time>2026-04-24T09:52:52.065Z</time></trkpt><trkpt lat="42.04867" lon="11.96211"><ele>190.16666666666669</ele><time>2026-04-24T09:52:53.064Z</time></trkpt><trkpt lat="42.0485883" lon="11.9620883"><ele>190.0</ele><time>2026-04-24T09:52:54.065Z</time></trkpt><trkpt lat="42.0485233" lon="11.9620417"><ele>190.0</ele><time>2026-04-24T09:52:55.065Z</time></trkpt><trkpt lat="42.04848" lon="11.9619733"><ele>190.0</ele><time>2026-04-24T09:52:56.065Z</time></trkpt><trkpt lat="42.04844" lon="11.961825"><ele>190.0</ele><time>2026-04-24T09:52:58.063Z</time></trkpt><trkpt lat="42.0484617" lon="11.961675"><ele>190.0</ele><time>2026-04-24T09:53:00.065Z</time></trkpt><trkpt lat="42.0485117" lon="11.9615417"><ele>190.0</ele><time>2026-04-24T09:53:02.066Z</time></trkpt><trkpt lat="42.0485617" lon="11.9613817"><ele>190.33333333333334</ele><time>2026-04-24T09:53:04.064Z</time></trkpt><trkpt lat="42.04859" lon="11.96129"><ele>190.66666666666669</ele><time>2026-04-24T09:53:05.062Z</time></trkpt><trkpt lat="42.0486167" lon="11.961195"><ele>191.0</ele><time>2026-04-24T09:53:06.064Z</time></trkpt><trkpt lat="42.048645" lon="11.961105"><ele>191.33333333333334</ele><time>2026-04-24T09:53:07.063Z</time></trkpt><trkpt lat="42.048695" lon="11.960945"><ele>191.66666666666666</ele><time>2026-04-24T09:53:09.065Z</time></trkpt><trkpt lat="42.0487217" lon="11.9608517"><ele>192.0</ele><time>2026-04-24T09:53:10.064Z</time></trkpt><trkpt lat="42.0487483" lon="11.9607467"><ele>191.28571428571428</ele><time>2026-04-24T09:53:11.064Z</time></trkpt><trkpt lat="42.048775" lon="11.960655"><ele>190.57142857142856</ele><time>2026-04-24T09:53:12.066Z</time></trkpt><trkpt lat="42.0488117" lon="11.960575"><ele>189.85714285714283</ele><time>2026-04-24T09:53:13.064Z</time></trkpt><trkpt lat="42.0488483" lon="11.960495"><ele>189.14285714285714</ele><time>2026-04-24T09:53:14.066Z</time></trkpt><trkpt lat="42.04888" lon="11.9604117"><ele>188.42857142857144</ele><time>2026-04-24T09:53:15.064Z</time></trkpt><trkpt lat="42.0489133" lon="11.9603267"><ele>187.7142857142857</ele><time>2026-04-24T09:53:16.065Z</time></trkpt><trkpt lat="42.0489533" lon="11.9602433"><ele>187.0</ele><time>2026-04-24T09:53:17.065Z</time></trkpt><trkpt lat="42.0489917" lon="11.9601617"><ele>187.0</ele><time>2026-04-24T09:53:18.065Z</time></trkpt><trkpt lat="42.0490283" lon="11.96008"><ele>187.0</ele><time>2026-04-24T09:53:19.064Z</time></trkpt><trkpt lat="42.04905" lon="11.9599983"><ele>187.0</ele><time>2026-04-24T09:53:20.065Z</time></trkpt><trkpt lat="42.049065" lon="11.9599083"><ele>187.0</ele><time>2026-04-24T09:53:21.064Z</time></trkpt><trkpt lat="42.0490767" lon="11.9597617"><ele>187.0</ele><time>2026-04-24T09:53:23.065Z</time></trkpt><trkpt lat="42.0490867" lon="11.9596167"><ele>187.0</ele><time>2026-04-24T09:53:25.064Z</time></trkpt><trkpt lat="42.0491033" lon="11.9594633"><ele>185.0</ele><time>2026-04-24T09:53:27.062Z</time></trkpt><trkpt lat="42.0491183" lon="11.95931"><ele>183.0</ele><time>2026-04-24T09:53:29.065Z</time></trkpt><trkpt lat="42.049155" lon="11.9591833"><ele>181.0</ele><time>2026-04-24T09:53:31.064Z</time></trkpt><trkpt lat="42.0491883" lon="11.9590483"><ele>179.0</ele><time>2026-04-24T09:53:33.066Z</time></trkpt><trkpt lat="42.049245" lon="11.9589417"><ele>177.0</ele><time>2026-04-24T09:53:35.064Z</time></trkpt><trkpt lat="42.0493117" lon="11.9588733"><ele>174.33333333333334</ele><time>2026-04-24T09:53:37.064Z</time></trkpt><trkpt lat="42.04935" lon="11.958805"><ele>171.66666666666666</ele><time>2026-04-24T09:53:39.064Z</time></trkpt><trkpt lat="42.04939" lon="11.9587067"><ele>169.0</ele><time>2026-04-24T09:53:41.064Z</time></trkpt><trkpt lat="42.04942" lon="11.95861"><ele>166.33333333333331</ele><time>2026-04-24T09:53:43.064Z</time></trkpt><trkpt lat="42.0494317" lon="11.958515"><ele>163.66666666666666</ele><time>2026-04-24T09:53:45.066Z</time></trkpt><trkpt lat="42.049445" lon="11.9584233"><ele>161.0</ele><time>2026-04-24T09:53:47.065Z</time></trkpt><trkpt lat="42.0494517" lon="11.9583017"><ele>158.8</ele><time>2026-04-24T09:53:50.063Z</time></trkpt><trkpt lat="42.0494683" lon="11.9582067"><ele>156.60000000000002</ele><time>2026-04-24T09:53:52.064Z</time></trkpt><trkpt lat="42.0494633" lon="11.9580983"><ele>154.4</ele><time>2026-04-24T09:53:54.065Z</time></trkpt><trkpt lat="42.049435" lon="11.9579817"><ele>152.2</ele><time>2026-04-24T09:53:56.064Z</time></trkpt><trkpt lat="42.04944" lon="11.95785"><ele>150.0</ele><time>2026-04-24T09:53:58.066Z</time></trkpt><trkpt lat="42.0494933" lon="11.9577133"><ele>150.0</ele><time>2026-04-24T09:54:00.063Z</time></trkpt><trkpt lat="42.04952" lon="11.957635"><ele>150.0</ele><time>2026-04-24T09:54:01.064Z</time></trkpt><trkpt lat="42.0495633" lon="11.95749"><ele>150.0</ele><time>2026-04-24T09:54:03.063Z</time></trkpt><trkpt lat="42.0495733" lon="11.9574033"><ele>150.0</ele><time>2026-04-24T09:54:04.064Z</time></trkpt><trkpt lat="42.0495733" lon="11.95731"><ele>150.0</ele><time>2026-04-24T09:54:05.064Z</time></trkpt><trkpt lat="42.0495783" lon="11.95722"><ele>150.0</ele><time>2026-04-24T09:54:06.065Z</time></trkpt><trkpt lat="42.0496" lon="11.9570783"><ele>148.33333333333334</ele><time>2026-04-24T09:54:08.069Z</time></trkpt><trkpt lat="42.04959" lon="11.9569567"><ele>146.66666666666666</ele><time>2026-04-24T09:54:10.064Z</time></trkpt><trkpt lat="42.0495417" lon="11.9568367"><ele>145.0</ele><time>2026-04-24T09:54:12.064Z</time></trkpt><trkpt lat="42.0494517" lon="11.9567417"><ele>143.33333333333331</ele><time>2026-04-24T09:54:38.063Z</time></trkpt><trkpt lat="42.0493883" lon="11.956705"><ele>141.66666666666666</ele><time>2026-04-24T09:54:39.065Z</time></trkpt><trkpt lat="42.0493267" lon="11.9566733"><ele>140.0</ele><time>2026-04-24T09:54:40.064Z</time></trkpt><trkpt lat="42.049255" lon="11.95664"><ele>138.57142857142858</ele><time>2026-04-24T09:54:41.064Z</time></trkpt><trkpt lat="42.0491783" lon="11.95665"><ele>137.14285714285714</ele><time>2026-04-24T09:54:42.065Z</time></trkpt><trkpt lat="42.0491117" lon="11.956655"><ele>135.71428571428572</ele><time>2026-04-24T09:54:43.063Z</time></trkpt><trkpt lat="42.0490483" lon="11.956635"><ele>134.28571428571428</ele><time>2026-04-24T09:54:44.063Z</time></trkpt><trkpt lat="42.0489933" lon="11.9565883"><ele>132.85714285714286</ele><time>2026-04-24T09:54:45.061Z</time></trkpt><trkpt lat="42.048935" lon="11.956525"><ele>131.42857142857144</ele><time>2026-04-24T09:54:46.063Z</time></trkpt><trkpt lat="42.0488683" lon="11.9564733"><ele>130.0</ele><time>2026-04-24T09:54:47.064Z</time></trkpt><trkpt lat="42.0487883" lon="11.9564283"><ele>130.0</ele><time>2026-04-24T09:54:48.062Z</time></trkpt><trkpt lat="42.0486967" lon="11.956385"><ele>130.0</ele><time>2026-04-24T09:54:49.063Z</time></trkpt><trkpt lat="42.0486" lon="11.9563383"><ele>130.0</ele><time>2026-04-24T09:54:50.063Z</time></trkpt><trkpt lat="42.0485033" lon="11.9562917"><ele>130.0</ele><time>2026-04-24T09:54:51.064Z</time></trkpt><trkpt lat="42.0484167" lon="11.9562367"><ele>130.0</ele><time>2026-04-24T09:54:52.065Z</time></trkpt><trkpt lat="42.0483467" lon="11.9561783"><ele>129.5</ele><time>2026-04-24T09:54:53.064Z</time></trkpt><trkpt lat="42.0482883" lon="11.9561217"><ele>129.0</ele><time>2026-04-24T09:54:54.063Z</time></trkpt><trkpt lat="42.04817" lon="11.9560783"><ele>128.5</ele><time>2026-04-24T09:54:56.064Z</time></trkpt><trkpt lat="42.048095" lon="11.9560667"><ele>128.0</ele><time>2026-04-24T09:54:57.063Z</time></trkpt><trkpt lat="42.048015" lon="11.95604"><ele>127.50000000000001</ele><time>2026-04-24T09:54:58.063Z</time></trkpt><trkpt lat="42.0479417" lon="11.956015"><ele>127.0</ele><time>2026-04-24T09:54:59.062Z</time></trkpt><trkpt lat="42.0478333" lon="11.9559983"><ele>127.0</ele><time>2026-04-24T09:55:01.063Z</time></trkpt><trkpt lat="42.0477567" lon="11.95609"><ele>127.0</ele><time>2026-04-24T09:55:03.064Z</time></trkpt><trkpt lat="42.04765" lon="11.95618"><ele>127.0</ele><time>2026-04-24T09:55:05.063Z</time></trkpt><trkpt lat="42.0475517" lon="11.956135"><ele>127.0</ele><time>2026-04-24T09:55:07.065Z</time></trkpt><trkpt lat="42.04751" lon="11.9559833"><ele>127.00000000000001</ele><time>2026-04-24T09:55:09.063Z</time></trkpt><trkpt lat="42.04748" lon="11.9559017"><ele>127.0</ele><time>2026-04-24T09:55:10.064Z</time></trkpt><trkpt lat="42.0474333" lon="11.9558317"><ele>127.0</ele><time>2026-04-24T09:55:11.064Z</time></trkpt><trkpt lat="42.0473667" lon="11.9557717"><ele>127.0</ele><time>2026-04-24T09:55:12.062Z</time></trkpt><trkpt lat="42.0472783" lon="11.9557067"><ele>127.00000000000001</ele><time>2026-04-24T09:55:13.062Z</time></trkpt><trkpt lat="42.04719" lon="11.955635"><ele>127.0</ele><time>2026-04-24T09:55:14.064Z</time></trkpt><trkpt lat="42.0471017" lon="11.9555517"><ele>126.39999999999999</ele><time>2026-04-24T09:55:15.064Z</time></trkpt><trkpt lat="42.0470083" lon="11.9554733"><ele>125.79999999999998</ele><time>2026-04-24T09:55:16.064Z</time></trkpt><trkpt lat="42.0469217" lon="11.9554067"><ele>125.2</ele><time>2026-04-24T09:55:17.062Z</time></trkpt><trkpt lat="42.0468483" lon="11.95533"><ele>124.6</ele><time>2026-04-24T09:55:18.062Z</time></trkpt><trkpt lat="42.0467783" lon="11.9552417"><ele>124.0</ele><time>2026-04-24T09:55:19.064Z</time></trkpt><trkpt lat="42.0467117" lon="11.9551783"><ele>124.0</ele><time>2026-04-24T09:55:20.064Z</time></trkpt><trkpt lat="42.0466383" lon="11.9551333"><ele>124.0</ele><time>2026-04-24T09:55:21.065Z</time></trkpt><trkpt lat="42.0465433" lon="11.9551067"><ele>124.0</ele><time>2026-04-24T09:55:22.062Z</time></trkpt><trkpt lat="42.0464567" lon="11.95506"><ele>124.0</ele><time>2026-04-24T09:55:23.062Z</time></trkpt><trkpt lat="42.0463767" lon="11.9549983"><ele>124.0</ele><time>2026-04-24T09:55:24.064Z</time></trkpt><trkpt lat="42.046295" lon="11.9549433"><ele>121.4</ele><time>2026-04-24T09:55:25.062Z</time></trkpt><trkpt lat="42.0462" lon="11.9549017"><ele>118.80000000000001</ele><time>2026-04-24T09:55:26.062Z</time></trkpt><trkpt lat="42.0461033" lon="11.95486"><ele>116.19999999999999</ele><time>2026-04-24T09:55:27.062Z</time></trkpt><trkpt lat="42.0460183" lon="11.9548283"><ele>113.6</ele><time>2026-04-24T09:55:28.066Z</time></trkpt><trkpt lat="42.0459367" lon="11.9548"><ele>111.0</ele><time>2026-04-24T09:55:29.064Z</time></trkpt><trkpt lat="42.04586" lon="11.9547717"><ele>109.83333333333333</ele><time>2026-04-24T09:55:30.061Z</time></trkpt><trkpt lat="42.0457883" lon="11.9547567"><ele>108.66666666666666</ele><time>2026-04-24T09:55:31.064Z</time></trkpt><trkpt lat="42.045715" lon="11.9547683"><ele>107.5</ele><time>2026-04-24T09:55:32.064Z</time></trkpt><trkpt lat="42.0456433" lon="11.9548"><ele>106.33333333333333</ele><time>2026-04-24T09:55:33.064Z</time></trkpt><trkpt lat="42.04557" lon="11.954815"><ele>105.16666666666666</ele><time>2026-04-24T09:55:34.063Z</time></trkpt><trkpt lat="42.0454983" lon="11.95479"><ele>104.0</ele><time>2026-04-24T09:55:35.062Z</time></trkpt><trkpt lat="42.045425" lon="11.9547383"><ele>104.0</ele><time>2026-04-24T09:55:36.062Z</time></trkpt><trkpt lat="42.0453433" lon="11.9546733"><ele>104.0</ele><time>2026-04-24T09:55:37.061Z</time></trkpt><trkpt lat="42.0452533" lon="11.954615"><ele>104.0</ele><time>2026-04-24T09:55:38.062Z</time></trkpt><trkpt lat="42.0451733" lon="11.9545633"><ele>104.0</ele><time>2026-04-24T09:55:39.063Z</time></trkpt><trkpt lat="42.0450933" lon="11.9544817"><ele>104.0</ele><time>2026-04-24T09:55:41.063Z</time></trkpt><trkpt lat="42.045155" lon="11.9543833"><ele>103.99999999999999</ele><time>2026-04-24T09:55:44.064Z</time></trkpt><trkpt lat="42.0452267" lon="11.9543467"><ele>104.0</ele><time>2026-04-24T09:55:45.063Z</time></trkpt><trkpt lat="42.0452967" lon="11.954315"><ele>104.0</ele><time>2026-04-24T09:55:46.065Z</time></trkpt><trkpt lat="42.0453667" lon="11.9542883"><ele>104.0</ele><time>2026-04-24T09:55:47.066Z</time></trkpt><trkpt lat="42.0454333" lon="11.9542683"><ele>103.99999999999999</ele><time>2026-04-24T09:55:48.064Z</time></trkpt><trkpt lat="42.0454983" lon="11.954255"><ele>104.0</ele><time>2026-04-24T09:55:49.066Z</time></trkpt><trkpt lat="42.04561" lon="11.9542433"><ele>102.6</ele><time>2026-04-24T09:55:51.062Z</time></trkpt><trkpt lat="42.0457133" lon="11.9541733"><ele>101.2</ele><time>2026-04-24T09:55:53.063Z</time></trkpt><trkpt lat="42.0457583" lon="11.9540083"><ele>99.8</ele><time>2026-04-24T09:55:55.061Z</time></trkpt><trkpt lat="42.0457617" lon="11.953915"><ele>98.39999999999999</ele><time>2026-04-24T09:55:56.064Z</time></trkpt><trkpt lat="42.0457617" lon="11.953825"><ele>97.0</ele><time>2026-04-24T09:55:57.062Z</time></trkpt><trkpt lat="42.0457633" lon="11.95372"><ele>97.00000000000001</ele><time>2026-04-24T09:55:58.063Z</time></trkpt><trkpt lat="42.045775" lon="11.953615"><ele>97.0</ele><time>2026-04-24T09:55:59.064Z</time></trkpt><trkpt lat="42.04579" lon="11.9535067"><ele>97.0</ele><time>2026-04-24T09:56:00.064Z</time></trkpt><trkpt lat="42.0458117" lon="11.9534017"><ele>97.0</ele><time>2026-04-24T09:56:01.062Z</time></trkpt><trkpt lat="42.0458383" lon="11.953305"><ele>97.00000000000001</ele><time>2026-04-24T09:56:02.064Z</time></trkpt><trkpt lat="42.0458683" lon="11.95321"><ele>97.0</ele><time>2026-04-24T09:56:03.063Z</time></trkpt><trkpt lat="42.0459017" lon="11.95311"><ele>94.50000000000001</ele><time>2026-04-24T09:56:04.064Z</time></trkpt><trkpt lat="42.045935" lon="11.9530017"><ele>92.0</ele><time>2026-04-24T09:56:05.063Z</time></trkpt><trkpt lat="42.04597" lon="11.952885"><ele>89.5</ele><time>2026-04-24T09:56:06.064Z</time></trkpt><trkpt lat="42.0460033" lon="11.9527683"><ele>87.0</ele><time>2026-04-24T09:56:07.064Z</time></trkpt><trkpt lat="42.0460317" lon="11.9526683"><ele>84.5</ele><time>2026-04-24T09:56:08.065Z</time></trkpt><trkpt lat="42.04606" lon="11.9525633"><ele>82.0</ele><time>2026-04-24T09:56:09.065Z</time></trkpt><trkpt lat="42.0460817" lon="11.9524433"><ele>81.0</ele><time>2026-04-24T09:56:10.063Z</time></trkpt><trkpt lat="42.0460933" lon="11.95232"><ele>80.0</ele><time>2026-04-24T09:56:11.065Z</time></trkpt><trkpt lat="42.046105" lon="11.9521983"><ele>79.0</ele><time>2026-04-24T09:56:12.066Z</time></trkpt><trkpt lat="42.04612" lon="11.9520817"><ele>78.0</ele><time>2026-04-24T09:56:13.061Z</time></trkpt><trkpt lat="42.04614" lon="11.9519683"><ele>77.0</ele><time>2026-04-24T09:56:14.066Z</time></trkpt><trkpt lat="42.0461667" lon="11.951855"><ele>76.0</ele><time>2026-04-24T09:56:15.063Z</time></trkpt><trkpt lat="42.0461967" lon="11.9517067"><ele>74.8</ele><time>2026-04-24T09:56:16.065Z</time></trkpt><trkpt lat="42.04622" lon="11.951565"><ele>73.6</ele><time>2026-04-24T09:56:17.065Z</time></trkpt><trkpt lat="42.0462383" lon="11.9514267"><ele>72.4</ele><time>2026-04-24T09:56:18.063Z</time></trkpt><trkpt lat="42.04626" lon="11.9512983"><ele>71.2</ele><time>2026-04-24T09:56:19.064Z</time></trkpt><trkpt lat="42.04628" lon="11.95118"><ele>70.0</ele><time>2026-04-24T09:56:20.065Z</time></trkpt><trkpt lat="42.04629" lon="11.9510733"><ele>70.0</ele><time>2026-04-24T09:56:21.062Z</time></trkpt><trkpt lat="42.0462933" lon="11.9509583"><ele>70.0</ele><time>2026-04-24T09:56:22.064Z</time></trkpt><trkpt lat="42.0462967" lon="11.950855"><ele>70.0</ele><time>2026-04-24T09:56:23.065Z</time></trkpt><trkpt lat="42.046315" lon="11.95076"><ele>70.0</ele><time>2026-04-24T09:56:24.063Z</time></trkpt><trkpt lat="42.04634" lon="11.9506483"><ele>70.0</ele><time>2026-04-24T09:56:25.063Z</time></trkpt><trkpt lat="42.0463683" lon="11.950525"><ele>70.0</ele><time>2026-04-24T09:56:26.066Z</time></trkpt><trkpt lat="42.0463933" lon="11.9504033"><ele>69.33333333333333</ele><time>2026-04-24T09:56:27.064Z</time></trkpt><trkpt lat="42.0464217" lon="11.9503"><ele>68.66666666666666</ele><time>2026-04-24T09:56:28.066Z</time></trkpt><trkpt lat="42.04645" lon="11.95021"><ele>68.0</ele><time>2026-04-24T09:56:29.066Z</time></trkpt><trkpt lat="42.04647" lon="11.950125"><ele>67.33333333333333</ele><time>2026-04-24T09:56:30.064Z</time></trkpt><trkpt lat="42.0464733" lon="11.9500333"><ele>66.66666666666667</ele><time>2026-04-24T09:56:31.063Z</time></trkpt><trkpt lat="42.0464533" lon="11.9499483"><ele>66.0</ele><time>2026-04-24T09:56:32.067Z</time></trkpt><trkpt lat="42.046385" lon="11.9498267"><ele>64.39999999999999</ele><time>2026-04-24T09:56:34.064Z</time></trkpt><trkpt lat="42.0463683" lon="11.9496917"><ele>62.8</ele><time>2026-04-24T09:56:36.064Z</time></trkpt><trkpt lat="42.0463617" lon="11.9495267"><ele>61.199999999999996</ele><time>2026-04-24T09:56:38.064Z</time></trkpt><trkpt lat="42.046345" lon="11.9494183"><ele>59.599999999999994</ele><time>2026-04-24T09:56:39.065Z</time></trkpt><trkpt lat="42.046315" lon="11.94931"><ele>58.0</ele><time>2026-04-24T09:56:40.063Z</time></trkpt><trkpt lat="42.0462783" lon="11.9492067"><ele>56.99999999999999</ele><time>2026-04-24T09:56:41.063Z</time></trkpt><trkpt lat="42.04625" lon="11.949115"><ele>56.0</ele><time>2026-04-24T09:56:42.063Z</time></trkpt><trkpt lat="42.046235" lon="11.9489933"><ele>55.0</ele><time>2026-04-24T09:56:44.066Z</time></trkpt><trkpt lat="42.046245" lon="11.9488783"><ele>54.0</ele><time>2026-04-24T09:56:46.065Z</time></trkpt><trkpt lat="42.0462683" lon="11.9487917"><ele>52.99999999999999</ele><time>2026-04-24T09:56:47.065Z</time></trkpt><trkpt lat="42.046305" lon="11.9486983"><ele>52.0</ele><time>2026-04-24T09:56:48.066Z</time></trkpt><trkpt lat="42.0463667" lon="11.9486267"><ele>51.99999999999999</ele><time>2026-04-24T09:56:49.065Z</time></trkpt><trkpt lat="42.046435" lon="11.9485767"><ele>52.0</ele><time>2026-04-24T09:56:50.064Z</time></trkpt><trkpt lat="42.0465433" lon="11.94851"><ele>52.0</ele><time>2026-04-24T09:56:52.066Z</time></trkpt><trkpt lat="42.04661" lon="11.9485183"><ele>52.0</ele><time>2026-04-24T09:56:53.064Z</time></trkpt><trkpt lat="42.046675" lon="11.9485433"><ele>51.99999999999999</ele><time>2026-04-24T09:56:54.063Z</time></trkpt><trkpt lat="42.0467433" lon="11.94858"><ele>52.0</ele><time>2026-04-24T09:56:55.065Z</time></trkpt><trkpt lat="42.0468367" lon="11.9486733"><ele>52.14285714285714</ele><time>2026-04-24T09:56:57.063Z</time></trkpt><trkpt lat="42.0468633" lon="11.9487617"><ele>52.28571428571429</ele><time>2026-04-24T09:56:58.065Z</time></trkpt><trkpt lat="42.04689" lon="11.94886"><ele>52.42857142857143</ele><time>2026-04-24T09:56:59.064Z</time></trkpt><trkpt lat="42.0469233" lon="11.9489517"><ele>52.57142857142857</ele><time>2026-04-24T09:57:00.065Z</time></trkpt><trkpt lat="42.04697" lon="11.9490267"><ele>52.71428571428571</ele><time>2026-04-24T09:57:01.064Z</time></trkpt><trkpt lat="42.0470233" lon="11.9490867"><ele>52.85714285714286</ele><time>2026-04-24T09:57:02.064Z</time></trkpt><trkpt lat="42.04707" lon="11.9491533"><ele>53.0</ele><time>2026-04-24T09:57:03.065Z</time></trkpt><trkpt lat="42.0471183" lon="11.94924"><ele>53.333333333333336</ele><time>2026-04-24T09:57:04.064Z</time></trkpt><trkpt lat="42.047175" lon="11.94933"><ele>53.66666666666667</ele><time>2026-04-24T09:57:05.063Z</time></trkpt><trkpt lat="42.047235" lon="11.9494317"><ele>54.0</ele><time>2026-04-24T09:57:06.064Z</time></trkpt><trkpt lat="42.0472917" lon="11.949525"><ele>54.33333333333333</ele><time>2026-04-24T09:57:07.063Z</time></trkpt><trkpt lat="42.0473383" lon="11.9496117"><ele>54.666666666666664</ele><time>2026-04-24T09:57:08.064Z</time></trkpt><trkpt lat="42.047395" lon="11.9496933"><ele>55.0</ele><time>2026-04-24T09:57:09.065Z</time></trkpt><trkpt lat="42.0474517" lon="11.94976"><ele>55.99999999999999</ele><time>2026-04-24T09:57:10.064Z</time></trkpt><trkpt lat="42.0475083" lon="11.9498117"><ele>57.0</ele><time>2026-04-24T09:57:11.064Z</time></trkpt><trkpt lat="42.0476083" lon="11.949905"><ele>58.0</ele><time>2026-04-24T09:57:13.066Z</time></trkpt><trkpt lat="42.0476667" lon="11.9499683"><ele>59.0</ele><time>2026-04-24T09:57:14.064Z</time></trkpt><trkpt lat="42.0477333" lon="11.9500417"><ele>59.99999999999999</ele><time>2026-04-24T09:57:15.064Z</time></trkpt><trkpt lat="42.0477967" lon="11.950115"><ele>61.0</ele><time>2026-04-24T09:57:16.064Z</time></trkpt><trkpt lat="42.04786" lon="11.9501933"><ele>60.99999999999999</ele><time>2026-04-24T09:57:17.062Z</time></trkpt><trkpt lat="42.0479217" lon="11.9502767"><ele>61.0</ele><time>2026-04-24T09:57:18.064Z</time></trkpt><trkpt lat="42.047985" lon="11.95034"><ele>61.0</ele><time>2026-04-24T09:57:19.063Z</time></trkpt><trkpt lat="42.048055" lon="11.9503917"><ele>61.0</ele><time>2026-04-24T09:57:20.064Z</time></trkpt><trkpt lat="42.0481467" lon="11.95044"><ele>60.99999999999999</ele><time>2026-04-24T09:57:21.064Z</time></trkpt><trkpt lat="42.048245" lon="11.9504817"><ele>61.0</ele><time>2026-04-24T09:57:22.064Z</time></trkpt><trkpt lat="42.0483367" lon="11.950525"><ele>62.0</ele><time>2026-04-24T09:57:23.063Z</time></trkpt><trkpt lat="42.048425" lon="11.9505867"><ele>62.99999999999999</ele><time>2026-04-24T09:57:24.063Z</time></trkpt><trkpt lat="42.0485183" lon="11.9506717"><ele>63.99999999999999</ele><time>2026-04-24T09:57:25.066Z</time></trkpt><trkpt lat="42.0486033" lon="11.9507633"><ele>65.0</ele><time>2026-04-24T09:57:26.063Z</time></trkpt><trkpt lat="42.0486883" lon="11.9508467"><ele>66.0</ele><time>2026-04-24T09:57:27.064Z</time></trkpt><trkpt lat="42.048785" lon="11.9509217"><ele>66.0</ele><time>2026-04-24T09:57:28.063Z</time></trkpt><trkpt lat="42.04888" lon="11.9509967"><ele>66.0</ele><time>2026-04-24T09:57:29.064Z</time></trkpt><trkpt lat="42.0489583" lon="11.9510833"><ele>66.0</ele><time>2026-04-24T09:57:30.064Z</time></trkpt><trkpt lat="42.0490233" lon="11.95118"><ele>66.0</ele><time>2026-04-24T09:57:31.063Z</time></trkpt><trkpt lat="42.0490867" lon="11.951255"><ele>66.0</ele><time>2026-04-24T09:57:32.066Z</time></trkpt><trkpt lat="42.0491533" lon="11.951305"><ele>67.8</ele><time>2026-04-24T09:57:33.064Z</time></trkpt><trkpt lat="42.04924" lon="11.951335"><ele>69.6</ele><time>2026-04-24T09:57:34.063Z</time></trkpt><trkpt lat="42.0493217" lon="11.9513617"><ele>71.4</ele><time>2026-04-24T09:57:35.062Z</time></trkpt><trkpt lat="42.0493817" lon="11.9513933"><ele>73.2</ele><time>2026-04-24T09:57:36.066Z</time></trkpt><trkpt lat="42.04947" lon="11.9514983"><ele>75.0</ele><time>2026-04-24T09:57:38.065Z</time></trkpt><trkpt lat="42.04955" lon="11.951595"><ele>75.0</ele><time>2026-04-24T09:57:40.064Z</time></trkpt><trkpt lat="42.0496267" lon="11.9516817"><ele>75.0</ele><time>2026-04-24T09:57:42.064Z</time></trkpt><trkpt lat="42.04969" lon="11.9517933"><ele>75.0</ele><time>2026-04-24T09:57:44.065Z</time></trkpt><trkpt lat="42.04973" lon="11.951905"><ele>75.0</ele><time>2026-04-24T09:57:46.063Z</time></trkpt><trkpt lat="42.0497667" lon="11.9520333"><ele>75.0</ele><time>2026-04-24T09:57:48.063Z</time></trkpt><trkpt lat="42.04982" lon="11.9521583"><ele>75.5</ele><time>2026-04-24T09:57:50.065Z</time></trkpt><trkpt lat="42.0498483" lon="11.9522367"><ele>76.0</ele><time>2026-04-24T09:57:51.064Z</time></trkpt><trkpt lat="42.0498733" lon="11.9523333"><ele>76.5</ele><time>2026-04-24T09:57:52.064Z</time></trkpt><trkpt lat="42.0498917" lon="11.9524433"><ele>77.0</ele><time>2026-04-24T09:57:53.065Z</time></trkpt><trkpt lat="42.049915" lon="11.9525567"><ele>77.5</ele><time>2026-04-24T09:57:54.065Z</time></trkpt><trkpt lat="42.0499333" lon="11.95266"><ele>78.0</ele><time>2026-04-24T09:57:55.063Z</time></trkpt><trkpt lat="42.049945" lon="11.9527533"><ele>79.66666666666667</ele><time>2026-04-24T09:57:56.064Z</time></trkpt><trkpt lat="42.0499517" lon="11.9528467"><ele>81.33333333333333</ele><time>2026-04-24T09:57:57.065Z</time></trkpt><trkpt lat="42.0499483" lon="11.9529483"><ele>83.0</ele><time>2026-04-24T09:57:58.061Z</time></trkpt><trkpt lat="42.04994" lon="11.9530517"><ele>84.66666666666666</ele><time>2026-04-24T09:57:59.065Z</time></trkpt><trkpt lat="42.04993" lon="11.9531717"><ele>86.33333333333333</ele><time>2026-04-24T09:58:00.065Z</time></trkpt><trkpt lat="42.04993" lon="11.9532933"><ele>88.0</ele><time>2026-04-24T09:58:01.062Z</time></trkpt><trkpt lat="42.0499417" lon="11.9534117"><ele>90.0</ele><time>2026-04-24T09:58:02.067Z</time></trkpt><trkpt lat="42.0499717" lon="11.9535117"><ele>92.0</ele><time>2026-04-24T09:58:03.066Z</time></trkpt><trkpt lat="42.05001" lon="11.9535983"><ele>94.0</ele><time>2026-04-24T09:58:04.065Z</time></trkpt><trkpt lat="42.0500717" lon="11.953665"><ele>96.0</ele><time>2026-04-24T09:58:05.065Z</time></trkpt><trkpt lat="42.0501467" lon="11.9537"><ele>98.00000000000001</ele><time>2026-04-24T09:58:06.066Z</time></trkpt><trkpt lat="42.050235" lon="11.9537117"><ele>100.0</ele><time>2026-04-24T09:58:07.065Z</time></trkpt><trkpt lat="42.050345" lon="11.9537167"><ele>100.0</ele><time>2026-04-24T09:58:08.065Z</time></trkpt><trkpt lat="42.05045" lon="11.9537383"><ele>100.0</ele><time>2026-04-24T09:58:09.064Z</time></trkpt><trkpt lat="42.0505517" lon="11.95377"><ele>100.0</ele><time>2026-04-24T09:58:10.065Z</time></trkpt><trkpt lat="42.05064" lon="11.9537983"><ele>100.0</ele><time>2026-04-24T09:58:11.065Z</time></trkpt><trkpt lat="42.05072" lon="11.9537983"><ele>100.0</ele><time>2026-04-24T09:58:12.064Z</time></trkpt><trkpt lat="42.050805" lon="11.9537717"><ele>101.00000000000001</ele><time>2026-04-24T09:58:13.064Z</time></trkpt><trkpt lat="42.05089" lon="11.9537367"><ele>102.0</ele><time>2026-04-24T09:58:14.064Z</time></trkpt><trkpt lat="42.0509633" lon="11.9537067"><ele>103.0</ele><time>2026-04-24T09:58:15.063Z</time></trkpt><trkpt lat="42.051025" lon="11.953685"><ele>104.0</ele><time>2026-04-24T09:58:16.064Z</time></trkpt><trkpt lat="42.0510867" lon="11.953665"><ele>105.0</ele><time>2026-04-24T09:58:17.064Z</time></trkpt><trkpt lat="42.0511617" lon="11.9536533"><ele>106.00000000000001</ele><time>2026-04-24T09:58:18.064Z</time></trkpt><trkpt lat="42.0512383" lon="11.95366"><ele>107.0</ele><time>2026-04-24T09:58:19.064Z</time></trkpt><trkpt lat="42.0513083" lon="11.95367"><ele>107.0</ele><time>2026-04-24T09:58:20.065Z</time></trkpt><trkpt lat="42.0513717" lon="11.9536817"><ele>106.99999999999999</ele><time>2026-04-24T09:58:21.064Z</time></trkpt><trkpt lat="42.05149" lon="11.9537167"><ele>106.99999999999999</ele><time>2026-04-24T09:58:23.064Z</time></trkpt><trkpt lat="42.0516067" lon="11.953815"><ele>107.0</ele><time>2026-04-24T09:58:25.064Z</time></trkpt><trkpt lat="42.0516867" lon="11.953875"><ele>107.0</ele><time>2026-04-24T09:58:26.065Z</time></trkpt><trkpt lat="42.051765" lon="11.9539267"><ele>109.16666666666666</ele><time>2026-04-24T09:58:27.063Z</time></trkpt><trkpt lat="42.0518283" lon="11.95398"><ele>111.33333333333333</ele><time>2026-04-24T09:58:28.064Z</time></trkpt><trkpt lat="42.051885" lon="11.9540433"><ele>113.5</ele><time>2026-04-24T09:58:29.063Z</time></trkpt><trkpt lat="42.0519433" lon="11.9541167"><ele>115.66666666666666</ele><time>2026-04-24T09:58:30.063Z</time></trkpt><trkpt lat="42.052005" lon="11.9541933"><ele>117.83333333333333</ele><time>2026-04-24T09:58:31.063Z</time></trkpt><trkpt lat="42.052075" lon="11.9542583"><ele>120.0</ele><time>2026-04-24T09:58:32.063Z</time></trkpt><trkpt lat="42.0521383" lon="11.954315"><ele>121.16666666666667</ele><time>2026-04-24T09:58:33.063Z</time></trkpt><trkpt lat="42.0522017" lon="11.954375"><ele>122.33333333333334</ele><time>2026-04-24T09:58:34.063Z</time></trkpt><trkpt lat="42.0522767" lon="11.9544333"><ele>123.5</ele><time>2026-04-24T09:58:35.062Z</time></trkpt><trkpt lat="42.0523517" lon="11.9544883"><ele>124.66666666666667</ele><time>2026-04-24T09:58:36.064Z</time></trkpt><trkpt lat="42.05243" lon="11.9545367"><ele>125.83333333333334</ele><time>2026-04-24T09:58:37.064Z</time></trkpt><trkpt lat="42.052505" lon="11.9545883"><ele>127.0</ele><time>2026-04-24T09:58:38.063Z</time></trkpt><trkpt lat="42.0525717" lon="11.9546533"><ele>127.66666666666667</ele><time>2026-04-24T09:58:39.062Z</time></trkpt><trkpt lat="42.0526183" lon="11.954745"><ele>128.33333333333334</ele><time>2026-04-24T09:58:40.063Z</time></trkpt><trkpt lat="42.0526683" lon="11.9548367"><ele>129.0</ele><time>2026-04-24T09:58:41.064Z</time></trkpt><trkpt lat="42.0527217" lon="11.9549067"><ele>129.66666666666666</ele><time>2026-04-24T09:58:42.063Z</time></trkpt><trkpt lat="42.0527967" lon="11.954945"><ele>130.33333333333331</ele><time>2026-04-24T09:58:43.063Z</time></trkpt><trkpt lat="42.0528833" lon="11.9549667"><ele>131.0</ele><time>2026-04-24T09:58:44.064Z</time></trkpt><trkpt lat="42.0529767" lon="11.95499"><ele>131.0</ele><time>2026-04-24T09:58:45.065Z</time></trkpt><trkpt lat="42.0530617" lon="11.9550233"><ele>131.0</ele><time>2026-04-24T09:58:46.063Z</time></trkpt><trkpt lat="42.0531283" lon="11.9550683"><ele>131.0</ele><time>2026-04-24T09:58:47.063Z</time></trkpt><trkpt lat="42.053185" lon="11.9551267"><ele>131.0</ele><time>2026-04-24T09:58:48.064Z</time></trkpt><trkpt lat="42.0532383" lon="11.955205"><ele>131.0</ele><time>2026-04-24T09:58:49.063Z</time></trkpt><trkpt lat="42.0533" lon="11.9552917"><ele>131.0</ele><time>2026-04-24T09:58:50.064Z</time></trkpt><trkpt lat="42.0533717" lon="11.9553933"><ele>133.8</ele><time>2026-04-24T09:58:51.064Z</time></trkpt><trkpt lat="42.0534383" lon="11.955505"><ele>136.6</ele><time>2026-04-24T09:58:52.063Z</time></trkpt><trkpt lat="42.0534983" lon="11.955625"><ele>139.4</ele><time>2026-04-24T09:58:53.063Z</time></trkpt><trkpt lat="42.0535433" lon="11.9557367"><ele>142.2</ele><time>2026-04-24T09:58:54.062Z</time></trkpt><trkpt lat="42.053575" lon="11.9558417"><ele>145.0</ele><time>2026-04-24T09:58:55.063Z</time></trkpt><trkpt lat="42.053605" lon="11.955945"><ele>147.0</ele><time>2026-04-24T09:58:56.064Z</time></trkpt><trkpt lat="42.0536367" lon="11.95606"><ele>149.0</ele><time>2026-04-24T09:58:57.063Z</time></trkpt><trkpt lat="42.05368" lon="11.956175"><ele>151.0</ele><time>2026-04-24T09:58:58.064Z</time></trkpt><trkpt lat="42.0537367" lon="11.9562917"><ele>153.0</ele><time>2026-04-24T09:58:59.063Z</time></trkpt><trkpt lat="42.0537983" lon="11.9563967"><ele>155.0</ele><time>2026-04-24T09:59:00.063Z</time></trkpt><trkpt lat="42.0538583" lon="11.9564967"><ele>155.0</ele><time>2026-04-24T09:59:01.064Z</time></trkpt><trkpt lat="42.0539117" lon="11.9566033"><ele>155.0</ele><time>2026-04-24T09:59:02.066Z</time></trkpt><trkpt lat="42.05397" lon="11.9567033"><ele>155.0</ele><time>2026-04-24T09:59:03.063Z</time></trkpt><trkpt lat="42.0540367" lon="11.9567983"><ele>155.0</ele><time>2026-04-24T09:59:04.062Z</time></trkpt><trkpt lat="42.054105" lon="11.9568833"><ele>155.0</ele><time>2026-04-24T09:59:05.063Z</time></trkpt><trkpt lat="42.05417" lon="11.9569667"><ele>155.83333333333331</ele><time>2026-04-24T09:59:06.063Z</time></trkpt><trkpt lat="42.0542317" lon="11.9570567"><ele>156.66666666666666</ele><time>2026-04-24T09:59:07.063Z</time></trkpt><trkpt lat="42.05429" lon="11.95715"><ele>157.5</ele><time>2026-04-24T09:59:08.066Z</time></trkpt><trkpt lat="42.0543483" lon="11.9572433"><ele>158.33333333333334</ele><time>2026-04-24T09:59:09.064Z</time></trkpt><trkpt lat="42.054395" lon="11.9573383"><ele>159.16666666666669</ele><time>2026-04-24T09:59:10.063Z</time></trkpt><trkpt lat="42.0544283" lon="11.95743"><ele>160.0</ele><time>2026-04-24T09:59:11.063Z</time></trkpt><trkpt lat="42.054465" lon="11.957515"><ele>160.16666666666669</ele><time>2026-04-24T09:59:12.064Z</time></trkpt><trkpt lat="42.0545117" lon="11.9575917"><ele>160.33333333333334</ele><time>2026-04-24T09:59:13.065Z</time></trkpt><trkpt lat="42.0545667" lon="11.9576583"><ele>160.5</ele><time>2026-04-24T09:59:14.064Z</time></trkpt><trkpt lat="42.05461" lon="11.95772"><ele>160.66666666666666</ele><time>2026-04-24T09:59:15.063Z</time></trkpt><trkpt lat="42.0546617" lon="11.957825"><ele>160.83333333333331</ele><time>2026-04-24T09:59:17.064Z</time></trkpt><trkpt lat="42.0546533" lon="11.9579167"><ele>161.0</ele><time>2026-04-24T09:59:19.063Z</time></trkpt><trkpt lat="42.05458" lon="11.9579933"><ele>161.0</ele><time>2026-04-24T09:59:21.064Z</time></trkpt><trkpt lat="42.054505" lon="11.95804"><ele>161.0</ele><time>2026-04-24T09:59:23.064Z</time></trkpt><trkpt lat="42.0544283" lon="11.958085"><ele>161.0</ele><time>2026-04-24T09:59:25.064Z</time></trkpt><trkpt lat="42.0543483" lon="11.9581667"><ele>161.0</ele><time>2026-04-24T09:59:27.062Z</time></trkpt><trkpt lat="42.05428" lon="11.9582483"><ele>161.0</ele><time>2026-04-24T09:59:29.065Z</time></trkpt><trkpt lat="42.0541967" lon="11.95835"><ele>161.66666666666666</ele><time>2026-04-24T09:59:31.065Z</time></trkpt><trkpt lat="42.0541467" lon="11.9584017"><ele>162.33333333333331</ele><time>2026-04-24T09:59:32.065Z</time></trkpt><trkpt lat="42.0540933" lon="11.9584567"><ele>163.0</ele><time>2026-04-24T09:59:33.066Z</time></trkpt><trkpt lat="42.0540067" lon="11.9585533"><ele>163.66666666666666</ele><time>2026-04-24T09:59:35.063Z</time></trkpt><trkpt lat="42.0539467" lon="11.95865"><ele>164.33333333333334</ele><time>2026-04-24T09:59:37.065Z</time></trkpt><trkpt lat="42.053885" lon="11.95873"><ele>165.0</ele><time>2026-04-24T09:59:39.063Z</time></trkpt><trkpt lat="42.053825" lon="11.9588217"><ele>167.0</ele><time>2026-04-24T09:59:41.063Z</time></trkpt><trkpt lat="42.0537883" lon="11.9588967"><ele>169.0</ele><time>2026-04-24T09:59:43.064Z</time></trkpt><trkpt lat="42.053745" lon="11.9589983"><ele>171.0</ele><time>2026-04-24T09:59:45.062Z</time></trkpt><trkpt lat="42.053715" lon="11.959075"><ele>173.0</ele><time>2026-04-24T09:59:46.062Z</time></trkpt><trkpt lat="42.0536833" lon="11.9591733"><ele>175.0</ele><time>2026-04-24T09:59:47.063Z</time></trkpt><trkpt lat="42.0536483" lon="11.9592783"><ele>177.0</ele><time>2026-04-24T09:59:48.063Z</time></trkpt><trkpt lat="42.053615" lon="11.9593767"><ele>178.16666666666666</ele><time>2026-04-24T09:59:49.063Z</time></trkpt><trkpt lat="42.0535883" lon="11.9594717"><ele>179.33333333333334</ele><time>2026-04-24T09:59:50.064Z</time></trkpt><trkpt lat="42.0535717" lon="11.9595733"><ele>180.5</ele><time>2026-04-24T09:59:51.062Z</time></trkpt><trkpt lat="42.0535667" lon="11.95968"><ele>181.66666666666669</ele><time>2026-04-24T09:59:52.064Z</time></trkpt><trkpt lat="42.0535683" lon="11.95979"><ele>182.83333333333334</ele><time>2026-04-24T09:59:53.064Z</time></trkpt><trkpt lat="42.0535717" lon="11.9598967"><ele>184.0</ele><time>2026-04-24T09:59:54.064Z</time></trkpt><trkpt lat="42.0535817" lon="11.959985"><ele>185.39999999999998</ele><time>2026-04-24T09:59:55.064Z</time></trkpt><trkpt lat="42.053625" lon="11.9601167"><ele>186.8</ele><time>2026-04-24T09:59:57.063Z</time></trkpt><trkpt lat="42.0536717" lon="11.9602667"><ele>188.2</ele><time>2026-04-24T09:59:59.066Z</time></trkpt><trkpt lat="42.0536933" lon="11.9603483"><ele>189.60000000000002</ele><time>2026-04-24T10:00:00.065Z</time></trkpt><trkpt lat="42.0537433" lon="11.9604783"><ele>191.0</ele><time>2026-04-24T10:00:02.064Z</time></trkpt><trkpt lat="42.0538217" lon="11.960595"><ele>191.0</ele><time>2026-04-24T10:00:04.065Z</time></trkpt><trkpt lat="42.05387" lon="11.9606717"><ele>191.0</ele><time>2026-04-24T10:00:05.065Z</time></trkpt><trkpt lat="42.0539083" lon="11.9607567"><ele>191.0</ele><time>2026-04-24T10:00:06.066Z</time></trkpt><trkpt lat="42.0539517" lon="11.9608683"><ele>191.0</ele><time>2026-04-24T10:00:07.067Z</time></trkpt><trkpt lat="42.0540133" lon="11.960985"><ele>191.0</ele><time>2026-04-24T10:00:08.066Z</time></trkpt><trkpt lat="42.054075" lon="11.9610917"><ele>191.0</ele><time>2026-04-24T10:00:09.064Z</time></trkpt><trkpt lat="42.0541283" lon="11.961175"><ele>191.33333333333331</ele><time>2026-04-24T10:00:10.068Z</time></trkpt><trkpt lat="42.0541767" lon="11.9612517"><ele>191.66666666666666</ele><time>2026-04-24T10:00:11.067Z</time></trkpt><trkpt lat="42.054225" lon="11.96133"><ele>192.0</ele><time>2026-04-24T10:00:12.067Z</time></trkpt><trkpt lat="42.05427" lon="11.9614133"><ele>192.33333333333331</ele><time>2026-04-24T10:00:13.065Z</time></trkpt><trkpt lat="42.0543167" lon="11.9615"><ele>192.66666666666666</ele><time>2026-04-24T10:00:14.064Z</time></trkpt><trkpt lat="42.0543717" lon="11.9615917"><ele>193.0</ele><time>2026-04-24T10:00:15.065Z</time></trkpt><trkpt lat="42.05444" lon="11.96168"><ele>194.99999999999997</ele><time>2026-04-24T10:00:16.063Z</time></trkpt><trkpt lat="42.0545" lon="11.961765"><ele>197.0</ele><time>2026-04-24T10:00:17.066Z</time></trkpt><trkpt lat="42.05455" lon="11.9618533"><ele>199.0</ele><time>2026-04-24T10:00:18.063Z</time></trkpt><trkpt lat="42.054595" lon="11.9619433"><ele>201.0</ele><time>2026-04-24T10:00:19.064Z</time></trkpt><trkpt lat="42.0546333" lon="11.9620567"><ele>202.99999999999997</ele><time>2026-04-24T10:00:21.063Z</time></trkpt><trkpt lat="42.054725" lon="11.962125"><ele>205.0</ele><time>2026-04-24T10:00:23.063Z</time></trkpt><trkpt lat="42.054785" lon="11.9621567"><ele>205.0</ele><time>2026-04-24T10:00:24.063Z</time></trkpt><trkpt lat="42.0548467" lon="11.9622383"><ele>205.0</ele><time>2026-04-24T10:00:26.066Z</time></trkpt><trkpt lat="42.0548233" lon="11.9623767"><ele>205.0</ele><time>2026-04-24T10:00:28.062Z</time></trkpt><trkpt lat="42.054805" lon="11.9624717"><ele>205.0</ele><time>2026-04-24T10:00:29.065Z</time></trkpt><trkpt lat="42.0547483" lon="11.96261"><ele>205.0</ele><time>2026-04-24T10:00:31.065Z</time></trkpt><trkpt lat="42.0546917" lon="11.9626617"><ele>206.83333333333331</ele><time>2026-04-24T10:00:32.064Z</time></trkpt><trkpt lat="42.05462" lon="11.9626967"><ele>208.66666666666666</ele><time>2026-04-24T10:00:33.064Z</time></trkpt><trkpt lat="42.0545467" lon="11.9627117"><ele>210.5</ele><time>2026-04-24T10:00:34.064Z</time></trkpt><trkpt lat="42.05447" lon="11.962725"><ele>212.33333333333331</ele><time>2026-04-24T10:00:35.066Z</time></trkpt><trkpt lat="42.0543917" lon="11.96275"><ele>214.16666666666666</ele><time>2026-04-24T10:00:36.063Z</time></trkpt><trkpt lat="42.0543083" lon="11.96277"><ele>216.0</ele><time>2026-04-24T10:00:37.064Z</time></trkpt><trkpt lat="42.054225" lon="11.9627867"><ele>216.0</ele><time>2026-04-24T10:00:38.064Z</time></trkpt><trkpt lat="42.054135" lon="11.96279"><ele>216.0</ele><time>2026-04-24T10:00:39.065Z</time></trkpt><trkpt lat="42.054045" lon="11.9627833"><ele>216.0</ele><time>2026-04-24T10:00:40.065Z</time></trkpt><trkpt lat="42.05395" lon="11.9627767"><ele>216.0</ele><time>2026-04-24T10:00:41.062Z</time></trkpt><trkpt lat="42.0538667" lon="11.9627817"><ele>216.0</ele><time>2026-04-24T10:00:42.063Z</time></trkpt><trkpt lat="42.0538" lon="11.9627917"><ele>216.0</ele><time>2026-04-24T10:00:43.064Z</time></trkpt><trkpt lat="42.0536917" lon="11.9628717"><ele>217.5</ele><time>2026-04-24T10:00:45.064Z</time></trkpt><trkpt lat="42.0536483" lon="11.9629433"><ele>219.0</ele><time>2026-04-24T10:00:46.065Z</time></trkpt><trkpt lat="42.053605" lon="11.96301"><ele>220.5</ele><time>2026-04-24T10:00:47.064Z</time></trkpt><trkpt lat="42.0535533" lon="11.9630717"><ele>222.0</ele><time>2026-04-24T10:00:48.063Z</time></trkpt><trkpt lat="42.053485" lon="11.96314"><ele>223.5</ele><time>2026-04-24T10:00:49.064Z</time></trkpt><trkpt lat="42.0534133" lon="11.9632117"><ele>225.0</ele><time>2026-04-24T10:00:50.064Z</time></trkpt><trkpt lat="42.0533433" lon="11.9632667"><ele>225.0</ele><time>2026-04-24T10:00:51.063Z</time></trkpt><trkpt lat="42.05327" lon="11.9632933"><ele>225.0</ele><time>2026-04-24T10:00:52.064Z</time></trkpt><trkpt lat="42.05319" lon="11.9633167"><ele>225.0</ele><time>2026-04-24T10:00:53.064Z</time></trkpt><trkpt lat="42.053115" lon="11.9633583"><ele>225.0</ele><time>2026-04-24T10:00:54.063Z</time></trkpt><trkpt lat="42.0530333" lon="11.9634"><ele>225.0</ele><time>2026-04-24T10:00:55.065Z</time></trkpt><trkpt lat="42.0529433" lon="11.9634283"><ele>225.0</ele><time>2026-04-24T10:00:56.065Z</time></trkpt><trkpt lat="42.0528417" lon="11.963445"><ele>225.0</ele><time>2026-04-24T10:00:57.064Z</time></trkpt><trkpt lat="42.052745" lon="11.9634617"><ele>225.0</ele><time>2026-04-24T10:00:58.064Z</time></trkpt><trkpt lat="42.05266" lon="11.96348"><ele>225.0</ele><time>2026-04-24T10:00:59.065Z</time></trkpt><trkpt lat="42.05257" lon="11.96351"><ele>225.0</ele><time>2026-04-24T10:01:01.065Z</time></trkpt><trkpt lat="42.05257" lon="11.9636083"><ele>225.0</ele><time>2026-04-24T10:01:05.063Z</time></trkpt><trkpt lat="42.0526367" lon="11.9636333"><ele>225.0</ele><time>2026-04-24T10:02:22.063Z</time></trkpt><trkpt lat="42.052735" lon="11.9636267"><ele>225.0</ele><time>2026-04-24T10:03:24.064Z</time></trkpt><trkpt lat="42.0528117" lon="11.9636017"><ele>225.0</ele><time>2026-04-24T10:03:25.065Z</time></trkpt><trkpt lat="42.05291" lon="11.96357"><ele>225.0</ele><time>2026-04-24T10:03:26.063Z</time></trkpt><trkpt lat="42.0530233" lon="11.9635233"><ele>225.0</ele><time>2026-04-24T10:03:27.065Z</time></trkpt><trkpt lat="42.053135" lon="11.9634733"><ele>225.0</ele><time>2026-04-24T10:03:28.063Z</time></trkpt><trkpt lat="42.0532333" lon="11.9634333"><ele>227.2</ele><time>2026-04-24T10:03:29.066Z</time></trkpt><trkpt lat="42.05333" lon="11.9634067"><ele>229.4</ele><time>2026-04-24T10:03:30.063Z</time></trkpt><trkpt lat="42.0534283" lon="11.96339"><ele>231.60000000000002</ele><time>2026-04-24T10:03:31.063Z</time></trkpt><trkpt lat="42.0535267" lon="11.9633783"><ele>233.8</ele><time>2026-04-24T10:03:32.065Z</time></trkpt><trkpt lat="42.0536267" lon="11.9633733"><ele>236.0</ele><time>2026-04-24T10:03:33.064Z</time></trkpt><trkpt lat="42.0537317" lon="11.9633767"><ele>236.0</ele><time>2026-04-24T10:03:34.064Z</time></trkpt><trkpt lat="42.0538317" lon="11.9633867"><ele>236.00000000000003</ele><time>2026-04-24T10:03:35.066Z</time></trkpt><trkpt lat="42.05393" lon="11.963395"><ele>236.00000000000003</ele><time>2026-04-24T10:03:36.065Z</time></trkpt><trkpt lat="42.0540233" lon="11.9633983"><ele>236.0</ele><time>2026-04-24T10:03:37.065Z</time></trkpt><trkpt lat="42.0541167" lon="11.9633967"><ele>236.0</ele><time>2026-04-24T10:03:38.068Z</time></trkpt><trkpt lat="42.0542083" lon="11.9633917"><ele>235.33333333333334</ele><time>2026-04-24T10:03:39.063Z</time></trkpt><trkpt lat="42.054295" lon="11.963395"><ele>234.66666666666669</ele><time>2026-04-24T10:03:40.064Z</time></trkpt><trkpt lat="42.0543767" lon="11.9633967"><ele>234.0</ele><time>2026-04-24T10:03:41.065Z</time></trkpt><trkpt lat="42.054455" lon="11.9634033"><ele>233.33333333333331</ele><time>2026-04-24T10:03:42.064Z</time></trkpt><trkpt lat="42.054535" lon="11.9634133"><ele>232.66666666666666</ele><time>2026-04-24T10:03:43.065Z</time></trkpt><trkpt lat="42.0546183" lon="11.9634033"><ele>232.0</ele><time>2026-04-24T10:03:44.065Z</time></trkpt><trkpt lat="42.0546967" lon="11.9633867"><ele>228.8</ele><time>2026-04-24T10:03:45.064Z</time></trkpt><trkpt lat="42.05476" lon="11.9633583"><ele>225.6</ele><time>2026-04-24T10:03:46.066Z</time></trkpt><trkpt lat="42.05487" lon="11.9632967"><ele>222.40000000000003</ele><time>2026-04-24T10:03:48.062Z</time></trkpt><trkpt lat="42.0549917" lon="11.9632933"><ele>219.20000000000002</ele><time>2026-04-24T10:03:50.065Z</time></trkpt><trkpt lat="42.055065" lon="11.9633233"><ele>216.0</ele><time>2026-04-24T10:03:51.063Z</time></trkpt><trkpt lat="42.05514" lon="11.963345"><ele>215.0</ele><time>2026-04-24T10:03:52.064Z</time></trkpt><trkpt lat="42.05521" lon="11.9633467"><ele>214.0</ele><time>2026-04-24T10:03:53.064Z</time></trkpt><trkpt lat="42.0552833" lon="11.9633233"><ele>213.0</ele><time>2026-04-24T10:03:54.066Z</time></trkpt><trkpt lat="42.0553517" lon="11.9632733"><ele>212.0</ele><time>2026-04-24T10:03:55.065Z</time></trkpt><trkpt lat="42.055415" lon="11.9632233"><ele>211.0</ele><time>2026-04-24T10:03:56.065Z</time></trkpt><trkpt lat="42.0554717" lon="11.9631817"><ele>210.0</ele><time>2026-04-24T10:03:57.064Z</time></trkpt><trkpt lat="42.0555667" lon="11.9631133"><ele>210.0</ele><time>2026-04-24T10:03:59.066Z</time></trkpt><trkpt lat="42.05564" lon="11.9630767"><ele>210.0</ele><time>2026-04-24T10:04:01.063Z</time></trkpt><trkpt lat="42.0557017" lon="11.963045"><ele>210.0</ele><time>2026-04-24T10:04:03.063Z</time></trkpt><trkpt lat="42.0558367" lon="11.96312"><ele>210.0</ele><time>2026-04-24T10:04:07.062Z</time></trkpt><trkpt lat="42.0559333" lon="11.9631617"><ele>210.0</ele><time>2026-04-24T10:04:09.064Z</time></trkpt><trkpt lat="42.0560017" lon="11.9632017"><ele>209.0</ele><time>2026-04-24T10:04:11.064Z</time></trkpt><trkpt lat="42.05606" lon="11.9632367"><ele>208.0</ele><time>2026-04-24T10:04:13.065Z</time></trkpt><trkpt lat="42.0561417" lon="11.9632483"><ele>207.0</ele><time>2026-04-24T10:04:15.064Z</time></trkpt><trkpt lat="42.05622" lon="11.9632533"><ele>206.0</ele><time>2026-04-24T10:04:17.063Z</time></trkpt><trkpt lat="42.0563033" lon="11.9632183"><ele>205.0</ele><time>2026-04-24T10:04:20.065Z</time></trkpt><trkpt lat="42.0564017" lon="11.9632083"><ele>204.0</ele><time>2026-04-24T10:04:23.063Z</time></trkpt><trkpt lat="42.0564917" lon="11.9632033"><ele>204.0</ele><time>2026-04-24T10:04:25.064Z</time></trkpt><trkpt lat="42.0565767" lon="11.9632133"><ele>204.0</ele><time>2026-04-24T10:04:27.064Z</time></trkpt><trkpt lat="42.0566783" lon="11.9632117"><ele>204.0</ele><time>2026-04-24T10:04:29.063Z</time></trkpt><trkpt lat="42.0567817" lon="11.9632167"><ele>204.0</ele><time>2026-04-24T10:04:31.064Z</time></trkpt><trkpt lat="42.05688" lon="11.9632133"><ele>204.0</ele><time>2026-04-24T10:04:33.065Z</time></trkpt><trkpt lat="42.0569983" lon="11.963205"><ele>203.2</ele><time>2026-04-24T10:04:35.063Z</time></trkpt><trkpt lat="42.0571183" lon="11.963215"><ele>202.39999999999998</ele><time>2026-04-24T10:04:37.065Z</time></trkpt><trkpt lat="42.0572067" lon="11.9632467"><ele>201.6</ele><time>2026-04-24T10:04:39.063Z</time></trkpt><trkpt lat="42.0572983" lon="11.96332"><ele>200.8</ele><time>2026-04-24T10:04:41.064Z</time></trkpt><trkpt lat="42.05739" lon="11.9633967"><ele>200.0</ele><time>2026-04-24T10:04:43.062Z</time></trkpt><trkpt lat="42.05746" lon="11.9634617"><ele>202.33333333333334</ele><time>2026-04-24T10:04:45.063Z</time></trkpt><trkpt lat="42.057505" lon="11.9635367"><ele>204.66666666666669</ele><time>2026-04-24T10:04:47.064Z</time></trkpt><trkpt lat="42.0575533" lon="11.963605"><ele>207.0</ele><time>2026-04-24T10:04:49.063Z</time></trkpt><trkpt lat="42.0576117" lon="11.9636733"><ele>209.33333333333331</ele><time>2026-04-24T10:04:51.063Z</time></trkpt><trkpt lat="42.0576633" lon="11.963755"><ele>211.66666666666666</ele><time>2026-04-24T10:04:53.064Z</time></trkpt><trkpt lat="42.0577233" lon="11.9638167"><ele>214.0</ele><time>2026-04-24T10:04:55.064Z</time></trkpt><trkpt lat="42.0577817" lon="11.96391"><ele>214.0</ele><time>2026-04-24T10:05:46.061Z</time></trkpt><trkpt lat="42.0578467" lon="11.9640167"><ele>213.99999999999997</ele><time>2026-04-24T10:05:49.063Z</time></trkpt><trkpt lat="42.057915" lon="11.964125"><ele>213.99999999999997</ele><time>2026-04-24T10:05:51.063Z</time></trkpt><trkpt lat="42.0579733" lon="11.9642183"><ele>214.0</ele><time>2026-04-24T10:05:53.064Z</time></trkpt><trkpt lat="42.0580433" lon="11.9643"><ele>214.0</ele><time>2026-04-24T10:05:55.061Z</time></trkpt><trkpt lat="42.0581217" lon="11.9643767"><ele>217.39999999999998</ele><time>2026-04-24T10:05:57.063Z</time></trkpt><trkpt lat="42.0582" lon="11.964455"><ele>220.79999999999998</ele><time>2026-04-24T10:05:59.064Z</time></trkpt><trkpt lat="42.0582633" lon="11.9645583"><ele>224.20000000000002</ele><time>2026-04-24T10:06:01.064Z</time></trkpt><trkpt lat="42.0583317" lon="11.96467"><ele>227.60000000000002</ele><time>2026-04-24T10:06:03.064Z</time></trkpt><trkpt lat="42.058415" lon="11.9647583"><ele>231.0</ele><time>2026-04-24T10:06:05.065Z</time></trkpt><trkpt lat="42.0585167" lon="11.9648033"><ele>231.0</ele><time>2026-04-24T10:06:07.064Z</time></trkpt><trkpt lat="42.0586133" lon="11.9648133"><ele>231.0</ele><time>2026-04-24T10:06:09.062Z</time></trkpt><trkpt lat="42.0587033" lon="11.964775"><ele>231.0</ele><time>2026-04-24T10:06:11.063Z</time></trkpt><trkpt lat="42.0587867" lon="11.9647333"><ele>231.0</ele><time>2026-04-24T10:06:13.063Z</time></trkpt><trkpt lat="42.0588517" lon="11.9647183"><ele>231.0</ele><time>2026-04-24T10:06:15.063Z</time></trkpt><trkpt lat="42.0589183" lon="11.9647167"><ele>231.0</ele><time>2026-04-24T10:06:17.063Z</time></trkpt><trkpt lat="42.0589833" lon="11.964695"><ele>231.0</ele><time>2026-04-24T10:06:19.063Z</time></trkpt><trkpt lat="42.0590583" lon="11.9646467"><ele>231.00000000000003</ele><time>2026-04-24T10:06:21.063Z</time></trkpt><trkpt lat="42.059155" lon="11.9645917"><ele>231.00000000000003</ele><time>2026-04-24T10:06:23.063Z</time></trkpt><trkpt lat="42.0592633" lon="11.9645417"><ele>231.0</ele><time>2026-04-24T10:06:25.063Z</time></trkpt><trkpt lat="42.05937" lon="11.9645033"><ele>231.0</ele><time>2026-04-24T10:06:27.065Z</time></trkpt><trkpt lat="42.0594633" lon="11.9644633"><ele>232.20000000000002</ele><time>2026-04-24T10:06:36.062Z</time></trkpt><trkpt lat="42.0595567" lon="11.9644867"><ele>233.40000000000003</ele><time>2026-04-24T10:06:38.064Z</time></trkpt><trkpt lat="42.0596567" lon="11.9645633"><ele>234.6</ele><time>2026-04-24T10:06:40.063Z</time></trkpt><trkpt lat="42.0597117" lon="11.964605"><ele>235.8</ele><time>2026-04-24T10:06:41.064Z</time></trkpt><trkpt lat="42.0597667" lon="11.9646567"><ele>237.0</ele><time>2026-04-24T10:06:42.063Z</time></trkpt><trkpt lat="42.0598533" lon="11.9647533"><ele>237.0</ele><time>2026-04-24T10:06:44.064Z</time></trkpt><trkpt lat="42.059905" lon="11.96486"><ele>237.0</ele><time>2026-04-24T10:06:46.063Z</time></trkpt><trkpt lat="42.05994" lon="11.9650167"><ele>237.0</ele><time>2026-04-24T10:06:48.064Z</time></trkpt><trkpt lat="42.0599767" lon="11.96517"><ele>237.0</ele><time>2026-04-24T10:06:50.063Z</time></trkpt><trkpt lat="42.060025" lon="11.9653"><ele>237.0</ele><time>2026-04-24T10:06:52.064Z</time></trkpt><trkpt lat="42.0600767" lon="11.9653533"><ele>240.0</ele><time>2026-04-24T10:06:53.064Z</time></trkpt><trkpt lat="42.0601333" lon="11.965405"><ele>243.0</ele><time>2026-04-24T10:06:54.065Z</time></trkpt><trkpt lat="42.0601917" lon="11.96546"><ele>246.0</ele><time>2026-04-24T10:06:55.066Z</time></trkpt><trkpt lat="42.06025" lon="11.965495"><ele>249.0</ele><time>2026-04-24T10:06:56.064Z</time></trkpt><trkpt lat="42.0603433" lon="11.9655117"><ele>252.0</ele><time>2026-04-24T10:06:58.065Z</time></trkpt><trkpt lat="42.06041" lon="11.9655183"><ele>255.0</ele><time>2026-04-24T10:07:00.065Z</time></trkpt><trkpt lat="42.0605617" lon="11.96556"><ele>255.0</ele><time>2026-04-24T10:07:34.063Z</time></trkpt><trkpt lat="42.060645" lon="11.9655633"><ele>255.0</ele><time>2026-04-24T10:07:47.063Z</time></trkpt><trkpt lat="42.060755" lon="11.965585"><ele>255.0</ele><time>2026-04-24T10:07:49.065Z</time></trkpt><trkpt lat="42.06087" lon="11.96557"><ele>255.0</ele><time>2026-04-24T10:07:51.064Z</time></trkpt><trkpt lat="42.0609833" lon="11.9655167"><ele>255.0</ele><time>2026-04-24T10:07:53.063Z</time></trkpt><trkpt lat="42.0610667" lon="11.96549"><ele>255.0</ele><time>2026-04-24T10:07:55.064Z</time></trkpt><trkpt lat="42.0611267" lon="11.9656167"><ele>255.0</ele><time>2026-04-24T10:07:58.064Z</time></trkpt><trkpt lat="42.061145" lon="11.9657117"><ele>255.0</ele><time>2026-04-24T10:07:59.065Z</time></trkpt><trkpt lat="42.0611683" lon="11.9657983"><ele>255.0</ele><time>2026-04-24T10:08:00.066Z</time></trkpt><trkpt lat="42.0612133" lon="11.96586"><ele>255.0</ele><time>2026-04-24T10:08:01.064Z</time></trkpt><trkpt lat="42.0612883" lon="11.9659083"><ele>255.0</ele><time>2026-04-24T10:08:02.064Z</time></trkpt><trkpt lat="42.0613683" lon="11.9659533"><ele>255.0</ele><time>2026-04-24T10:08:03.064Z</time></trkpt><trkpt lat="42.0614467" lon="11.9659967"><ele>255.00000000000003</ele><time>2026-04-24T10:08:04.062Z</time></trkpt><trkpt lat="42.061515" lon="11.966045"><ele>255.0</ele><time>2026-04-24T10:08:05.066Z</time></trkpt><trkpt lat="42.0615783" lon="11.966095"><ele>255.0</ele><time>2026-04-24T10:08:06.064Z</time></trkpt><trkpt lat="42.06164" lon="11.9661283"><ele>255.00000000000003</ele><time>2026-04-24T10:08:07.065Z</time></trkpt><trkpt lat="42.0617017" lon="11.9661467"><ele>255.0</ele><time>2026-04-24T10:08:08.064Z</time></trkpt><trkpt lat="42.06177" lon="11.9661367"><ele>255.0</ele><time>2026-04-24T10:08:09.065Z</time></trkpt><trkpt lat="42.0618383" lon="11.96613"><ele>252.33333333333334</ele><time>2026-04-24T10:08:10.063Z</time></trkpt><trkpt lat="42.0619033" lon="11.9661533"><ele>249.66666666666669</ele><time>2026-04-24T10:08:11.065Z</time></trkpt><trkpt lat="42.0619683" lon="11.9662067"><ele>247.0</ele><time>2026-04-24T10:08:12.063Z</time></trkpt><trkpt lat="42.062025" lon="11.96626"><ele>244.33333333333334</ele><time>2026-04-24T10:08:13.063Z</time></trkpt><trkpt lat="42.06207" lon="11.9663217"><ele>241.66666666666669</ele><time>2026-04-24T10:08:14.064Z</time></trkpt><trkpt lat="42.0621117" lon="11.9664383"><ele>239.0</ele><time>2026-04-24T10:08:16.064Z</time></trkpt><trkpt lat="42.062125" lon="11.9665567"><ele>239.00000000000003</ele><time>2026-04-24T10:08:56.064Z</time></trkpt><trkpt lat="42.0621" lon="11.9666383"><ele>239.0</ele><time>2026-04-24T10:09:47.062Z</time></trkpt><trkpt lat="42.0620883" lon="11.9667283"><ele>239.0</ele><time>2026-04-24T10:09:48.066Z</time></trkpt><trkpt lat="42.06206" lon="11.96685"><ele>239.0</ele><time>2026-04-24T10:09:49.063Z</time></trkpt><trkpt lat="42.06203" lon="11.96698"><ele>239.00000000000003</ele><time>2026-04-24T10:09:50.065Z</time></trkpt><trkpt lat="42.0620083" lon="11.9671117"><ele>239.0</ele><time>2026-04-24T10:09:51.064Z</time></trkpt><trkpt lat="42.062" lon="11.9672417"><ele>238.6</ele><time>2026-04-24T10:09:52.062Z</time></trkpt><trkpt lat="42.062" lon="11.96738"><ele>238.2</ele><time>2026-04-24T10:09:53.063Z</time></trkpt><trkpt lat="42.0619967" lon="11.9675167"><ele>237.79999999999998</ele><time>2026-04-24T10:09:54.062Z</time></trkpt><trkpt lat="42.06199" lon="11.9676467"><ele>237.39999999999998</ele><time>2026-04-24T10:09:55.063Z</time></trkpt><trkpt lat="42.0619833" lon="11.9677833"><ele>237.0</ele><time>2026-04-24T10:09:56.064Z</time></trkpt><trkpt lat="42.0619817" lon="11.96792"><ele>235.39999999999998</ele><time>2026-04-24T10:09:57.065Z</time></trkpt><trkpt lat="42.06198" lon="11.968065"><ele>233.79999999999998</ele><time>2026-04-24T10:09:58.064Z</time></trkpt><trkpt lat="42.0619667" lon="11.9682117"><ele>232.2</ele><time>2026-04-24T10:09:59.065Z</time></trkpt><trkpt lat="42.06195" lon="11.96836"><ele>230.6</ele><time>2026-04-24T10:10:00.066Z</time></trkpt><trkpt lat="42.0619383" lon="11.9685117"><ele>229.0</ele><time>2026-04-24T10:10:01.064Z</time></trkpt><trkpt lat="42.0619267" lon="11.96866"><ele>228.0</ele><time>2026-04-24T10:10:02.064Z</time></trkpt><trkpt lat="42.0619217" lon="11.9688133"><ele>226.99999999999997</ele><time>2026-04-24T10:10:03.065Z</time></trkpt><trkpt lat="42.06192" lon="11.9689683"><ele>225.99999999999997</ele><time>2026-04-24T10:10:04.064Z</time></trkpt><trkpt lat="42.061915" lon="11.9691183"><ele>225.0</ele><time>2026-04-24T10:10:05.064Z</time></trkpt><trkpt lat="42.06191" lon="11.9692633"><ele>224.0</ele><time>2026-04-24T10:10:06.063Z</time></trkpt><trkpt lat="42.0619083" lon="11.9694017"><ele>222.79999999999998</ele><time>2026-04-24T10:10:07.063Z</time></trkpt><trkpt lat="42.0619117" lon="11.96952"><ele>221.59999999999997</ele><time>2026-04-24T10:10:08.066Z</time></trkpt><trkpt lat="42.0619183" lon="11.9696167"><ele>220.4</ele><time>2026-04-24T10:10:09.063Z</time></trkpt><trkpt lat="42.0619817" lon="11.96974"><ele>219.2</ele><time>2026-04-24T10:10:11.065Z</time></trkpt><trkpt lat="42.0621" lon="11.9697983"><ele>218.0</ele><time>2026-04-24T10:10:13.062Z</time></trkpt><trkpt lat="42.0621967" lon="11.969855"><ele>218.00000000000003</ele><time>2026-04-24T10:10:15.065Z</time></trkpt><trkpt lat="42.0622367" lon="11.96994"><ele>218.0</ele><time>2026-04-24T10:10:17.063Z</time></trkpt><trkpt lat="42.062265" lon="11.9700283"><ele>218.0</ele><time>2026-04-24T10:10:19.064Z</time></trkpt><trkpt lat="42.0623217" lon="11.9700917"><ele>218.0</ele><time>2026-04-24T10:10:22.066Z</time></trkpt><trkpt lat="42.0623835" lon="11.9701121"><ele>218.00000000000003</ele><time>2026-04-24T10:11:32.146Z</time></trkpt><trkpt lat="42.0624578" lon="11.9701137"><ele>218.0</ele><time>2026-04-24T10:11:44.151Z</time></trkpt><trkpt lat="42.0625763" lon="11.9700996"><ele>218.60000000000002</ele><time>2026-04-24T10:11:45.064Z</time></trkpt><trkpt lat="42.0626774" lon="11.9700724"><ele>219.20000000000002</ele><time>2026-04-24T10:11:46.063Z</time></trkpt><trkpt lat="42.0627745" lon="11.9700346"><ele>219.8</ele><time>2026-04-24T10:11:47.063Z</time></trkpt><trkpt lat="42.0628694" lon="11.9700009"><ele>220.4</ele><time>2026-04-24T10:11:48.064Z</time></trkpt><trkpt lat="42.06297" lon="11.9699717"><ele>221.0</ele><time>2026-04-24T10:11:49.065Z</time></trkpt><trkpt lat="42.0630791" lon="11.9699459"><ele>221.75</ele><time>2026-04-24T10:11:50.064Z</time></trkpt><trkpt lat="42.0631921" lon="11.969924"><ele>222.5</ele><time>2026-04-24T10:11:51.062Z</time></trkpt><trkpt lat="42.0633051" lon="11.9699044"><ele>223.25</ele><time>2026-04-24T10:11:52.063Z</time></trkpt><trkpt lat="42.0634148" lon="11.9698787"><ele>224.0</ele><time>2026-04-24T10:11:53.063Z</time></trkpt><trkpt lat="42.0635262" lon="11.9698429"><ele>224.75</ele><time>2026-04-24T10:11:54.064Z</time></trkpt><trkpt lat="42.0636381" lon="11.9697999"><ele>225.5</ele><time>2026-04-24T10:11:55.064Z</time></trkpt><trkpt lat="42.0637541" lon="11.96976"><ele>226.25</ele><time>2026-04-24T10:11:56.064Z</time></trkpt><trkpt lat="42.0638755" lon="11.9697273"><ele>227.0</ele><time>2026-04-24T10:11:57.063Z</time></trkpt><trkpt lat="42.0640046" lon="11.9696947"><ele>227.0</ele><time>2026-04-24T10:11:58.063Z</time></trkpt><trkpt lat="42.0641338" lon="11.9696689"><ele>227.0</ele><time>2026-04-24T10:11:59.064Z</time></trkpt><trkpt lat="42.0642584" lon="11.9696562"><ele>227.0</ele><time>2026-04-24T10:12:00.063Z</time></trkpt><trkpt lat="42.0643774" lon="11.9696572"><ele>227.0</ele><time>2026-04-24T10:12:01.062Z</time></trkpt><trkpt lat="42.0644911" lon="11.9696746"><ele>227.0</ele><time>2026-04-24T10:12:02.064Z</time></trkpt><trkpt lat="42.0645983" lon="11.969709"><ele>227.0</ele><time>2026-04-24T10:12:03.062Z</time></trkpt><trkpt lat="42.0647016" lon="11.969749"><ele>227.0</ele><time>2026-04-24T10:12:04.063Z</time></trkpt><trkpt lat="42.0648028" lon="11.9697915"><ele>227.0</ele><time>2026-04-24T10:12:05.064Z</time></trkpt><trkpt lat="42.0649011" lon="11.9698317"><ele>227.0</ele><time>2026-04-24T10:12:06.062Z</time></trkpt><trkpt lat="42.0649989" lon="11.969862"><ele>228.0</ele><time>2026-04-24T10:12:07.062Z</time></trkpt><trkpt lat="42.0650954" lon="11.9698735"><ele>229.0</ele><time>2026-04-24T10:12:08.063Z</time></trkpt><trkpt lat="42.0651918" lon="11.9698669"><ele>230.0</ele><time>2026-04-24T10:12:09.063Z</time></trkpt><trkpt lat="42.0652869" lon="11.9698554"><ele>231.0</ele><time>2026-04-24T10:12:10.063Z</time></trkpt><trkpt lat="42.065377" lon="11.9698574"><ele>232.0</ele><time>2026-04-24T10:12:11.063Z</time></trkpt><trkpt lat="42.0654552" lon="11.9698865"><ele>232.0</ele><time>2026-04-24T10:12:12.063Z</time></trkpt><trkpt lat="42.0655274" lon="11.9699429"><ele>232.0</ele><time>2026-04-24T10:12:13.062Z</time></trkpt><trkpt lat="42.0656014" lon="11.9700144"><ele>232.0</ele><time>2026-04-24T10:12:14.062Z</time></trkpt><trkpt lat="42.0656818" lon="11.9700767"><ele>232.0</ele><time>2026-04-24T10:12:15.064Z</time></trkpt><trkpt lat="42.0657704" lon="11.9701287"><ele>232.0</ele><time>2026-04-24T10:12:16.062Z</time></trkpt><trkpt lat="42.0658625" lon="11.9701717"><ele>233.8</ele><time>2026-04-24T10:12:17.062Z</time></trkpt><trkpt lat="42.0659585" lon="11.9702087"><ele>235.6</ele><time>2026-04-24T10:12:18.063Z</time></trkpt><trkpt lat="42.0660523" lon="11.9702424"><ele>237.40000000000003</ele><time>2026-04-24T10:12:19.063Z</time></trkpt><trkpt lat="42.066145" lon="11.9702717"><ele>239.20000000000002</ele><time>2026-04-24T10:12:20.064Z</time></trkpt><trkpt lat="42.0662317" lon="11.9703083"><ele>241.0</ele><time>2026-04-24T10:12:21.064Z</time></trkpt><trkpt lat="42.06631" lon="11.9703533"><ele>240.99999999999997</ele><time>2026-04-24T10:12:22.064Z</time></trkpt><trkpt lat="42.0663683" lon="11.970425"><ele>241.0</ele><time>2026-04-24T10:12:23.064Z</time></trkpt><trkpt lat="42.0664183" lon="11.97051"><ele>241.0</ele><time>2026-04-24T10:12:24.063Z</time></trkpt><trkpt lat="42.0664667" lon="11.9706067"><ele>241.0</ele><time>2026-04-24T10:12:25.064Z</time></trkpt><trkpt lat="42.066515" lon="11.970705"><ele>240.99999999999997</ele><time>2026-04-24T10:12:26.064Z</time></trkpt><trkpt lat="42.0665617" lon="11.970785"><ele>241.0</ele><time>2026-04-24T10:12:27.064Z</time></trkpt><trkpt lat="42.06661" lon="11.9708533"><ele>242.49999999999997</ele><time>2026-04-24T10:12:28.063Z</time></trkpt><trkpt lat="42.0666583" lon="11.9709233"><ele>244.0</ele><time>2026-04-24T10:12:29.064Z</time></trkpt><trkpt lat="42.0667167" lon="11.9709917"><ele>245.5</ele><time>2026-04-24T10:12:30.063Z</time></trkpt><trkpt lat="42.0667917" lon="11.9710583"><ele>247.0</ele><time>2026-04-24T10:12:31.063Z</time></trkpt><trkpt lat="42.0668767" lon="11.97112"><ele>248.49999999999997</ele><time>2026-04-24T10:12:32.063Z</time></trkpt><trkpt lat="42.066965" lon="11.9711983"><ele>250.0</ele><time>2026-04-24T10:12:33.063Z</time></trkpt><trkpt lat="42.0670517" lon="11.9712933"><ele>250.0</ele><time>2026-04-24T10:12:34.063Z</time></trkpt><trkpt lat="42.06714" lon="11.9713883"><ele>250.0</ele><time>2026-04-24T10:12:35.064Z</time></trkpt><trkpt lat="42.0672267" lon="11.9714783"><ele>250.0</ele><time>2026-04-24T10:12:36.065Z</time></trkpt><trkpt lat="42.06731" lon="11.9715633"><ele>250.0</ele><time>2026-04-24T10:12:37.065Z</time></trkpt><trkpt lat="42.0673883" lon="11.9716417"><ele>250.0</ele><time>2026-04-24T10:12:38.064Z</time></trkpt><trkpt lat="42.06747" lon="11.971715"><ele>250.2</ele><time>2026-04-24T10:12:39.063Z</time></trkpt><trkpt lat="42.067555" lon="11.97179"><ele>250.4</ele><time>2026-04-24T10:12:40.064Z</time></trkpt><trkpt lat="42.0676383" lon="11.9718683"><ele>250.60000000000002</ele><time>2026-04-24T10:12:41.064Z</time></trkpt><trkpt lat="42.0677167" lon="11.9719517"><ele>250.8</ele><time>2026-04-24T10:12:42.064Z</time></trkpt><trkpt lat="42.0677867" lon="11.9720467"><ele>251.0</ele><time>2026-04-24T10:12:43.063Z</time></trkpt><trkpt lat="42.067855" lon="11.9721417"><ele>251.00000000000003</ele><time>2026-04-24T10:12:44.064Z</time></trkpt><trkpt lat="42.06792" lon="11.972235"><ele>251.0</ele><time>2026-04-24T10:12:45.063Z</time></trkpt><trkpt lat="42.0679717" lon="11.9723333"><ele>251.0</ele><time>2026-04-24T10:12:46.062Z</time></trkpt><trkpt lat="42.0680133" lon="11.9724383"><ele>251.0</ele><time>2026-04-24T10:12:47.063Z</time></trkpt><trkpt lat="42.0680467" lon="11.9725433"><ele>251.00000000000003</ele><time>2026-04-24T10:12:48.063Z</time></trkpt><trkpt lat="42.06808" lon="11.97265"><ele>251.0</ele><time>2026-04-24T10:12:49.063Z</time></trkpt><trkpt lat="42.0681167" lon="11.9727433"><ele>252.16666666666669</ele><time>2026-04-24T10:12:50.065Z</time></trkpt><trkpt lat="42.0681567" lon="11.97281"><ele>253.33333333333334</ele><time>2026-04-24T10:12:51.063Z</time></trkpt><trkpt lat="42.0682483" lon="11.972885"><ele>254.5</ele><time>2026-04-24T10:12:53.064Z</time></trkpt><trkpt lat="42.06836" lon="11.9728567"><ele>255.66666666666669</ele><time>2026-04-24T10:12:55.063Z</time></trkpt><trkpt lat="42.06842" lon="11.9728283"><ele>256.8333333333333</ele><time>2026-04-24T10:12:56.063Z</time></trkpt><trkpt lat="42.06849" lon="11.9728117"><ele>258.0</ele><time>2026-04-24T10:12:57.062Z</time></trkpt><trkpt lat="42.068565" lon="11.97282"><ele>258.0</ele><time>2026-04-24T10:12:58.064Z</time></trkpt><trkpt lat="42.068645" lon="11.9728483"><ele>258.0</ele><time>2026-04-24T10:12:59.064Z</time></trkpt><trkpt lat="42.06873" lon="11.9728917"><ele>258.0</ele><time>2026-04-24T10:13:00.063Z</time></trkpt><trkpt lat="42.0688117" lon="11.97296"><ele>258.0</ele><time>2026-04-24T10:13:01.063Z</time></trkpt><trkpt lat="42.0688917" lon="11.9730283"><ele>258.0</ele><time>2026-04-24T10:13:02.064Z</time></trkpt><trkpt lat="42.06897" lon="11.973095"><ele>258.0</ele><time>2026-04-24T10:13:03.063Z</time></trkpt><trkpt lat="42.0690467" lon="11.9731533"><ele>258.0</ele><time>2026-04-24T10:13:04.064Z</time></trkpt><trkpt lat="42.069125" lon="11.97321"><ele>258.0</ele><time>2026-04-24T10:13:05.064Z</time></trkpt><trkpt lat="42.0692067" lon="11.9732667"><ele>258.0</ele><time>2026-04-24T10:13:06.064Z</time></trkpt><trkpt lat="42.0692967" lon="11.973325"><ele>258.0</ele><time>2026-04-24T10:13:07.063Z</time></trkpt><trkpt lat="42.069385" lon="11.9733933"><ele>260.2</ele><time>2026-04-24T10:13:08.064Z</time></trkpt><trkpt lat="42.0694783" lon="11.9734517"><ele>262.4</ele><time>2026-04-24T10:13:09.063Z</time></trkpt><trkpt lat="42.0695683" lon="11.9734967"><ele>264.59999999999997</ele><time>2026-04-24T10:13:10.063Z</time></trkpt><trkpt lat="42.06966" lon="11.973525"><ele>266.8</ele><time>2026-04-24T10:13:11.064Z</time></trkpt><trkpt lat="42.0697483" lon="11.9735533"><ele>269.0</ele><time>2026-04-24T10:13:12.064Z</time></trkpt><trkpt lat="42.0698267" lon="11.9735967"><ele>269.0</ele><time>2026-04-24T10:13:13.065Z</time></trkpt><trkpt lat="42.069905" lon="11.9736517"><ele>269.0</ele><time>2026-04-24T10:13:14.064Z</time></trkpt><trkpt lat="42.069985" lon="11.9737017"><ele>269.0</ele><time>2026-04-24T10:13:15.063Z</time></trkpt><trkpt lat="42.07007" lon="11.9737417"><ele>269.0</ele><time>2026-04-24T10:13:16.063Z</time></trkpt><trkpt lat="42.070155" lon="11.9737633"><ele>269.0</ele><time>2026-04-24T10:13:17.063Z</time></trkpt><trkpt lat="42.0702367" lon="11.97377"><ele>269.0</ele><time>2026-04-24T10:13:18.065Z</time></trkpt><trkpt lat="42.0703183" lon="11.9737733"><ele>269.33333333333337</ele><time>2026-04-24T10:13:19.064Z</time></trkpt><trkpt lat="42.0703983" lon="11.9737833"><ele>269.6666666666667</ele><time>2026-04-24T10:13:20.064Z</time></trkpt><trkpt lat="42.07047" lon="11.9738"><ele>270.0</ele><time>2026-04-24T10:13:21.064Z</time></trkpt><trkpt lat="42.07054" lon="11.97383"><ele>270.3333333333333</ele><time>2026-04-24T10:13:22.064Z</time></trkpt><trkpt lat="42.0706083" lon="11.9738667"><ele>270.66666666666663</ele><time>2026-04-24T10:13:23.064Z</time></trkpt><trkpt lat="42.0706817" lon="11.9739067"><ele>271.0</ele><time>2026-04-24T10:13:24.063Z</time></trkpt><trkpt lat="42.0707567" lon="11.9739483"><ele>271.40000000000003</ele><time>2026-04-24T10:13:25.064Z</time></trkpt><trkpt lat="42.070845" lon="11.9739783"><ele>271.8</ele><time>2026-04-24T10:13:26.063Z</time></trkpt><trkpt lat="42.070935" lon="11.9739917"><ele>272.20000000000005</ele><time>2026-04-24T10:13:27.063Z</time></trkpt><trkpt lat="42.07103" lon="11.9739967"><ele>272.6</ele><time>2026-04-24T10:13:28.062Z</time></trkpt><trkpt lat="42.07112" lon="11.9740117"><ele>273.0</ele><time>2026-04-24T10:13:29.065Z</time></trkpt><trkpt lat="42.0712117" lon="11.9740417"><ele>273.0</ele><time>2026-04-24T10:13:30.064Z</time></trkpt><trkpt lat="42.071295" lon="11.9740767"><ele>273.0</ele><time>2026-04-24T10:13:31.063Z</time></trkpt><trkpt lat="42.0713717" lon="11.9741217"><ele>273.0</ele><time>2026-04-24T10:13:32.063Z</time></trkpt><trkpt lat="42.07145" lon="11.9741833"><ele>273.0</ele><time>2026-04-24T10:13:33.061Z</time></trkpt><trkpt lat="42.07153" lon="11.974245"><ele>273.0</ele><time>2026-04-24T10:13:34.064Z</time></trkpt><trkpt lat="42.0716167" lon="11.9743083"><ele>274.2</ele><time>2026-04-24T10:13:35.064Z</time></trkpt><trkpt lat="42.0717083" lon="11.9743733"><ele>275.4</ele><time>2026-04-24T10:13:36.062Z</time></trkpt><trkpt lat="42.0717933" lon="11.974445"><ele>276.59999999999997</ele><time>2026-04-24T10:13:37.065Z</time></trkpt><trkpt lat="42.0718683" lon="11.97453"><ele>277.8</ele><time>2026-04-24T10:13:38.064Z</time></trkpt><trkpt lat="42.0719383" lon="11.9746167"><ele>279.0</ele><time>2026-04-24T10:13:39.064Z</time></trkpt><trkpt lat="42.0720167" lon="11.9746933"><ele>279.0</ele><time>2026-04-24T10:13:40.065Z</time></trkpt><trkpt lat="42.0721" lon="11.9747583"><ele>279.0</ele><time>2026-04-24T10:13:41.065Z</time></trkpt><trkpt lat="42.0721833" lon="11.9748083"><ele>279.0</ele><time>2026-04-24T10:13:42.066Z</time></trkpt><trkpt lat="42.0722717" lon="11.9748417"><ele>279.0</ele><time>2026-04-24T10:13:43.064Z</time></trkpt><trkpt lat="42.072365" lon="11.974865"><ele>279.0</ele><time>2026-04-24T10:13:44.065Z</time></trkpt><trkpt lat="42.0724683" lon="11.9748767"><ele>279.8</ele><time>2026-04-24T10:13:45.063Z</time></trkpt><trkpt lat="42.072575" lon="11.9748833"><ele>280.59999999999997</ele><time>2026-04-24T10:13:46.064Z</time></trkpt><trkpt lat="42.0726817" lon="11.9748733"><ele>281.4</ele><time>2026-04-24T10:13:47.065Z</time></trkpt><trkpt lat="42.0727867" lon="11.97487"><ele>282.2</ele><time>2026-04-24T10:13:48.064Z</time></trkpt><trkpt lat="42.072885" lon="11.974875"><ele>283.0</ele><time>2026-04-24T10:13:49.064Z</time></trkpt><trkpt lat="42.0729783" lon="11.9748867"><ele>283.0</ele><time>2026-04-24T10:13:50.064Z</time></trkpt><trkpt lat="42.073065" lon="11.9749083"><ele>283.0</ele><time>2026-04-24T10:13:51.063Z</time></trkpt><trkpt lat="42.0731417" lon="11.9749283"><ele>283.0</ele><time>2026-04-24T10:13:52.065Z</time></trkpt><trkpt lat="42.0732133" lon="11.9749483"><ele>283.0</ele><time>2026-04-24T10:13:53.063Z</time></trkpt><trkpt lat="42.07333" lon="11.9749983"><ele>283.0</ele><time>2026-04-24T10:13:55.063Z</time></trkpt><trkpt lat="42.07343" lon="11.97513"><ele>284.8</ele><time>2026-04-24T10:13:57.065Z</time></trkpt><trkpt lat="42.0734867" lon="11.9752217"><ele>286.6</ele><time>2026-04-24T10:13:58.064Z</time></trkpt><trkpt lat="42.07355" lon="11.97532"><ele>288.4</ele><time>2026-04-24T10:13:59.063Z</time></trkpt><trkpt lat="42.0736133" lon="11.9754133"><ele>290.2</ele><time>2026-04-24T10:14:00.065Z</time></trkpt><trkpt lat="42.0736733" lon="11.9754983"><ele>292.0</ele><time>2026-04-24T10:14:01.064Z</time></trkpt><trkpt lat="42.0737417" lon="11.975565"><ele>292.0</ele><time>2026-04-24T10:14:02.064Z</time></trkpt><trkpt lat="42.073815" lon="11.9756267"><ele>292.0</ele><time>2026-04-24T10:14:03.066Z</time></trkpt><trkpt lat="42.0738883" lon="11.975685"><ele>292.0</ele><time>2026-04-24T10:14:04.064Z</time></trkpt><trkpt lat="42.0739667" lon="11.9757417"><ele>292.0</ele><time>2026-04-24T10:14:05.065Z</time></trkpt><trkpt lat="42.0740483" lon="11.975795"><ele>292.0</ele><time>2026-04-24T10:14:06.064Z</time></trkpt><trkpt lat="42.0741317" lon="11.9758517"><ele>292.0</ele><time>2026-04-24T10:14:07.063Z</time></trkpt><trkpt lat="42.0742183" lon="11.97591"><ele>293.3333333333333</ele><time>2026-04-24T10:14:08.064Z</time></trkpt><trkpt lat="42.0743017" lon="11.9759633"><ele>294.66666666666663</ele><time>2026-04-24T10:14:09.065Z</time></trkpt><trkpt lat="42.0743833" lon="11.976015"><ele>296.0</ele><time>2026-04-24T10:14:10.066Z</time></trkpt><trkpt lat="42.074465" lon="11.9760617"><ele>297.3333333333333</ele><time>2026-04-24T10:14:11.064Z</time></trkpt><trkpt lat="42.074545" lon="11.9761"><ele>298.6666666666667</ele><time>2026-04-24T10:14:12.065Z</time></trkpt><trkpt lat="42.0746317" lon="11.9761217"><ele>300.0</ele><time>2026-04-24T10:14:13.064Z</time></trkpt><trkpt lat="42.0747317" lon="11.976135"><ele>300.0</ele><time>2026-04-24T10:14:14.065Z</time></trkpt><trkpt lat="42.0748333" lon="11.9761467"><ele>300.0</ele><time>2026-04-24T10:14:15.065Z</time></trkpt><trkpt lat="42.074935" lon="11.976155"><ele>300.0</ele><time>2026-04-24T10:14:16.064Z</time></trkpt><trkpt lat="42.07503" lon="11.9761683"><ele>300.0</ele><time>2026-04-24T10:14:17.064Z</time></trkpt><trkpt lat="42.07512" lon="11.9761783"><ele>300.0</ele><time>2026-04-24T10:14:18.064Z</time></trkpt><trkpt lat="42.075215" lon="11.976185"><ele>300.0</ele><time>2026-04-24T10:14:19.065Z</time></trkpt><trkpt lat="42.0753017" lon="11.9761883"><ele>300.0</ele><time>2026-04-24T10:14:20.064Z</time></trkpt><trkpt lat="42.0753817" lon="11.9761917"><ele>300.0</ele><time>2026-04-24T10:14:21.066Z</time></trkpt><trkpt lat="42.0754567" lon="11.97619"><ele>300.0</ele><time>2026-04-24T10:14:22.063Z</time></trkpt><trkpt lat="42.07556" lon="11.97621"><ele>300.0</ele><time>2026-04-24T10:14:24.065Z</time></trkpt><trkpt lat="42.075545" lon="11.976305"><ele>300.0</ele><time>2026-04-24T10:14:27.063Z</time></trkpt><trkpt lat="42.0754683" lon="11.9763"><ele>300.0</ele><time>2026-04-24T10:14:29.063Z</time></trkpt><trkpt lat="42.0753417" lon="11.97627"><ele>300.0</ele><time>2026-04-24T10:14:31.064Z</time></trkpt><trkpt lat="42.07527" lon="11.9762633"><ele>300.0</ele><time>2026-04-24T10:14:32.063Z</time></trkpt><trkpt lat="42.0752" lon="11.9762617"><ele>300.0</ele><time>2026-04-24T10:14:33.065Z</time></trkpt><trkpt lat="42.0751267" lon="11.97626"><ele>300.0</ele><time>2026-04-24T10:14:34.063Z</time></trkpt><trkpt lat="42.0750433" lon="11.9762617"><ele>300.0</ele><time>2026-04-24T10:14:35.066Z</time></trkpt><trkpt lat="42.07495" lon="11.9762683"><ele>300.0</ele><time>2026-04-24T10:14:36.065Z</time></trkpt><trkpt lat="42.0748533" lon="11.976275"><ele>300.0</ele><time>2026-04-24T10:14:37.066Z</time></trkpt><trkpt lat="42.07475" lon="11.9762783"><ele>300.0</ele><time>2026-04-24T10:14:38.063Z</time></trkpt><trkpt lat="42.0746483" lon="11.9762767"><ele>300.0</ele><time>2026-04-24T10:14:39.063Z</time></trkpt><trkpt lat="42.0745517" lon="11.9762717"><ele>300.0</ele><time>2026-04-24T10:14:40.065Z</time></trkpt><trkpt lat="42.0744567" lon="11.976265"><ele>300.0</ele><time>2026-04-24T10:14:41.064Z</time></trkpt><trkpt lat="42.074365" lon="11.9762517"><ele>300.0</ele><time>2026-04-24T10:14:42.064Z</time></trkpt><trkpt lat="42.0742783" lon="11.97624"><ele>300.0</ele><time>2026-04-24T10:14:43.064Z</time></trkpt><trkpt lat="42.0742" lon="11.9762283"><ele>300.0</ele><time>2026-04-24T10:14:44.064Z</time></trkpt><trkpt lat="42.0741283" lon="11.9762267"><ele>300.0</ele><time>2026-04-24T10:14:45.064Z</time></trkpt><trkpt lat="42.0740283" lon="11.97623"><ele>300.0</ele><time>2026-04-24T10:14:47.066Z</time></trkpt><trkpt lat="42.0739467" lon="11.9761917"><ele>301.0</ele><time>2026-04-24T10:14:49.064Z</time></trkpt><trkpt lat="42.07387" lon="11.9761317"><ele>302.0</ele><time>2026-04-24T10:14:51.064Z</time></trkpt><trkpt lat="42.0738" lon="11.9760633"><ele>303.0</ele><time>2026-04-24T10:14:53.065Z</time></trkpt><trkpt lat="42.0737417" lon="11.97598"><ele>304.0</ele><time>2026-04-24T10:14:55.062Z</time></trkpt><trkpt lat="42.0736783" lon="11.9758783"><ele>305.0</ele><time>2026-04-24T10:14:57.065Z</time></trkpt><trkpt lat="42.0736183" lon="11.9757917"><ele>306.0</ele><time>2026-04-24T10:14:59.065Z</time></trkpt><trkpt lat="42.07355" lon="11.975705"><ele>303.2</ele><time>2026-04-24T10:15:01.064Z</time></trkpt><trkpt lat="42.0734633" lon="11.975625"><ele>300.40000000000003</ele><time>2026-04-24T10:15:03.064Z</time></trkpt><trkpt lat="42.073385" lon="11.9755433"><ele>297.6</ele><time>2026-04-24T10:15:05.064Z</time></trkpt><trkpt lat="42.0732983" lon="11.9754667"><ele>294.8</ele><time>2026-04-24T10:15:07.065Z</time></trkpt><trkpt lat="42.0731967" lon="11.9754267"><ele>292.0</ele><time>2026-04-24T10:15:09.065Z</time></trkpt><trkpt lat="42.073085" lon="11.975395"><ele>292.0</ele><time>2026-04-24T10:15:11.064Z</time></trkpt><trkpt lat="42.0729883" lon="11.9753683"><ele>292.0</ele><time>2026-04-24T10:15:13.066Z</time></trkpt><trkpt lat="42.0728967" lon="11.97534"><ele>292.0</ele><time>2026-04-24T10:15:15.064Z</time></trkpt><trkpt lat="42.0728133" lon="11.9753017"><ele>292.0</ele><time>2026-04-24T10:15:17.065Z</time></trkpt><trkpt lat="42.07273" lon="11.9752483"><ele>292.0</ele><time>2026-04-24T10:15:19.064Z</time></trkpt><trkpt lat="42.0726317" lon="11.9752183"><ele>292.0</ele><time>2026-04-24T10:15:21.063Z</time></trkpt><trkpt lat="42.07252" lon="11.9751983"><ele>292.0</ele><time>2026-04-24T10:15:23.064Z</time></trkpt><trkpt lat="42.0724367" lon="11.97516"><ele>292.0</ele><time>2026-04-24T10:15:25.063Z</time></trkpt><trkpt lat="42.07237" lon="11.97511"><ele>292.0</ele><time>2026-04-24T10:15:27.065Z</time></trkpt><trkpt lat="42.0722633" lon="11.975085"><ele>292.0</ele><time>2026-04-24T10:15:29.064Z</time></trkpt><trkpt lat="42.072185" lon="11.97507"><ele>291.5</ele><time>2026-04-24T10:15:30.066Z</time></trkpt><trkpt lat="42.0720983" lon="11.9750517"><ele>291.0</ele><time>2026-04-24T10:15:31.063Z</time></trkpt><trkpt lat="42.072015" lon="11.9750267"><ele>290.5</ele><time>2026-04-24T10:15:32.065Z</time></trkpt><trkpt lat="42.0719383" lon="11.9749983"><ele>290.0</ele><time>2026-04-24T10:15:33.065Z</time></trkpt><trkpt lat="42.0718667" lon="11.97495"><ele>289.5</ele><time>2026-04-24T10:15:34.064Z</time></trkpt><trkpt lat="42.0717983" lon="11.9749033"><ele>289.0</ele><time>2026-04-24T10:15:35.064Z</time></trkpt><trkpt lat="42.0717183" lon="11.9748683"><ele>287.5</ele><time>2026-04-24T10:15:36.065Z</time></trkpt><trkpt lat="42.0716417" lon="11.97485"><ele>286.0</ele><time>2026-04-24T10:15:37.064Z</time></trkpt><trkpt lat="42.0715667" lon="11.9748283"><ele>284.5</ele><time>2026-04-24T10:15:38.064Z</time></trkpt><trkpt lat="42.07149" lon="11.974805"><ele>283.0</ele><time>2026-04-24T10:15:39.064Z</time></trkpt><trkpt lat="42.0714067" lon="11.9747833"><ele>281.5</ele><time>2026-04-24T10:15:40.066Z</time></trkpt><trkpt lat="42.0713167" lon="11.9747517"><ele>280.0</ele><time>2026-04-24T10:15:41.064Z</time></trkpt><trkpt lat="42.0712283" lon="11.974715"><ele>280.0</ele><time>2026-04-24T10:15:42.064Z</time></trkpt><trkpt lat="42.071145" lon="11.9746767"><ele>280.0</ele><time>2026-04-24T10:15:43.063Z</time></trkpt><trkpt lat="42.0710683" lon="11.9746383"><ele>280.0</ele><time>2026-04-24T10:15:44.064Z</time></trkpt><trkpt lat="42.0709933" lon="11.9746033"><ele>280.0</ele><time>2026-04-24T10:15:45.065Z</time></trkpt><trkpt lat="42.0709233" lon="11.9745683"><ele>280.0</ele><time>2026-04-24T10:15:46.064Z</time></trkpt><trkpt lat="42.07086" lon="11.9745233"><ele>280.0</ele><time>2026-04-24T10:15:47.063Z</time></trkpt><trkpt lat="42.070805" lon="11.9744783"><ele>280.2857142857143</ele><time>2026-04-24T10:15:48.065Z</time></trkpt><trkpt lat="42.070745" lon="11.9744367"><ele>280.57142857142856</ele><time>2026-04-24T10:15:49.064Z</time></trkpt><trkpt lat="42.07068" lon="11.9744083"><ele>280.8571428571429</ele><time>2026-04-24T10:15:50.065Z</time></trkpt><trkpt lat="42.0706167" lon="11.974385"><ele>281.1428571428571</ele><time>2026-04-24T10:15:51.064Z</time></trkpt><trkpt lat="42.0705483" lon="11.9743667"><ele>281.42857142857144</ele><time>2026-04-24T10:15:52.064Z</time></trkpt><trkpt lat="42.0704767" lon="11.9743433"><ele>281.7142857142857</ele><time>2026-04-24T10:15:53.062Z</time></trkpt><trkpt lat="42.0704017" lon="11.9743183"><ele>282.0</ele><time>2026-04-24T10:15:54.065Z</time></trkpt><trkpt lat="42.070325" lon="11.97429"><ele>282.0</ele><time>2026-04-24T10:15:55.065Z</time></trkpt><trkpt lat="42.07025" lon="11.9742617"><ele>282.0</ele><time>2026-04-24T10:15:56.064Z</time></trkpt><trkpt lat="42.0701783" lon="11.9742267"><ele>282.0</ele><time>2026-04-24T10:15:57.064Z</time></trkpt><trkpt lat="42.0701167" lon="11.9741917"><ele>282.0</ele><time>2026-04-24T10:15:58.063Z</time></trkpt><trkpt lat="42.0700183" lon="11.97412"><ele>282.0</ele><time>2026-04-24T10:16:00.065Z</time></trkpt><trkpt lat="42.0699283" lon="11.974055"><ele>282.0</ele><time>2026-04-24T10:16:02.063Z</time></trkpt><trkpt lat="42.0698233" lon="11.9739967"><ele>279.4</ele><time>2026-04-24T10:16:04.065Z</time></trkpt><trkpt lat="42.0697167" lon="11.9739417"><ele>276.79999999999995</ele><time>2026-04-24T10:16:06.064Z</time></trkpt><trkpt lat="42.0696183" lon="11.9738883"><ele>274.2</ele><time>2026-04-24T10:16:08.064Z</time></trkpt><trkpt lat="42.0695267" lon="11.9738167"><ele>271.59999999999997</ele><time>2026-04-24T10:16:10.064Z</time></trkpt><trkpt lat="42.0694367" lon="11.9737367"><ele>269.0</ele><time>2026-04-24T10:16:12.063Z</time></trkpt><trkpt lat="42.0693233" lon="11.9736483"><ele>269.0</ele><time>2026-04-24T10:16:14.065Z</time></trkpt><trkpt lat="42.0692667" lon="11.9736067"><ele>269.0</ele><time>2026-04-24T10:16:15.064Z</time></trkpt><trkpt lat="42.0691617" lon="11.9735433"><ele>269.0</ele><time>2026-04-24T10:16:17.061Z</time></trkpt><trkpt lat="42.0690517" lon="11.9734967"><ele>269.0</ele><time>2026-04-24T10:16:19.064Z</time></trkpt><trkpt lat="42.06899" lon="11.9734667"><ele>269.0</ele><time>2026-04-24T10:16:20.065Z</time></trkpt><trkpt lat="42.0689333" lon="11.9734233"><ele>269.0</ele><time>2026-04-24T10:16:21.063Z</time></trkpt><trkpt lat="42.0688617" lon="11.9733467"><ele>266.8</ele><time>2026-04-24T10:16:23.063Z</time></trkpt><trkpt lat="42.0688017" lon="11.9732367"><ele>264.59999999999997</ele><time>2026-04-24T10:16:25.065Z</time></trkpt><trkpt lat="42.068725" lon="11.97316"><ele>262.4</ele><time>2026-04-24T10:16:27.064Z</time></trkpt><trkpt lat="42.0686217" lon="11.97311"><ele>260.2</ele><time>2026-04-24T10:16:29.065Z</time></trkpt><trkpt lat="42.0684967" lon="11.97308"><ele>258.0</ele><time>2026-04-24T10:16:31.065Z</time></trkpt><trkpt lat="42.0684333" lon="11.973085"><ele>258.0</ele><time>2026-04-24T10:16:32.067Z</time></trkpt><trkpt lat="42.068325" lon="11.9731"><ele>258.0</ele><time>2026-04-24T10:16:34.066Z</time></trkpt><trkpt lat="42.0682083" lon="11.9730933"><ele>258.0</ele><time>2026-04-24T10:16:36.064Z</time></trkpt><trkpt lat="42.068145" lon="11.9730717"><ele>258.0</ele><time>2026-04-24T10:16:37.065Z</time></trkpt><trkpt lat="42.068075" lon="11.9730383"><ele>258.0</ele><time>2026-04-24T10:16:38.067Z</time></trkpt><trkpt lat="42.068005" lon="11.97301"><ele>258.0</ele><time>2026-04-24T10:16:39.062Z</time></trkpt><trkpt lat="42.06794" lon="11.9729717"><ele>258.57142857142856</ele><time>2026-04-24T10:16:40.065Z</time></trkpt><trkpt lat="42.067875" lon="11.9729317"><ele>259.1428571428571</ele><time>2026-04-24T10:16:41.065Z</time></trkpt><trkpt lat="42.0678217" lon="11.9728833"><ele>259.7142857142857</ele><time>2026-04-24T10:16:42.066Z</time></trkpt><trkpt lat="42.0677617" lon="11.9728233"><ele>260.2857142857143</ele><time>2026-04-24T10:16:43.065Z</time></trkpt><trkpt lat="42.0677033" lon="11.9727517"><ele>260.8571428571429</ele><time>2026-04-24T10:16:44.066Z</time></trkpt><trkpt lat="42.0676483" lon="11.9726717"><ele>261.42857142857144</ele><time>2026-04-24T10:16:45.065Z</time></trkpt><trkpt lat="42.0675983" lon="11.9725933"><ele>262.0</ele><time>2026-04-24T10:16:46.064Z</time></trkpt><trkpt lat="42.067555" lon="11.972525"><ele>261.3333333333333</ele><time>2026-04-24T10:16:47.066Z</time></trkpt><trkpt lat="42.0675083" lon="11.9724633"><ele>260.66666666666663</ele><time>2026-04-24T10:16:48.067Z</time></trkpt><trkpt lat="42.06741" lon="11.9723567"><ele>260.0</ele><time>2026-04-24T10:16:50.066Z</time></trkpt><trkpt lat="42.0673583" lon="11.9723083"><ele>259.3333333333333</ele><time>2026-04-24T10:16:51.064Z</time></trkpt><trkpt lat="42.06731" lon="11.972245"><ele>258.6666666666667</ele><time>2026-04-24T10:16:52.065Z</time></trkpt><trkpt lat="42.0672617" lon="11.9721683"><ele>258.0</ele><time>2026-04-24T10:16:53.065Z</time></trkpt><trkpt lat="42.0671767" lon="11.9720483"><ele>257.99999999999994</ele><time>2026-04-24T10:16:55.066Z</time></trkpt><trkpt lat="42.0671233" lon="11.9719917"><ele>258.0</ele><time>2026-04-24T10:16:56.066Z</time></trkpt><trkpt lat="42.0670517" lon="11.9719417"><ele>258.0</ele><time>2026-04-24T10:16:57.064Z</time></trkpt><trkpt lat="42.0669783" lon="11.9719033"><ele>258.0</ele><time>2026-04-24T10:16:58.064Z</time></trkpt><trkpt lat="42.0669117" lon="11.9718617"><ele>258.0</ele><time>2026-04-24T10:16:59.066Z</time></trkpt><trkpt lat="42.066855" lon="11.9718033"><ele>257.99999999999994</ele><time>2026-04-24T10:17:00.065Z</time></trkpt><trkpt lat="42.0668" lon="11.97173"><ele>258.0</ele><time>2026-04-24T10:17:01.067Z</time></trkpt><trkpt lat="42.06674" lon="11.97165"><ele>257.5</ele><time>2026-04-24T10:17:02.065Z</time></trkpt><trkpt lat="42.0666717" lon="11.9715767"><ele>257.0</ele><time>2026-04-24T10:17:03.066Z</time></trkpt><trkpt lat="42.0665983" lon="11.9715167"><ele>256.5</ele><time>2026-04-24T10:17:04.063Z</time></trkpt><trkpt lat="42.0665283" lon="11.9714517"><ele>256.0</ele><time>2026-04-24T10:17:05.065Z</time></trkpt><trkpt lat="42.0664583" lon="11.9713967"><ele>255.5</ele><time>2026-04-24T10:17:06.063Z</time></trkpt><trkpt lat="42.06639" lon="11.9713433"><ele>255.0</ele><time>2026-04-24T10:17:07.065Z</time></trkpt><trkpt lat="42.066325" lon="11.97131"><ele>255.0</ele><time>2026-04-24T10:17:08.066Z</time></trkpt><trkpt lat="42.066255" lon="11.971285"><ele>255.00000000000003</ele><time>2026-04-24T10:17:09.065Z</time></trkpt><trkpt lat="42.0661867" lon="11.9712567"><ele>255.0</ele><time>2026-04-24T10:17:10.063Z</time></trkpt><trkpt lat="42.0661167" lon="11.97122"><ele>255.0</ele><time>2026-04-24T10:17:11.065Z</time></trkpt><trkpt lat="42.0660517" lon="11.9711833"><ele>255.00000000000003</ele><time>2026-04-24T10:17:12.065Z</time></trkpt><trkpt lat="42.0659917" lon="11.971145"><ele>255.0</ele><time>2026-04-24T10:17:13.064Z</time></trkpt><trkpt lat="42.0659333" lon="11.9711017"><ele>255.0</ele><time>2026-04-24T10:17:14.063Z</time></trkpt><trkpt lat="42.06587" lon="11.971055"><ele>255.0</ele><time>2026-04-24T10:17:15.064Z</time></trkpt><trkpt lat="42.0658067" lon="11.9710067"><ele>255.0</ele><time>2026-04-24T10:17:16.062Z</time></trkpt><trkpt lat="42.06575" lon="11.9709583"><ele>255.0</ele><time>2026-04-24T10:17:17.064Z</time></trkpt><trkpt lat="42.065665" lon="11.9708483"><ele>255.0</ele><time>2026-04-24T10:17:19.064Z</time></trkpt><trkpt lat="42.0655833" lon="11.9707333"><ele>255.0</ele><time>2026-04-24T10:17:21.064Z</time></trkpt><trkpt lat="42.0654817" lon="11.9706567"><ele>252.66666666666666</ele><time>2026-04-24T10:17:23.063Z</time></trkpt><trkpt lat="42.0654217" lon="11.9706283"><ele>250.33333333333331</ele><time>2026-04-24T10:17:24.064Z</time></trkpt><trkpt lat="42.0653233" lon="11.9705983"><ele>248.0</ele><time>2026-04-24T10:17:26.066Z</time></trkpt><trkpt lat="42.0652517" lon="11.9706333"><ele>245.66666666666666</ele><time>2026-04-24T10:17:37.062Z</time></trkpt><trkpt lat="42.0651767" lon="11.970605"><ele>243.33333333333331</ele><time>2026-04-24T10:17:40.062Z</time></trkpt><trkpt lat="42.06506" lon="11.97058"><ele>241.0</ele><time>2026-04-24T10:17:42.063Z</time></trkpt><trkpt lat="42.0649767" lon="11.9705633"><ele>239.83333333333331</ele><time>2026-04-24T10:17:43.065Z</time></trkpt><trkpt lat="42.064895" lon="11.9705467"><ele>238.66666666666666</ele><time>2026-04-24T10:17:44.065Z</time></trkpt><trkpt lat="42.0648183" lon="11.9705333"><ele>237.5</ele><time>2026-04-24T10:17:45.063Z</time></trkpt><trkpt lat="42.064745" lon="11.9705267"><ele>236.33333333333331</ele><time>2026-04-24T10:17:46.065Z</time></trkpt><trkpt lat="42.0646683" lon="11.97052"><ele>235.16666666666666</ele><time>2026-04-24T10:17:47.064Z</time></trkpt><trkpt lat="42.06459" lon="11.97051"><ele>234.0</ele><time>2026-04-24T10:17:48.064Z</time></trkpt><trkpt lat="42.064525" lon="11.970495"><ele>234.0</ele><time>2026-04-24T10:17:49.064Z</time></trkpt><trkpt lat="42.0644283" lon="11.9704567"><ele>233.99999999999997</ele><time>2026-04-24T10:17:51.063Z</time></trkpt><trkpt lat="42.0643067" lon="11.9704333"><ele>233.99999999999997</ele><time>2026-04-24T10:17:53.063Z</time></trkpt><trkpt lat="42.0642383" lon="11.9704267"><ele>234.0</ele><time>2026-04-24T10:17:54.064Z</time></trkpt><trkpt lat="42.064175" lon="11.9704333"><ele>234.0</ele><time>2026-04-24T10:17:55.064Z</time></trkpt><trkpt lat="42.0640717" lon="11.9704833"><ele>232.83333333333334</ele><time>2026-04-24T10:17:57.062Z</time></trkpt><trkpt lat="42.064015" lon="11.9705367"><ele>231.66666666666669</ele><time>2026-04-24T10:17:58.064Z</time></trkpt><trkpt lat="42.0639517" lon="11.9705967"><ele>230.5</ele><time>2026-04-24T10:17:59.063Z</time></trkpt><trkpt lat="42.06388" lon="11.97066"><ele>229.33333333333334</ele><time>2026-04-24T10:18:00.064Z</time></trkpt><trkpt lat="42.063795" lon="11.97073"><ele>228.16666666666669</ele><time>2026-04-24T10:18:01.065Z</time></trkpt><trkpt lat="42.0637017" lon="11.9708"><ele>227.0</ele><time>2026-04-24T10:18:02.065Z</time></trkpt><trkpt lat="42.0636067" lon="11.9708583"><ele>228.39999999999998</ele><time>2026-04-24T10:18:03.064Z</time></trkpt><trkpt lat="42.0635133" lon="11.970905"><ele>229.79999999999998</ele><time>2026-04-24T10:18:04.064Z</time></trkpt><trkpt lat="42.0634267" lon="11.9709533"><ele>231.2</ele><time>2026-04-24T10:18:05.063Z</time></trkpt><trkpt lat="42.0633433" lon="11.9710067"><ele>232.6</ele><time>2026-04-24T10:18:06.062Z</time></trkpt><trkpt lat="42.0632667" lon="11.97106"><ele>234.0</ele><time>2026-04-24T10:18:07.063Z</time></trkpt><trkpt lat="42.0631917" lon="11.9711117"><ele>234.0</ele><time>2026-04-24T10:18:08.063Z</time></trkpt><trkpt lat="42.0631183" lon="11.9711517"><ele>234.0</ele><time>2026-04-24T10:18:09.064Z</time></trkpt><trkpt lat="42.0630417" lon="11.9711767"><ele>234.0</ele><time>2026-04-24T10:18:10.063Z</time></trkpt><trkpt lat="42.06296" lon="11.9711933"><ele>234.0</ele><time>2026-04-24T10:18:11.066Z</time></trkpt><trkpt lat="42.0628733" lon="11.9712017"><ele>234.0</ele><time>2026-04-24T10:18:12.063Z</time></trkpt><trkpt lat="42.062785" lon="11.9712083"><ele>234.0</ele><time>2026-04-24T10:18:13.063Z</time></trkpt><trkpt lat="42.0626983" lon="11.971215"><ele>234.0</ele><time>2026-04-24T10:18:14.063Z</time></trkpt><trkpt lat="42.06262" lon="11.9712317"><ele>234.0</ele><time>2026-04-24T10:18:15.064Z</time></trkpt><trkpt lat="42.062545" lon="11.9712483"><ele>234.0</ele><time>2026-04-24T10:18:16.064Z</time></trkpt><trkpt lat="42.0624733" lon="11.9712583"><ele>234.0</ele><time>2026-04-24T10:18:17.062Z</time></trkpt><trkpt lat="42.0624017" lon="11.971255"><ele>234.0</ele><time>2026-04-24T10:18:18.064Z</time></trkpt><trkpt lat="42.0623367" lon="11.9712483"><ele>234.0</ele><time>2026-04-24T10:18:19.064Z</time></trkpt><trkpt lat="42.0622317" lon="11.9712383"><ele>230.75</ele><time>2026-04-24T10:18:21.063Z</time></trkpt><trkpt lat="42.062235" lon="11.9710967"><ele>227.5</ele><time>2026-04-24T10:19:03.066Z</time></trkpt><trkpt lat="42.0622983" lon="11.9709967"><ele>224.25</ele><time>2026-04-24T10:19:16.064Z</time></trkpt><trkpt lat="42.0622043" lon="11.9712425"><ele>221.0</ele><time>2026-04-24T10:23:27.068Z</time></trkpt><trkpt lat="42.0620822" lon="11.9712248"><ele>221.0</ele><time>2026-04-24T10:24:10.997Z</time></trkpt><trkpt lat="42.0618965" lon="11.9712964"><ele>221.0</ele><time>2026-04-24T10:24:12.065Z</time></trkpt><trkpt lat="42.0617789" lon="11.9713562"><ele>221.0</ele><time>2026-04-24T10:24:13.066Z</time></trkpt><trkpt lat="42.0616779" lon="11.9714221"><ele>221.0</ele><time>2026-04-24T10:24:14.063Z</time></trkpt><trkpt lat="42.0615924" lon="11.9714966"><ele>220.4</ele><time>2026-04-24T10:24:15.065Z</time></trkpt><trkpt lat="42.0615202" lon="11.9715794"><ele>219.8</ele><time>2026-04-24T10:24:16.063Z</time></trkpt><trkpt lat="42.0614583" lon="11.9716765"><ele>219.20000000000002</ele><time>2026-04-24T10:24:17.065Z</time></trkpt><trkpt lat="42.0614004" lon="11.9717865"><ele>218.60000000000002</ele><time>2026-04-24T10:24:18.067Z</time></trkpt><trkpt lat="42.0613442" lon="11.9719011"><ele>218.0</ele><time>2026-04-24T10:24:19.064Z</time></trkpt><trkpt lat="42.061288" lon="11.9720123"><ele>218.0</ele><time>2026-04-24T10:24:20.064Z</time></trkpt><trkpt lat="42.0612318" lon="11.9721249"><ele>218.0</ele><time>2026-04-24T10:24:21.062Z</time></trkpt><trkpt lat="42.0611767" lon="11.9722418"><ele>218.0</ele><time>2026-04-24T10:24:22.067Z</time></trkpt><trkpt lat="42.0611207" lon="11.9723632"><ele>218.0</ele><time>2026-04-24T10:24:23.065Z</time></trkpt><trkpt lat="42.0610709" lon="11.9724842"><ele>218.0</ele><time>2026-04-24T10:24:24.067Z</time></trkpt><trkpt lat="42.0610287" lon="11.972589"><ele>218.66666666666669</ele><time>2026-04-24T10:24:25.063Z</time></trkpt><trkpt lat="42.0609964" lon="11.9726685"><ele>219.33333333333334</ele><time>2026-04-24T10:24:26.065Z</time></trkpt><trkpt lat="42.0609718" lon="11.9727617"><ele>220.0</ele><time>2026-04-24T10:24:28.063Z</time></trkpt><trkpt lat="42.0610719" lon="11.9728321"><ele>220.66666666666669</ele><time>2026-04-24T10:24:31.066Z</time></trkpt><trkpt lat="42.0611399" lon="11.9728502"><ele>221.33333333333334</ele><time>2026-04-24T10:24:32.063Z</time></trkpt><trkpt lat="42.0612111" lon="11.9728889"><ele>222.0</ele><time>2026-04-24T10:24:33.063Z</time></trkpt><trkpt lat="42.0612803" lon="11.9729529"><ele>222.0</ele><time>2026-04-24T10:24:34.065Z</time></trkpt><trkpt lat="42.0613477" lon="11.9730275"><ele>222.0</ele><time>2026-04-24T10:24:35.064Z</time></trkpt><trkpt lat="42.061415" lon="11.9731101"><ele>222.0</ele><time>2026-04-24T10:24:36.063Z</time></trkpt><trkpt lat="42.0614806" lon="11.973202"><ele>222.0</ele><time>2026-04-24T10:24:37.063Z</time></trkpt><trkpt lat="42.0615396" lon="11.9732962"><ele>222.0</ele><time>2026-04-24T10:24:38.063Z</time></trkpt><trkpt lat="42.0615862" lon="11.9733848"><ele>222.0</ele><time>2026-04-24T10:24:39.065Z</time></trkpt><trkpt lat="42.0616256" lon="11.973469"><ele>225.0</ele><time>2026-04-24T10:24:40.064Z</time></trkpt><trkpt lat="42.0616659" lon="11.9735523"><ele>228.0</ele><time>2026-04-24T10:24:41.065Z</time></trkpt><trkpt lat="42.061707" lon="11.9736279"><ele>231.0</ele><time>2026-04-24T10:24:42.065Z</time></trkpt><trkpt lat="42.0617689" lon="11.9737708"><ele>234.0</ele><time>2026-04-24T10:24:44.063Z</time></trkpt><trkpt lat="42.0618151" lon="11.9739155"><ele>237.0</ele><time>2026-04-24T10:24:46.065Z</time></trkpt><trkpt lat="42.0618224" lon="11.974049"><ele>237.0</ele><time>2026-04-24T10:24:48.064Z</time></trkpt><trkpt lat="42.0618235" lon="11.9741734"><ele>237.0</ele><time>2026-04-24T10:24:50.064Z</time></trkpt><trkpt lat="42.0618099" lon="11.9743091"><ele>237.0</ele><time>2026-04-24T10:24:52.064Z</time></trkpt><trkpt lat="42.0617928" lon="11.9744237"><ele>237.0</ele><time>2026-04-24T10:24:54.065Z</time></trkpt><trkpt lat="42.0618045" lon="11.9745318"><ele>237.0</ele><time>2026-04-24T10:24:57.063Z</time></trkpt><trkpt lat="42.0617887" lon="11.9746166"><ele>237.0</ele><time>2026-04-24T10:25:07.062Z</time></trkpt><trkpt lat="42.061784" lon="11.9747103"><ele>237.0</ele><time>2026-04-24T10:25:09.063Z</time></trkpt><trkpt lat="42.0617565" lon="11.9748329"><ele>237.0</ele><time>2026-04-24T10:25:11.062Z</time></trkpt><trkpt lat="42.0617196" lon="11.9749704"><ele>237.0</ele><time>2026-04-24T10:25:13.064Z</time></trkpt><trkpt lat="42.0616815" lon="11.9751269"><ele>237.0</ele><time>2026-04-24T10:25:15.065Z</time></trkpt><trkpt lat="42.0616517" lon="11.9752883"><ele>237.0</ele><time>2026-04-24T10:25:17.062Z</time></trkpt><trkpt lat="42.0616033" lon="11.97544"><ele>239.0</ele><time>2026-04-24T10:25:19.063Z</time></trkpt><trkpt lat="42.0615683" lon="11.9755633"><ele>241.0</ele><time>2026-04-24T10:25:21.062Z</time></trkpt><trkpt lat="42.0615233" lon="11.975695"><ele>243.0</ele><time>2026-04-24T10:25:23.064Z</time></trkpt><trkpt lat="42.0614583" lon="11.9758133"><ele>245.0</ele><time>2026-04-24T10:25:25.063Z</time></trkpt><trkpt lat="42.0614133" lon="11.9759233"><ele>247.0</ele><time>2026-04-24T10:25:27.066Z</time></trkpt><trkpt lat="42.061395" lon="11.97602"><ele>249.66666666666666</ele><time>2026-04-24T10:25:29.062Z</time></trkpt><trkpt lat="42.0613817" lon="11.9761133"><ele>252.33333333333331</ele><time>2026-04-24T10:25:31.062Z</time></trkpt><trkpt lat="42.06142" lon="11.9761883"><ele>255.0</ele><time>2026-04-24T10:25:33.062Z</time></trkpt><trkpt lat="42.0615067" lon="11.9762667"><ele>257.6666666666667</ele><time>2026-04-24T10:26:58.064Z</time></trkpt><trkpt lat="42.0615717" lon="11.9763717"><ele>260.33333333333337</ele><time>2026-04-24T10:27:01.063Z</time></trkpt><trkpt lat="42.0616083" lon="11.9764683"><ele>263.0</ele><time>2026-04-24T10:27:03.063Z</time></trkpt><trkpt lat="42.0616567" lon="11.9765667"><ele>264.0</ele><time>2026-04-24T10:27:05.065Z</time></trkpt><trkpt lat="42.0617" lon="11.9766533"><ele>265.0</ele><time>2026-04-24T10:27:07.062Z</time></trkpt><trkpt lat="42.06174" lon="11.9767383"><ele>266.0</ele><time>2026-04-24T10:27:09.063Z</time></trkpt><trkpt lat="42.06179" lon="11.9768233"><ele>267.0</ele><time>2026-04-24T10:27:11.064Z</time></trkpt><trkpt lat="42.0618467" lon="11.9769283"><ele>268.0</ele><time>2026-04-24T10:27:13.064Z</time></trkpt><trkpt lat="42.06191" lon="11.9770317"><ele>269.0</ele><time>2026-04-24T10:27:15.062Z</time></trkpt><trkpt lat="42.06199" lon="11.9771"><ele>272.2</ele><time>2026-04-24T10:27:17.063Z</time></trkpt><trkpt lat="42.0620483" lon="11.9771717"><ele>275.4</ele><time>2026-04-24T10:27:19.064Z</time></trkpt><trkpt lat="42.0621217" lon="11.9772617"><ele>278.6</ele><time>2026-04-24T10:27:22.063Z</time></trkpt><trkpt lat="42.0622083" lon="11.9772883"><ele>281.8</ele><time>2026-04-24T10:27:24.063Z</time></trkpt><trkpt lat="42.0623033" lon="11.97734"><ele>285.0</ele><time>2026-04-24T10:27:26.066Z</time></trkpt><trkpt lat="42.0623717" lon="11.9773983"><ele>286.2</ele><time>2026-04-24T10:27:28.065Z</time></trkpt><trkpt lat="42.0624683" lon="11.9774267"><ele>287.4</ele><time>2026-04-24T10:27:30.063Z</time></trkpt><trkpt lat="42.06257" lon="11.97738"><ele>288.6</ele><time>2026-04-24T10:27:32.062Z</time></trkpt><trkpt lat="42.0626483" lon="11.977375"><ele>289.8</ele><time>2026-04-24T10:27:34.062Z</time></trkpt><trkpt lat="42.06272" lon="11.97745"><ele>291.0</ele><time>2026-04-24T10:27:36.063Z</time></trkpt><trkpt lat="42.0627833" lon="11.97755"><ele>292.5</ele><time>2026-04-24T10:27:38.066Z</time></trkpt><trkpt lat="42.0628417" lon="11.9776417"><ele>294.0</ele><time>2026-04-24T10:27:40.064Z</time></trkpt><trkpt lat="42.0628983" lon="11.977745"><ele>295.5</ele><time>2026-04-24T10:27:42.064Z</time></trkpt><trkpt lat="42.06294" lon="11.9778117"><ele>297.0</ele><time>2026-04-24T10:27:43.062Z</time></trkpt><trkpt lat="42.0629933" lon="11.9778917"><ele>298.5</ele><time>2026-04-24T10:27:44.063Z</time></trkpt><trkpt lat="42.0630383" lon="11.977965"><ele>300.0</ele><time>2026-04-24T10:27:45.065Z</time></trkpt><trkpt lat="42.0630667" lon="11.9780417"><ele>300.0</ele><time>2026-04-24T10:27:46.061Z</time></trkpt><trkpt lat="42.0630883" lon="11.978125"><ele>300.0</ele><time>2026-04-24T10:27:47.062Z</time></trkpt><trkpt lat="42.063135" lon="11.978255"><ele>300.0</ele><time>2026-04-24T10:27:49.066Z</time></trkpt><trkpt lat="42.0632033" lon="11.9783633"><ele>300.0</ele><time>2026-04-24T10:27:51.065Z</time></trkpt><trkpt lat="42.06325" lon="11.97844"><ele>300.0</ele><time>2026-04-24T10:27:52.065Z</time></trkpt><trkpt lat="42.0633033" lon="11.9785233"><ele>300.0</ele><time>2026-04-24T10:27:53.067Z</time></trkpt><trkpt lat="42.0633483" lon="11.978595"><ele>300.85714285714283</ele><time>2026-04-24T10:27:54.065Z</time></trkpt><trkpt lat="42.063395" lon="11.978665"><ele>301.7142857142857</ele><time>2026-04-24T10:27:55.067Z</time></trkpt><trkpt lat="42.0634467" lon="11.978725"><ele>302.57142857142856</ele><time>2026-04-24T10:27:56.067Z</time></trkpt><trkpt lat="42.0635083" lon="11.9787767"><ele>303.42857142857144</ele><time>2026-04-24T10:27:57.065Z</time></trkpt><trkpt lat="42.0635683" lon="11.978825"><ele>304.2857142857143</ele><time>2026-04-24T10:27:58.066Z</time></trkpt><trkpt lat="42.0636167" lon="11.978895"><ele>305.1428571428571</ele><time>2026-04-24T10:27:59.066Z</time></trkpt><trkpt lat="42.06365" lon="11.9789867"><ele>306.0</ele><time>2026-04-24T10:28:00.065Z</time></trkpt><trkpt lat="42.06368" lon="11.9790767"><ele>306.0</ele><time>2026-04-24T10:28:01.062Z</time></trkpt><trkpt lat="42.0637133" lon="11.9791533"><ele>306.0</ele><time>2026-04-24T10:28:02.064Z</time></trkpt><trkpt lat="42.0637667" lon="11.9792767"><ele>306.0</ele><time>2026-04-24T10:28:04.066Z</time></trkpt><trkpt lat="42.063815" lon="11.9793917"><ele>306.0</ele><time>2026-04-24T10:28:06.066Z</time></trkpt><trkpt lat="42.0638583" lon="11.9795517"><ele>306.0</ele><time>2026-04-24T10:28:08.064Z</time></trkpt><trkpt lat="42.0638833" lon="11.9796333"><ele>306.2</ele><time>2026-04-24T10:28:09.063Z</time></trkpt><trkpt lat="42.0639317" lon="11.9797717"><ele>306.40000000000003</ele><time>2026-04-24T10:28:11.064Z</time></trkpt><trkpt lat="42.0640167" lon="11.9798417"><ele>306.6</ele><time>2026-04-24T10:28:13.064Z</time></trkpt><trkpt lat="42.0641017" lon="11.9799333"><ele>306.8</ele><time>2026-04-24T10:28:15.065Z</time></trkpt><trkpt lat="42.0641833" lon="11.98003"><ele>307.0</ele><time>2026-04-24T10:28:17.065Z</time></trkpt><trkpt lat="42.0642417" lon="11.9801633"><ele>310.2</ele><time>2026-04-24T10:28:19.066Z</time></trkpt><trkpt lat="42.0643283" lon="11.980285"><ele>313.4</ele><time>2026-04-24T10:28:21.066Z</time></trkpt><trkpt lat="42.064395" lon="11.9803317"><ele>316.59999999999997</ele><time>2026-04-24T10:28:22.066Z</time></trkpt><trkpt lat="42.0644533" lon="11.9803683"><ele>319.79999999999995</ele><time>2026-04-24T10:28:23.065Z</time></trkpt><trkpt lat="42.0645517" lon="11.9804467"><ele>323.0</ele><time>2026-04-24T10:28:25.065Z</time></trkpt><trkpt lat="42.0646483" lon="11.9805367"><ele>323.0</ele><time>2026-04-24T10:28:27.065Z</time></trkpt><trkpt lat="42.064745" lon="11.9806267"><ele>323.0</ele><time>2026-04-24T10:28:29.065Z</time></trkpt><trkpt lat="42.0648183" lon="11.98071"><ele>323.0</ele><time>2026-04-24T10:28:31.065Z</time></trkpt><trkpt lat="42.06487" lon="11.9807783"><ele>323.0</ele><time>2026-04-24T10:28:33.066Z</time></trkpt><trkpt lat="42.0649033" lon="11.9808517"><ele>323.0</ele><time>2026-04-24T10:28:35.065Z</time></trkpt><trkpt lat="42.064935" lon="11.9809317"><ele>323.0</ele><time>2026-04-24T10:28:37.064Z</time></trkpt><trkpt lat="42.0650217" lon="11.980955"><ele>325.79999999999995</ele><time>2026-04-24T10:28:40.064Z</time></trkpt><trkpt lat="42.0650867" lon="11.9810233"><ele>328.6</ele><time>2026-04-24T10:28:42.066Z</time></trkpt><trkpt lat="42.0651817" lon="11.981095"><ele>331.4</ele><time>2026-04-24T10:28:44.067Z</time></trkpt><trkpt lat="42.0652767" lon="11.9811567"><ele>334.20000000000005</ele><time>2026-04-24T10:28:46.063Z</time></trkpt><trkpt lat="42.065325" lon="11.9812267"><ele>337.0</ele><time>2026-04-24T10:28:48.065Z</time></trkpt><trkpt lat="42.065375" lon="11.9813167"><ele>337.0</ele><time>2026-04-24T10:28:50.066Z</time></trkpt><trkpt lat="42.06546" lon="11.98141"><ele>337.0</ele><time>2026-04-24T10:28:52.065Z</time></trkpt><trkpt lat="42.0655117" lon="11.98147"><ele>337.0</ele><time>2026-04-24T10:28:54.066Z</time></trkpt><trkpt lat="42.0655667" lon="11.9815483"><ele>337.0</ele><time>2026-04-24T10:28:56.066Z</time></trkpt><trkpt lat="42.06561" lon="11.9816433"><ele>337.0</ele><time>2026-04-24T10:28:58.063Z</time></trkpt><trkpt lat="42.06566" lon="11.9817417"><ele>337.0</ele><time>2026-04-24T10:29:00.066Z</time></trkpt><trkpt lat="42.0657083" lon="11.981815"><ele>337.0</ele><time>2026-04-24T10:29:02.064Z</time></trkpt><trkpt lat="42.0657617" lon="11.9818733"><ele>337.0</ele><time>2026-04-24T10:29:04.064Z</time></trkpt><trkpt lat="42.0658483" lon="11.9819017"><ele>337.0</ele><time>2026-04-24T10:29:06.064Z</time></trkpt><trkpt lat="42.06593" lon="11.9819417"><ele>337.0</ele><time>2026-04-24T10:29:08.062Z</time></trkpt><trkpt lat="42.0660117" lon="11.9819717"><ele>337.0</ele><time>2026-04-24T10:29:10.064Z</time></trkpt><trkpt lat="42.0661083" lon="11.9819983"><ele>337.0</ele><time>2026-04-24T10:29:12.065Z</time></trkpt><trkpt lat="42.0662017" lon="11.9820367"><ele>340.20000000000005</ele><time>2026-04-24T10:29:14.066Z</time></trkpt><trkpt lat="42.0662917" lon="11.9820633"><ele>343.4</ele><time>2026-04-24T10:29:16.064Z</time></trkpt><trkpt lat="42.0664117" lon="11.9820683"><ele>346.6</ele><time>2026-04-24T10:29:18.063Z</time></trkpt><trkpt lat="42.0665067" lon="11.982075"><ele>349.79999999999995</ele><time>2026-04-24T10:29:20.064Z</time></trkpt><trkpt lat="42.0665933" lon="11.98208"><ele>353.0</ele><time>2026-04-24T10:29:22.063Z</time></trkpt><trkpt lat="42.0666617" lon="11.9820883"><ele>356.1666666666667</ele><time>2026-04-24T10:29:24.064Z</time></trkpt><trkpt lat="42.0667333" lon="11.9821117"><ele>359.33333333333337</ele><time>2026-04-24T10:29:26.064Z</time></trkpt><trkpt lat="42.0668217" lon="11.98215"><ele>362.5</ele><time>2026-04-24T10:29:28.064Z</time></trkpt><trkpt lat="42.066905" lon="11.9822067"><ele>365.6666666666667</ele><time>2026-04-24T10:29:30.066Z</time></trkpt><trkpt lat="42.0669733" lon="11.9822867"><ele>368.8333333333333</ele><time>2026-04-24T10:29:32.067Z</time></trkpt><trkpt lat="42.0670333" lon="11.982375"><ele>372.0</ele><time>2026-04-24T10:29:34.064Z</time></trkpt><trkpt lat="42.0670767" lon="11.98246"><ele>372.0</ele><time>2026-04-24T10:29:36.064Z</time></trkpt><trkpt lat="42.0671417" lon="11.9825333"><ele>372.0</ele><time>2026-04-24T10:29:38.064Z</time></trkpt><trkpt lat="42.06722" lon="11.9825083"><ele>372.0</ele><time>2026-04-24T10:29:40.062Z</time></trkpt><trkpt lat="42.0673033" lon="11.9824333"><ele>372.0</ele><time>2026-04-24T10:29:42.064Z</time></trkpt><trkpt lat="42.067385" lon="11.982395"><ele>372.0</ele><time>2026-04-24T10:29:44.064Z</time></trkpt><trkpt lat="42.067475" lon="11.9824283"><ele>372.0</ele><time>2026-04-24T10:29:46.064Z</time></trkpt><trkpt lat="42.06754" lon="11.9824933"><ele>375.5</ele><time>2026-04-24T10:29:48.064Z</time></trkpt><trkpt lat="42.0676033" lon="11.9825567"><ele>379.0</ele><time>2026-04-24T10:29:50.063Z</time></trkpt><trkpt lat="42.0676617" lon="11.9826167"><ele>382.5</ele><time>2026-04-24T10:29:52.064Z</time></trkpt><trkpt lat="42.0677267" lon="11.982665"><ele>386.0</ele><time>2026-04-24T10:30:06.066Z</time></trkpt><trkpt lat="42.0677983" lon="11.9827017"><ele>389.5</ele><time>2026-04-24T10:30:08.064Z</time></trkpt><trkpt lat="42.0678833" lon="11.9827433"><ele>393.0</ele><time>2026-04-24T10:30:10.064Z</time></trkpt><trkpt lat="42.0679667" lon="11.9827833"><ele>393.0</ele><time>2026-04-24T10:30:12.064Z</time></trkpt><trkpt lat="42.0680367" lon="11.982825"><ele>393.0</ele><time>2026-04-24T10:30:14.064Z</time></trkpt><trkpt lat="42.06816" lon="11.9828783"><ele>393.0</ele><time>2026-04-24T10:30:17.063Z</time></trkpt><trkpt lat="42.0682417" lon="11.9829183"><ele>393.0</ele><time>2026-04-24T10:30:19.063Z</time></trkpt><trkpt lat="42.0683033" lon="11.982985"><ele>393.0</ele><time>2026-04-24T10:30:21.063Z</time></trkpt><trkpt lat="42.068375" lon="11.9830533"><ele>396.5</ele><time>2026-04-24T10:30:23.064Z</time></trkpt><trkpt lat="42.0684383" lon="11.9831133"><ele>400.0</ele><time>2026-04-24T10:30:26.065Z</time></trkpt><trkpt lat="42.0685" lon="11.9831783"><ele>403.5</ele><time>2026-04-24T10:30:29.066Z</time></trkpt><trkpt lat="42.0685567" lon="11.98322"><ele>407.0</ele><time>2026-04-24T10:30:39.065Z</time></trkpt><trkpt lat="42.0685983" lon="11.983295"><ele>410.5</ele><time>2026-04-24T10:30:42.063Z</time></trkpt><trkpt lat="42.0686617" lon="11.9833367"><ele>414.0</ele><time>2026-04-24T10:30:44.064Z</time></trkpt><trkpt lat="42.0687717" lon="11.9833883"><ele>414.2</ele><time>2026-04-24T10:30:51.064Z</time></trkpt><trkpt lat="42.0688567" lon="11.9834417"><ele>414.4</ele><time>2026-04-24T10:30:53.064Z</time></trkpt><trkpt lat="42.0689433" lon="11.98353"><ele>414.6</ele><time>2026-04-24T10:30:55.065Z</time></trkpt><trkpt lat="42.0690467" lon="11.98362"><ele>414.8</ele><time>2026-04-24T10:30:57.063Z</time></trkpt><trkpt lat="42.069105" lon="11.983675"><ele>415.0</ele><time>2026-04-24T10:30:58.063Z</time></trkpt><trkpt lat="42.069165" lon="11.9837483"><ele>418.1666666666667</ele><time>2026-04-24T10:30:59.062Z</time></trkpt><trkpt lat="42.0692217" lon="11.9838217"><ele>421.33333333333337</ele><time>2026-04-24T10:31:00.063Z</time></trkpt><trkpt lat="42.0692717" lon="11.9838867"><ele>424.5</ele><time>2026-04-24T10:31:01.063Z</time></trkpt><trkpt lat="42.069325" lon="11.9839533"><ele>427.66666666666663</ele><time>2026-04-24T10:31:02.064Z</time></trkpt><trkpt lat="42.0693767" lon="11.9840183"><ele>430.8333333333333</ele><time>2026-04-24T10:31:03.064Z</time></trkpt><trkpt lat="42.0694517" lon="11.9841267"><ele>434.0</ele><time>2026-04-24T10:31:05.064Z</time></trkpt><trkpt lat="42.0695233" lon="11.98424"><ele>434.14285714285717</ele><time>2026-04-24T10:31:07.065Z</time></trkpt><trkpt lat="42.069575" lon="11.9843067"><ele>434.2857142857143</ele><time>2026-04-24T10:31:08.064Z</time></trkpt><trkpt lat="42.069635" lon="11.9843717"><ele>434.42857142857144</ele><time>2026-04-24T10:31:09.064Z</time></trkpt><trkpt lat="42.0696967" lon="11.9844267"><ele>434.57142857142856</ele><time>2026-04-24T10:31:10.066Z</time></trkpt><trkpt lat="42.069765" lon="11.9844767"><ele>434.7142857142857</ele><time>2026-04-24T10:31:11.064Z</time></trkpt><trkpt lat="42.069825" lon="11.9845217"><ele>434.8571428571429</ele><time>2026-04-24T10:31:12.064Z</time></trkpt><trkpt lat="42.069885" lon="11.984565"><ele>435.0</ele><time>2026-04-24T10:31:13.063Z</time></trkpt><trkpt lat="42.0699367" lon="11.984615"><ele>437.3333333333333</ele><time>2026-04-24T10:31:14.064Z</time></trkpt><trkpt lat="42.069985" lon="11.9846767"><ele>439.66666666666663</ele><time>2026-04-24T10:31:15.063Z</time></trkpt><trkpt lat="42.0700383" lon="11.9847467"><ele>442.0</ele><time>2026-04-24T10:31:16.064Z</time></trkpt><trkpt lat="42.0701" lon="11.9848183"><ele>444.3333333333333</ele><time>2026-04-24T10:31:17.065Z</time></trkpt><trkpt lat="42.0701667" lon="11.9848933"><ele>446.66666666666663</ele><time>2026-04-24T10:31:18.064Z</time></trkpt><trkpt lat="42.0702267" lon="11.98496"><ele>449.0</ele><time>2026-04-24T10:31:19.063Z</time></trkpt><trkpt lat="42.07028" lon="11.9850267"><ele>449.0</ele><time>2026-04-24T10:31:20.064Z</time></trkpt><trkpt lat="42.070335" lon="11.9850933"><ele>448.99999999999994</ele><time>2026-04-24T10:31:21.063Z</time></trkpt><trkpt lat="42.0703883" lon="11.985165"><ele>449.0</ele><time>2026-04-24T10:31:22.064Z</time></trkpt><trkpt lat="42.07044" lon="11.9852333"><ele>449.0</ele><time>2026-04-24T10:31:23.062Z</time></trkpt><trkpt lat="42.0704867" lon="11.9852933"><ele>448.99999999999994</ele><time>2026-04-24T10:31:24.063Z</time></trkpt><trkpt lat="42.070535" lon="11.9853567"><ele>449.0</ele><time>2026-04-24T10:31:25.063Z</time></trkpt><trkpt lat="42.0705883" lon="11.9854167"><ele>449.0</ele><time>2026-04-24T10:31:26.063Z</time></trkpt><trkpt lat="42.0706433" lon="11.9854717"><ele>449.0</ele><time>2026-04-24T10:31:27.064Z</time></trkpt><trkpt lat="42.0707" lon="11.985515"><ele>448.99999999999994</ele><time>2026-04-24T10:31:28.065Z</time></trkpt><trkpt lat="42.07076" lon="11.98557"><ele>449.0</ele><time>2026-04-24T10:31:29.067Z</time></trkpt><trkpt lat="42.07082" lon="11.9856317"><ele>449.0</ele><time>2026-04-24T10:31:30.065Z</time></trkpt><trkpt lat="42.070885" lon="11.98569"><ele>448.99999999999994</ele><time>2026-04-24T10:31:31.066Z</time></trkpt><trkpt lat="42.070945" lon="11.9857467"><ele>449.0</ele><time>2026-04-24T10:31:32.065Z</time></trkpt><trkpt lat="42.0710083" lon="11.9858083"><ele>449.0</ele><time>2026-04-24T10:31:33.064Z</time></trkpt><trkpt lat="42.0710617" lon="11.9858683"><ele>449.66666666666663</ele><time>2026-04-24T10:31:34.066Z</time></trkpt><trkpt lat="42.0711133" lon="11.985925"><ele>450.3333333333333</ele><time>2026-04-24T10:31:35.066Z</time></trkpt><trkpt lat="42.071175" lon="11.9859833"><ele>451.0</ele><time>2026-04-24T10:31:36.064Z</time></trkpt><trkpt lat="42.0712383" lon="11.9860333"><ele>451.66666666666663</ele><time>2026-04-24T10:31:37.064Z</time></trkpt><trkpt lat="42.07133" lon="11.986105"><ele>452.3333333333333</ele><time>2026-04-24T10:31:39.064Z</time></trkpt><trkpt lat="42.0713917" lon="11.986185"><ele>453.0</ele><time>2026-04-24T10:31:41.063Z</time></trkpt><trkpt lat="42.0714667" lon="11.986275"><ele>453.0</ele><time>2026-04-24T10:31:43.066Z</time></trkpt><trkpt lat="42.0715183" lon="11.9863333"><ele>453.0</ele><time>2026-04-24T10:31:44.067Z</time></trkpt><trkpt lat="42.071615" lon="11.986435"><ele>453.0</ele><time>2026-04-24T10:31:46.065Z</time></trkpt><trkpt lat="42.0716983" lon="11.9865267"><ele>453.0</ele><time>2026-04-24T10:31:48.063Z</time></trkpt><trkpt lat="42.0717467" lon="11.9865917"><ele>453.0</ele><time>2026-04-24T10:31:49.066Z</time></trkpt><trkpt lat="42.07179" lon="11.986655"><ele>453.0</ele><time>2026-04-24T10:31:50.062Z</time></trkpt><trkpt lat="42.0718567" lon="11.9867867"><ele>456.3333333333333</ele><time>2026-04-24T10:31:52.064Z</time></trkpt><trkpt lat="42.0719" lon="11.9868633"><ele>459.66666666666663</ele><time>2026-04-24T10:31:53.064Z</time></trkpt><trkpt lat="42.0719483" lon="11.986945"><ele>463.0</ele><time>2026-04-24T10:31:54.065Z</time></trkpt><trkpt lat="42.071995" lon="11.9870233"><ele>466.3333333333333</ele><time>2026-04-24T10:31:55.064Z</time></trkpt><trkpt lat="42.0720333" lon="11.987095"><ele>469.66666666666663</ele><time>2026-04-24T10:31:56.064Z</time></trkpt><trkpt lat="42.0720983" lon="11.9872367"><ele>473.0</ele><time>2026-04-24T10:31:58.066Z</time></trkpt><trkpt lat="42.07214" lon="11.9873183"><ele>472.99999999999994</ele><time>2026-04-24T10:31:59.062Z</time></trkpt><trkpt lat="42.0721783" lon="11.9874083"><ele>473.0</ele><time>2026-04-24T10:32:00.064Z</time></trkpt><trkpt lat="42.0722083" lon="11.9875"><ele>473.0</ele><time>2026-04-24T10:32:01.065Z</time></trkpt><trkpt lat="42.0722333" lon="11.987595"><ele>473.0</ele><time>2026-04-24T10:32:02.064Z</time></trkpt><trkpt lat="42.07226" lon="11.9876883"><ele>472.99999999999994</ele><time>2026-04-24T10:32:03.064Z</time></trkpt><trkpt lat="42.0722917" lon="11.98778"><ele>473.0</ele><time>2026-04-24T10:32:04.063Z</time></trkpt><trkpt lat="42.07233" lon="11.9878733"><ele>472.8333333333333</ele><time>2026-04-24T10:32:05.062Z</time></trkpt><trkpt lat="42.0723633" lon="11.98796"><ele>472.66666666666663</ele><time>2026-04-24T10:32:06.063Z</time></trkpt><trkpt lat="42.0723883" lon="11.9880417"><ele>472.5</ele><time>2026-04-24T10:32:07.064Z</time></trkpt><trkpt lat="42.0724083" lon="11.9881467"><ele>472.33333333333337</ele><time>2026-04-24T10:32:08.064Z</time></trkpt><trkpt lat="42.0724233" lon="11.9882683"><ele>472.1666666666667</ele><time>2026-04-24T10:32:09.065Z</time></trkpt><trkpt lat="42.0724383" lon="11.98839"><ele>472.0</ele><time>2026-04-24T10:32:10.065Z</time></trkpt><trkpt lat="42.07245" lon="11.9885067"><ele>475.1666666666667</ele><time>2026-04-24T10:32:11.064Z</time></trkpt><trkpt lat="42.0724567" lon="11.9886167"><ele>478.33333333333337</ele><time>2026-04-24T10:32:12.062Z</time></trkpt><trkpt lat="42.072465" lon="11.9887183"><ele>481.5</ele><time>2026-04-24T10:32:13.063Z</time></trkpt><trkpt lat="42.0724717" lon="11.9888117"><ele>484.66666666666663</ele><time>2026-04-24T10:32:14.063Z</time></trkpt><trkpt lat="42.0724967" lon="11.988985"><ele>487.8333333333333</ele><time>2026-04-24T10:32:16.065Z</time></trkpt><trkpt lat="42.0725083" lon="11.9890833"><ele>491.0</ele><time>2026-04-24T10:32:17.064Z</time></trkpt><trkpt lat="42.0725183" lon="11.9891883"><ele>491.0</ele><time>2026-04-24T10:32:18.066Z</time></trkpt><trkpt lat="42.07253" lon="11.9893017"><ele>491.0</ele><time>2026-04-24T10:32:19.062Z</time></trkpt><trkpt lat="42.0725383" lon="11.9894033"><ele>491.0</ele><time>2026-04-24T10:32:20.064Z</time></trkpt><trkpt lat="42.072555" lon="11.9894917"><ele>491.0</ele><time>2026-04-24T10:32:21.063Z</time></trkpt><trkpt lat="42.0726033" lon="11.9896217"><ele>491.0</ele><time>2026-04-24T10:32:23.063Z</time></trkpt><trkpt lat="42.0726983" lon="11.98971"><ele>491.0</ele><time>2026-04-24T10:32:25.063Z</time></trkpt><trkpt lat="42.0727917" lon="11.9898217"><ele>491.0</ele><time>2026-04-24T10:32:27.064Z</time></trkpt><trkpt lat="42.07285" lon="11.9899683"><ele>491.0</ele><time>2026-04-24T10:32:29.064Z</time></trkpt><trkpt lat="42.0728767" lon="11.9900483"><ele>491.0</ele><time>2026-04-24T10:32:30.064Z</time></trkpt><trkpt lat="42.072905" lon="11.9901283"><ele>491.0</ele><time>2026-04-24T10:32:31.064Z</time></trkpt><trkpt lat="42.0729567" lon="11.9902733"><ele>490.0</ele><time>2026-04-24T10:32:33.064Z</time></trkpt><trkpt lat="42.0729833" lon="11.9904233"><ele>489.0</ele><time>2026-04-24T10:32:35.064Z</time></trkpt><trkpt lat="42.0730067" lon="11.99059"><ele>488.0</ele><time>2026-04-24T10:32:37.067Z</time></trkpt><trkpt lat="42.0730083" lon="11.9907667"><ele>487.0</ele><time>2026-04-24T10:32:39.062Z</time></trkpt><trkpt lat="42.0730033" lon="11.990865"><ele>486.0</ele><time>2026-04-24T10:32:40.063Z</time></trkpt><trkpt lat="42.073005" lon="11.9909583"><ele>484.8333333333333</ele><time>2026-04-24T10:32:41.062Z</time></trkpt><trkpt lat="42.073005" lon="11.9910517"><ele>483.66666666666663</ele><time>2026-04-24T10:32:42.062Z</time></trkpt><trkpt lat="42.073015" lon="11.991205"><ele>482.5</ele><time>2026-04-24T10:32:44.062Z</time></trkpt><trkpt lat="42.0730467" lon="11.9913367"><ele>481.3333333333333</ele><time>2026-04-24T10:32:46.062Z</time></trkpt><trkpt lat="42.0730467" lon="11.9914383"><ele>480.16666666666663</ele><time>2026-04-24T10:32:47.064Z</time></trkpt><trkpt lat="42.0730433" lon="11.99154"><ele>479.0</ele><time>2026-04-24T10:32:48.064Z</time></trkpt><trkpt lat="42.0730433" lon="11.9916383"><ele>477.3333333333333</ele><time>2026-04-24T10:32:49.063Z</time></trkpt><trkpt lat="42.0730417" lon="11.9917317"><ele>475.66666666666663</ele><time>2026-04-24T10:32:50.064Z</time></trkpt><trkpt lat="42.0730333" lon="11.9918233"><ele>474.0</ele><time>2026-04-24T10:32:51.063Z</time></trkpt><trkpt lat="42.0730067" lon="11.9919183"><ele>472.33333333333337</ele><time>2026-04-24T10:32:52.061Z</time></trkpt><trkpt lat="42.072995" lon="11.9920317"><ele>470.6666666666667</ele><time>2026-04-24T10:32:53.064Z</time></trkpt><trkpt lat="42.072975" lon="11.9921383"><ele>469.0</ele><time>2026-04-24T10:32:54.063Z</time></trkpt><trkpt lat="42.07295" lon="11.9922467"><ele>469.00000000000006</ele><time>2026-04-24T10:32:55.063Z</time></trkpt><trkpt lat="42.072925" lon="11.9923483"><ele>469.0</ele><time>2026-04-24T10:32:56.063Z</time></trkpt><trkpt lat="42.0729033" lon="11.9924533"><ele>469.0</ele><time>2026-04-24T10:32:57.064Z</time></trkpt><trkpt lat="42.0728817" lon="11.9925667"><ele>469.0</ele><time>2026-04-24T10:32:58.064Z</time></trkpt><trkpt lat="42.0728633" lon="11.9926817"><ele>469.00000000000006</ele><time>2026-04-24T10:32:59.064Z</time></trkpt><trkpt lat="42.072845" lon="11.9928017"><ele>469.0</ele><time>2026-04-24T10:33:00.066Z</time></trkpt><trkpt lat="42.0728333" lon="11.9929333"><ele>467.6666666666667</ele><time>2026-04-24T10:33:01.065Z</time></trkpt><trkpt lat="42.0728267" lon="11.99306"><ele>466.33333333333337</ele><time>2026-04-24T10:33:02.065Z</time></trkpt><trkpt lat="42.072825" lon="11.99318"><ele>465.0</ele><time>2026-04-24T10:33:03.063Z</time></trkpt><trkpt lat="42.0728183" lon="11.9932933"><ele>463.66666666666663</ele><time>2026-04-24T10:33:04.063Z</time></trkpt><trkpt lat="42.0728083" lon="11.9934017"><ele>462.3333333333333</ele><time>2026-04-24T10:33:05.062Z</time></trkpt><trkpt lat="42.0727983" lon="11.993505"><ele>461.0</ele><time>2026-04-24T10:33:06.063Z</time></trkpt><trkpt lat="42.0727917" lon="11.9936083"><ele>459.66666666666663</ele><time>2026-04-24T10:33:07.065Z</time></trkpt><trkpt lat="42.0727833" lon="11.9937133"><ele>458.3333333333333</ele><time>2026-04-24T10:33:08.065Z</time></trkpt><trkpt lat="42.0727683" lon="11.9938117"><ele>457.0</ele><time>2026-04-24T10:33:09.065Z</time></trkpt><trkpt lat="42.07276" lon="11.9939033"><ele>455.66666666666663</ele><time>2026-04-24T10:33:10.063Z</time></trkpt><trkpt lat="42.0727433" lon="11.9940583"><ele>454.3333333333333</ele><time>2026-04-24T10:33:12.063Z</time></trkpt><trkpt lat="42.0727133" lon="11.99418"><ele>453.0</ele><time>2026-04-24T10:33:14.065Z</time></trkpt><trkpt lat="42.072665" lon="11.9942517"><ele>450.5</ele><time>2026-04-24T10:33:16.063Z</time></trkpt><trkpt lat="42.0725933" lon="11.9942617"><ele>448.0</ele><time>2026-04-24T10:33:18.064Z</time></trkpt><trkpt lat="42.0725117" lon="11.9942533"><ele>445.5</ele><time>2026-04-24T10:33:20.063Z</time></trkpt><trkpt lat="42.072455" lon="11.9943"><ele>443.0</ele><time>2026-04-24T10:33:22.064Z</time></trkpt><trkpt lat="42.0724283" lon="11.99441"><ele>440.5</ele><time>2026-04-24T10:33:25.062Z</time></trkpt><trkpt lat="42.0723833" lon="11.99453"><ele>438.0</ele><time>2026-04-24T10:33:28.063Z</time></trkpt><trkpt lat="42.07233" lon="11.9946"><ele>435.0</ele><time>2026-04-24T10:33:30.067Z</time></trkpt><trkpt lat="42.07226" lon="11.9946283"><ele>431.99999999999994</ele><time>2026-04-24T10:33:32.068Z</time></trkpt><trkpt lat="42.0721783" lon="11.9946117"><ele>429.0</ele><time>2026-04-24T10:33:34.065Z</time></trkpt><trkpt lat="42.072085" lon="11.994585"><ele>426.0</ele><time>2026-04-24T10:33:36.065Z</time></trkpt><trkpt lat="42.0719817" lon="11.9945683"><ele>423.0</ele><time>2026-04-24T10:33:38.065Z</time></trkpt><trkpt lat="42.07188" lon="11.9945683"><ele>423.0</ele><time>2026-04-24T10:33:40.068Z</time></trkpt><trkpt lat="42.0717983" lon="11.99459"><ele>423.0</ele><time>2026-04-24T10:33:42.064Z</time></trkpt><trkpt lat="42.07173" lon="11.9946433"><ele>423.0</ele><time>2026-04-24T10:33:44.067Z</time></trkpt><trkpt lat="42.0717033" lon="11.9947283"><ele>423.0</ele><time>2026-04-24T10:33:46.064Z</time></trkpt><trkpt lat="42.0716883" lon="11.994815"><ele>423.0</ele><time>2026-04-24T10:33:48.064Z</time></trkpt><trkpt lat="42.0716317" lon="11.9948633"><ele>423.0</ele><time>2026-04-24T10:33:50.065Z</time></trkpt><trkpt lat="42.071555" lon="11.9948767"><ele>423.0</ele><time>2026-04-24T10:33:52.063Z</time></trkpt><trkpt lat="42.07146" lon="11.9949"><ele>419.25</ele><time>2026-04-24T10:33:54.064Z</time></trkpt><trkpt lat="42.0713617" lon="11.99493"><ele>415.5</ele><time>2026-04-24T10:33:56.063Z</time></trkpt><trkpt lat="42.07124" lon="11.9949533"><ele>411.75</ele><time>2026-04-24T10:33:58.065Z</time></trkpt><trkpt lat="42.0711183" lon="11.9949617"><ele>408.0</ele><time>2026-04-24T10:34:00.067Z</time></trkpt><trkpt lat="42.0710117" lon="11.99497"><ele>408.0</ele><time>2026-04-24T10:34:02.067Z</time></trkpt><trkpt lat="42.0709167" lon="11.9949883"><ele>408.0</ele><time>2026-04-24T10:34:04.065Z</time></trkpt><trkpt lat="42.0708383" lon="11.9950233"><ele>408.0</ele><time>2026-04-24T10:34:06.066Z</time></trkpt><trkpt lat="42.0707583" lon="11.9950567"><ele>408.0</ele><time>2026-04-24T10:34:08.064Z</time></trkpt><trkpt lat="42.0706617" lon="11.9950683"><ele>408.0</ele><time>2026-04-24T10:34:10.066Z</time></trkpt><trkpt lat="42.0705617" lon="11.995065"><ele>404.3333333333333</ele><time>2026-04-24T10:34:12.063Z</time></trkpt><trkpt lat="42.0704933" lon="11.9950017"><ele>400.66666666666663</ele><time>2026-04-24T10:34:14.065Z</time></trkpt><trkpt lat="42.0704717" lon="11.994885"><ele>397.0</ele><time>2026-04-24T10:34:16.065Z</time></trkpt><trkpt lat="42.0704533" lon="11.9947683"><ele>393.3333333333333</ele><time>2026-04-24T10:34:19.064Z</time></trkpt><trkpt lat="42.0704167" lon="11.9946917"><ele>389.66666666666663</ele><time>2026-04-24T10:34:21.064Z</time></trkpt><trkpt lat="42.0703683" lon="11.994595"><ele>386.0</ele><time>2026-04-24T10:34:23.064Z</time></trkpt><trkpt lat="42.0703017" lon="11.994485"><ele>385.99999999999994</ele><time>2026-04-24T10:34:25.065Z</time></trkpt><trkpt lat="42.070195" lon="11.99443"><ele>386.0</ele><time>2026-04-24T10:34:27.064Z</time></trkpt><trkpt lat="42.0701333" lon="11.99441"><ele>386.0</ele><time>2026-04-24T10:34:28.063Z</time></trkpt><trkpt lat="42.0700667" lon="11.994385"><ele>386.0</ele><time>2026-04-24T10:34:29.065Z</time></trkpt><trkpt lat="42.0699983" lon="11.9943467"><ele>385.99999999999994</ele><time>2026-04-24T10:34:30.064Z</time></trkpt><trkpt lat="42.0699317" lon="11.9942917"><ele>386.0</ele><time>2026-04-24T10:34:31.065Z</time></trkpt><trkpt lat="42.069865" lon="11.9942283"><ele>384.6</ele><time>2026-04-24T10:34:32.064Z</time></trkpt><trkpt lat="42.0697933" lon="11.99415"><ele>383.20000000000005</ele><time>2026-04-24T10:34:33.065Z</time></trkpt><trkpt lat="42.0697183" lon="11.994075"><ele>381.79999999999995</ele><time>2026-04-24T10:34:34.064Z</time></trkpt><trkpt lat="42.0696417" lon="11.9940017"><ele>380.4</ele><time>2026-04-24T10:34:35.065Z</time></trkpt><trkpt lat="42.0695617" lon="11.9939317"><ele>379.0</ele><time>2026-04-24T10:34:36.067Z</time></trkpt><trkpt lat="42.069475" lon="11.9938683"><ele>379.0</ele><time>2026-04-24T10:34:37.065Z</time></trkpt><trkpt lat="42.0693783" lon="11.993815"><ele>379.0</ele><time>2026-04-24T10:34:38.067Z</time></trkpt><trkpt lat="42.0692717" lon="11.9937833"><ele>379.0</ele><time>2026-04-24T10:34:39.068Z</time></trkpt><trkpt lat="42.0691617" lon="11.9937633"><ele>379.0</ele><time>2026-04-24T10:34:40.067Z</time></trkpt><trkpt lat="42.0690533" lon="11.9937467"><ele>379.0</ele><time>2026-04-24T10:34:41.064Z</time></trkpt><trkpt lat="42.0689467" lon="11.99373"><ele>378.3333333333333</ele><time>2026-04-24T10:34:42.062Z</time></trkpt><trkpt lat="42.0688433" lon="11.9937117"><ele>377.66666666666663</ele><time>2026-04-24T10:34:43.065Z</time></trkpt><trkpt lat="42.0687467" lon="11.9936967"><ele>377.0</ele><time>2026-04-24T10:34:44.064Z</time></trkpt><trkpt lat="42.0686617" lon="11.99368"><ele>376.3333333333333</ele><time>2026-04-24T10:34:45.062Z</time></trkpt><trkpt lat="42.0685817" lon="11.9936717"><ele>375.6666666666667</ele><time>2026-04-24T10:34:46.062Z</time></trkpt><trkpt lat="42.068505" lon="11.9936667"><ele>375.0</ele><time>2026-04-24T10:34:47.063Z</time></trkpt><trkpt lat="42.0684267" lon="11.9936683"><ele>375.0</ele><time>2026-04-24T10:34:48.065Z</time></trkpt><trkpt lat="42.0683533" lon="11.9936783"><ele>375.0</ele><time>2026-04-24T10:34:49.065Z</time></trkpt><trkpt lat="42.0682817" lon="11.9936883"><ele>375.0</ele><time>2026-04-24T10:34:50.066Z</time></trkpt><trkpt lat="42.0682117" lon="11.9937033"><ele>375.0</ele><time>2026-04-24T10:34:51.064Z</time></trkpt><trkpt lat="42.0681433" lon="11.9937283"><ele>375.0</ele><time>2026-04-24T10:34:52.063Z</time></trkpt><trkpt lat="42.0680733" lon="11.9937633"><ele>375.0</ele><time>2026-04-24T10:34:53.063Z</time></trkpt><trkpt lat="42.0680033" lon="11.9938017"><ele>375.0</ele><time>2026-04-24T10:34:54.064Z</time></trkpt><trkpt lat="42.0679283" lon="11.993845"><ele>374.3333333333333</ele><time>2026-04-24T10:34:55.065Z</time></trkpt><trkpt lat="42.0678533" lon="11.9938883"><ele>373.6666666666667</ele><time>2026-04-24T10:34:56.066Z</time></trkpt><trkpt lat="42.067775" lon="11.99392"><ele>373.0</ele><time>2026-04-24T10:34:57.067Z</time></trkpt><trkpt lat="42.067695" lon="11.9939367"><ele>372.33333333333337</ele><time>2026-04-24T10:34:58.063Z</time></trkpt><trkpt lat="42.0676183" lon="11.9939367"><ele>371.6666666666667</ele><time>2026-04-24T10:34:59.067Z</time></trkpt><trkpt lat="42.0675433" lon="11.99392"><ele>371.0</ele><time>2026-04-24T10:35:00.066Z</time></trkpt><trkpt lat="42.0674733" lon="11.993895"><ele>368.1666666666667</ele><time>2026-04-24T10:35:01.066Z</time></trkpt><trkpt lat="42.0674067" lon="11.9938683"><ele>365.33333333333337</ele><time>2026-04-24T10:35:02.067Z</time></trkpt><trkpt lat="42.0673433" lon="11.99384"><ele>362.5</ele><time>2026-04-24T10:35:03.066Z</time></trkpt><trkpt lat="42.0672833" lon="11.99381"><ele>359.6666666666667</ele><time>2026-04-24T10:35:04.066Z</time></trkpt><trkpt lat="42.0671867" lon="11.9937633"><ele>356.8333333333333</ele><time>2026-04-24T10:35:06.068Z</time></trkpt><trkpt lat="42.067095" lon="11.9937217"><ele>354.0</ele><time>2026-04-24T10:35:08.066Z</time></trkpt><trkpt lat="42.0669867" lon="11.9936733"><ele>354.0</ele><time>2026-04-24T10:35:10.066Z</time></trkpt><trkpt lat="42.0668783" lon="11.9936133"><ele>354.0</ele><time>2026-04-24T10:35:12.063Z</time></trkpt><trkpt lat="42.0667717" lon="11.993565"><ele>354.0</ele><time>2026-04-24T10:35:14.064Z</time></trkpt><trkpt lat="42.06671" lon="11.9935317"><ele>354.0</ele><time>2026-04-24T10:35:15.064Z</time></trkpt><trkpt lat="42.0666417" lon="11.993495"><ele>354.0</ele><time>2026-04-24T10:35:16.065Z</time></trkpt><trkpt lat="42.06657" lon="11.993455"><ele>354.0</ele><time>2026-04-24T10:35:17.064Z</time></trkpt><trkpt lat="42.0665033" lon="11.9934183"><ele>350.4</ele><time>2026-04-24T10:35:18.064Z</time></trkpt><trkpt lat="42.0663917" lon="11.9933567"><ele>346.79999999999995</ele><time>2026-04-24T10:35:20.066Z</time></trkpt><trkpt lat="42.0662817" lon="11.9932733"><ele>343.20000000000005</ele><time>2026-04-24T10:35:22.065Z</time></trkpt><trkpt lat="42.066215" lon="11.9932117"><ele>339.6</ele><time>2026-04-24T10:35:23.064Z</time></trkpt><trkpt lat="42.0661367" lon="11.9931483"><ele>336.0</ele><time>2026-04-24T10:35:24.065Z</time></trkpt><trkpt lat="42.0660517" lon="11.99309"><ele>336.0</ele><time>2026-04-24T10:35:25.064Z</time></trkpt><trkpt lat="42.0659617" lon="11.993045"><ele>336.0</ele><time>2026-04-24T10:35:26.064Z</time></trkpt><trkpt lat="42.0658683" lon="11.993015"><ele>336.0</ele><time>2026-04-24T10:35:27.066Z</time></trkpt><trkpt lat="42.06577" lon="11.9929867"><ele>336.0</ele><time>2026-04-24T10:35:28.065Z</time></trkpt><trkpt lat="42.06567" lon="11.9929533"><ele>336.0</ele><time>2026-04-24T10:35:29.066Z</time></trkpt><trkpt lat="42.0655717" lon="11.9929283"><ele>334.20000000000005</ele><time>2026-04-24T10:35:30.066Z</time></trkpt><trkpt lat="42.065475" lon="11.99292"><ele>332.40000000000003</ele><time>2026-04-24T10:35:31.065Z</time></trkpt><trkpt lat="42.0653817" lon="11.9929167"><ele>330.6</ele><time>2026-04-24T10:35:32.067Z</time></trkpt><trkpt lat="42.06529" lon="11.992905"><ele>328.8</ele><time>2026-04-24T10:35:33.066Z</time></trkpt><trkpt lat="42.0652017" lon="11.992885"><ele>327.0</ele><time>2026-04-24T10:35:34.065Z</time></trkpt><trkpt lat="42.0651167" lon="11.9928667"><ele>327.0</ele><time>2026-04-24T10:35:35.066Z</time></trkpt><trkpt lat="42.0650267" lon="11.99286"><ele>327.0</ele><time>2026-04-24T10:35:36.065Z</time></trkpt><trkpt lat="42.0649367" lon="11.99286"><ele>327.0</ele><time>2026-04-24T10:35:37.066Z</time></trkpt><trkpt lat="42.0648517" lon="11.9928617"><ele>327.0</ele><time>2026-04-24T10:35:38.065Z</time></trkpt><trkpt lat="42.0647683" lon="11.9928667"><ele>327.0</ele><time>2026-04-24T10:35:39.066Z</time></trkpt><trkpt lat="42.0646833" lon="11.992875"><ele>327.0</ele><time>2026-04-24T10:35:40.066Z</time></trkpt><trkpt lat="42.0645983" lon="11.99289"><ele>325.5</ele><time>2026-04-24T10:35:41.065Z</time></trkpt><trkpt lat="42.0645133" lon="11.9929133"><ele>324.0</ele><time>2026-04-24T10:35:42.066Z</time></trkpt><trkpt lat="42.06443" lon="11.9929367"><ele>322.5</ele><time>2026-04-24T10:35:43.066Z</time></trkpt><trkpt lat="42.0643483" lon="11.992955"><ele>321.0</ele><time>2026-04-24T10:35:44.065Z</time></trkpt><trkpt lat="42.06427" lon="11.9929733"><ele>319.5</ele><time>2026-04-24T10:35:45.065Z</time></trkpt><trkpt lat="42.0642033" lon="11.9929983"><ele>318.0</ele><time>2026-04-24T10:35:46.065Z</time></trkpt><trkpt lat="42.06414" lon="11.9930283"><ele>315.8</ele><time>2026-04-24T10:35:47.066Z</time></trkpt><trkpt lat="42.0640283" lon="11.9930683"><ele>313.6</ele><time>2026-04-24T10:35:49.065Z</time></trkpt><trkpt lat="42.06394" lon="11.9930317"><ele>311.4</ele><time>2026-04-24T10:35:51.065Z</time></trkpt><trkpt lat="42.06385" lon="11.992925"><ele>309.2</ele><time>2026-04-24T10:35:53.065Z</time></trkpt><trkpt lat="42.063795" lon="11.992865"><ele>307.0</ele><time>2026-04-24T10:35:54.064Z</time></trkpt><trkpt lat="42.063735" lon="11.9928033"><ele>306.99999999999994</ele><time>2026-04-24T10:35:55.064Z</time></trkpt><trkpt lat="42.063675" lon="11.9927483"><ele>307.0</ele><time>2026-04-24T10:35:56.064Z</time></trkpt><trkpt lat="42.0636133" lon="11.9926983"><ele>307.0</ele><time>2026-04-24T10:35:57.064Z</time></trkpt><trkpt lat="42.0635517" lon="11.9926433"><ele>307.0</ele><time>2026-04-24T10:35:58.063Z</time></trkpt><trkpt lat="42.063495" lon="11.9925817"><ele>307.0</ele><time>2026-04-24T10:35:59.063Z</time></trkpt><trkpt lat="42.0634483" lon="11.992515"><ele>306.99999999999994</ele><time>2026-04-24T10:36:00.064Z</time></trkpt><trkpt lat="42.0633967" lon="11.9924533"><ele>307.0</ele><time>2026-04-24T10:36:01.063Z</time></trkpt><trkpt lat="42.0633317" lon="11.9923967"><ele>305.6</ele><time>2026-04-24T10:36:02.065Z</time></trkpt><trkpt lat="42.063255" lon="11.9923367"><ele>304.2</ele><time>2026-04-24T10:36:03.064Z</time></trkpt><trkpt lat="42.06317" lon="11.9922817"><ele>302.8</ele><time>2026-04-24T10:36:04.066Z</time></trkpt><trkpt lat="42.0630783" lon="11.9922267"><ele>301.4</ele><time>2026-04-24T10:36:05.066Z</time></trkpt><trkpt lat="42.0629883" lon="11.99217"><ele>300.0</ele><time>2026-04-24T10:36:06.064Z</time></trkpt><trkpt lat="42.0628983" lon="11.9921083"><ele>300.0</ele><time>2026-04-24T10:36:07.064Z</time></trkpt><trkpt lat="42.06281" lon="11.9920483"><ele>300.0</ele><time>2026-04-24T10:36:08.065Z</time></trkpt><trkpt lat="42.0627183" lon="11.991995"><ele>300.0</ele><time>2026-04-24T10:36:09.064Z</time></trkpt><trkpt lat="42.062625" lon="11.9919567"><ele>300.0</ele><time>2026-04-24T10:36:10.064Z</time></trkpt><trkpt lat="42.062535" lon="11.9919267"><ele>300.0</ele><time>2026-04-24T10:36:11.065Z</time></trkpt><trkpt lat="42.0624517" lon="11.9918967"><ele>297.4</ele><time>2026-04-24T10:36:12.062Z</time></trkpt><trkpt lat="42.0623667" lon="11.9918767"><ele>294.8</ele><time>2026-04-24T10:36:13.063Z</time></trkpt><trkpt lat="42.0622733" lon="11.9918633"><ele>292.2</ele><time>2026-04-24T10:36:14.064Z</time></trkpt><trkpt lat="42.062175" lon="11.99185"><ele>289.6</ele><time>2026-04-24T10:36:15.065Z</time></trkpt><trkpt lat="42.0620767" lon="11.991835"><ele>287.0</ele><time>2026-04-24T10:36:16.065Z</time></trkpt><trkpt lat="42.0619817" lon="11.9918133"><ele>287.0</ele><time>2026-04-24T10:36:17.064Z</time></trkpt><trkpt lat="42.0618817" lon="11.9917883"><ele>287.0</ele><time>2026-04-24T10:36:18.064Z</time></trkpt><trkpt lat="42.0617817" lon="11.991765"><ele>287.0</ele><time>2026-04-24T10:36:19.063Z</time></trkpt><trkpt lat="42.0616833" lon="11.991745"><ele>287.0</ele><time>2026-04-24T10:36:20.063Z</time></trkpt><trkpt lat="42.0615833" lon="11.9917183"><ele>287.0</ele><time>2026-04-24T10:36:21.064Z</time></trkpt><trkpt lat="42.061485" lon="11.9916867"><ele>286.0</ele><time>2026-04-24T10:36:22.064Z</time></trkpt><trkpt lat="42.061385" lon="11.9916517"><ele>285.0</ele><time>2026-04-24T10:36:23.064Z</time></trkpt><trkpt lat="42.0612833" lon="11.9916183"><ele>284.0</ele><time>2026-04-24T10:36:24.064Z</time></trkpt><trkpt lat="42.061175" lon="11.9915783"><ele>283.0</ele><time>2026-04-24T10:36:25.063Z</time></trkpt><trkpt lat="42.0610683" lon="11.9915283"><ele>282.0</ele><time>2026-04-24T10:36:26.066Z</time></trkpt><trkpt lat="42.0609633" lon="11.991475"><ele>282.0</ele><time>2026-04-24T10:36:27.063Z</time></trkpt><trkpt lat="42.0608617" lon="11.9914333"><ele>282.0</ele><time>2026-04-24T10:36:28.063Z</time></trkpt><trkpt lat="42.0607667" lon="11.9914"><ele>282.0</ele><time>2026-04-24T10:36:29.065Z</time></trkpt><trkpt lat="42.0606783" lon="11.9913817"><ele>282.0</ele><time>2026-04-24T10:36:30.063Z</time></trkpt><trkpt lat="42.0605967" lon="11.99138"><ele>282.0</ele><time>2026-04-24T10:36:31.066Z</time></trkpt><trkpt lat="42.0605117" lon="11.9913783"><ele>280.6666666666667</ele><time>2026-04-24T10:36:32.065Z</time></trkpt><trkpt lat="42.0604283" lon="11.9913683"><ele>279.3333333333333</ele><time>2026-04-24T10:36:33.063Z</time></trkpt><trkpt lat="42.0603433" lon="11.9913533"><ele>278.0</ele><time>2026-04-24T10:36:34.063Z</time></trkpt><trkpt lat="42.060255" lon="11.9913383"><ele>276.66666666666663</ele><time>2026-04-24T10:36:35.065Z</time></trkpt><trkpt lat="42.060165" lon="11.9913317"><ele>275.3333333333333</ele><time>2026-04-24T10:36:36.064Z</time></trkpt><trkpt lat="42.0600667" lon="11.9913317"><ele>274.0</ele><time>2026-04-24T10:36:37.065Z</time></trkpt><trkpt lat="42.0599633" lon="11.991325"><ele>272.8333333333333</ele><time>2026-04-24T10:36:38.066Z</time></trkpt><trkpt lat="42.0598683" lon="11.9913083"><ele>271.66666666666663</ele><time>2026-04-24T10:36:39.063Z</time></trkpt><trkpt lat="42.05978" lon="11.99129"><ele>270.5</ele><time>2026-04-24T10:36:40.063Z</time></trkpt><trkpt lat="42.0596967" lon="11.9912783"><ele>269.3333333333333</ele><time>2026-04-24T10:36:41.065Z</time></trkpt><trkpt lat="42.0596183" lon="11.9912617"><ele>268.1666666666667</ele><time>2026-04-24T10:36:42.065Z</time></trkpt><trkpt lat="42.0595433" lon="11.9912433"><ele>267.0</ele><time>2026-04-24T10:36:43.062Z</time></trkpt><trkpt lat="42.05947" lon="11.9912233"><ele>267.0</ele><time>2026-04-24T10:36:44.066Z</time></trkpt><trkpt lat="42.059395" lon="11.9912"><ele>267.0</ele><time>2026-04-24T10:36:45.063Z</time></trkpt><trkpt lat="42.0593167" lon="11.9911783"><ele>267.0</ele><time>2026-04-24T10:36:46.063Z</time></trkpt><trkpt lat="42.0592333" lon="11.99115"><ele>267.0</ele><time>2026-04-24T10:36:47.063Z</time></trkpt><trkpt lat="42.0591533" lon="11.9911167"><ele>267.0</ele><time>2026-04-24T10:36:48.064Z</time></trkpt><trkpt lat="42.0590817" lon="11.9910867"><ele>267.0</ele><time>2026-04-24T10:36:49.064Z</time></trkpt><trkpt lat="42.058955" lon="11.9910783"><ele>264.8333333333333</ele><time>2026-04-24T10:36:51.064Z</time></trkpt><trkpt lat="42.05889" lon="11.99108"><ele>262.6666666666667</ele><time>2026-04-24T10:36:52.065Z</time></trkpt><trkpt lat="42.0588267" lon="11.991075"><ele>260.5</ele><time>2026-04-24T10:36:53.063Z</time></trkpt><trkpt lat="42.0587633" lon="11.99108"><ele>258.33333333333337</ele><time>2026-04-24T10:36:54.063Z</time></trkpt><trkpt lat="42.058645" lon="11.9911117"><ele>256.1666666666667</ele><time>2026-04-24T10:36:56.063Z</time></trkpt><trkpt lat="42.05852" lon="11.9911117"><ele>254.0</ele><time>2026-04-24T10:36:58.063Z</time></trkpt><trkpt lat="42.0584583" lon="11.9910767"><ele>254.00000000000003</ele><time>2026-04-24T10:36:59.063Z</time></trkpt><trkpt lat="42.0584" lon="11.991025"><ele>254.0</ele><time>2026-04-24T10:37:00.065Z</time></trkpt><trkpt lat="42.058335" lon="11.9909633"><ele>254.0</ele><time>2026-04-24T10:37:01.063Z</time></trkpt><trkpt lat="42.0582667" lon="11.9909067"><ele>254.0</ele><time>2026-04-24T10:37:02.065Z</time></trkpt><trkpt lat="42.0581967" lon="11.9908533"><ele>254.00000000000003</ele><time>2026-04-24T10:37:03.064Z</time></trkpt><trkpt lat="42.0581267" lon="11.9908017"><ele>254.0</ele><time>2026-04-24T10:37:04.063Z</time></trkpt><trkpt lat="42.0580533" lon="11.99077"><ele>252.00000000000003</ele><time>2026-04-24T10:37:05.063Z</time></trkpt><trkpt lat="42.0579767" lon="11.9907583"><ele>250.0</ele><time>2026-04-24T10:37:06.065Z</time></trkpt><trkpt lat="42.0579033" lon="11.9907617"><ele>248.0</ele><time>2026-04-24T10:37:07.063Z</time></trkpt><trkpt lat="42.0578367" lon="11.9907767"><ele>246.0</ele><time>2026-04-24T10:37:08.064Z</time></trkpt><trkpt lat="42.0577367" lon="11.9908083"><ele>244.00000000000003</ele><time>2026-04-24T10:37:10.065Z</time></trkpt><trkpt lat="42.0576717" lon="11.9908033"><ele>242.0</ele><time>2026-04-24T10:37:12.064Z</time></trkpt><trkpt lat="42.057605" lon="11.99076"><ele>242.0</ele><time>2026-04-24T10:37:14.064Z</time></trkpt><trkpt lat="42.0575883" lon="11.9906433"><ele>242.0</ele><time>2026-04-24T10:37:17.063Z</time></trkpt><trkpt lat="42.05764" lon="11.99054"><ele>242.0</ele><time>2026-04-24T10:37:19.063Z</time></trkpt><trkpt lat="42.0577167" lon="11.9903983"><ele>242.0</ele><time>2026-04-24T10:37:21.066Z</time></trkpt><trkpt lat="42.05776" lon="11.9903117"><ele>242.0</ele><time>2026-04-24T10:37:22.064Z</time></trkpt><trkpt lat="42.0578083" lon="11.9902167"><ele>242.0</ele><time>2026-04-24T10:37:23.063Z</time></trkpt><trkpt lat="42.0578533" lon="11.9901233"><ele>242.0</ele><time>2026-04-24T10:37:24.064Z</time></trkpt><trkpt lat="42.0578967" lon="11.9900383"><ele>242.0</ele><time>2026-04-24T10:37:25.065Z</time></trkpt><trkpt lat="42.057935" lon="11.9899683"><ele>242.0</ele><time>2026-04-24T10:37:26.064Z</time></trkpt><trkpt lat="42.0580017" lon="11.9898317"><ele>242.0</ele><time>2026-04-24T10:37:28.066Z</time></trkpt><trkpt lat="42.058065" lon="11.9896983"><ele>241.6</ele><time>2026-04-24T10:37:30.064Z</time></trkpt><trkpt lat="42.058145" lon="11.9895617"><ele>241.2</ele><time>2026-04-24T10:37:32.064Z</time></trkpt><trkpt lat="42.0581917" lon="11.9894867"><ele>240.8</ele><time>2026-04-24T10:37:33.065Z</time></trkpt><trkpt lat="42.05825" lon="11.989405"><ele>240.4</ele><time>2026-04-24T10:37:34.062Z</time></trkpt><trkpt lat="42.0583117" lon="11.9893283"><ele>240.0</ele><time>2026-04-24T10:37:35.063Z</time></trkpt><trkpt lat="42.058375" lon="11.9892517"><ele>238.83333333333334</ele><time>2026-04-24T10:37:36.063Z</time></trkpt><trkpt lat="42.0584367" lon="11.9891717"><ele>237.66666666666669</ele><time>2026-04-24T10:37:37.064Z</time></trkpt><trkpt lat="42.0584933" lon="11.98909"><ele>236.5</ele><time>2026-04-24T10:37:38.062Z</time></trkpt><trkpt lat="42.0585383" lon="11.9890183"><ele>235.33333333333334</ele><time>2026-04-24T10:37:39.062Z</time></trkpt><trkpt lat="42.0585817" lon="11.9889383"><ele>234.16666666666669</ele><time>2026-04-24T10:37:40.063Z</time></trkpt><trkpt lat="42.0586183" lon="11.98886"><ele>233.0</ele><time>2026-04-24T10:37:41.064Z</time></trkpt><trkpt lat="42.0586517" lon="11.9887767"><ele>233.0</ele><time>2026-04-24T10:37:42.063Z</time></trkpt><trkpt lat="42.0586833" lon="11.9887017"><ele>233.0</ele><time>2026-04-24T10:37:43.064Z</time></trkpt><trkpt lat="42.0587117" lon="11.9886183"><ele>233.0</ele><time>2026-04-24T10:37:44.063Z</time></trkpt><trkpt lat="42.0587483" lon="11.98853"><ele>233.0</ele><time>2026-04-24T10:37:45.064Z</time></trkpt><trkpt lat="42.0587833" lon="11.9884433"><ele>233.0</ele><time>2026-04-24T10:37:46.064Z</time></trkpt><trkpt lat="42.05881" lon="11.9883433"><ele>233.0</ele><time>2026-04-24T10:37:47.064Z</time></trkpt><trkpt lat="42.0588317" lon="11.9882467"><ele>233.0</ele><time>2026-04-24T10:37:48.064Z</time></trkpt><trkpt lat="42.0588417" lon="11.9881567"><ele>232.50000000000003</ele><time>2026-04-24T10:37:49.064Z</time></trkpt><trkpt lat="42.058825" lon="11.988"><ele>232.0</ele><time>2026-04-24T10:37:51.062Z</time></trkpt><trkpt lat="42.0587983" lon="11.98792"><ele>231.5</ele><time>2026-04-24T10:37:52.062Z</time></trkpt><trkpt lat="42.0587717" lon="11.987825"><ele>231.0</ele><time>2026-04-24T10:37:53.063Z</time></trkpt><trkpt lat="42.0587583" lon="11.9877133"><ele>230.50000000000003</ele><time>2026-04-24T10:37:54.064Z</time></trkpt><trkpt lat="42.0587533" lon="11.9876"><ele>230.0</ele><time>2026-04-24T10:37:55.065Z</time></trkpt><trkpt lat="42.058765" lon="11.98749"><ele>229.33333333333334</ele><time>2026-04-24T10:37:56.065Z</time></trkpt><trkpt lat="42.0587833" lon="11.98738"><ele>228.66666666666669</ele><time>2026-04-24T10:37:57.065Z</time></trkpt><trkpt lat="42.05879" lon="11.9872683"><ele>228.0</ele><time>2026-04-24T10:37:58.065Z</time></trkpt><trkpt lat="42.058795" lon="11.9871683"><ele>227.33333333333331</ele><time>2026-04-24T10:37:59.063Z</time></trkpt><trkpt lat="42.05878" lon="11.98706"><ele>226.66666666666666</ele><time>2026-04-24T10:38:00.064Z</time></trkpt><trkpt lat="42.0587517" lon="11.9869683"><ele>226.0</ele><time>2026-04-24T10:38:01.064Z</time></trkpt><trkpt lat="42.0587083" lon="11.986885"><ele>225.99999999999997</ele><time>2026-04-24T10:38:02.064Z</time></trkpt><trkpt lat="42.0586617" lon="11.9868017"><ele>226.0</ele><time>2026-04-24T10:38:03.064Z</time></trkpt><trkpt lat="42.0586183" lon="11.9867167"><ele>226.0</ele><time>2026-04-24T10:38:04.065Z</time></trkpt><trkpt lat="42.0585917" lon="11.9866217"><ele>226.0</ele><time>2026-04-24T10:38:05.064Z</time></trkpt><trkpt lat="42.0585767" lon="11.9865217"><ele>225.99999999999997</ele><time>2026-04-24T10:38:06.065Z</time></trkpt><trkpt lat="42.05857" lon="11.98642"><ele>226.0</ele><time>2026-04-24T10:38:07.064Z</time></trkpt><trkpt lat="42.0585533" lon="11.986325"><ele>225.33333333333331</ele><time>2026-04-24T10:38:08.064Z</time></trkpt><trkpt lat="42.0585367" lon="11.986235"><ele>224.66666666666666</ele><time>2026-04-24T10:38:09.063Z</time></trkpt><trkpt lat="42.0585317" lon="11.9861483"><ele>224.0</ele><time>2026-04-24T10:38:10.063Z</time></trkpt><trkpt lat="42.0585417" lon="11.9860533"><ele>223.33333333333331</ele><time>2026-04-24T10:38:11.064Z</time></trkpt><trkpt lat="42.05857" lon="11.9859517"><ele>222.66666666666666</ele><time>2026-04-24T10:38:12.064Z</time></trkpt><trkpt lat="42.058605" lon="11.9858467"><ele>222.0</ele><time>2026-04-24T10:38:13.064Z</time></trkpt><trkpt lat="42.05864" lon="11.9857367"><ele>220.5</ele><time>2026-04-24T10:38:14.064Z</time></trkpt><trkpt lat="42.0586667" lon="11.9856233"><ele>219.0</ele><time>2026-04-24T10:38:15.063Z</time></trkpt><trkpt lat="42.0586717" lon="11.985525"><ele>217.5</ele><time>2026-04-24T10:38:16.063Z</time></trkpt><trkpt lat="42.05866" lon="11.985415"><ele>216.0</ele><time>2026-04-24T10:38:17.061Z</time></trkpt><trkpt lat="42.0586383" lon="11.9853133"><ele>214.5</ele><time>2026-04-24T10:38:18.061Z</time></trkpt><trkpt lat="42.0586067" lon="11.98522"><ele>213.0</ele><time>2026-04-24T10:38:19.063Z</time></trkpt><trkpt lat="42.0585767" lon="11.9851233"><ele>213.0</ele><time>2026-04-24T10:38:20.063Z</time></trkpt><trkpt lat="42.0585583" lon="11.9850233"><ele>213.0</ele><time>2026-04-24T10:38:21.064Z</time></trkpt><trkpt lat="42.0585467" lon="11.9849283"><ele>213.0</ele><time>2026-04-24T10:38:22.063Z</time></trkpt><trkpt lat="42.058545" lon="11.9848333"><ele>213.0</ele><time>2026-04-24T10:38:23.063Z</time></trkpt><trkpt lat="42.0585467" lon="11.984735"><ele>213.0</ele><time>2026-04-24T10:38:24.063Z</time></trkpt><trkpt lat="42.0585467" lon="11.98462"><ele>213.0</ele><time>2026-04-24T10:38:25.064Z</time></trkpt><trkpt lat="42.0585433" lon="11.984505"><ele>212.33333333333334</ele><time>2026-04-24T10:38:26.065Z</time></trkpt><trkpt lat="42.0585433" lon="11.9843967"><ele>211.66666666666669</ele><time>2026-04-24T10:38:27.064Z</time></trkpt><trkpt lat="42.0585533" lon="11.9843017"><ele>211.0</ele><time>2026-04-24T10:38:28.062Z</time></trkpt><trkpt lat="42.05857" lon="11.9842183"><ele>210.33333333333334</ele><time>2026-04-24T10:38:29.064Z</time></trkpt><trkpt lat="42.0585867" lon="11.9840667"><ele>209.66666666666669</ele><time>2026-04-24T10:38:31.063Z</time></trkpt><trkpt lat="42.05853" lon="11.9839367"><ele>209.0</ele><time>2026-04-24T10:38:33.064Z</time></trkpt><trkpt lat="42.0584683" lon="11.9838083"><ele>209.6</ele><time>2026-04-24T10:38:35.063Z</time></trkpt><trkpt lat="42.0583767" lon="11.9837217"><ele>210.2</ele><time>2026-04-24T10:38:37.064Z</time></trkpt><trkpt lat="42.058285" lon="11.9836617"><ele>210.79999999999998</ele><time>2026-04-24T10:38:39.064Z</time></trkpt><trkpt lat="42.0581967" lon="11.983575"><ele>211.39999999999998</ele><time>2026-04-24T10:38:41.064Z</time></trkpt><trkpt lat="42.0581283" lon="11.9835133"><ele>212.0</ele><time>2026-04-24T10:38:42.064Z</time></trkpt><trkpt lat="42.0580517" lon="11.9834517"><ele>212.00000000000003</ele><time>2026-04-24T10:38:43.063Z</time></trkpt><trkpt lat="42.0579783" lon="11.983395"><ele>212.0</ele><time>2026-04-24T10:38:44.064Z</time></trkpt><trkpt lat="42.0579217" lon="11.9833417"><ele>212.0</ele><time>2026-04-24T10:38:45.063Z</time></trkpt><trkpt lat="42.0578217" lon="11.983225"><ele>212.0</ele><time>2026-04-24T10:38:47.064Z</time></trkpt><trkpt lat="42.0577667" lon="11.983155"><ele>212.00000000000003</ele><time>2026-04-24T10:38:48.065Z</time></trkpt><trkpt lat="42.0577083" lon="11.9830767"><ele>212.0</ele><time>2026-04-24T10:38:49.064Z</time></trkpt><trkpt lat="42.05766" lon="11.9829883"><ele>210.57142857142858</ele><time>2026-04-24T10:38:50.065Z</time></trkpt><trkpt lat="42.0576267" lon="11.982895"><ele>209.14285714285714</ele><time>2026-04-24T10:38:51.063Z</time></trkpt><trkpt lat="42.0576" lon="11.9828117"><ele>207.71428571428572</ele><time>2026-04-24T10:38:52.064Z</time></trkpt><trkpt lat="42.05757" lon="11.9827317"><ele>206.28571428571428</ele><time>2026-04-24T10:38:53.065Z</time></trkpt><trkpt lat="42.0575333" lon="11.9826467"><ele>204.85714285714283</ele><time>2026-04-24T10:38:54.065Z</time></trkpt><trkpt lat="42.0574917" lon="11.9825633"><ele>203.42857142857142</ele><time>2026-04-24T10:38:55.064Z</time></trkpt><trkpt lat="42.057455" lon="11.98249"><ele>202.0</ele><time>2026-04-24T10:38:56.066Z</time></trkpt><trkpt lat="42.0573917" lon="11.982365"><ele>201.39999999999998</ele><time>2026-04-24T10:38:58.064Z</time></trkpt><trkpt lat="42.05731" lon="11.982225"><ele>200.79999999999998</ele><time>2026-04-24T10:39:00.064Z</time></trkpt><trkpt lat="42.0572633" lon="11.9821617"><ele>200.2</ele><time>2026-04-24T10:39:01.064Z</time></trkpt><trkpt lat="42.0572167" lon="11.9821017"><ele>199.6</ele><time>2026-04-24T10:39:02.065Z</time></trkpt><trkpt lat="42.0571333" lon="11.981985"><ele>199.0</ele><time>2026-04-24T10:39:04.064Z</time></trkpt><trkpt lat="42.0570917" lon="11.981915"><ele>198.99999999999997</ele><time>2026-04-24T10:39:05.063Z</time></trkpt><trkpt lat="42.0570383" lon="11.9818417"><ele>199.0</ele><time>2026-04-24T10:39:06.065Z</time></trkpt><trkpt lat="42.056975" lon="11.9817667"><ele>199.0</ele><time>2026-04-24T10:39:07.065Z</time></trkpt><trkpt lat="42.056915" lon="11.9816983"><ele>199.0</ele><time>2026-04-24T10:39:08.066Z</time></trkpt><trkpt lat="42.0568567" lon="11.9816267"><ele>198.99999999999997</ele><time>2026-04-24T10:39:09.063Z</time></trkpt><trkpt lat="42.0568083" lon="11.9815467"><ele>199.0</ele><time>2026-04-24T10:39:10.064Z</time></trkpt><trkpt lat="42.0567667" lon="11.98145"><ele>199.33333333333331</ele><time>2026-04-24T10:39:11.064Z</time></trkpt><trkpt lat="42.0567267" lon="11.9813533"><ele>199.66666666666666</ele><time>2026-04-24T10:39:12.064Z</time></trkpt><trkpt lat="42.0566833" lon="11.98127"><ele>200.0</ele><time>2026-04-24T10:39:13.065Z</time></trkpt><trkpt lat="42.0566383" lon="11.9811917"><ele>200.33333333333331</ele><time>2026-04-24T10:39:14.064Z</time></trkpt><trkpt lat="42.0565933" lon="11.9811117"><ele>200.66666666666666</ele><time>2026-04-24T10:39:15.064Z</time></trkpt><trkpt lat="42.0565533" lon="11.9810367"><ele>201.0</ele><time>2026-04-24T10:39:16.064Z</time></trkpt><trkpt lat="42.0565067" lon="11.9808983"><ele>198.8</ele><time>2026-04-24T10:39:18.065Z</time></trkpt><trkpt lat="42.0564967" lon="11.980765"><ele>196.60000000000002</ele><time>2026-04-24T10:39:20.067Z</time></trkpt><trkpt lat="42.0565017" lon="11.9806367"><ele>194.4</ele><time>2026-04-24T10:39:22.066Z</time></trkpt><trkpt lat="42.05649" lon="11.9805367"><ele>192.2</ele><time>2026-04-24T10:39:24.067Z</time></trkpt><trkpt lat="42.0564333" lon="11.9804683"><ele>190.0</ele><time>2026-04-24T10:39:26.066Z</time></trkpt><trkpt lat="42.0563383" lon="11.9803467"><ele>190.0</ele><time>2026-04-24T10:39:28.065Z</time></trkpt><trkpt lat="42.0562883" lon="11.980275"><ele>190.0</ele><time>2026-04-24T10:39:29.066Z</time></trkpt><trkpt lat="42.0561983" lon="11.98016"><ele>190.0</ele><time>2026-04-24T10:39:31.065Z</time></trkpt><trkpt lat="42.0561417" lon="11.9801167"><ele>190.0</ele><time>2026-04-24T10:39:32.064Z</time></trkpt><trkpt lat="42.0560483" lon="11.97999"><ele>190.0</ele><time>2026-04-24T10:39:34.065Z</time></trkpt><trkpt lat="42.056005" lon="11.9799083"><ele>189.42857142857144</ele><time>2026-04-24T10:39:35.068Z</time></trkpt><trkpt lat="42.055965" lon="11.9798233"><ele>188.85714285714286</ele><time>2026-04-24T10:39:36.067Z</time></trkpt><trkpt lat="42.0559317" lon="11.9797333"><ele>188.28571428571428</ele><time>2026-04-24T10:39:37.063Z</time></trkpt><trkpt lat="42.0559017" lon="11.9796433"><ele>187.71428571428572</ele><time>2026-04-24T10:39:38.065Z</time></trkpt><trkpt lat="42.055875" lon="11.97956"><ele>187.14285714285714</ele><time>2026-04-24T10:39:39.065Z</time></trkpt><trkpt lat="42.0558533" lon="11.9794783"><ele>186.57142857142858</ele><time>2026-04-24T10:39:40.065Z</time></trkpt><trkpt lat="42.05583" lon="11.9793917"><ele>186.0</ele><time>2026-04-24T10:39:41.065Z</time></trkpt><trkpt lat="42.0558033" lon="11.979305"><ele>186.33333333333334</ele><time>2026-04-24T10:39:42.065Z</time></trkpt><trkpt lat="42.0557667" lon="11.9792233"><ele>186.66666666666666</ele><time>2026-04-24T10:39:43.064Z</time></trkpt><trkpt lat="42.05572" lon="11.9791467"><ele>187.0</ele><time>2026-04-24T10:39:44.066Z</time></trkpt><trkpt lat="42.0556683" lon="11.9790617"><ele>187.33333333333331</ele><time>2026-04-24T10:39:45.064Z</time></trkpt><trkpt lat="42.05562" lon="11.9789667"><ele>187.66666666666666</ele><time>2026-04-24T10:39:46.065Z</time></trkpt><trkpt lat="42.0555783" lon="11.9788633"><ele>188.0</ele><time>2026-04-24T10:39:47.063Z</time></trkpt><trkpt lat="42.05554" lon="11.9787517"><ele>188.0</ele><time>2026-04-24T10:39:48.065Z</time></trkpt><trkpt lat="42.055495" lon="11.97864"><ele>188.0</ele><time>2026-04-24T10:39:49.065Z</time></trkpt><trkpt lat="42.0554433" lon="11.97853"><ele>188.0</ele><time>2026-04-24T10:39:50.066Z</time></trkpt><trkpt lat="42.0553783" lon="11.9784217"><ele>188.0</ele><time>2026-04-24T10:39:51.065Z</time></trkpt><trkpt lat="42.0553117" lon="11.97831"><ele>188.0</ele><time>2026-04-24T10:39:52.066Z</time></trkpt><trkpt lat="42.055245" lon="11.9781983"><ele>186.60000000000002</ele><time>2026-04-24T10:39:53.067Z</time></trkpt><trkpt lat="42.0551817" lon="11.9780817"><ele>185.20000000000002</ele><time>2026-04-24T10:39:54.066Z</time></trkpt><trkpt lat="42.055125" lon="11.9779583"><ele>183.8</ele><time>2026-04-24T10:39:55.068Z</time></trkpt><trkpt lat="42.05507" lon="11.97783"><ele>182.4</ele><time>2026-04-24T10:39:56.065Z</time></trkpt><trkpt lat="42.05502" lon="11.9777033"><ele>181.0</ele><time>2026-04-24T10:39:57.066Z</time></trkpt><trkpt lat="42.0549733" lon="11.9775833"><ele>179.8</ele><time>2026-04-24T10:39:58.066Z</time></trkpt><trkpt lat="42.0549217" lon="11.97747"><ele>178.60000000000002</ele><time>2026-04-24T10:39:59.065Z</time></trkpt><trkpt lat="42.05486" lon="11.9773633"><ele>177.4</ele><time>2026-04-24T10:40:00.064Z</time></trkpt><trkpt lat="42.054795" lon="11.9772683"><ele>176.2</ele><time>2026-04-24T10:40:01.064Z</time></trkpt><trkpt lat="42.0547317" lon="11.9771933"><ele>175.0</ele><time>2026-04-24T10:40:02.065Z</time></trkpt><trkpt lat="42.0546717" lon="11.97714"><ele>175.0</ele><time>2026-04-24T10:40:03.066Z</time></trkpt><trkpt lat="42.0545667" lon="11.9770883"><ele>175.0</ele><time>2026-04-24T10:40:05.066Z</time></trkpt><trkpt lat="42.05447" lon="11.9770633"><ele>175.0</ele><time>2026-04-24T10:40:07.065Z</time></trkpt><trkpt lat="42.0543633" lon="11.9771067"><ele>175.0</ele><time>2026-04-24T10:40:09.063Z</time></trkpt><trkpt lat="42.05431" lon="11.9771533"><ele>175.0</ele><time>2026-04-24T10:40:10.064Z</time></trkpt><trkpt lat="42.0542317" lon="11.97723"><ele>175.0</ele><time>2026-04-24T10:40:12.064Z</time></trkpt><trkpt lat="42.0541533" lon="11.9772133"><ele>175.0</ele><time>2026-04-24T10:40:16.063Z</time></trkpt><trkpt lat="42.0540867" lon="11.977165"><ele>175.0</ele><time>2026-04-24T10:40:53.064Z</time></trkpt><trkpt lat="42.0540233" lon="11.9771233"><ele>175.0</ele><time>2026-04-24T10:40:55.065Z</time></trkpt><trkpt lat="42.0539333" lon="11.9771217"><ele>175.0</ele><time>2026-04-24T10:42:10.064Z</time></trkpt><trkpt lat="42.0538583" lon="11.977115"><ele>175.0</ele><time>2026-04-24T10:42:11.064Z</time></trkpt><trkpt lat="42.0537733" lon="11.977095"><ele>175.25</ele><time>2026-04-24T10:42:12.062Z</time></trkpt><trkpt lat="42.05367" lon="11.97704"><ele>175.5</ele><time>2026-04-24T10:42:13.064Z</time></trkpt><trkpt lat="42.0535583" lon="11.9769667"><ele>175.75</ele><time>2026-04-24T10:42:14.064Z</time></trkpt><trkpt lat="42.05344" lon="11.976895"><ele>176.0</ele><time>2026-04-24T10:42:15.064Z</time></trkpt><trkpt lat="42.05333" lon="11.9768133"><ele>176.0</ele><time>2026-04-24T10:42:16.065Z</time></trkpt><trkpt lat="42.053235" lon="11.9767333"><ele>176.0</ele><time>2026-04-24T10:42:17.064Z</time></trkpt><trkpt lat="42.0531583" lon="11.97664"><ele>176.0</ele><time>2026-04-24T10:42:18.064Z</time></trkpt><trkpt lat="42.053085" lon="11.9765417"><ele>176.0</ele><time>2026-04-24T10:42:19.063Z</time></trkpt><trkpt lat="42.053025" lon="11.9764283"><ele>176.0</ele><time>2026-04-24T10:42:20.063Z</time></trkpt><trkpt lat="42.0529717" lon="11.9763167"><ele>176.0</ele><time>2026-04-24T10:42:21.066Z</time></trkpt><trkpt lat="42.0529233" lon="11.976215"><ele>176.0</ele><time>2026-04-24T10:42:22.063Z</time></trkpt><trkpt lat="42.0528717" lon="11.976125"><ele>176.0</ele><time>2026-04-24T10:42:23.064Z</time></trkpt><trkpt lat="42.052805" lon="11.97605"><ele>176.0</ele><time>2026-04-24T10:42:24.064Z</time></trkpt><trkpt lat="42.05273" lon="11.9759867"><ele>176.0</ele><time>2026-04-24T10:42:25.064Z</time></trkpt><trkpt lat="42.05265" lon="11.975925"><ele>176.0</ele><time>2026-04-24T10:42:26.063Z</time></trkpt><trkpt lat="42.0525667" lon="11.97587"><ele>176.4</ele><time>2026-04-24T10:42:27.063Z</time></trkpt><trkpt lat="42.0524717" lon="11.9758233"><ele>176.8</ele><time>2026-04-24T10:42:28.065Z</time></trkpt><trkpt lat="42.052365" lon="11.975775"><ele>177.20000000000002</ele><time>2026-04-24T10:42:29.063Z</time></trkpt><trkpt lat="42.0522533" lon="11.9757217"><ele>177.60000000000002</ele><time>2026-04-24T10:42:30.062Z</time></trkpt><trkpt lat="42.052145" lon="11.9756633"><ele>178.0</ele><time>2026-04-24T10:42:31.063Z</time></trkpt><trkpt lat="42.0520417" lon="11.975605"><ele>178.0</ele><time>2026-04-24T10:42:32.063Z</time></trkpt><trkpt lat="42.0519433" lon="11.97557"><ele>178.0</ele><time>2026-04-24T10:42:33.064Z</time></trkpt><trkpt lat="42.0518417" lon="11.9755417"><ele>178.0</ele><time>2026-04-24T10:42:34.063Z</time></trkpt><trkpt lat="42.0517367" lon="11.97551"><ele>178.0</ele><time>2026-04-24T10:42:35.063Z</time></trkpt><trkpt lat="42.0516267" lon="11.97547"><ele>178.0</ele><time>2026-04-24T10:42:36.064Z</time></trkpt><trkpt lat="42.0515117" lon="11.9754183"><ele>176.25</ele><time>2026-04-24T10:42:37.062Z</time></trkpt><trkpt lat="42.0513883" lon="11.9753667"><ele>174.5</ele><time>2026-04-24T10:42:38.064Z</time></trkpt><trkpt lat="42.0512567" lon="11.9753267"><ele>172.75</ele><time>2026-04-24T10:42:39.062Z</time></trkpt><trkpt lat="42.05113" lon="11.9752833"><ele>171.0</ele><time>2026-04-24T10:42:40.065Z</time></trkpt><trkpt lat="42.0510167" lon="11.9752367"><ele>171.0</ele><time>2026-04-24T10:42:41.063Z</time></trkpt><trkpt lat="42.0509183" lon="11.975175"><ele>171.0</ele><time>2026-04-24T10:42:42.063Z</time></trkpt><trkpt lat="42.0508367" lon="11.9751083"><ele>171.0</ele><time>2026-04-24T10:42:43.063Z</time></trkpt><trkpt lat="42.0507567" lon="11.9750367"><ele>171.0</ele><time>2026-04-24T10:42:44.065Z</time></trkpt><trkpt lat="42.0506733" lon="11.974955"><ele>171.0</ele><time>2026-04-24T10:42:45.062Z</time></trkpt><trkpt lat="42.050585" lon="11.9748617"><ele>169.5</ele><time>2026-04-24T10:42:46.063Z</time></trkpt><trkpt lat="42.0504917" lon="11.9747567"><ele>168.0</ele><time>2026-04-24T10:42:47.063Z</time></trkpt><trkpt lat="42.0503983" lon="11.9746417"><ele>166.5</ele><time>2026-04-24T10:42:48.064Z</time></trkpt><trkpt lat="42.050305" lon="11.97452"><ele>165.0</ele><time>2026-04-24T10:42:49.064Z</time></trkpt><trkpt lat="42.0502167" lon="11.9743883"><ele>165.0</ele><time>2026-04-24T10:42:50.063Z</time></trkpt><trkpt lat="42.0501317" lon="11.9742433"><ele>165.0</ele><time>2026-04-24T10:42:51.063Z</time></trkpt><trkpt lat="42.0500483" lon="11.9740967"><ele>165.0</ele><time>2026-04-24T10:42:52.064Z</time></trkpt><trkpt lat="42.0499667" lon="11.9739633"><ele>165.0</ele><time>2026-04-24T10:42:53.063Z</time></trkpt><trkpt lat="42.0498817" lon="11.9738567"><ele>163.8</ele><time>2026-04-24T10:42:54.063Z</time></trkpt><trkpt lat="42.0497917" lon="11.97377"><ele>162.6</ele><time>2026-04-24T10:42:55.062Z</time></trkpt><trkpt lat="42.0496933" lon="11.9737067"><ele>161.4</ele><time>2026-04-24T10:42:56.064Z</time></trkpt><trkpt lat="42.0495883" lon="11.9736617"><ele>160.2</ele><time>2026-04-24T10:42:57.061Z</time></trkpt><trkpt lat="42.0494917" lon="11.97362"><ele>159.0</ele><time>2026-04-24T10:42:58.061Z</time></trkpt><trkpt lat="42.04941" lon="11.9735633"><ele>159.0</ele><time>2026-04-24T10:42:59.065Z</time></trkpt><trkpt lat="42.049335" lon="11.973485"><ele>159.0</ele><time>2026-04-24T10:43:00.065Z</time></trkpt><trkpt lat="42.04928" lon="11.9733883"><ele>159.0</ele><time>2026-04-24T10:43:01.064Z</time></trkpt><trkpt lat="42.04924" lon="11.973265"><ele>159.0</ele><time>2026-04-24T10:43:02.063Z</time></trkpt><trkpt lat="42.0492033" lon="11.973115"><ele>159.0</ele><time>2026-04-24T10:43:03.064Z</time></trkpt><trkpt lat="42.04917" lon="11.97296"><ele>160.5</ele><time>2026-04-24T10:43:04.064Z</time></trkpt><trkpt lat="42.0491467" lon="11.9728117"><ele>162.0</ele><time>2026-04-24T10:43:05.064Z</time></trkpt><trkpt lat="42.049145" lon="11.9726467"><ele>163.5</ele><time>2026-04-24T10:43:06.065Z</time></trkpt><trkpt lat="42.049145" lon="11.9724767"><ele>165.0</ele><time>2026-04-24T10:43:07.064Z</time></trkpt><trkpt lat="42.0491467" lon="11.97232"><ele>166.0</ele><time>2026-04-24T10:43:08.064Z</time></trkpt><trkpt lat="42.04914" lon="11.97217"><ele>167.0</ele><time>2026-04-24T10:43:09.065Z</time></trkpt><trkpt lat="42.0491183" lon="11.9720233"><ele>168.0</ele><time>2026-04-24T10:43:10.063Z</time></trkpt><trkpt lat="42.0490817" lon="11.9718733"><ele>169.0</ele><time>2026-04-24T10:43:11.063Z</time></trkpt><trkpt lat="42.0490283" lon="11.97172"><ele>166.6</ele><time>2026-04-24T10:43:12.064Z</time></trkpt><trkpt lat="42.04897" lon="11.9715683"><ele>164.2</ele><time>2026-04-24T10:43:13.064Z</time></trkpt><trkpt lat="42.0489183" lon="11.9714283"><ele>161.79999999999998</ele><time>2026-04-24T10:43:14.062Z</time></trkpt><trkpt lat="42.0488717" lon="11.9713117"><ele>159.39999999999998</ele><time>2026-04-24T10:43:15.062Z</time></trkpt><trkpt lat="42.0488283" lon="11.9712133"><ele>157.0</ele><time>2026-04-24T10:43:16.065Z</time></trkpt><trkpt lat="42.0487817" lon="11.9711267"><ele>157.0</ele><time>2026-04-24T10:43:17.063Z</time></trkpt><trkpt lat="42.0487217" lon="11.9710467"><ele>157.0</ele><time>2026-04-24T10:43:18.063Z</time></trkpt><trkpt lat="42.048645" lon="11.9709733"><ele>157.0</ele><time>2026-04-24T10:43:19.063Z</time></trkpt><trkpt lat="42.0485467" lon="11.970905"><ele>157.0</ele><time>2026-04-24T10:43:20.064Z</time></trkpt><trkpt lat="42.0484383" lon="11.9708417"><ele>157.0</ele><time>2026-04-24T10:43:21.064Z</time></trkpt><trkpt lat="42.0483267" lon="11.9707833"><ele>154.79999999999998</ele><time>2026-04-24T10:43:22.063Z</time></trkpt><trkpt lat="42.0482117" lon="11.970735"><ele>152.6</ele><time>2026-04-24T10:43:23.065Z</time></trkpt><trkpt lat="42.0481017" lon="11.9706883"><ele>150.39999999999998</ele><time>2026-04-24T10:43:24.063Z</time></trkpt><trkpt lat="42.0480017" lon="11.970645"><ele>148.2</ele><time>2026-04-24T10:43:25.064Z</time></trkpt><trkpt lat="42.047915" lon="11.9705983"><ele>146.0</ele><time>2026-04-24T10:43:26.063Z</time></trkpt><trkpt lat="42.0478333" lon="11.97055"><ele>146.0</ele><time>2026-04-24T10:43:27.064Z</time></trkpt><trkpt lat="42.04776" lon="11.9704983"><ele>146.0</ele><time>2026-04-24T10:43:28.064Z</time></trkpt><trkpt lat="42.0476883" lon="11.9704483"><ele>146.0</ele><time>2026-04-24T10:43:29.062Z</time></trkpt><trkpt lat="42.0476183" lon="11.9703983"><ele>146.0</ele><time>2026-04-24T10:43:30.063Z</time></trkpt><trkpt lat="42.0475517" lon="11.97034"><ele>146.0</ele><time>2026-04-24T10:43:31.064Z</time></trkpt><trkpt lat="42.0474867" lon="11.9702733"><ele>146.0</ele><time>2026-04-24T10:43:32.065Z</time></trkpt><trkpt lat="42.0474283" lon="11.9701983"><ele>144.16666666666666</ele><time>2026-04-24T10:43:33.065Z</time></trkpt><trkpt lat="42.0473717" lon="11.97012"><ele>142.33333333333331</ele><time>2026-04-24T10:43:34.066Z</time></trkpt><trkpt lat="42.0473167" lon="11.9700433"><ele>140.5</ele><time>2026-04-24T10:43:35.066Z</time></trkpt><trkpt lat="42.04726" lon="11.969975"><ele>138.66666666666666</ele><time>2026-04-24T10:43:36.065Z</time></trkpt><trkpt lat="42.0472" lon="11.9699183"><ele>136.83333333333334</ele><time>2026-04-24T10:43:37.066Z</time></trkpt><trkpt lat="42.0471417" lon="11.9698733"><ele>135.0</ele><time>2026-04-24T10:43:38.066Z</time></trkpt><trkpt lat="42.04705" lon="11.9698083"><ele>129.0</ele><time>2026-04-24T10:43:40.065Z</time></trkpt><trkpt lat="42.0469667" lon="11.9697783"><ele>129.0</ele><time>2026-04-24T10:43:43.064Z</time></trkpt><trkpt lat="42.0468817" lon="11.9699183"><ele>129.0</ele><time>2026-04-24T10:44:13.065Z</time></trkpt><trkpt lat="42.046865" lon="11.9700083"><ele>129.0</ele><time>2026-04-24T10:44:20.065Z</time></trkpt></trkseg><trkseg><trkpt lat="42.0469384" lon="11.9696914"><ele>129.0</ele><time>2026-04-24T10:59:53.099Z</time></trkpt><trkpt lat="42.0469101" lon="11.9697732"><ele>129.0</ele><time>2026-04-24T10:59:59.177Z</time></trkpt><trkpt lat="42.0469783" lon="11.96983"><ele>129.0</ele><time>2026-04-24T11:00:59.064Z</time></trkpt><trkpt lat="42.0470733" lon="11.9698417"><ele>129.0</ele><time>2026-04-24T11:01:01.065Z</time></trkpt><trkpt lat="42.047135" lon="11.9698733"><ele>129.0</ele><time>2026-04-24T11:01:02.065Z</time></trkpt><trkpt lat="42.0472117" lon="11.9699283"><ele>129.0</ele><time>2026-04-24T11:01:03.066Z</time></trkpt><trkpt lat="42.0473017" lon="11.9700183"><ele>130.5</ele><time>2026-04-24T11:01:04.064Z</time></trkpt><trkpt lat="42.0473933" lon="11.97013"><ele>132.0</ele><time>2026-04-24T11:01:05.067Z</time></trkpt><trkpt lat="42.0474817" lon="11.9702467"><ele>133.5</ele><time>2026-04-24T11:01:06.066Z</time></trkpt><trkpt lat="42.0475733" lon="11.9703483"><ele>135.0</ele><time>2026-04-24T11:01:07.064Z</time></trkpt><trkpt lat="42.0476733" lon="11.9704333"><ele>137.75</ele><time>2026-04-24T11:01:08.064Z</time></trkpt><trkpt lat="42.0477767" lon="11.9705067"><ele>140.5</ele><time>2026-04-24T11:01:09.066Z</time></trkpt><trkpt lat="42.0479" lon="11.9705817"><ele>143.25</ele><time>2026-04-24T11:01:10.063Z</time></trkpt><trkpt lat="42.0480417" lon="11.970655"><ele>146.0</ele><time>2026-04-24T11:01:11.064Z</time></trkpt><trkpt lat="42.0482" lon="11.9707233"><ele>148.5</ele><time>2026-04-24T11:01:12.065Z</time></trkpt><trkpt lat="42.0483483" lon="11.9707833"><ele>151.0</ele><time>2026-04-24T11:01:13.065Z</time></trkpt><trkpt lat="42.0484767" lon="11.9708517"><ele>153.5</ele><time>2026-04-24T11:01:14.065Z</time></trkpt><trkpt lat="42.0485833" lon="11.9709283"><ele>156.0</ele><time>2026-04-24T11:01:15.066Z</time></trkpt><trkpt lat="42.0486733" lon="11.9710067"><ele>156.2</ele><time>2026-04-24T11:01:16.065Z</time></trkpt><trkpt lat="42.0487483" lon="11.9710867"><ele>156.39999999999998</ele><time>2026-04-24T11:01:17.063Z</time></trkpt><trkpt lat="42.0488067" lon="11.9711767"><ele>156.6</ele><time>2026-04-24T11:01:18.065Z</time></trkpt><trkpt lat="42.048855" lon="11.9712783"><ele>156.79999999999998</ele><time>2026-04-24T11:01:19.063Z</time></trkpt><trkpt lat="42.048895" lon="11.9713917"><ele>157.0</ele><time>2026-04-24T11:01:20.063Z</time></trkpt><trkpt lat="42.0489367" lon="11.9715133"><ele>157.0</ele><time>2026-04-24T11:01:21.064Z</time></trkpt><trkpt lat="42.0489867" lon="11.97164"><ele>157.0</ele><time>2026-04-24T11:01:22.063Z</time></trkpt><trkpt lat="42.049035" lon="11.97176"><ele>157.0</ele><time>2026-04-24T11:01:23.064Z</time></trkpt><trkpt lat="42.0490767" lon="11.9718817"><ele>157.0</ele><time>2026-04-24T11:01:24.065Z</time></trkpt><trkpt lat="42.0491133" lon="11.9720083"><ele>157.0</ele><time>2026-04-24T11:01:25.063Z</time></trkpt><trkpt lat="42.049145" lon="11.9721333"><ele>158.6</ele><time>2026-04-24T11:01:26.065Z</time></trkpt><trkpt lat="42.0491633" lon="11.97226"><ele>160.2</ele><time>2026-04-24T11:01:27.066Z</time></trkpt><trkpt lat="42.049165" lon="11.97239"><ele>161.8</ele><time>2026-04-24T11:01:28.064Z</time></trkpt><trkpt lat="42.049155" lon="11.972525"><ele>163.4</ele><time>2026-04-24T11:01:29.064Z</time></trkpt><trkpt lat="42.0491433" lon="11.972655"><ele>165.0</ele><time>2026-04-24T11:01:30.065Z</time></trkpt><trkpt lat="42.04914" lon="11.972785"><ele>165.0</ele><time>2026-04-24T11:01:31.066Z</time></trkpt><trkpt lat="42.04915" lon="11.9729133"><ele>165.0</ele><time>2026-04-24T11:01:32.064Z</time></trkpt><trkpt lat="42.0491717" lon="11.97304"><ele>165.0</ele><time>2026-04-24T11:01:33.066Z</time></trkpt><trkpt lat="42.0492" lon="11.9731633"><ele>165.0</ele><time>2026-04-24T11:01:34.064Z</time></trkpt><trkpt lat="42.0492317" lon="11.97328"><ele>165.0</ele><time>2026-04-24T11:01:35.064Z</time></trkpt><trkpt lat="42.0492733" lon="11.9733833"><ele>164.0</ele><time>2026-04-24T11:01:36.065Z</time></trkpt><trkpt lat="42.049325" lon="11.9734683"><ele>163.0</ele><time>2026-04-24T11:01:37.062Z</time></trkpt><trkpt lat="42.049385" lon="11.9735383"><ele>162.0</ele><time>2026-04-24T11:01:38.067Z</time></trkpt><trkpt lat="42.04945" lon="11.973595"><ele>161.0</ele><time>2026-04-24T11:01:39.065Z</time></trkpt><trkpt lat="42.0495233" lon="11.9736417"><ele>160.0</ele><time>2026-04-24T11:01:40.063Z</time></trkpt><trkpt lat="42.0496067" lon="11.9736833"><ele>159.0</ele><time>2026-04-24T11:01:41.067Z</time></trkpt><trkpt lat="42.0496967" lon="11.973715"><ele>159.0</ele><time>2026-04-24T11:01:42.065Z</time></trkpt><trkpt lat="42.0497833" lon="11.973755"><ele>159.0</ele><time>2026-04-24T11:01:43.063Z</time></trkpt><trkpt lat="42.0498683" lon="11.9738117"><ele>159.0</ele><time>2026-04-24T11:01:44.064Z</time></trkpt><trkpt lat="42.0499467" lon="11.97389"><ele>159.0</ele><time>2026-04-24T11:01:45.063Z</time></trkpt><trkpt lat="42.0500067" lon="11.9739833"><ele>159.0</ele><time>2026-04-24T11:01:46.064Z</time></trkpt><trkpt lat="42.0500583" lon="11.9740867"><ele>160.2</ele><time>2026-04-24T11:01:47.063Z</time></trkpt><trkpt lat="42.05011" lon="11.9741817"><ele>161.4</ele><time>2026-04-24T11:01:48.062Z</time></trkpt><trkpt lat="42.050165" lon="11.97428"><ele>162.6</ele><time>2026-04-24T11:01:49.062Z</time></trkpt><trkpt lat="42.0502233" lon="11.9743833"><ele>163.8</ele><time>2026-04-24T11:01:50.065Z</time></trkpt><trkpt lat="42.0502817" lon="11.97448"><ele>165.0</ele><time>2026-04-24T11:01:51.064Z</time></trkpt><trkpt lat="42.050345" lon="11.9745683"><ele>165.0</ele><time>2026-04-24T11:01:52.061Z</time></trkpt><trkpt lat="42.0504067" lon="11.974645"><ele>165.0</ele><time>2026-04-24T11:01:53.062Z</time></trkpt><trkpt lat="42.05047" lon="11.97473"><ele>165.0</ele><time>2026-04-24T11:01:54.065Z</time></trkpt><trkpt lat="42.0505367" lon="11.9748083"><ele>165.0</ele><time>2026-04-24T11:01:55.067Z</time></trkpt><trkpt lat="42.050605" lon="11.9748817"><ele>165.0</ele><time>2026-04-24T11:01:56.064Z</time></trkpt><trkpt lat="42.0506717" lon="11.9749583"><ele>165.0</ele><time>2026-04-24T11:01:57.065Z</time></trkpt><trkpt lat="42.05074" lon="11.9750317"><ele>166.2</ele><time>2026-04-24T11:01:58.063Z</time></trkpt><trkpt lat="42.0508083" lon="11.9751017"><ele>167.4</ele><time>2026-04-24T11:01:59.063Z</time></trkpt><trkpt lat="42.0508817" lon="11.9751633"><ele>168.60000000000002</ele><time>2026-04-24T11:02:00.066Z</time></trkpt><trkpt lat="42.0509633" lon="11.9752183"><ele>169.8</ele><time>2026-04-24T11:02:01.064Z</time></trkpt><trkpt lat="42.0510483" lon="11.975265"><ele>171.0</ele><time>2026-04-24T11:02:02.065Z</time></trkpt><trkpt lat="42.0511433" lon="11.9753"><ele>171.0</ele><time>2026-04-24T11:02:03.064Z</time></trkpt><trkpt lat="42.05124" lon="11.975325"><ele>171.0</ele><time>2026-04-24T11:02:04.065Z</time></trkpt><trkpt lat="42.0513383" lon="11.9753483"><ele>171.0</ele><time>2026-04-24T11:02:05.067Z</time></trkpt><trkpt lat="42.0514367" lon="11.9753817"><ele>171.0</ele><time>2026-04-24T11:02:06.067Z</time></trkpt><trkpt lat="42.0515283" lon="11.975425"><ele>171.0</ele><time>2026-04-24T11:02:07.065Z</time></trkpt><trkpt lat="42.05162" lon="11.9754733"><ele>172.4</ele><time>2026-04-24T11:02:08.064Z</time></trkpt><trkpt lat="42.0517083" lon="11.97552"><ele>173.8</ele><time>2026-04-24T11:02:09.066Z</time></trkpt><trkpt lat="42.051795" lon="11.9755617"><ele>175.20000000000002</ele><time>2026-04-24T11:02:10.061Z</time></trkpt><trkpt lat="42.05188" lon="11.9755917"><ele>176.60000000000002</ele><time>2026-04-24T11:02:11.065Z</time></trkpt><trkpt lat="42.05197" lon="11.975615"><ele>178.0</ele><time>2026-04-24T11:02:12.063Z</time></trkpt><trkpt lat="42.0520617" lon="11.9756483"><ele>178.0</ele><time>2026-04-24T11:02:13.065Z</time></trkpt><trkpt lat="42.0521433" lon="11.97569"><ele>178.0</ele><time>2026-04-24T11:02:14.063Z</time></trkpt><trkpt lat="42.0522233" lon="11.9757317"><ele>178.0</ele><time>2026-04-24T11:02:15.064Z</time></trkpt><trkpt lat="42.052305" lon="11.9757733"><ele>178.0</ele><time>2026-04-24T11:02:16.064Z</time></trkpt><trkpt lat="42.0523883" lon="11.975805"><ele>178.0</ele><time>2026-04-24T11:02:17.064Z</time></trkpt><trkpt lat="42.0524667" lon="11.9758317"><ele>178.0</ele><time>2026-04-24T11:02:18.064Z</time></trkpt><trkpt lat="42.0525283" lon="11.9758617"><ele>177.66666666666669</ele><time>2026-04-24T11:02:19.063Z</time></trkpt><trkpt lat="42.0525883" lon="11.9759033"><ele>177.33333333333334</ele><time>2026-04-24T11:02:20.063Z</time></trkpt><trkpt lat="42.05265" lon="11.97595"><ele>177.0</ele><time>2026-04-24T11:02:21.065Z</time></trkpt><trkpt lat="42.05271" lon="11.976005"><ele>176.66666666666666</ele><time>2026-04-24T11:02:22.063Z</time></trkpt><trkpt lat="42.052765" lon="11.97606"><ele>176.33333333333331</ele><time>2026-04-24T11:02:23.062Z</time></trkpt><trkpt lat="42.0528183" lon="11.976115"><ele>176.0</ele><time>2026-04-24T11:02:24.064Z</time></trkpt><trkpt lat="42.052915" lon="11.976215"><ele>176.0</ele><time>2026-04-24T11:02:26.065Z</time></trkpt><trkpt lat="42.0529983" lon="11.9763417"><ele>176.0</ele><time>2026-04-24T11:02:28.063Z</time></trkpt><trkpt lat="42.05304" lon="11.9764167"><ele>176.0</ele><time>2026-04-24T11:02:29.063Z</time></trkpt><trkpt lat="42.0530867" lon="11.9765033"><ele>176.0</ele><time>2026-04-24T11:02:30.064Z</time></trkpt><trkpt lat="42.053135" lon="11.9765767"><ele>176.0</ele><time>2026-04-24T11:02:31.065Z</time></trkpt><trkpt lat="42.053185" lon="11.9766467"><ele>176.0</ele><time>2026-04-24T11:02:32.066Z</time></trkpt><trkpt lat="42.0532333" lon="11.976705"><ele>176.0</ele><time>2026-04-24T11:02:33.064Z</time></trkpt><trkpt lat="42.0532867" lon="11.97677"><ele>176.0</ele><time>2026-04-24T11:02:34.063Z</time></trkpt><trkpt lat="42.0533433" lon="11.9768267"><ele>176.0</ele><time>2026-04-24T11:02:35.063Z</time></trkpt><trkpt lat="42.053405" lon="11.9768733"><ele>176.0</ele><time>2026-04-24T11:02:36.064Z</time></trkpt><trkpt lat="42.0534667" lon="11.9769117"><ele>176.0</ele><time>2026-04-24T11:02:37.063Z</time></trkpt><trkpt lat="42.0535317" lon="11.9769517"><ele>176.0</ele><time>2026-04-24T11:02:38.064Z</time></trkpt><trkpt lat="42.0536017" lon="11.976995"><ele>176.0</ele><time>2026-04-24T11:02:39.065Z</time></trkpt><trkpt lat="42.053675" lon="11.97703"><ele>176.0</ele><time>2026-04-24T11:02:40.065Z</time></trkpt><trkpt lat="42.05375" lon="11.9770583"><ele>176.0</ele><time>2026-04-24T11:02:41.065Z</time></trkpt><trkpt lat="42.053815" lon="11.97709"><ele>176.0</ele><time>2026-04-24T11:02:42.063Z</time></trkpt><trkpt lat="42.05388" lon="11.9771183"><ele>176.0</ele><time>2026-04-24T11:02:43.064Z</time></trkpt><trkpt lat="42.0539783" lon="11.977135"><ele>176.0</ele><time>2026-04-24T11:02:45.062Z</time></trkpt><trkpt lat="42.0540467" lon="11.9771283"><ele>176.0</ele><time>2026-04-24T11:02:47.063Z</time></trkpt><trkpt lat="42.0541267" lon="11.9772383"><ele>175.83333333333331</ele><time>2026-04-24T11:04:32.065Z</time></trkpt><trkpt lat="42.054195" lon="11.9773"><ele>175.66666666666666</ele><time>2026-04-24T11:04:34.064Z</time></trkpt><trkpt lat="42.0542767" lon="11.9772533"><ele>175.5</ele><time>2026-04-24T11:04:36.065Z</time></trkpt><trkpt lat="42.0543717" lon="11.9771433"><ele>175.33333333333334</ele><time>2026-04-24T11:04:38.064Z</time></trkpt><trkpt lat="42.05444" lon="11.9770967"><ele>175.16666666666669</ele><time>2026-04-24T11:04:39.065Z</time></trkpt><trkpt lat="42.0545117" lon="11.977065"><ele>175.0</ele><time>2026-04-24T11:04:40.066Z</time></trkpt><trkpt lat="42.0545867" lon="11.9770433"><ele>175.0</ele><time>2026-04-24T11:04:41.065Z</time></trkpt><trkpt lat="42.0546583" lon="11.9770283"><ele>175.0</ele><time>2026-04-24T11:04:42.067Z</time></trkpt><trkpt lat="42.05473" lon="11.9770133"><ele>175.0</ele><time>2026-04-24T11:04:43.066Z</time></trkpt><trkpt lat="42.0548033" lon="11.976995"><ele>175.0</ele><time>2026-04-24T11:04:44.067Z</time></trkpt><trkpt lat="42.0548833" lon="11.9769683"><ele>175.0</ele><time>2026-04-24T11:04:45.063Z</time></trkpt><trkpt lat="42.0549667" lon="11.9769333"><ele>175.0</ele><time>2026-04-24T11:04:46.065Z</time></trkpt><trkpt lat="42.0550333" lon="11.9768967"><ele>175.16666666666669</ele><time>2026-04-24T11:04:47.065Z</time></trkpt><trkpt lat="42.05511" lon="11.9768433"><ele>175.33333333333334</ele><time>2026-04-24T11:04:49.066Z</time></trkpt><trkpt lat="42.0551583" lon="11.9767733"><ele>175.5</ele><time>2026-04-24T11:04:52.065Z</time></trkpt><trkpt lat="42.0552017" lon="11.9767033"><ele>175.66666666666666</ele><time>2026-04-24T11:04:54.064Z</time></trkpt><trkpt lat="42.0552733" lon="11.9766083"><ele>175.83333333333331</ele><time>2026-04-24T11:04:56.067Z</time></trkpt><trkpt lat="42.0553567" lon="11.9765067"><ele>176.0</ele><time>2026-04-24T11:04:58.066Z</time></trkpt><trkpt lat="42.055405" lon="11.9764483"><ele>176.0</ele><time>2026-04-24T11:04:59.066Z</time></trkpt><trkpt lat="42.05546" lon="11.9763767"><ele>176.0</ele><time>2026-04-24T11:05:00.066Z</time></trkpt><trkpt lat="42.0555167" lon="11.976295"><ele>176.0</ele><time>2026-04-24T11:05:01.065Z</time></trkpt><trkpt lat="42.0555683" lon="11.9762233"><ele>176.0</ele><time>2026-04-24T11:05:02.066Z</time></trkpt><trkpt lat="42.0556467" lon="11.976135"><ele>176.0</ele><time>2026-04-24T11:05:04.064Z</time></trkpt><trkpt lat="42.0557183" lon="11.976135"><ele>176.0</ele><time>2026-04-24T11:05:06.066Z</time></trkpt><trkpt lat="42.05583" lon="11.9762183"><ele>177.83333333333331</ele><time>2026-04-24T11:05:08.066Z</time></trkpt><trkpt lat="42.0558983" lon="11.9762767"><ele>179.66666666666666</ele><time>2026-04-24T11:05:09.067Z</time></trkpt><trkpt lat="42.0559733" lon="11.9763333"><ele>181.5</ele><time>2026-04-24T11:05:10.065Z</time></trkpt><trkpt lat="42.0560467" lon="11.97638"><ele>183.33333333333334</ele><time>2026-04-24T11:05:11.065Z</time></trkpt><trkpt lat="42.0561083" lon="11.9764167"><ele>185.16666666666669</ele><time>2026-04-24T11:05:12.065Z</time></trkpt><trkpt lat="42.0562167" lon="11.9764567"><ele>187.0</ele><time>2026-04-24T11:05:14.065Z</time></trkpt><trkpt lat="42.0562783" lon="11.9764783"><ele>187.0</ele><time>2026-04-24T11:05:15.065Z</time></trkpt><trkpt lat="42.0563517" lon="11.9765017"><ele>187.0</ele><time>2026-04-24T11:05:16.064Z</time></trkpt><trkpt lat="42.0564233" lon="11.9765283"><ele>187.0</ele><time>2026-04-24T11:05:17.066Z</time></trkpt><trkpt lat="42.05649" lon="11.9765667"><ele>187.0</ele><time>2026-04-24T11:05:18.064Z</time></trkpt><trkpt lat="42.0565533" lon="11.9765983"><ele>187.0</ele><time>2026-04-24T11:05:19.063Z</time></trkpt><trkpt lat="42.05662" lon="11.9766233"><ele>187.0</ele><time>2026-04-24T11:05:20.065Z</time></trkpt><trkpt lat="42.056695" lon="11.9766467"><ele>187.0</ele><time>2026-04-24T11:05:21.064Z</time></trkpt><trkpt lat="42.0567767" lon="11.9766683"><ele>188.33333333333334</ele><time>2026-04-24T11:05:22.064Z</time></trkpt><trkpt lat="42.0568617" lon="11.9766883"><ele>189.66666666666669</ele><time>2026-04-24T11:05:23.064Z</time></trkpt><trkpt lat="42.0569483" lon="11.976715"><ele>191.0</ele><time>2026-04-24T11:05:24.065Z</time></trkpt><trkpt lat="42.0570333" lon="11.9767417"><ele>192.33333333333334</ele><time>2026-04-24T11:05:25.066Z</time></trkpt><trkpt lat="42.0571133" lon="11.97677"><ele>193.66666666666666</ele><time>2026-04-24T11:05:26.065Z</time></trkpt><trkpt lat="42.0571933" lon="11.9767967"><ele>195.0</ele><time>2026-04-24T11:05:27.066Z</time></trkpt><trkpt lat="42.0572667" lon="11.9768217"><ele>195.0</ele><time>2026-04-24T11:05:28.065Z</time></trkpt><trkpt lat="42.057375" lon="11.9768617"><ele>195.0</ele><time>2026-04-24T11:05:30.065Z</time></trkpt><trkpt lat="42.057475" lon="11.9768917"><ele>195.0</ele><time>2026-04-24T11:05:32.065Z</time></trkpt><trkpt lat="42.0575683" lon="11.976955"><ele>195.0</ele><time>2026-04-24T11:05:34.065Z</time></trkpt><trkpt lat="42.0576267" lon="11.9769933"><ele>195.0</ele><time>2026-04-24T11:05:35.067Z</time></trkpt><trkpt lat="42.0576833" lon="11.9770417"><ele>197.5</ele><time>2026-04-24T11:05:36.064Z</time></trkpt><trkpt lat="42.057755" lon="11.9770917"><ele>200.0</ele><time>2026-04-24T11:05:37.065Z</time></trkpt><trkpt lat="42.0578333" lon="11.9771417"><ele>202.5</ele><time>2026-04-24T11:05:38.065Z</time></trkpt><trkpt lat="42.0579067" lon="11.97719"><ele>205.0</ele><time>2026-04-24T11:05:39.065Z</time></trkpt><trkpt lat="42.0579783" lon="11.9772417"><ele>207.5</ele><time>2026-04-24T11:05:40.065Z</time></trkpt><trkpt lat="42.0580467" lon="11.9772983"><ele>210.0</ele><time>2026-04-24T11:05:41.065Z</time></trkpt><trkpt lat="42.05811" lon="11.97736"><ele>210.0</ele><time>2026-04-24T11:05:42.065Z</time></trkpt><trkpt lat="42.058175" lon="11.9774133"><ele>210.0</ele><time>2026-04-24T11:05:43.064Z</time></trkpt><trkpt lat="42.05824" lon="11.9774617"><ele>210.0</ele><time>2026-04-24T11:05:44.065Z</time></trkpt><trkpt lat="42.0583067" lon="11.9775033"><ele>210.0</ele><time>2026-04-24T11:05:45.066Z</time></trkpt><trkpt lat="42.0583767" lon="11.9775367"><ele>210.0</ele><time>2026-04-24T11:05:46.067Z</time></trkpt><trkpt lat="42.058445" lon="11.977565"><ele>210.0</ele><time>2026-04-24T11:05:47.065Z</time></trkpt><trkpt lat="42.0585283" lon="11.97762"><ele>211.66666666666666</ele><time>2026-04-24T11:05:49.066Z</time></trkpt><trkpt lat="42.0585983" lon="11.97765"><ele>213.33333333333331</ele><time>2026-04-24T11:05:53.065Z</time></trkpt><trkpt lat="42.0586567" lon="11.9775417"><ele>215.0</ele><time>2026-04-24T11:05:55.064Z</time></trkpt><trkpt lat="42.0586983" lon="11.9774683"><ele>216.66666666666666</ele><time>2026-04-24T11:05:56.064Z</time></trkpt><trkpt lat="42.05875" lon="11.9773883"><ele>218.33333333333331</ele><time>2026-04-24T11:05:57.064Z</time></trkpt><trkpt lat="42.0588083" lon="11.9773033"><ele>220.0</ele><time>2026-04-24T11:05:58.065Z</time></trkpt><trkpt lat="42.058865" lon="11.97722"><ele>220.16666666666666</ele><time>2026-04-24T11:05:59.065Z</time></trkpt><trkpt lat="42.0589167" lon="11.9771433"><ele>220.33333333333331</ele><time>2026-04-24T11:06:00.064Z</time></trkpt><trkpt lat="42.0589633" lon="11.97707"><ele>220.5</ele><time>2026-04-24T11:06:01.065Z</time></trkpt><trkpt lat="42.0590067" lon="11.976995"><ele>220.66666666666669</ele><time>2026-04-24T11:06:02.064Z</time></trkpt><trkpt lat="42.0590533" lon="11.9769117"><ele>220.83333333333334</ele><time>2026-04-24T11:06:03.066Z</time></trkpt><trkpt lat="42.0590983" lon="11.9768233"><ele>221.0</ele><time>2026-04-24T11:06:04.063Z</time></trkpt><trkpt lat="42.0591433" lon="11.97673"><ele>222.16666666666669</ele><time>2026-04-24T11:06:05.065Z</time></trkpt><trkpt lat="42.05919" lon="11.9766367"><ele>223.33333333333334</ele><time>2026-04-24T11:06:06.065Z</time></trkpt><trkpt lat="42.0592317" lon="11.9765367"><ele>224.5</ele><time>2026-04-24T11:06:07.065Z</time></trkpt><trkpt lat="42.0592683" lon="11.9764333"><ele>225.66666666666669</ele><time>2026-04-24T11:06:08.064Z</time></trkpt><trkpt lat="42.0593033" lon="11.9763283"><ele>226.83333333333334</ele><time>2026-04-24T11:06:09.065Z</time></trkpt><trkpt lat="42.0593367" lon="11.976225"><ele>228.0</ele><time>2026-04-24T11:06:10.065Z</time></trkpt><trkpt lat="42.0593717" lon="11.9761217"><ele>228.0</ele><time>2026-04-24T11:06:11.065Z</time></trkpt><trkpt lat="42.0594067" lon="11.9760217"><ele>228.0</ele><time>2026-04-24T11:06:12.063Z</time></trkpt><trkpt lat="42.05944" lon="11.9759217"><ele>228.0</ele><time>2026-04-24T11:06:13.064Z</time></trkpt><trkpt lat="42.0594717" lon="11.9758217"><ele>228.0</ele><time>2026-04-24T11:06:14.066Z</time></trkpt><trkpt lat="42.0595" lon="11.9757167"><ele>228.0</ele><time>2026-04-24T11:06:15.065Z</time></trkpt><trkpt lat="42.0595283" lon="11.9756083"><ele>228.0</ele><time>2026-04-24T11:06:16.064Z</time></trkpt><trkpt lat="42.059565" lon="11.975505"><ele>226.66666666666666</ele><time>2026-04-24T11:06:17.064Z</time></trkpt><trkpt lat="42.059605" lon="11.9754067"><ele>225.33333333333331</ele><time>2026-04-24T11:06:18.064Z</time></trkpt><trkpt lat="42.05965" lon="11.97531"><ele>224.0</ele><time>2026-04-24T11:06:19.065Z</time></trkpt><trkpt lat="42.059705" lon="11.9752167"><ele>222.66666666666666</ele><time>2026-04-24T11:06:20.063Z</time></trkpt><trkpt lat="42.0597617" lon="11.975125"><ele>221.33333333333331</ele><time>2026-04-24T11:06:21.063Z</time></trkpt><trkpt lat="42.0598233" lon="11.975035"><ele>220.0</ele><time>2026-04-24T11:06:22.064Z</time></trkpt><trkpt lat="42.059885" lon="11.974945"><ele>219.16666666666666</ele><time>2026-04-24T11:06:23.064Z</time></trkpt><trkpt lat="42.0599433" lon="11.9748483"><ele>218.33333333333331</ele><time>2026-04-24T11:06:24.065Z</time></trkpt><trkpt lat="42.0599983" lon="11.974745"><ele>217.5</ele><time>2026-04-24T11:06:25.064Z</time></trkpt><trkpt lat="42.060045" lon="11.9746433"><ele>216.66666666666669</ele><time>2026-04-24T11:06:26.065Z</time></trkpt><trkpt lat="42.06009" lon="11.97455"><ele>215.83333333333334</ele><time>2026-04-24T11:06:27.064Z</time></trkpt><trkpt lat="42.06014" lon="11.97447"><ele>215.0</ele><time>2026-04-24T11:06:28.065Z</time></trkpt><trkpt lat="42.06019" lon="11.9744133"><ele>216.00000000000003</ele><time>2026-04-24T11:06:29.064Z</time></trkpt><trkpt lat="42.0603017" lon="11.9743433"><ele>217.0</ele><time>2026-04-24T11:06:31.064Z</time></trkpt><trkpt lat="42.0603633" lon="11.97432"><ele>218.0</ele><time>2026-04-24T11:06:32.064Z</time></trkpt><trkpt lat="42.0604217" lon="11.9742883"><ele>219.0</ele><time>2026-04-24T11:06:33.062Z</time></trkpt><trkpt lat="42.06048" lon="11.9742533"><ele>220.00000000000003</ele><time>2026-04-24T11:06:34.064Z</time></trkpt><trkpt lat="42.06054" lon="11.9742167"><ele>221.0</ele><time>2026-04-24T11:06:35.065Z</time></trkpt><trkpt lat="42.0606033" lon="11.9741767"><ele>221.00000000000003</ele><time>2026-04-24T11:06:36.065Z</time></trkpt><trkpt lat="42.0606667" lon="11.9741333"><ele>221.0</ele><time>2026-04-24T11:06:37.065Z</time></trkpt><trkpt lat="42.060725" lon="11.9740933"><ele>221.0</ele><time>2026-04-24T11:06:38.065Z</time></trkpt><trkpt lat="42.060815" lon="11.9740117"><ele>221.0</ele><time>2026-04-24T11:06:40.063Z</time></trkpt><trkpt lat="42.0608517" lon="11.9739367"><ele>221.00000000000003</ele><time>2026-04-24T11:06:42.063Z</time></trkpt><trkpt lat="42.0608333" lon="11.9738333"><ele>221.0</ele><time>2026-04-24T11:06:44.064Z</time></trkpt><trkpt lat="42.0607867" lon="11.973675"><ele>221.0</ele><time>2026-04-24T11:06:46.064Z</time></trkpt><trkpt lat="42.0607767" lon="11.9735783"><ele>221.00000000000003</ele><time>2026-04-24T11:06:47.064Z</time></trkpt><trkpt lat="42.0607667" lon="11.9734833"><ele>221.00000000000003</ele><time>2026-04-24T11:06:48.064Z</time></trkpt><trkpt lat="42.06076" lon="11.97339"><ele>221.0</ele><time>2026-04-24T11:06:49.066Z</time></trkpt><trkpt lat="42.0607617" lon="11.973225"><ele>221.0</ele><time>2026-04-24T11:06:51.065Z</time></trkpt><trkpt lat="42.0607983" lon="11.9730667"><ele>221.14285714285717</ele><time>2026-04-24T11:06:53.064Z</time></trkpt><trkpt lat="42.060825" lon="11.9729867"><ele>221.28571428571428</ele><time>2026-04-24T11:06:54.065Z</time></trkpt><trkpt lat="42.0608583" lon="11.9729083"><ele>221.42857142857144</ele><time>2026-04-24T11:06:55.065Z</time></trkpt><trkpt lat="42.060895" lon="11.9728283"><ele>221.57142857142858</ele><time>2026-04-24T11:06:56.065Z</time></trkpt><trkpt lat="42.0609367" lon="11.9727433"><ele>221.71428571428572</ele><time>2026-04-24T11:06:57.063Z</time></trkpt><trkpt lat="42.0609833" lon="11.9726517"><ele>221.85714285714286</ele><time>2026-04-24T11:06:58.065Z</time></trkpt><trkpt lat="42.0610267" lon="11.972555"><ele>222.0</ele><time>2026-04-24T11:06:59.063Z</time></trkpt><trkpt lat="42.0610683" lon="11.9724617"><ele>221.42857142857142</ele><time>2026-04-24T11:07:00.065Z</time></trkpt><trkpt lat="42.0611083" lon="11.97237"><ele>220.85714285714286</ele><time>2026-04-24T11:07:01.062Z</time></trkpt><trkpt lat="42.0611433" lon="11.97228"><ele>220.28571428571428</ele><time>2026-04-24T11:07:02.064Z</time></trkpt><trkpt lat="42.0611817" lon="11.972195"><ele>219.71428571428572</ele><time>2026-04-24T11:07:03.064Z</time></trkpt><trkpt lat="42.0612217" lon="11.9721167"><ele>219.14285714285717</ele><time>2026-04-24T11:07:04.065Z</time></trkpt><trkpt lat="42.061265" lon="11.9720367"><ele>218.57142857142858</ele><time>2026-04-24T11:07:05.063Z</time></trkpt><trkpt lat="42.06131" lon="11.9719567"><ele>218.0</ele><time>2026-04-24T11:07:06.064Z</time></trkpt><trkpt lat="42.0613517" lon="11.97188"><ele>218.0</ele><time>2026-04-24T11:07:07.063Z</time></trkpt><trkpt lat="42.0613933" lon="11.9717983"><ele>218.0</ele><time>2026-04-24T11:07:08.064Z</time></trkpt><trkpt lat="42.0614367" lon="11.9717133"><ele>218.0</ele><time>2026-04-24T11:07:09.065Z</time></trkpt><trkpt lat="42.06148" lon="11.9716333"><ele>218.0</ele><time>2026-04-24T11:07:10.063Z</time></trkpt><trkpt lat="42.0615283" lon="11.971565"><ele>218.0</ele><time>2026-04-24T11:07:11.063Z</time></trkpt><trkpt lat="42.0615767" lon="11.9715033"><ele>218.0</ele><time>2026-04-24T11:07:12.064Z</time></trkpt><trkpt lat="42.0616283" lon="11.97145"><ele>218.0</ele><time>2026-04-24T11:07:13.063Z</time></trkpt><trkpt lat="42.061685" lon="11.971405"><ele>218.50000000000003</ele><time>2026-04-24T11:07:14.065Z</time></trkpt><trkpt lat="42.0617483" lon="11.97137"><ele>219.0</ele><time>2026-04-24T11:07:15.064Z</time></trkpt><trkpt lat="42.0618133" lon="11.9713367"><ele>219.5</ele><time>2026-04-24T11:07:16.064Z</time></trkpt><trkpt lat="42.0618833" lon="11.971305"><ele>220.0</ele><time>2026-04-24T11:07:17.064Z</time></trkpt><trkpt lat="42.0619517" lon="11.9712783"><ele>220.50000000000003</ele><time>2026-04-24T11:07:18.062Z</time></trkpt><trkpt lat="42.062015" lon="11.9712517"><ele>221.0</ele><time>2026-04-24T11:07:19.064Z</time></trkpt><trkpt lat="42.06213" lon="11.9712133"><ele>221.0</ele><time>2026-04-24T11:07:21.062Z</time></trkpt><trkpt lat="42.06225" lon="11.9712117"><ele>221.00000000000003</ele><time>2026-04-24T11:07:23.061Z</time></trkpt><trkpt lat="42.062375" lon="11.9712333"><ele>221.00000000000003</ele><time>2026-04-24T11:07:25.063Z</time></trkpt><trkpt lat="42.0624383" lon="11.9712417"><ele>221.0</ele><time>2026-04-24T11:07:26.066Z</time></trkpt><trkpt lat="42.0625033" lon="11.9712467"><ele>221.0</ele><time>2026-04-24T11:07:27.064Z</time></trkpt><trkpt lat="42.0626267" lon="11.97123"><ele>223.16666666666669</ele><time>2026-04-24T11:07:29.065Z</time></trkpt><trkpt lat="42.0627483" lon="11.9712067"><ele>225.33333333333334</ele><time>2026-04-24T11:07:31.062Z</time></trkpt><trkpt lat="42.0628217" lon="11.971205"><ele>227.5</ele><time>2026-04-24T11:07:32.066Z</time></trkpt><trkpt lat="42.0628983" lon="11.9712067"><ele>229.66666666666669</ele><time>2026-04-24T11:07:33.063Z</time></trkpt><trkpt lat="42.062975" lon="11.9712033"><ele>231.83333333333334</ele><time>2026-04-24T11:07:34.065Z</time></trkpt><trkpt lat="42.0630383" lon="11.971185"><ele>234.0</ele><time>2026-04-24T11:07:35.063Z</time></trkpt><trkpt lat="42.0631017" lon="11.9711667"><ele>234.0</ele><time>2026-04-24T11:07:36.064Z</time></trkpt><trkpt lat="42.0631617" lon="11.97114"><ele>233.99999999999997</ele><time>2026-04-24T11:07:37.064Z</time></trkpt><trkpt lat="42.063265" lon="11.971075"><ele>233.99999999999997</ele><time>2026-04-24T11:07:39.065Z</time></trkpt><trkpt lat="42.063355" lon="11.9710033"><ele>234.0</ele><time>2026-04-24T11:07:41.063Z</time></trkpt><trkpt lat="42.0634533" lon="11.9709217"><ele>234.0</ele><time>2026-04-24T11:07:43.063Z</time></trkpt><trkpt lat="42.0635517" lon="11.97087"><ele>233.0</ele><time>2026-04-24T11:07:45.064Z</time></trkpt><trkpt lat="42.06366" lon="11.970805"><ele>232.00000000000003</ele><time>2026-04-24T11:07:47.064Z</time></trkpt><trkpt lat="42.0637167" lon="11.9707667"><ele>231.0</ele><time>2026-04-24T11:07:48.064Z</time></trkpt><trkpt lat="42.0637733" lon="11.9707267"><ele>230.0</ele><time>2026-04-24T11:07:49.064Z</time></trkpt><trkpt lat="42.06383" lon="11.9706817"><ele>229.00000000000003</ele><time>2026-04-24T11:07:50.063Z</time></trkpt><trkpt lat="42.0638883" lon="11.970635"><ele>228.0</ele><time>2026-04-24T11:07:51.063Z</time></trkpt><trkpt lat="42.0639483" lon="11.97059"><ele>227.0</ele><time>2026-04-24T11:07:52.064Z</time></trkpt><trkpt lat="42.0640017" lon="11.9705433"><ele>227.0</ele><time>2026-04-24T11:07:53.064Z</time></trkpt><trkpt lat="42.06408" lon="11.970455"><ele>227.0</ele><time>2026-04-24T11:07:55.064Z</time></trkpt><trkpt lat="42.0642267" lon="11.9704183"><ele>227.0</ele><time>2026-04-24T11:08:56.064Z</time></trkpt><trkpt lat="42.0642917" lon="11.9704333"><ele>227.0</ele><time>2026-04-24T11:08:57.065Z</time></trkpt><trkpt lat="42.0643567" lon="11.9704417"><ele>227.0</ele><time>2026-04-24T11:08:58.063Z</time></trkpt><trkpt lat="42.0644617" lon="11.970465"><ele>228.0</ele><time>2026-04-24T11:09:00.065Z</time></trkpt><trkpt lat="42.064525" lon="11.9704817"><ele>229.00000000000003</ele><time>2026-04-24T11:09:01.066Z</time></trkpt><trkpt lat="42.0645933" lon="11.970495"><ele>230.0</ele><time>2026-04-24T11:09:02.065Z</time></trkpt><trkpt lat="42.064665" lon="11.9705033"><ele>231.0</ele><time>2026-04-24T11:09:03.063Z</time></trkpt><trkpt lat="42.06474" lon="11.970515"><ele>232.00000000000003</ele><time>2026-04-24T11:09:04.063Z</time></trkpt><trkpt lat="42.0648133" lon="11.9705283"><ele>233.0</ele><time>2026-04-24T11:09:05.064Z</time></trkpt><trkpt lat="42.0648867" lon="11.970545"><ele>234.0</ele><time>2026-04-24T11:09:06.065Z</time></trkpt><trkpt lat="42.064955" lon="11.9705617"><ele>235.16666666666666</ele><time>2026-04-24T11:09:07.065Z</time></trkpt><trkpt lat="42.06507" lon="11.9705917"><ele>236.33333333333331</ele><time>2026-04-24T11:09:09.066Z</time></trkpt><trkpt lat="42.065135" lon="11.9705983"><ele>237.5</ele><time>2026-04-24T11:09:11.065Z</time></trkpt><trkpt lat="42.06522" lon="11.97064"><ele>238.66666666666666</ele><time>2026-04-24T11:09:14.064Z</time></trkpt><trkpt lat="42.065285" lon="11.9706117"><ele>239.83333333333331</ele><time>2026-04-24T11:09:17.064Z</time></trkpt><trkpt lat="42.065375" lon="11.9705983"><ele>241.0</ele><time>2026-04-24T11:09:24.063Z</time></trkpt><trkpt lat="42.0654733" lon="11.9706383"><ele>240.99999999999997</ele><time>2026-04-24T11:09:26.064Z</time></trkpt><trkpt lat="42.0655533" lon="11.9707033"><ele>241.0</ele><time>2026-04-24T11:09:28.063Z</time></trkpt><trkpt lat="42.0656183" lon="11.9707683"><ele>241.0</ele><time>2026-04-24T11:09:30.063Z</time></trkpt><trkpt lat="42.06568" lon="11.970845"><ele>241.0</ele><time>2026-04-24T11:09:32.064Z</time></trkpt><trkpt lat="42.0657367" lon="11.9709267"><ele>240.99999999999997</ele><time>2026-04-24T11:09:34.063Z</time></trkpt><trkpt lat="42.0658133" lon="11.9709983"><ele>241.0</ele><time>2026-04-24T11:09:36.063Z</time></trkpt><trkpt lat="42.0658933" lon="11.9710517"><ele>243.8</ele><time>2026-04-24T11:09:38.065Z</time></trkpt><trkpt lat="42.0659617" lon="11.97112"><ele>246.60000000000002</ele><time>2026-04-24T11:09:40.063Z</time></trkpt><trkpt lat="42.0660467" lon="11.971185"><ele>249.4</ele><time>2026-04-24T11:09:42.065Z</time></trkpt><trkpt lat="42.0661483" lon="11.97123"><ele>252.2</ele><time>2026-04-24T11:09:44.065Z</time></trkpt><trkpt lat="42.0662483" lon="11.9712717"><ele>255.0</ele><time>2026-04-24T11:09:46.062Z</time></trkpt><trkpt lat="42.0663483" lon="11.9713017"><ele>255.0</ele><time>2026-04-24T11:09:48.064Z</time></trkpt><trkpt lat="42.0664433" lon="11.9713683"><ele>255.0</ele><time>2026-04-24T11:09:50.066Z</time></trkpt><trkpt lat="42.0665333" lon="11.9714617"><ele>255.0</ele><time>2026-04-24T11:09:52.065Z</time></trkpt><trkpt lat="42.0666317" lon="11.971555"><ele>255.0</ele><time>2026-04-24T11:09:54.065Z</time></trkpt><trkpt lat="42.06671" lon="11.9716417"><ele>255.0</ele><time>2026-04-24T11:09:56.064Z</time></trkpt><trkpt lat="42.0667767" lon="11.9717117"><ele>255.6</ele><time>2026-04-24T11:09:58.064Z</time></trkpt><trkpt lat="42.06684" lon="11.9717783"><ele>256.2</ele><time>2026-04-24T11:10:00.063Z</time></trkpt><trkpt lat="42.066915" lon="11.971875"><ele>256.8</ele><time>2026-04-24T11:10:02.064Z</time></trkpt><trkpt lat="42.0670133" lon="11.97195"><ele>257.4</ele><time>2026-04-24T11:10:04.064Z</time></trkpt><trkpt lat="42.067125" lon="11.972015"><ele>258.0</ele><time>2026-04-24T11:10:06.065Z</time></trkpt><trkpt lat="42.0672117" lon="11.972095"><ele>258.0</ele><time>2026-04-24T11:10:08.065Z</time></trkpt><trkpt lat="42.0672717" lon="11.9721867"><ele>258.0</ele><time>2026-04-24T11:10:10.065Z</time></trkpt><trkpt lat="42.0673283" lon="11.9722767"><ele>258.0</ele><time>2026-04-24T11:10:12.064Z</time></trkpt><trkpt lat="42.0673833" lon="11.9723583"><ele>258.0</ele><time>2026-04-24T11:10:14.065Z</time></trkpt><trkpt lat="42.06744" lon="11.9724017"><ele>258.0</ele><time>2026-04-24T11:10:16.064Z</time></trkpt><trkpt lat="42.0674967" lon="11.972445"><ele>258.0</ele><time>2026-04-24T11:10:18.063Z</time></trkpt><trkpt lat="42.06755" lon="11.97253"><ele>258.6666666666667</ele><time>2026-04-24T11:10:20.063Z</time></trkpt><trkpt lat="42.0676283" lon="11.9726483"><ele>259.3333333333333</ele><time>2026-04-24T11:10:22.064Z</time></trkpt><trkpt lat="42.067675" lon="11.97271"><ele>260.0</ele><time>2026-04-24T11:10:23.065Z</time></trkpt><trkpt lat="42.0677233" lon="11.9727783"><ele>260.66666666666663</ele><time>2026-04-24T11:10:24.064Z</time></trkpt><trkpt lat="42.06777" lon="11.97284"><ele>261.3333333333333</ele><time>2026-04-24T11:10:25.062Z</time></trkpt><trkpt lat="42.0678533" lon="11.972925"><ele>262.0</ele><time>2026-04-24T11:10:27.065Z</time></trkpt><trkpt lat="42.0679417" lon="11.972985"><ele>262.0</ele><time>2026-04-24T11:10:29.064Z</time></trkpt><trkpt lat="42.068035" lon="11.9730167"><ele>262.0</ele><time>2026-04-24T11:10:31.065Z</time></trkpt><trkpt lat="42.068135" lon="11.9730533"><ele>262.0</ele><time>2026-04-24T11:10:33.062Z</time></trkpt><trkpt lat="42.068215" lon="11.9730767"><ele>262.0</ele><time>2026-04-24T11:10:35.064Z</time></trkpt><trkpt lat="42.06829" lon="11.9730933"><ele>262.0</ele><time>2026-04-24T11:10:37.064Z</time></trkpt><trkpt lat="42.0683617" lon="11.9731083"><ele>262.0</ele><time>2026-04-24T11:10:39.065Z</time></trkpt><trkpt lat="42.0684517" lon="11.9731"><ele>261.3333333333333</ele><time>2026-04-24T11:11:09.062Z</time></trkpt><trkpt lat="42.0685517" lon="11.9730917"><ele>260.66666666666663</ele><time>2026-04-24T11:11:11.062Z</time></trkpt><trkpt lat="42.06864" lon="11.9730933"><ele>260.0</ele><time>2026-04-24T11:11:13.064Z</time></trkpt><trkpt lat="42.068705" lon="11.973145"><ele>259.3333333333333</ele><time>2026-04-24T11:11:15.061Z</time></trkpt><trkpt lat="42.0687783" lon="11.973215"><ele>258.6666666666667</ele><time>2026-04-24T11:11:17.064Z</time></trkpt><trkpt lat="42.06885" lon="11.9732967"><ele>258.0</ele><time>2026-04-24T11:11:19.064Z</time></trkpt><trkpt lat="42.06891" lon="11.9733817"><ele>260.2</ele><time>2026-04-24T11:11:21.062Z</time></trkpt><trkpt lat="42.0689617" lon="11.9734533"><ele>262.4</ele><time>2026-04-24T11:11:23.063Z</time></trkpt><trkpt lat="42.0690417" lon="11.9735017"><ele>264.59999999999997</ele><time>2026-04-24T11:11:25.062Z</time></trkpt><trkpt lat="42.0691317" lon="11.9735383"><ele>266.8</ele><time>2026-04-24T11:11:27.063Z</time></trkpt><trkpt lat="42.0692317" lon="11.9735817"><ele>269.0</ele><time>2026-04-24T11:11:29.063Z</time></trkpt><trkpt lat="42.06932" lon="11.97366"><ele>269.0</ele><time>2026-04-24T11:11:31.066Z</time></trkpt><trkpt lat="42.0694033" lon="11.9737267"><ele>269.0</ele><time>2026-04-24T11:11:33.064Z</time></trkpt><trkpt lat="42.06948" lon="11.97377"><ele>269.0</ele><time>2026-04-24T11:11:35.065Z</time></trkpt><trkpt lat="42.0695567" lon="11.9738433"><ele>269.0</ele><time>2026-04-24T11:11:37.063Z</time></trkpt><trkpt lat="42.0696367" lon="11.97391"><ele>269.0</ele><time>2026-04-24T11:11:39.063Z</time></trkpt><trkpt lat="42.0697083" lon="11.973945"><ele>269.0</ele><time>2026-04-24T11:11:41.064Z</time></trkpt><trkpt lat="42.0698333" lon="11.9740233"><ele>269.33333333333337</ele><time>2026-04-24T11:11:55.064Z</time></trkpt><trkpt lat="42.0699483" lon="11.9740833"><ele>269.6666666666667</ele><time>2026-04-24T11:11:57.063Z</time></trkpt><trkpt lat="42.07001" lon="11.974135"><ele>270.0</ele><time>2026-04-24T11:11:58.063Z</time></trkpt><trkpt lat="42.07008" lon="11.9741933"><ele>270.3333333333333</ele><time>2026-04-24T11:11:59.064Z</time></trkpt><trkpt lat="42.0701533" lon="11.97424"><ele>270.66666666666663</ele><time>2026-04-24T11:12:00.062Z</time></trkpt><trkpt lat="42.0702333" lon="11.9742717"><ele>271.0</ele><time>2026-04-24T11:12:01.065Z</time></trkpt><trkpt lat="42.0703167" lon="11.9743017"><ele>272.5</ele><time>2026-04-24T11:12:02.065Z</time></trkpt><trkpt lat="42.0703983" lon="11.9743333"><ele>274.0</ele><time>2026-04-24T11:12:03.065Z</time></trkpt><trkpt lat="42.0704817" lon="11.97436"><ele>275.5</ele><time>2026-04-24T11:12:04.063Z</time></trkpt><trkpt lat="42.07056" lon="11.9743767"><ele>277.0</ele><time>2026-04-24T11:12:05.064Z</time></trkpt><trkpt lat="42.0706367" lon="11.9743883"><ele>278.5</ele><time>2026-04-24T11:12:06.064Z</time></trkpt><trkpt lat="42.0707083" lon="11.974405"><ele>280.0</ele><time>2026-04-24T11:12:07.063Z</time></trkpt><trkpt lat="42.07082" lon="11.9744717"><ele>280.0</ele><time>2026-04-24T11:12:09.064Z</time></trkpt><trkpt lat="42.0708767" lon="11.9745217"><ele>280.0</ele><time>2026-04-24T11:12:10.062Z</time></trkpt><trkpt lat="42.0709383" lon="11.9745733"><ele>280.0</ele><time>2026-04-24T11:12:11.062Z</time></trkpt><trkpt lat="42.071015" lon="11.974615"><ele>280.0</ele><time>2026-04-24T11:12:12.064Z</time></trkpt><trkpt lat="42.0710967" lon="11.9746483"><ele>280.0</ele><time>2026-04-24T11:12:13.063Z</time></trkpt><trkpt lat="42.0711733" lon="11.974685"><ele>280.0</ele><time>2026-04-24T11:12:14.064Z</time></trkpt><trkpt lat="42.07125" lon="11.9747233"><ele>280.0</ele><time>2026-04-24T11:12:15.065Z</time></trkpt><trkpt lat="42.07133" lon="11.974755"><ele>280.0</ele><time>2026-04-24T11:12:16.064Z</time></trkpt><trkpt lat="42.07141" lon="11.9747783"><ele>280.0</ele><time>2026-04-24T11:12:17.063Z</time></trkpt><trkpt lat="42.0714933" lon="11.9747983"><ele>280.0</ele><time>2026-04-24T11:12:18.066Z</time></trkpt><trkpt lat="42.0715867" lon="11.97482"><ele>280.0</ele><time>2026-04-24T11:12:19.065Z</time></trkpt><trkpt lat="42.0716867" lon="11.9748483"><ele>280.0</ele><time>2026-04-24T11:12:20.063Z</time></trkpt><trkpt lat="42.0717833" lon="11.974885"><ele>279.8333333333333</ele><time>2026-04-24T11:12:21.064Z</time></trkpt><trkpt lat="42.07187" lon="11.9749333"><ele>279.66666666666663</ele><time>2026-04-24T11:12:22.064Z</time></trkpt><trkpt lat="42.07195" lon="11.974985"><ele>279.5</ele><time>2026-04-24T11:12:23.064Z</time></trkpt><trkpt lat="42.0720317" lon="11.97503"><ele>279.3333333333333</ele><time>2026-04-24T11:12:24.065Z</time></trkpt><trkpt lat="42.072115" lon="11.9750567"><ele>279.1666666666667</ele><time>2026-04-24T11:12:25.064Z</time></trkpt><trkpt lat="42.072195" lon="11.9750733"><ele>279.0</ele><time>2026-04-24T11:12:26.064Z</time></trkpt><trkpt lat="42.0722633" lon="11.9750817"><ele>281.0</ele><time>2026-04-24T11:12:27.064Z</time></trkpt><trkpt lat="42.0723667" lon="11.975105"><ele>283.0</ele><time>2026-04-24T11:12:29.063Z</time></trkpt><trkpt lat="42.07244" lon="11.9751433"><ele>285.0</ele><time>2026-04-24T11:12:31.063Z</time></trkpt><trkpt lat="42.07251" lon="11.97519"><ele>287.0</ele><time>2026-04-24T11:12:33.063Z</time></trkpt><trkpt lat="42.0726067" lon="11.97522"><ele>289.0</ele><time>2026-04-24T11:12:35.063Z</time></trkpt><trkpt lat="42.0727083" lon="11.9752633"><ele>289.59999999999997</ele><time>2026-04-24T11:12:37.064Z</time></trkpt><trkpt lat="42.0727967" lon="11.9752983"><ele>290.2</ele><time>2026-04-24T11:12:39.065Z</time></trkpt><trkpt lat="42.0728817" lon="11.9753383"><ele>290.79999999999995</ele><time>2026-04-24T11:12:41.063Z</time></trkpt><trkpt lat="42.07296" lon="11.9753833"><ele>291.4</ele><time>2026-04-24T11:12:43.066Z</time></trkpt><trkpt lat="42.073055" lon="11.9754017"><ele>292.0</ele><time>2026-04-24T11:12:45.064Z</time></trkpt><trkpt lat="42.0731483" lon="11.9754117"><ele>292.0</ele><time>2026-04-24T11:12:47.064Z</time></trkpt><trkpt lat="42.073235" lon="11.97546"><ele>292.0</ele><time>2026-04-24T11:12:49.064Z</time></trkpt><trkpt lat="42.0733183" lon="11.9755033"><ele>292.0</ele><time>2026-04-24T11:12:51.065Z</time></trkpt><trkpt lat="42.073385" lon="11.9755767"><ele>292.0</ele><time>2026-04-24T11:12:53.063Z</time></trkpt><trkpt lat="42.073475" lon="11.9756683"><ele>292.0</ele><time>2026-04-24T11:12:55.063Z</time></trkpt><trkpt lat="42.0735667" lon="11.975745"><ele>292.0</ele><time>2026-04-24T11:12:57.063Z</time></trkpt><trkpt lat="42.0736383" lon="11.975825"><ele>292.0</ele><time>2026-04-24T11:12:59.065Z</time></trkpt><trkpt lat="42.0737033" lon="11.9759183"><ele>292.0</ele><time>2026-04-24T11:13:01.063Z</time></trkpt><trkpt lat="42.073775" lon="11.9760017"><ele>292.0</ele><time>2026-04-24T11:13:03.063Z</time></trkpt><trkpt lat="42.0738433" lon="11.9760783"><ele>292.0</ele><time>2026-04-24T11:13:05.064Z</time></trkpt><trkpt lat="42.073915" lon="11.9761533"><ele>293.6</ele><time>2026-04-24T11:13:07.064Z</time></trkpt><trkpt lat="42.0740067" lon="11.9762217"><ele>295.2</ele><time>2026-04-24T11:13:09.065Z</time></trkpt><trkpt lat="42.0741283" lon="11.9762517"><ele>296.8</ele><time>2026-04-24T11:13:11.065Z</time></trkpt><trkpt lat="42.0742017" lon="11.9762583"><ele>298.4</ele><time>2026-04-24T11:13:12.064Z</time></trkpt><trkpt lat="42.0742783" lon="11.9762583"><ele>300.0</ele><time>2026-04-24T11:13:13.064Z</time></trkpt><trkpt lat="42.07436" lon="11.9762633"><ele>300.0</ele><time>2026-04-24T11:13:14.064Z</time></trkpt><trkpt lat="42.074445" lon="11.9762667"><ele>300.0</ele><time>2026-04-24T11:13:15.064Z</time></trkpt><trkpt lat="42.0745333" lon="11.9762717"><ele>300.0</ele><time>2026-04-24T11:13:16.066Z</time></trkpt><trkpt lat="42.0746267" lon="11.97627"><ele>300.0</ele><time>2026-04-24T11:13:17.066Z</time></trkpt><trkpt lat="42.07472" lon="11.97627"><ele>300.0</ele><time>2026-04-24T11:13:18.065Z</time></trkpt><trkpt lat="42.0748167" lon="11.97626"><ele>300.0</ele><time>2026-04-24T11:13:19.063Z</time></trkpt><trkpt lat="42.0749183" lon="11.9762533"><ele>300.0</ele><time>2026-04-24T11:13:20.063Z</time></trkpt><trkpt lat="42.0750217" lon="11.97625"><ele>300.0</ele><time>2026-04-24T11:13:21.065Z</time></trkpt><trkpt lat="42.075125" lon="11.9762483"><ele>300.0</ele><time>2026-04-24T11:13:22.063Z</time></trkpt><trkpt lat="42.07522" lon="11.9762467"><ele>300.0</ele><time>2026-04-24T11:13:23.063Z</time></trkpt><trkpt lat="42.0753033" lon="11.9762533"><ele>300.0</ele><time>2026-04-24T11:13:24.065Z</time></trkpt><trkpt lat="42.0753833" lon="11.9762633"><ele>300.0</ele><time>2026-04-24T11:13:25.062Z</time></trkpt><trkpt lat="42.075455" lon="11.97628"><ele>300.0</ele><time>2026-04-24T11:13:26.065Z</time></trkpt><trkpt lat="42.0755183" lon="11.9762967"><ele>300.0</ele><time>2026-04-24T11:13:27.063Z</time></trkpt><trkpt lat="42.0756117" lon="11.9763533"><ele>300.0</ele><time>2026-04-24T11:13:29.063Z</time></trkpt><trkpt lat="42.0756383" lon="11.9764467"><ele>300.0</ele><time>2026-04-24T11:13:31.065Z</time></trkpt><trkpt lat="42.07557" lon="11.9764367"><ele>300.0</ele><time>2026-04-24T11:13:35.064Z</time></trkpt><trkpt lat="42.0756417" lon="11.9763583"><ele>300.0</ele><time>2026-04-24T11:15:44.064Z</time></trkpt><trkpt lat="42.0757483" lon="11.9764867"><ele>300.0</ele><time>2026-04-24T11:15:46.064Z</time></trkpt><trkpt lat="42.07582" lon="11.97658"><ele>300.0</ele><time>2026-04-24T11:15:47.063Z</time></trkpt><trkpt lat="42.0758917" lon="11.97667"><ele>300.0</ele><time>2026-04-24T11:15:48.065Z</time></trkpt><trkpt lat="42.0759633" lon="11.9767483"><ele>303.0</ele><time>2026-04-24T11:15:49.066Z</time></trkpt><trkpt lat="42.076035" lon="11.9768283"><ele>306.0</ele><time>2026-04-24T11:15:50.065Z</time></trkpt><trkpt lat="42.0761017" lon="11.9769017"><ele>309.0</ele><time>2026-04-24T11:15:51.067Z</time></trkpt><trkpt lat="42.0761633" lon="11.9769717"><ele>312.0</ele><time>2026-04-24T11:15:52.064Z</time></trkpt><trkpt lat="42.076215" lon="11.9770433"><ele>315.0</ele><time>2026-04-24T11:15:53.063Z</time></trkpt><trkpt lat="42.0762683" lon="11.97711"><ele>318.0</ele><time>2026-04-24T11:15:54.064Z</time></trkpt><trkpt lat="42.0763183" lon="11.9771683"><ele>318.0</ele><time>2026-04-24T11:15:55.069Z</time></trkpt><trkpt lat="42.0763717" lon="11.9772133"><ele>318.0</ele><time>2026-04-24T11:15:56.067Z</time></trkpt><trkpt lat="42.0764317" lon="11.97725"><ele>318.0</ele><time>2026-04-24T11:15:57.066Z</time></trkpt><trkpt lat="42.0764983" lon="11.97729"><ele>318.0</ele><time>2026-04-24T11:15:58.063Z</time></trkpt><trkpt lat="42.0765717" lon="11.9773233"><ele>318.0</ele><time>2026-04-24T11:15:59.064Z</time></trkpt><trkpt lat="42.0766417" lon="11.9773517"><ele>318.0</ele><time>2026-04-24T11:16:00.065Z</time></trkpt><trkpt lat="42.0767133" lon="11.97738"><ele>318.0</ele><time>2026-04-24T11:16:01.065Z</time></trkpt><trkpt lat="42.0767883" lon="11.9774167"><ele>318.5</ele><time>2026-04-24T11:16:02.064Z</time></trkpt><trkpt lat="42.0768633" lon="11.9774567"><ele>319.0</ele><time>2026-04-24T11:16:03.063Z</time></trkpt><trkpt lat="42.07693" lon="11.9775"><ele>319.5</ele><time>2026-04-24T11:16:04.063Z</time></trkpt><trkpt lat="42.0769883" lon="11.97755"><ele>320.0</ele><time>2026-04-24T11:16:05.065Z</time></trkpt><trkpt lat="42.077035" lon="11.9776083"><ele>320.5</ele><time>2026-04-24T11:16:06.062Z</time></trkpt><trkpt lat="42.0770867" lon="11.97778"><ele>321.0</ele><time>2026-04-24T11:16:08.065Z</time></trkpt><trkpt lat="42.0771067" lon="11.9778833"><ele>321.0</ele><time>2026-04-24T11:16:09.064Z</time></trkpt><trkpt lat="42.07712" lon="11.9779833"><ele>321.0</ele><time>2026-04-24T11:16:10.064Z</time></trkpt><trkpt lat="42.0771283" lon="11.9780767"><ele>321.0</ele><time>2026-04-24T11:16:11.065Z</time></trkpt><trkpt lat="42.0771433" lon="11.9782417"><ele>321.0</ele><time>2026-04-24T11:16:13.062Z</time></trkpt><trkpt lat="42.0771483" lon="11.97833"><ele>321.0</ele><time>2026-04-24T11:16:14.065Z</time></trkpt><trkpt lat="42.077145" lon="11.9784167"><ele>321.0</ele><time>2026-04-24T11:16:15.064Z</time></trkpt><trkpt lat="42.077135" lon="11.9785033"><ele>321.2857142857143</ele><time>2026-04-24T11:16:16.065Z</time></trkpt><trkpt lat="42.0771233" lon="11.9785883"><ele>321.57142857142856</ele><time>2026-04-24T11:16:17.065Z</time></trkpt><trkpt lat="42.0771117" lon="11.9786817"><ele>321.8571428571429</ele><time>2026-04-24T11:16:18.066Z</time></trkpt><trkpt lat="42.0770983" lon="11.97878"><ele>322.1428571428571</ele><time>2026-04-24T11:16:19.066Z</time></trkpt><trkpt lat="42.0770867" lon="11.9788767"><ele>322.42857142857144</ele><time>2026-04-24T11:16:20.064Z</time></trkpt><trkpt lat="42.0770817" lon="11.9789733"><ele>322.7142857142857</ele><time>2026-04-24T11:16:21.064Z</time></trkpt><trkpt lat="42.0770833" lon="11.9790683"><ele>323.0</ele><time>2026-04-24T11:16:22.064Z</time></trkpt><trkpt lat="42.0770833" lon="11.9791633"><ele>322.6666666666667</ele><time>2026-04-24T11:16:23.065Z</time></trkpt><trkpt lat="42.0770883" lon="11.9792567"><ele>322.33333333333337</ele><time>2026-04-24T11:16:24.064Z</time></trkpt><trkpt lat="42.0770917" lon="11.979345"><ele>322.0</ele><time>2026-04-24T11:16:25.065Z</time></trkpt><trkpt lat="42.07708" lon="11.9794933"><ele>321.6666666666667</ele><time>2026-04-24T11:16:27.065Z</time></trkpt><trkpt lat="42.0770617" lon="11.9796033"><ele>321.3333333333333</ele><time>2026-04-24T11:16:29.063Z</time></trkpt><trkpt lat="42.0770167" lon="11.9797167"><ele>321.0</ele><time>2026-04-24T11:16:31.064Z</time></trkpt><trkpt lat="42.0769567" lon="11.979855"><ele>321.0</ele><time>2026-04-24T11:16:33.065Z</time></trkpt><trkpt lat="42.0769117" lon="11.980005"><ele>321.0</ele><time>2026-04-24T11:16:35.063Z</time></trkpt><trkpt lat="42.07688" lon="11.9801667"><ele>321.0</ele><time>2026-04-24T11:16:37.065Z</time></trkpt><trkpt lat="42.0768667" lon="11.9803267"><ele>321.0</ele><time>2026-04-24T11:16:39.065Z</time></trkpt><trkpt lat="42.0768917" lon="11.98048"><ele>320.8</ele><time>2026-04-24T11:16:41.065Z</time></trkpt><trkpt lat="42.0769233" lon="11.98062"><ele>320.6</ele><time>2026-04-24T11:16:43.064Z</time></trkpt><trkpt lat="42.0769517" lon="11.9807517"><ele>320.4</ele><time>2026-04-24T11:16:45.064Z</time></trkpt><trkpt lat="42.0769667" lon="11.9809133"><ele>320.2</ele><time>2026-04-24T11:16:47.066Z</time></trkpt><trkpt lat="42.07698" lon="11.9810067"><ele>320.0</ele><time>2026-04-24T11:16:48.064Z</time></trkpt><trkpt lat="42.0769917" lon="11.9810983"><ele>320.42857142857144</ele><time>2026-04-24T11:16:49.065Z</time></trkpt><trkpt lat="42.0770017" lon="11.981185"><ele>320.8571428571429</ele><time>2026-04-24T11:16:50.064Z</time></trkpt><trkpt lat="42.076995" lon="11.98128"><ele>321.28571428571433</ele><time>2026-04-24T11:16:51.065Z</time></trkpt><trkpt lat="42.0769817" lon="11.981375"><ele>321.7142857142857</ele><time>2026-04-24T11:16:52.064Z</time></trkpt><trkpt lat="42.07697" lon="11.9814683"><ele>322.14285714285717</ele><time>2026-04-24T11:16:53.065Z</time></trkpt><trkpt lat="42.0769667" lon="11.981555"><ele>322.5714285714286</ele><time>2026-04-24T11:16:54.064Z</time></trkpt><trkpt lat="42.07698" lon="11.9816483"><ele>323.0</ele><time>2026-04-24T11:16:55.064Z</time></trkpt><trkpt lat="42.077005" lon="11.9817467"><ele>323.6666666666667</ele><time>2026-04-24T11:16:56.065Z</time></trkpt><trkpt lat="42.07703" lon="11.9818433"><ele>324.33333333333337</ele><time>2026-04-24T11:16:57.065Z</time></trkpt><trkpt lat="42.07706" lon="11.981945"><ele>325.0</ele><time>2026-04-24T11:16:58.065Z</time></trkpt><trkpt lat="42.07708" lon="11.9820417"><ele>325.6666666666667</ele><time>2026-04-24T11:16:59.064Z</time></trkpt><trkpt lat="42.0771" lon="11.9821417"><ele>326.3333333333333</ele><time>2026-04-24T11:17:00.064Z</time></trkpt><trkpt lat="42.07712" lon="11.982245"><ele>327.0</ele><time>2026-04-24T11:17:01.064Z</time></trkpt><trkpt lat="42.07713" lon="11.98234"><ele>327.0</ele><time>2026-04-24T11:17:02.064Z</time></trkpt><trkpt lat="42.0771383" lon="11.9824283"><ele>327.0</ele><time>2026-04-24T11:17:03.065Z</time></trkpt><trkpt lat="42.07715" lon="11.9825833"><ele>327.0</ele><time>2026-04-24T11:17:05.064Z</time></trkpt><trkpt lat="42.07715" lon="11.9827183"><ele>327.0</ele><time>2026-04-24T11:17:07.064Z</time></trkpt><trkpt lat="42.077135" lon="11.98288"><ele>327.0</ele><time>2026-04-24T11:17:09.064Z</time></trkpt><trkpt lat="42.0771283" lon="11.9829733"><ele>327.8</ele><time>2026-04-24T11:17:10.065Z</time></trkpt><trkpt lat="42.0771233" lon="11.9830583"><ele>328.6</ele><time>2026-04-24T11:17:11.064Z</time></trkpt><trkpt lat="42.0771083" lon="11.9831967"><ele>329.40000000000003</ele><time>2026-04-24T11:17:13.067Z</time></trkpt><trkpt lat="42.0770983" lon="11.9833367"><ele>330.20000000000005</ele><time>2026-04-24T11:17:15.065Z</time></trkpt><trkpt lat="42.0770917" lon="11.9834933"><ele>331.0</ele><time>2026-04-24T11:17:17.064Z</time></trkpt><trkpt lat="42.0770967" lon="11.9836583"><ele>331.8</ele><time>2026-04-24T11:17:19.065Z</time></trkpt><trkpt lat="42.0770917" lon="11.9838183"><ele>332.6</ele><time>2026-04-24T11:17:21.067Z</time></trkpt><trkpt lat="42.0770767" lon="11.9839533"><ele>333.4</ele><time>2026-04-24T11:17:23.062Z</time></trkpt><trkpt lat="42.0770883" lon="11.984055"><ele>334.2</ele><time>2026-04-24T11:17:25.066Z</time></trkpt><trkpt lat="42.077115" lon="11.9841717"><ele>335.0</ele><time>2026-04-24T11:17:27.065Z</time></trkpt><trkpt lat="42.0771267" lon="11.9843167"><ele>335.4</ele><time>2026-04-24T11:17:29.061Z</time></trkpt><trkpt lat="42.0771283" lon="11.9844733"><ele>335.8</ele><time>2026-04-24T11:17:31.066Z</time></trkpt><trkpt lat="42.0771083" lon="11.9846233"><ele>336.20000000000005</ele><time>2026-04-24T11:17:33.064Z</time></trkpt><trkpt lat="42.0770733" lon="11.9847433"><ele>336.6</ele><time>2026-04-24T11:17:35.063Z</time></trkpt><trkpt lat="42.07705" lon="11.9848633"><ele>337.0</ele><time>2026-04-24T11:17:37.062Z</time></trkpt><trkpt lat="42.0770467" lon="11.985015"><ele>337.28571428571433</ele><time>2026-04-24T11:17:39.063Z</time></trkpt><trkpt lat="42.07704" lon="11.985105"><ele>337.57142857142856</ele><time>2026-04-24T11:17:40.065Z</time></trkpt><trkpt lat="42.0770333" lon="11.98519"><ele>337.8571428571429</ele><time>2026-04-24T11:17:41.065Z</time></trkpt><trkpt lat="42.0770333" lon="11.9852867"><ele>338.14285714285717</ele><time>2026-04-24T11:17:42.065Z</time></trkpt><trkpt lat="42.0770383" lon="11.9853817"><ele>338.42857142857144</ele><time>2026-04-24T11:17:43.063Z</time></trkpt><trkpt lat="42.07704" lon="11.98548"><ele>338.7142857142857</ele><time>2026-04-24T11:17:44.065Z</time></trkpt><trkpt lat="42.0770417" lon="11.9855817"><ele>339.0</ele><time>2026-04-24T11:17:45.064Z</time></trkpt><trkpt lat="42.0770433" lon="11.9856817"><ele>339.0</ele><time>2026-04-24T11:17:46.064Z</time></trkpt><trkpt lat="42.0770417" lon="11.9857817"><ele>339.0</ele><time>2026-04-24T11:17:47.064Z</time></trkpt><trkpt lat="42.0770417" lon="11.98588"><ele>339.0</ele><time>2026-04-24T11:17:48.063Z</time></trkpt><trkpt lat="42.07704" lon="11.985985"><ele>339.0</ele><time>2026-04-24T11:17:49.064Z</time></trkpt><trkpt lat="42.077025" lon="11.9860983"><ele>339.0</ele><time>2026-04-24T11:17:50.063Z</time></trkpt><trkpt lat="42.0770133" lon="11.98621"><ele>339.0</ele><time>2026-04-24T11:17:51.063Z</time></trkpt><trkpt lat="42.0769933" lon="11.98632"><ele>339.0</ele><time>2026-04-24T11:17:52.065Z</time></trkpt><trkpt lat="42.076965" lon="11.986425"><ele>339.0</ele><time>2026-04-24T11:17:53.065Z</time></trkpt><trkpt lat="42.07693" lon="11.9865317"><ele>339.0</ele><time>2026-04-24T11:17:54.065Z</time></trkpt><trkpt lat="42.0768933" lon="11.9866317"><ele>339.0</ele><time>2026-04-24T11:17:55.063Z</time></trkpt><trkpt lat="42.076855" lon="11.9867283"><ele>339.0</ele><time>2026-04-24T11:17:56.065Z</time></trkpt><trkpt lat="42.07682" lon="11.9868233"><ele>339.0</ele><time>2026-04-24T11:17:57.064Z</time></trkpt><trkpt lat="42.076795" lon="11.9869167"><ele>339.1666666666667</ele><time>2026-04-24T11:17:58.065Z</time></trkpt><trkpt lat="42.076775" lon="11.9870583"><ele>339.3333333333333</ele><time>2026-04-24T11:18:00.065Z</time></trkpt><trkpt lat="42.0767933" lon="11.98714"><ele>339.5</ele><time>2026-04-24T11:18:01.065Z</time></trkpt><trkpt lat="42.0768367" lon="11.987235"><ele>339.66666666666663</ele><time>2026-04-24T11:18:02.065Z</time></trkpt><trkpt lat="42.0768733" lon="11.987335"><ele>339.8333333333333</ele><time>2026-04-24T11:18:03.063Z</time></trkpt><trkpt lat="42.0769" lon="11.9874317"><ele>340.0</ele><time>2026-04-24T11:18:04.064Z</time></trkpt><trkpt lat="42.076925" lon="11.987535"><ele>340.16666666666663</ele><time>2026-04-24T11:18:05.062Z</time></trkpt><trkpt lat="42.0769467" lon="11.987635"><ele>340.3333333333333</ele><time>2026-04-24T11:18:06.065Z</time></trkpt><trkpt lat="42.076955" lon="11.98774"><ele>340.5</ele><time>2026-04-24T11:18:07.065Z</time></trkpt><trkpt lat="42.07696" lon="11.9878433"><ele>340.6666666666667</ele><time>2026-04-24T11:18:08.066Z</time></trkpt><trkpt lat="42.07696" lon="11.987945"><ele>340.83333333333337</ele><time>2026-04-24T11:18:09.064Z</time></trkpt><trkpt lat="42.0769467" lon="11.9880683"><ele>341.0</ele><time>2026-04-24T11:18:10.065Z</time></trkpt><trkpt lat="42.0769283" lon="11.9881933"><ele>341.0</ele><time>2026-04-24T11:18:11.065Z</time></trkpt><trkpt lat="42.0769067" lon="11.9883117"><ele>341.0</ele><time>2026-04-24T11:18:12.065Z</time></trkpt><trkpt lat="42.07688" lon="11.9884267"><ele>341.0</ele><time>2026-04-24T11:18:13.065Z</time></trkpt><trkpt lat="42.0768483" lon="11.98854"><ele>341.0</ele><time>2026-04-24T11:18:14.066Z</time></trkpt><trkpt lat="42.0768133" lon="11.9886467"><ele>341.0</ele><time>2026-04-24T11:18:15.067Z</time></trkpt><trkpt lat="42.0767783" lon="11.9887433"><ele>341.0</ele><time>2026-04-24T11:18:16.065Z</time></trkpt><trkpt lat="42.07676" lon="11.98884"><ele>340.0</ele><time>2026-04-24T11:18:17.066Z</time></trkpt><trkpt lat="42.07676" lon="11.9889483"><ele>339.0</ele><time>2026-04-24T11:18:18.066Z</time></trkpt><trkpt lat="42.0767767" lon="11.9890583"><ele>338.0</ele><time>2026-04-24T11:18:19.066Z</time></trkpt><trkpt lat="42.0767983" lon="11.9891767"><ele>337.0</ele><time>2026-04-24T11:18:20.065Z</time></trkpt><trkpt lat="42.0768167" lon="11.9893033"><ele>336.0</ele><time>2026-04-24T11:18:21.065Z</time></trkpt><trkpt lat="42.0768367" lon="11.9894367"><ele>335.8</ele><time>2026-04-24T11:18:22.064Z</time></trkpt><trkpt lat="42.076855" lon="11.9895733"><ele>335.6</ele><time>2026-04-24T11:18:23.064Z</time></trkpt><trkpt lat="42.0768683" lon="11.9897083"><ele>335.4</ele><time>2026-04-24T11:18:24.065Z</time></trkpt><trkpt lat="42.07688" lon="11.9898417"><ele>335.2</ele><time>2026-04-24T11:18:25.066Z</time></trkpt><trkpt lat="42.076895" lon="11.98997"><ele>335.0</ele><time>2026-04-24T11:18:26.065Z</time></trkpt><trkpt lat="42.076925" lon="11.9900917"><ele>335.4</ele><time>2026-04-24T11:18:27.064Z</time></trkpt><trkpt lat="42.07697" lon="11.99021"><ele>335.8</ele><time>2026-04-24T11:18:28.063Z</time></trkpt><trkpt lat="42.0770217" lon="11.9903267"><ele>336.20000000000005</ele><time>2026-04-24T11:18:29.065Z</time></trkpt><trkpt lat="42.0770733" lon="11.9904433"><ele>336.6</ele><time>2026-04-24T11:18:30.068Z</time></trkpt><trkpt lat="42.0771217" lon="11.9905567"><ele>337.0</ele><time>2026-04-24T11:18:31.067Z</time></trkpt><trkpt lat="42.0771633" lon="11.990665"><ele>337.0</ele><time>2026-04-24T11:18:32.067Z</time></trkpt><trkpt lat="42.077195" lon="11.9907717"><ele>337.0</ele><time>2026-04-24T11:18:33.068Z</time></trkpt><trkpt lat="42.077215" lon="11.9908867"><ele>337.0</ele><time>2026-04-24T11:18:34.066Z</time></trkpt><trkpt lat="42.0772333" lon="11.9910117"><ele>337.0</ele><time>2026-04-24T11:18:35.065Z</time></trkpt><trkpt lat="42.0772517" lon="11.9911333"><ele>337.0</ele><time>2026-04-24T11:18:36.064Z</time></trkpt><trkpt lat="42.0772633" lon="11.9912367"><ele>337.0</ele><time>2026-04-24T11:18:37.064Z</time></trkpt><trkpt lat="42.077285" lon="11.99132"><ele>337.0</ele><time>2026-04-24T11:18:38.065Z</time></trkpt><trkpt lat="42.0773417" lon="11.9914567"><ele>337.0</ele><time>2026-04-24T11:18:40.065Z</time></trkpt><trkpt lat="42.0773667" lon="11.9915633"><ele>337.0</ele><time>2026-04-24T11:18:42.066Z</time></trkpt><trkpt lat="42.0774033" lon="11.9916517"><ele>337.0</ele><time>2026-04-24T11:18:45.064Z</time></trkpt><trkpt lat="42.0775083" lon="11.991655"><ele>337.0</ele><time>2026-04-24T11:19:43.065Z</time></trkpt><trkpt lat="42.0775917" lon="11.9917167"><ele>335.66666666666663</ele><time>2026-04-24T11:19:45.065Z</time></trkpt><trkpt lat="42.0776583" lon="11.9918533"><ele>334.3333333333333</ele><time>2026-04-24T11:19:47.064Z</time></trkpt><trkpt lat="42.07769" lon="11.9919367"><ele>333.0</ele><time>2026-04-24T11:19:48.065Z</time></trkpt><trkpt lat="42.0777217" lon="11.9920333"><ele>331.6666666666667</ele><time>2026-04-24T11:19:49.064Z</time></trkpt><trkpt lat="42.07775" lon="11.992125"><ele>330.33333333333337</ele><time>2026-04-24T11:19:50.062Z</time></trkpt><trkpt lat="42.077775" lon="11.9922133"><ele>329.0</ele><time>2026-04-24T11:19:51.064Z</time></trkpt><trkpt lat="42.07781" lon="11.9923733"><ele>329.0</ele><time>2026-04-24T11:19:53.065Z</time></trkpt><trkpt lat="42.0778333" lon="11.9924567"><ele>329.0</ele><time>2026-04-24T11:19:54.062Z</time></trkpt><trkpt lat="42.0778667" lon="11.9925883"><ele>329.0</ele><time>2026-04-24T11:19:56.065Z</time></trkpt><trkpt lat="42.0779" lon="11.992675"><ele>329.0</ele><time>2026-04-24T11:19:58.065Z</time></trkpt><trkpt lat="42.07797" lon="11.9927183"><ele>329.0</ele><time>2026-04-24T11:20:01.065Z</time></trkpt><trkpt lat="42.0780317" lon="11.9926683"><ele>329.0</ele><time>2026-04-24T11:20:11.062Z</time></trkpt><trkpt lat="42.0780783" lon="11.992555"><ele>329.0</ele><time>2026-04-24T11:20:13.064Z</time></trkpt><trkpt lat="42.0781333" lon="11.9924267"><ele>329.0</ele><time>2026-04-24T11:20:15.064Z</time></trkpt><trkpt lat="42.07822" lon="11.9923017"><ele>329.0</ele><time>2026-04-24T11:20:17.065Z</time></trkpt><trkpt lat="42.07826" lon="11.9922267"><ele>329.0</ele><time>2026-04-24T11:20:18.065Z</time></trkpt><trkpt lat="42.078305" lon="11.99215"><ele>329.0</ele><time>2026-04-24T11:20:19.065Z</time></trkpt><trkpt lat="42.0783433" lon="11.9920733"><ele>329.0</ele><time>2026-04-24T11:20:20.066Z</time></trkpt><trkpt lat="42.07841" lon="11.9919283"><ele>329.83333333333337</ele><time>2026-04-24T11:20:22.064Z</time></trkpt><trkpt lat="42.07844" lon="11.9918517"><ele>330.6666666666667</ele><time>2026-04-24T11:20:23.064Z</time></trkpt><trkpt lat="42.0784717" lon="11.9917767"><ele>331.5</ele><time>2026-04-24T11:20:24.064Z</time></trkpt><trkpt lat="42.0785083" lon="11.991705"><ele>332.3333333333333</ele><time>2026-04-24T11:20:25.065Z</time></trkpt><trkpt lat="42.078545" lon="11.9916317"><ele>333.16666666666663</ele><time>2026-04-24T11:20:26.064Z</time></trkpt><trkpt lat="42.0786017" lon="11.9914917"><ele>334.0</ele><time>2026-04-24T11:20:28.066Z</time></trkpt><trkpt lat="42.07865" lon="11.99136"><ele>332.0</ele><time>2026-04-24T11:20:30.067Z</time></trkpt><trkpt lat="42.0787117" lon="11.991225"><ele>330.0</ele><time>2026-04-24T11:20:32.065Z</time></trkpt><trkpt lat="42.07878" lon="11.991105"><ele>328.0</ele><time>2026-04-24T11:20:34.064Z</time></trkpt><trkpt lat="42.0788467" lon="11.9910167"><ele>326.0</ele><time>2026-04-24T11:20:36.065Z</time></trkpt><trkpt lat="42.0789317" lon="11.9909167"><ele>324.0</ele><time>2026-04-24T11:20:38.066Z</time></trkpt><trkpt lat="42.0790133" lon="11.9908017"><ele>323.6</ele><time>2026-04-24T11:20:40.063Z</time></trkpt><trkpt lat="42.0790633" lon="11.9906617"><ele>323.2</ele><time>2026-04-24T11:20:42.065Z</time></trkpt><trkpt lat="42.0790583" lon="11.9905333"><ele>322.8</ele><time>2026-04-24T11:20:44.065Z</time></trkpt><trkpt lat="42.07907" lon="11.99041"><ele>322.40000000000003</ele><time>2026-04-24T11:20:46.065Z</time></trkpt><trkpt lat="42.0791033" lon="11.990295"><ele>322.0</ele><time>2026-04-24T11:20:48.066Z</time></trkpt><trkpt lat="42.0791533" lon="11.9901667"><ele>322.0</ele><time>2026-04-24T11:20:50.064Z</time></trkpt><trkpt lat="42.0792033" lon="11.9900617"><ele>322.0</ele><time>2026-04-24T11:20:52.064Z</time></trkpt><trkpt lat="42.0792467" lon="11.98999"><ele>322.0</ele><time>2026-04-24T11:20:54.066Z</time></trkpt><trkpt lat="42.0793217" lon="11.9899933"><ele>322.0</ele><time>2026-04-24T11:20:57.064Z</time></trkpt><trkpt lat="42.0794033" lon="11.9900533"><ele>322.0</ele><time>2026-04-24T11:21:00.065Z</time></trkpt><trkpt lat="42.0794567" lon="11.9901633"><ele>322.0</ele><time>2026-04-24T11:22:42.064Z</time></trkpt><trkpt lat="42.07948" lon="11.9902667"><ele>322.0</ele><time>2026-04-24T11:22:44.066Z</time></trkpt><trkpt lat="42.07952" lon="11.9903917"><ele>322.0</ele><time>2026-04-24T11:22:46.064Z</time></trkpt><trkpt lat="42.0795567" lon="11.990505"><ele>322.0</ele><time>2026-04-24T11:22:48.065Z</time></trkpt><trkpt lat="42.0795883" lon="11.99061"><ele>322.0</ele><time>2026-04-24T11:22:50.063Z</time></trkpt><trkpt lat="42.07959" lon="11.9907133"><ele>322.0</ele><time>2026-04-24T11:22:52.063Z</time></trkpt><trkpt lat="42.0795833" lon="11.9908233"><ele>322.0</ele><time>2026-04-24T11:22:54.064Z</time></trkpt><trkpt lat="42.07958" lon="11.99093"><ele>324.5</ele><time>2026-04-24T11:22:56.064Z</time></trkpt><trkpt lat="42.0796083" lon="11.9910267"><ele>327.0</ele><time>2026-04-24T11:22:58.065Z</time></trkpt><trkpt lat="42.079635" lon="11.991125"><ele>329.5</ele><time>2026-04-24T11:23:00.063Z</time></trkpt><trkpt lat="42.0796533" lon="11.991245"><ele>332.0</ele><time>2026-04-24T11:23:02.065Z</time></trkpt><trkpt lat="42.0796933" lon="11.99134"><ele>334.5</ele><time>2026-04-24T11:23:04.065Z</time></trkpt><trkpt lat="42.0797333" lon="11.99141"><ele>337.0</ele><time>2026-04-24T11:23:06.067Z</time></trkpt><trkpt lat="42.079845" lon="11.99158"><ele>340.20000000000005</ele><time>2026-04-24T11:23:48.065Z</time></trkpt><trkpt lat="42.0798667" lon="11.9917417"><ele>343.4</ele><time>2026-04-24T11:24:08.065Z</time></trkpt><trkpt lat="42.079915" lon="11.9917983"><ele>346.6</ele><time>2026-04-24T11:24:11.063Z</time></trkpt><trkpt lat="42.079935" lon="11.9918833"><ele>349.79999999999995</ele><time>2026-04-24T11:25:06.066Z</time></trkpt><trkpt lat="42.079965" lon="11.9920117"><ele>353.0</ele><time>2026-04-24T11:25:08.063Z</time></trkpt><trkpt lat="42.0800267" lon="11.992125"><ele>356.79999999999995</ele><time>2026-04-24T11:25:10.065Z</time></trkpt><trkpt lat="42.0800733" lon="11.992245"><ele>360.6</ele><time>2026-04-24T11:25:12.064Z</time></trkpt><trkpt lat="42.080115" lon="11.9923483"><ele>364.4</ele><time>2026-04-24T11:25:14.065Z</time></trkpt><trkpt lat="42.0801667" lon="11.9924667"><ele>368.20000000000005</ele><time>2026-04-24T11:25:16.065Z</time></trkpt><trkpt lat="42.0802467" lon="11.992575"><ele>372.0</ele><time>2026-04-24T11:25:18.064Z</time></trkpt><trkpt lat="42.0803" lon="11.992655"><ele>374.8</ele><time>2026-04-24T11:25:20.066Z</time></trkpt><trkpt lat="42.0803333" lon="11.9927783"><ele>377.6</ele><time>2026-04-24T11:25:22.064Z</time></trkpt><trkpt lat="42.080375" lon="11.9929217"><ele>380.40000000000003</ele><time>2026-04-24T11:25:24.063Z</time></trkpt><trkpt lat="42.0804317" lon="11.9930167"><ele>383.20000000000005</ele><time>2026-04-24T11:25:26.066Z</time></trkpt><trkpt lat="42.0805017" lon="11.9931033"><ele>386.0</ele><time>2026-04-24T11:25:28.066Z</time></trkpt><trkpt lat="42.0805817" lon="11.9931717"><ele>385.99999999999994</ele><time>2026-04-24T11:25:30.064Z</time></trkpt><trkpt lat="42.0806317" lon="11.9932317"><ele>386.0</ele><time>2026-04-24T11:25:32.066Z</time></trkpt><trkpt lat="42.0806967" lon="11.993295"><ele>386.0</ele><time>2026-04-24T11:25:34.065Z</time></trkpt><trkpt lat="42.0807683" lon="11.9933733"><ele>386.0</ele><time>2026-04-24T11:25:36.064Z</time></trkpt><trkpt lat="42.08083" lon="11.99349"><ele>385.99999999999994</ele><time>2026-04-24T11:25:38.065Z</time></trkpt><trkpt lat="42.0808817" lon="11.993595"><ele>386.0</ele><time>2026-04-24T11:25:40.065Z</time></trkpt><trkpt lat="42.0809567" lon="11.993715"><ele>390.0</ele><time>2026-04-24T11:25:42.064Z</time></trkpt><trkpt lat="42.0810367" lon="11.9938317"><ele>394.0</ele><time>2026-04-24T11:25:44.066Z</time></trkpt><trkpt lat="42.0811133" lon="11.9939267"><ele>398.0</ele><time>2026-04-24T11:25:46.065Z</time></trkpt><trkpt lat="42.081175" lon="11.99398"><ele>402.0</ele><time>2026-04-24T11:25:48.065Z</time></trkpt><trkpt lat="42.08123" lon="11.9941117"><ele>406.0</ele><time>2026-04-24T11:25:58.064Z</time></trkpt><trkpt lat="42.0812783" lon="11.9942333"><ele>409.0</ele><time>2026-04-24T11:26:00.063Z</time></trkpt><trkpt lat="42.0813333" lon="11.9942783"><ele>412.0</ele><time>2026-04-24T11:26:01.066Z</time></trkpt><trkpt lat="42.0813867" lon="11.9943267"><ele>415.0</ele><time>2026-04-24T11:26:02.064Z</time></trkpt><trkpt lat="42.0814367" lon="11.9943867"><ele>418.0</ele><time>2026-04-24T11:26:03.063Z</time></trkpt><trkpt lat="42.0814767" lon="11.9944583"><ele>421.0</ele><time>2026-04-24T11:26:04.063Z</time></trkpt><trkpt lat="42.0815183" lon="11.9945433"><ele>424.0</ele><time>2026-04-24T11:26:05.065Z</time></trkpt><trkpt lat="42.0815667" lon="11.994635"><ele>427.0</ele><time>2026-04-24T11:26:06.065Z</time></trkpt><trkpt lat="42.0816167" lon="11.9947233"><ele>427.83333333333337</ele><time>2026-04-24T11:26:07.064Z</time></trkpt><trkpt lat="42.0816533" lon="11.9948"><ele>428.6666666666667</ele><time>2026-04-24T11:26:08.066Z</time></trkpt><trkpt lat="42.0817267" lon="11.9949117"><ele>429.5</ele><time>2026-04-24T11:26:10.064Z</time></trkpt><trkpt lat="42.081795" lon="11.9949333"><ele>430.33333333333337</ele><time>2026-04-24T11:26:22.065Z</time></trkpt><trkpt lat="42.081865" lon="11.99495"><ele>431.1666666666667</ele><time>2026-04-24T11:26:38.063Z</time></trkpt><trkpt lat="42.0819483" lon="11.9949933"><ele>432.0</ele><time>2026-04-24T11:26:40.063Z</time></trkpt><trkpt lat="42.082035" lon="11.9950567"><ele>435.5</ele><time>2026-04-24T11:26:42.063Z</time></trkpt><trkpt lat="42.0821217" lon="11.9951183"><ele>439.0</ele><time>2026-04-24T11:26:44.064Z</time></trkpt><trkpt lat="42.0822017" lon="11.9951783"><ele>442.5</ele><time>2026-04-24T11:26:46.065Z</time></trkpt><trkpt lat="42.0822367" lon="11.995275"><ele>446.0</ele><time>2026-04-24T11:26:48.063Z</time></trkpt><trkpt lat="42.082285" lon="11.995375"><ele>449.5</ele><time>2026-04-24T11:26:50.064Z</time></trkpt><trkpt lat="42.0823317" lon="11.99548"><ele>453.0</ele><time>2026-04-24T11:26:52.063Z</time></trkpt><trkpt lat="42.0823583" lon="11.9955783"><ele>453.0</ele><time>2026-04-24T11:26:54.062Z</time></trkpt><trkpt lat="42.0823467" lon="11.9956783"><ele>453.0</ele><time>2026-04-24T11:26:56.065Z</time></trkpt><trkpt lat="42.0823217" lon="11.9957783"><ele>453.0</ele><time>2026-04-24T11:26:58.064Z</time></trkpt><trkpt lat="42.0823033" lon="11.9958683"><ele>453.0</ele><time>2026-04-24T11:27:00.061Z</time></trkpt><trkpt lat="42.082295" lon="11.996"><ele>453.0</ele><time>2026-04-24T11:27:02.063Z</time></trkpt><trkpt lat="42.0823067" lon="11.99613"><ele>453.0</ele><time>2026-04-24T11:27:04.064Z</time></trkpt><trkpt lat="42.0823483" lon="11.9962583"><ele>455.6666666666667</ele><time>2026-04-24T11:27:06.062Z</time></trkpt><trkpt lat="42.08237" lon="11.9963483"><ele>458.33333333333337</ele><time>2026-04-24T11:27:07.062Z</time></trkpt><trkpt lat="42.0824017" lon="11.9964517"><ele>461.0</ele><time>2026-04-24T11:27:08.064Z</time></trkpt><trkpt lat="42.0824417" lon="11.9965517"><ele>463.6666666666667</ele><time>2026-04-24T11:27:09.064Z</time></trkpt><trkpt lat="42.0824817" lon="11.99664"><ele>466.33333333333337</ele><time>2026-04-24T11:27:10.064Z</time></trkpt><trkpt lat="42.08252" lon="11.996715"><ele>469.0</ele><time>2026-04-24T11:27:11.064Z</time></trkpt><trkpt lat="42.0825883" lon="11.9968433"><ele>472.4</ele><time>2026-04-24T11:27:13.064Z</time></trkpt><trkpt lat="42.0826517" lon="11.9969517"><ele>475.79999999999995</ele><time>2026-04-24T11:27:15.064Z</time></trkpt><trkpt lat="42.0827183" lon="11.9970633"><ele>479.20000000000005</ele><time>2026-04-24T11:27:17.064Z</time></trkpt><trkpt lat="42.0827717" lon="11.997205"><ele>482.6</ele><time>2026-04-24T11:27:19.067Z</time></trkpt><trkpt lat="42.08279" lon="11.997345"><ele>486.0</ele><time>2026-04-24T11:27:21.066Z</time></trkpt><trkpt lat="42.0828783" lon="11.9974567"><ele>486.0</ele><time>2026-04-24T11:33:22.063Z</time></trkpt><trkpt lat="42.0829533" lon="11.9974283"><ele>486.0</ele><time>2026-04-24T11:33:24.062Z</time></trkpt><trkpt lat="42.08305" lon="11.9973533"><ele>486.0</ele><time>2026-04-24T11:33:26.064Z</time></trkpt><trkpt lat="42.0831467" lon="11.9972583"><ele>486.0</ele><time>2026-04-24T11:33:28.064Z</time></trkpt><trkpt lat="42.0832017" lon="11.9972117"><ele>486.0</ele><time>2026-04-24T11:33:29.063Z</time></trkpt><trkpt lat="42.0833033" lon="11.9971383"><ele>486.0</ele><time>2026-04-24T11:33:31.063Z</time></trkpt><trkpt lat="42.0833883" lon="11.997085"><ele>486.0</ele><time>2026-04-24T11:33:33.062Z</time></trkpt><trkpt lat="42.08346" lon="11.9970283"><ele>486.0</ele><time>2026-04-24T11:33:35.063Z</time></trkpt><trkpt lat="42.0835217" lon="11.9969333"><ele>486.0</ele><time>2026-04-24T11:33:37.062Z</time></trkpt><trkpt lat="42.0835933" lon="11.9968317"><ele>486.0</ele><time>2026-04-24T11:33:39.066Z</time></trkpt><trkpt lat="42.083675" lon="11.9967567"><ele>486.0</ele><time>2026-04-24T11:33:41.062Z</time></trkpt><trkpt lat="42.0837683" lon="11.9966867"><ele>486.0</ele><time>2026-04-24T11:33:43.063Z</time></trkpt><trkpt lat="42.0838467" lon="11.996615"><ele>486.0</ele><time>2026-04-24T11:33:45.063Z</time></trkpt><trkpt lat="42.0838817" lon="11.9965217"><ele>486.0</ele><time>2026-04-24T11:33:48.064Z</time></trkpt><trkpt lat="42.083835" lon="11.9964483"><ele>486.0</ele><time>2026-04-24T11:33:50.066Z</time></trkpt><trkpt lat="42.083785" lon="11.9963817"><ele>486.0</ele><time>2026-04-24T11:33:52.065Z</time></trkpt><trkpt lat="42.0837433" lon="11.9962717"><ele>485.5</ele><time>2026-04-24T11:33:55.063Z</time></trkpt><trkpt lat="42.0837167" lon="11.9961867"><ele>485.0</ele><time>2026-04-24T11:33:58.062Z</time></trkpt><trkpt lat="42.0836583" lon="11.9961017"><ele>484.5</ele><time>2026-04-24T11:34:01.064Z</time></trkpt><trkpt lat="42.08366" lon="11.9960067"><ele>484.0</ele><time>2026-04-24T11:34:04.065Z</time></trkpt><trkpt lat="42.0836717" lon="11.9959167"><ele>483.5</ele><time>2026-04-24T11:34:17.064Z</time></trkpt><trkpt lat="42.08371" lon="11.9958117"><ele>483.0</ele><time>2026-04-24T11:34:19.064Z</time></trkpt><trkpt lat="42.0837683" lon="11.99568"><ele>481.5</ele><time>2026-04-24T11:34:21.063Z</time></trkpt><trkpt lat="42.0838" lon="11.995605"><ele>480.0</ele><time>2026-04-24T11:34:22.063Z</time></trkpt><trkpt lat="42.08383" lon="11.99553"><ele>478.5</ele><time>2026-04-24T11:34:23.063Z</time></trkpt><trkpt lat="42.08389" lon="11.9953833"><ele>477.0</ele><time>2026-04-24T11:34:25.063Z</time></trkpt><trkpt lat="42.0839317" lon="11.9953"><ele>475.5</ele><time>2026-04-24T11:34:26.063Z</time></trkpt><trkpt lat="42.084005" lon="11.9951733"><ele>474.0</ele><time>2026-04-24T11:34:28.063Z</time></trkpt><trkpt lat="42.0840767" lon="11.9950883"><ele>475.79999999999995</ele><time>2026-04-24T11:34:30.063Z</time></trkpt><trkpt lat="42.0841567" lon="11.99504"><ele>477.59999999999997</ele><time>2026-04-24T11:34:32.066Z</time></trkpt><trkpt lat="42.08424" lon="11.9949833"><ele>479.4</ele><time>2026-04-24T11:34:34.064Z</time></trkpt><trkpt lat="42.0843267" lon="11.9949217"><ele>481.2</ele><time>2026-04-24T11:34:36.065Z</time></trkpt><trkpt lat="42.0843933" lon="11.9948217"><ele>483.0</ele><time>2026-04-24T11:34:38.066Z</time></trkpt><trkpt lat="42.0844367" lon="11.9946833"><ele>483.0</ele><time>2026-04-24T11:34:40.064Z</time></trkpt><trkpt lat="42.0844683" lon="11.99453"><ele>482.99999999999994</ele><time>2026-04-24T11:34:42.065Z</time></trkpt><trkpt lat="42.0844967" lon="11.9943783"><ele>482.99999999999994</ele><time>2026-04-24T11:34:44.064Z</time></trkpt><trkpt lat="42.084515" lon="11.9942533"><ele>483.0</ele><time>2026-04-24T11:34:46.066Z</time></trkpt><trkpt lat="42.0845267" lon="11.99416"><ele>483.0</ele><time>2026-04-24T11:34:48.065Z</time></trkpt><trkpt lat="42.08455" lon="11.9940467"><ele>482.3333333333333</ele><time>2026-04-24T11:34:50.066Z</time></trkpt><trkpt lat="42.0845567" lon="11.9939217"><ele>481.66666666666663</ele><time>2026-04-24T11:34:52.063Z</time></trkpt><trkpt lat="42.0845433" lon="11.993785"><ele>481.0</ele><time>2026-04-24T11:34:54.063Z</time></trkpt><trkpt lat="42.08453" lon="11.9936483"><ele>480.3333333333333</ele><time>2026-04-24T11:34:56.064Z</time></trkpt><trkpt lat="42.084525" lon="11.9935583"><ele>479.66666666666663</ele><time>2026-04-24T11:34:57.063Z</time></trkpt><trkpt lat="42.0845167" lon="11.9934583"><ele>479.0</ele><time>2026-04-24T11:34:58.065Z</time></trkpt><trkpt lat="42.08451" lon="11.9933717"><ele>479.6</ele><time>2026-04-24T11:34:59.063Z</time></trkpt><trkpt lat="42.0845033" lon="11.9932367"><ele>480.2</ele><time>2026-04-24T11:35:01.062Z</time></trkpt><trkpt lat="42.0844983" lon="11.9931233"><ele>480.80000000000007</ele><time>2026-04-24T11:35:03.063Z</time></trkpt><trkpt lat="42.0844933" lon="11.9929867"><ele>481.40000000000003</ele><time>2026-04-24T11:35:05.065Z</time></trkpt><trkpt lat="42.084465" lon="11.992845"><ele>482.0</ele><time>2026-04-24T11:35:07.062Z</time></trkpt><trkpt lat="42.0844217" lon="11.9927083"><ele>482.0</ele><time>2026-04-24T11:35:09.094Z</time></trkpt><trkpt lat="42.0843483" lon="11.992605"><ele>482.00000000000006</ele><time>2026-04-24T11:35:11.063Z</time></trkpt><trkpt lat="42.0842533" lon="11.9925383"><ele>482.00000000000006</ele><time>2026-04-24T11:35:13.061Z</time></trkpt><trkpt lat="42.0841517" lon="11.99248"><ele>482.0</ele><time>2026-04-24T11:35:15.067Z</time></trkpt><trkpt lat="42.0840483" lon="11.9924317"><ele>482.0</ele><time>2026-04-24T11:35:17.063Z</time></trkpt><trkpt lat="42.0839717" lon="11.9923783"><ele>477.8</ele><time>2026-04-24T11:35:19.064Z</time></trkpt><trkpt lat="42.083945" lon="11.9922767"><ele>473.6</ele><time>2026-04-24T11:35:21.065Z</time></trkpt><trkpt lat="42.0839517" lon="11.9921483"><ele>469.40000000000003</ele><time>2026-04-24T11:35:23.062Z</time></trkpt><trkpt lat="42.083975" lon="11.9920317"><ele>465.20000000000005</ele><time>2026-04-24T11:35:25.064Z</time></trkpt><trkpt lat="42.0839983" lon="11.99193"><ele>461.0</ele><time>2026-04-24T11:35:27.064Z</time></trkpt><trkpt lat="42.08404" lon="11.99178"><ele>460.99999999999994</ele><time>2026-04-24T11:35:30.064Z</time></trkpt><trkpt lat="42.0840833" lon="11.991705"><ele>461.0</ele><time>2026-04-24T11:35:32.066Z</time></trkpt><trkpt lat="42.0841083" lon="11.9916217"><ele>461.0</ele><time>2026-04-24T11:35:34.062Z</time></trkpt><trkpt lat="42.0840833" lon="11.9915133"><ele>461.0</ele><time>2026-04-24T11:35:37.065Z</time></trkpt><trkpt lat="42.0840233" lon="11.9914517"><ele>460.99999999999994</ele><time>2026-04-24T11:35:40.065Z</time></trkpt><trkpt lat="42.083925" lon="11.991455"><ele>461.0</ele><time>2026-04-24T11:35:43.065Z</time></trkpt><trkpt lat="42.083845" lon="11.991455"><ele>461.16666666666663</ele><time>2026-04-24T11:35:45.063Z</time></trkpt><trkpt lat="42.083775" lon="11.9914317"><ele>461.3333333333333</ele><time>2026-04-24T11:35:47.064Z</time></trkpt><trkpt lat="42.083735" lon="11.9913183"><ele>461.5</ele><time>2026-04-24T11:35:50.066Z</time></trkpt><trkpt lat="42.0837467" lon="11.9912117"><ele>461.66666666666663</ele><time>2026-04-24T11:35:52.064Z</time></trkpt><trkpt lat="42.08377" lon="11.991095"><ele>461.8333333333333</ele><time>2026-04-24T11:35:54.063Z</time></trkpt><trkpt lat="42.0838017" lon="11.9909733"><ele>462.0</ele><time>2026-04-24T11:35:56.064Z</time></trkpt><trkpt lat="42.0838317" lon="11.990865"><ele>460.0</ele><time>2026-04-24T11:35:58.064Z</time></trkpt><trkpt lat="42.0838633" lon="11.9907517"><ele>458.0</ele><time>2026-04-24T11:36:00.063Z</time></trkpt><trkpt lat="42.083895" lon="11.9906433"><ele>456.0</ele><time>2026-04-24T11:36:02.066Z</time></trkpt><trkpt lat="42.083925" lon="11.9905433"><ele>454.0</ele><time>2026-04-24T11:36:04.063Z</time></trkpt><trkpt lat="42.0839583" lon="11.9904333"><ele>452.0</ele><time>2026-04-24T11:36:06.063Z</time></trkpt><trkpt lat="42.0839667" lon="11.9903367"><ele>450.0</ele><time>2026-04-24T11:36:08.065Z</time></trkpt><trkpt lat="42.0839617" lon="11.990235"><ele>450.0</ele><time>2026-04-24T11:36:10.063Z</time></trkpt><trkpt lat="42.08393" lon="11.9901517"><ele>450.0</ele><time>2026-04-24T11:36:12.065Z</time></trkpt><trkpt lat="42.0838717" lon="11.9900783"><ele>450.0</ele><time>2026-04-24T11:36:14.065Z</time></trkpt><trkpt lat="42.0838267" lon="11.98996"><ele>450.0</ele><time>2026-04-24T11:36:16.064Z</time></trkpt><trkpt lat="42.083805" lon="11.9898167"><ele>450.0</ele><time>2026-04-24T11:36:18.064Z</time></trkpt><trkpt lat="42.08381" lon="11.98965"><ele>447.0</ele><time>2026-04-24T11:36:20.066Z</time></trkpt><trkpt lat="42.0837983" lon="11.989515"><ele>444.0</ele><time>2026-04-24T11:36:22.063Z</time></trkpt><trkpt lat="42.08378" lon="11.98938"><ele>441.0</ele><time>2026-04-24T11:36:24.063Z</time></trkpt><trkpt lat="42.0837583" lon="11.9892267"><ele>438.0</ele><time>2026-04-24T11:36:26.065Z</time></trkpt><trkpt lat="42.0837433" lon="11.9891367"><ele>435.0</ele><time>2026-04-24T11:36:27.065Z</time></trkpt><trkpt lat="42.0837217" lon="11.9889833"><ele>433.6</ele><time>2026-04-24T11:36:29.063Z</time></trkpt><trkpt lat="42.0836917" lon="11.9888583"><ele>432.2</ele><time>2026-04-24T11:36:31.064Z</time></trkpt><trkpt lat="42.083655" lon="11.9887417"><ele>430.79999999999995</ele><time>2026-04-24T11:36:33.064Z</time></trkpt><trkpt lat="42.0836017" lon="11.9886117"><ele>429.4</ele><time>2026-04-24T11:36:35.064Z</time></trkpt><trkpt lat="42.0835433" lon="11.9884867"><ele>428.0</ele><time>2026-04-24T11:36:37.066Z</time></trkpt><trkpt lat="42.0834933" lon="11.9883633"><ele>427.0</ele><time>2026-04-24T11:36:39.064Z</time></trkpt><trkpt lat="42.0834517" lon="11.9882483"><ele>425.99999999999994</ele><time>2026-04-24T11:36:41.065Z</time></trkpt><trkpt lat="42.083415" lon="11.9881383"><ele>425.0</ele><time>2026-04-24T11:36:43.063Z</time></trkpt><trkpt lat="42.0833767" lon="11.9880367"><ele>424.0</ele><time>2026-04-24T11:36:45.064Z</time></trkpt><trkpt lat="42.0833167" lon="11.9879417"><ele>423.0</ele><time>2026-04-24T11:36:47.065Z</time></trkpt><trkpt lat="42.08324" lon="11.98784"><ele>420.6666666666667</ele><time>2026-04-24T11:36:49.063Z</time></trkpt><trkpt lat="42.0831683" lon="11.9877767"><ele>418.33333333333337</ele><time>2026-04-24T11:36:51.064Z</time></trkpt><trkpt lat="42.0830967" lon="11.9877417"><ele>416.0</ele><time>2026-04-24T11:36:53.063Z</time></trkpt><trkpt lat="42.083035" lon="11.9877083"><ele>413.6666666666667</ele><time>2026-04-24T11:36:55.065Z</time></trkpt><trkpt lat="42.0829567" lon="11.9876783"><ele>411.33333333333337</ele><time>2026-04-24T11:36:59.065Z</time></trkpt><trkpt lat="42.0828983" lon="11.987615"><ele>409.0</ele><time>2026-04-24T11:37:15.063Z</time></trkpt><trkpt lat="42.0828967" lon="11.987475"><ele>409.00000000000006</ele><time>2026-04-24T11:37:18.066Z</time></trkpt><trkpt lat="42.0829067" lon="11.9873667"><ele>409.0</ele><time>2026-04-24T11:37:20.066Z</time></trkpt><trkpt lat="42.0828633" lon="11.98726"><ele>409.0</ele><time>2026-04-24T11:37:23.064Z</time></trkpt><trkpt lat="42.082775" lon="11.987205"><ele>409.0</ele><time>2026-04-24T11:37:25.062Z</time></trkpt><trkpt lat="42.0826883" lon="11.9871633"><ele>409.00000000000006</ele><time>2026-04-24T11:37:27.065Z</time></trkpt><trkpt lat="42.0826067" lon="11.9871183"><ele>409.0</ele><time>2026-04-24T11:37:29.065Z</time></trkpt><trkpt lat="42.0825383" lon="11.9870767"><ele>409.00000000000006</ele><time>2026-04-24T11:37:31.062Z</time></trkpt><trkpt lat="42.0824733" lon="11.9870333"><ele>409.0</ele><time>2026-04-24T11:37:33.064Z</time></trkpt><trkpt lat="42.0824267" lon="11.98696"><ele>409.0</ele><time>2026-04-24T11:37:35.064Z</time></trkpt><trkpt lat="42.082405" lon="11.9868683"><ele>409.0</ele><time>2026-04-24T11:37:38.066Z</time></trkpt><trkpt lat="42.082415" lon="11.9867317"><ele>409.00000000000006</ele><time>2026-04-24T11:37:41.067Z</time></trkpt><trkpt lat="42.082415" lon="11.9865883"><ele>409.0</ele><time>2026-04-24T11:37:43.066Z</time></trkpt><trkpt lat="42.08243" lon="11.9864517"><ele>408.6</ele><time>2026-04-24T11:37:45.064Z</time></trkpt><trkpt lat="42.0824433" lon="11.98629"><ele>408.2</ele><time>2026-04-24T11:37:47.065Z</time></trkpt><trkpt lat="42.0824533" lon="11.9862017"><ele>407.8</ele><time>2026-04-24T11:37:48.063Z</time></trkpt><trkpt lat="42.08248" lon="11.9860817"><ele>407.40000000000003</ele><time>2026-04-24T11:37:50.062Z</time></trkpt><trkpt lat="42.0825167" lon="11.985965"><ele>407.0</ele><time>2026-04-24T11:37:52.066Z</time></trkpt><trkpt lat="42.0825717" lon="11.985835"><ele>406.20000000000005</ele><time>2026-04-24T11:37:54.064Z</time></trkpt><trkpt lat="42.082635" lon="11.9857317"><ele>405.4</ele><time>2026-04-24T11:37:56.066Z</time></trkpt><trkpt lat="42.08271" lon="11.9856317"><ele>404.6</ele><time>2026-04-24T11:37:58.064Z</time></trkpt><trkpt lat="42.082775" lon="11.98553"><ele>403.79999999999995</ele><time>2026-04-24T11:38:00.064Z</time></trkpt><trkpt lat="42.0828183" lon="11.9854217"><ele>403.0</ele><time>2026-04-24T11:38:02.063Z</time></trkpt><trkpt lat="42.0828417" lon="11.9853317"><ele>403.0</ele><time>2026-04-24T11:38:04.065Z</time></trkpt><trkpt lat="42.0828717" lon="11.98523"><ele>403.0</ele><time>2026-04-24T11:38:07.064Z</time></trkpt><trkpt lat="42.0829667" lon="11.9851817"><ele>403.0</ele><time>2026-04-24T11:38:15.065Z</time></trkpt><trkpt lat="42.0830317" lon="11.985165"><ele>403.0</ele><time>2026-04-24T11:38:17.064Z</time></trkpt><trkpt lat="42.0831133" lon="11.9851583"><ele>403.0</ele><time>2026-04-24T11:38:19.066Z</time></trkpt><trkpt lat="42.083235" lon="11.9851467"><ele>403.00000000000006</ele><time>2026-04-24T11:38:22.065Z</time></trkpt><trkpt lat="42.083305" lon="11.98509"><ele>403.0</ele><time>2026-04-24T11:38:24.065Z</time></trkpt><trkpt lat="42.0833683" lon="11.9849867"><ele>403.0</ele><time>2026-04-24T11:38:27.066Z</time></trkpt><trkpt lat="42.0834017" lon="11.9848683"><ele>403.0</ele><time>2026-04-24T11:38:30.064Z</time></trkpt><trkpt lat="42.0834167" lon="11.984785"><ele>403.00000000000006</ele><time>2026-04-24T11:38:32.064Z</time></trkpt><trkpt lat="42.083425" lon="11.9846933"><ele>403.0</ele><time>2026-04-24T11:38:34.064Z</time></trkpt><trkpt lat="42.083435" lon="11.9846"><ele>402.0</ele><time>2026-04-24T11:38:36.064Z</time></trkpt><trkpt lat="42.0834717" lon="11.9845283"><ele>401.0</ele><time>2026-04-24T11:38:38.065Z</time></trkpt><trkpt lat="42.08352" lon="11.9844717"><ele>400.0</ele><time>2026-04-24T11:38:40.064Z</time></trkpt><trkpt lat="42.0835567" lon="11.9843683"><ele>399.0</ele><time>2026-04-24T11:38:42.064Z</time></trkpt><trkpt lat="42.0835967" lon="11.9842683"><ele>398.0</ele><time>2026-04-24T11:38:44.065Z</time></trkpt><trkpt lat="42.0836333" lon="11.9841867"><ele>397.0</ele><time>2026-04-24T11:38:46.061Z</time></trkpt><trkpt lat="42.0836683" lon="11.984105"><ele>396.0</ele><time>2026-04-24T11:38:49.066Z</time></trkpt><trkpt lat="42.0836867" lon="11.9840017"><ele>393.1666666666667</ele><time>2026-04-24T11:38:52.063Z</time></trkpt><trkpt lat="42.0836967" lon="11.98391"><ele>390.3333333333333</ele><time>2026-04-24T11:38:54.063Z</time></trkpt><trkpt lat="42.0837367" lon="11.98382"><ele>387.5</ele><time>2026-04-24T11:38:56.063Z</time></trkpt><trkpt lat="42.0837917" lon="11.9837367"><ele>384.66666666666663</ele><time>2026-04-24T11:38:58.064Z</time></trkpt><trkpt lat="42.083845" lon="11.98368"><ele>381.8333333333333</ele><time>2026-04-24T11:39:00.064Z</time></trkpt><trkpt lat="42.0839267" lon="11.9836183"><ele>379.0</ele><time>2026-04-24T11:39:03.063Z</time></trkpt><trkpt lat="42.0839783" lon="11.98355"><ele>379.0</ele><time>2026-04-24T11:39:05.064Z</time></trkpt><trkpt lat="42.084005" lon="11.9834283"><ele>379.0</ele><time>2026-04-24T11:39:08.066Z</time></trkpt><trkpt lat="42.0840183" lon="11.9832867"><ele>379.0</ele><time>2026-04-24T11:39:10.064Z</time></trkpt><trkpt lat="42.084045" lon="11.9831183"><ele>379.0</ele><time>2026-04-24T11:39:12.063Z</time></trkpt><trkpt lat="42.0840967" lon="11.9829767"><ele>379.0</ele><time>2026-04-24T11:39:14.063Z</time></trkpt><trkpt lat="42.0841617" lon="11.9828533"><ele>376.5</ele><time>2026-04-24T11:39:16.063Z</time></trkpt><trkpt lat="42.0842367" lon="11.982755"><ele>374.0</ele><time>2026-04-24T11:39:18.065Z</time></trkpt><trkpt lat="42.08432" lon="11.9827117"><ele>371.5</ele><time>2026-04-24T11:39:20.067Z</time></trkpt><trkpt lat="42.0844" lon="11.9826667"><ele>369.0</ele><time>2026-04-24T11:39:22.064Z</time></trkpt><trkpt lat="42.084485" lon="11.982625"><ele>366.5</ele><time>2026-04-24T11:39:25.067Z</time></trkpt><trkpt lat="42.0845583" lon="11.9826433"><ele>364.0</ele><time>2026-04-24T11:39:27.065Z</time></trkpt><trkpt lat="42.0846367" lon="11.982695"><ele>364.0</ele><time>2026-04-24T11:39:29.063Z</time></trkpt><trkpt lat="42.0847167" lon="11.982755"><ele>364.0</ele><time>2026-04-24T11:39:31.062Z</time></trkpt><trkpt lat="42.0847867" lon="11.9828167"><ele>364.0</ele><time>2026-04-24T11:39:33.063Z</time></trkpt><trkpt lat="42.0848567" lon="11.9828667"><ele>364.0</ele><time>2026-04-24T11:39:35.063Z</time></trkpt><trkpt lat="42.084935" lon="11.9829167"><ele>364.0</ele><time>2026-04-24T11:39:38.065Z</time></trkpt><trkpt lat="42.085" lon="11.9829483"><ele>364.0</ele><time>2026-04-24T11:39:40.063Z</time></trkpt><trkpt lat="42.08507" lon="11.983"><ele>361.0</ele><time>2026-04-24T11:39:42.062Z</time></trkpt><trkpt lat="42.085135" lon="11.983085"><ele>358.0</ele><time>2026-04-24T11:39:44.064Z</time></trkpt><trkpt lat="42.08519" lon="11.9831717"><ele>355.0</ele><time>2026-04-24T11:39:46.065Z</time></trkpt><trkpt lat="42.08525" lon="11.9832317"><ele>352.0</ele><time>2026-04-24T11:39:48.064Z</time></trkpt><trkpt lat="42.0853117" lon="11.98325"><ele>349.0</ele><time>2026-04-24T11:39:50.065Z</time></trkpt><trkpt lat="42.0855167" lon="11.9832467"><ele>349.0</ele><time>2026-04-24T11:39:54.065Z</time></trkpt><trkpt lat="42.0857117" lon="11.9832833"><ele>349.0</ele><time>2026-04-24T11:39:58.066Z</time></trkpt><trkpt lat="42.0858017" lon="11.9832967"><ele>349.0</ele><time>2026-04-24T11:40:00.064Z</time></trkpt><trkpt lat="42.0858883" lon="11.98331"><ele>349.0</ele><time>2026-04-24T11:40:02.064Z</time></trkpt><trkpt lat="42.0859767" lon="11.9833333"><ele>346.3333333333333</ele><time>2026-04-24T11:40:04.065Z</time></trkpt><trkpt lat="42.08608" lon="11.9833833"><ele>343.66666666666663</ele><time>2026-04-24T11:40:06.064Z</time></trkpt><trkpt lat="42.0861333" lon="11.9834317"><ele>341.0</ele><time>2026-04-24T11:40:07.065Z</time></trkpt><trkpt lat="42.086185" lon="11.9834967"><ele>338.3333333333333</ele><time>2026-04-24T11:40:08.065Z</time></trkpt><trkpt lat="42.0862267" lon="11.9835817"><ele>335.6666666666667</ele><time>2026-04-24T11:40:09.064Z</time></trkpt><trkpt lat="42.0862583" lon="11.9836633"><ele>333.0</ele><time>2026-04-24T11:40:10.064Z</time></trkpt><trkpt lat="42.0862933" lon="11.98375"><ele>333.0</ele><time>2026-04-24T11:40:11.064Z</time></trkpt><trkpt lat="42.0863267" lon="11.9838433"><ele>333.0</ele><time>2026-04-24T11:40:12.065Z</time></trkpt><trkpt lat="42.08636" lon="11.9839533"><ele>333.0</ele><time>2026-04-24T11:40:13.063Z</time></trkpt><trkpt lat="42.08639" lon="11.9840683"><ele>333.0</ele><time>2026-04-24T11:40:14.065Z</time></trkpt><trkpt lat="42.0864233" lon="11.984165"><ele>333.0</ele><time>2026-04-24T11:40:15.065Z</time></trkpt><trkpt lat="42.086485" lon="11.9843"><ele>335.4</ele><time>2026-04-24T11:40:17.063Z</time></trkpt><trkpt lat="42.0865267" lon="11.9843667"><ele>337.79999999999995</ele><time>2026-04-24T11:40:18.063Z</time></trkpt><trkpt lat="42.0866317" lon="11.984445"><ele>340.2</ele><time>2026-04-24T11:40:20.066Z</time></trkpt><trkpt lat="42.0867267" lon="11.98452"><ele>342.6</ele><time>2026-04-24T11:40:22.065Z</time></trkpt><trkpt lat="42.0868183" lon="11.9846067"><ele>345.0</ele><time>2026-04-24T11:40:24.064Z</time></trkpt><trkpt lat="42.08686" lon="11.98468"><ele>341.6666666666667</ele><time>2026-04-24T11:40:25.067Z</time></trkpt><trkpt lat="42.0869217" lon="11.9847983"><ele>338.3333333333333</ele><time>2026-04-24T11:40:27.064Z</time></trkpt><trkpt lat="42.0869783" lon="11.9848833"><ele>335.0</ele><time>2026-04-24T11:40:29.067Z</time></trkpt><trkpt lat="42.0870467" lon="11.9849167"><ele>331.66666666666663</ele><time>2026-04-24T11:40:31.064Z</time></trkpt><trkpt lat="42.08711" lon="11.98495"><ele>328.3333333333333</ele><time>2026-04-24T11:40:33.062Z</time></trkpt><trkpt lat="42.0871683" lon="11.985005"><ele>325.0</ele><time>2026-04-24T11:40:35.064Z</time></trkpt><trkpt lat="42.0872183" lon="11.9850583"><ele>325.0</ele><time>2026-04-24T11:40:37.064Z</time></trkpt><trkpt lat="42.0873" lon="11.9851783"><ele>325.0</ele><time>2026-04-24T11:41:29.065Z</time></trkpt><trkpt lat="42.0873717" lon="11.9852"><ele>325.0</ele><time>2026-04-24T11:41:31.065Z</time></trkpt><trkpt lat="42.0874633" lon="11.98522"><ele>325.0</ele><time>2026-04-24T11:41:33.063Z</time></trkpt><trkpt lat="42.0875967" lon="11.9852183"><ele>325.0</ele><time>2026-04-24T11:41:35.067Z</time></trkpt><trkpt lat="42.0876717" lon="11.9852017"><ele>323.8333333333333</ele><time>2026-04-24T11:41:36.066Z</time></trkpt><trkpt lat="42.087745" lon="11.985185"><ele>322.66666666666663</ele><time>2026-04-24T11:41:37.064Z</time></trkpt><trkpt lat="42.0878183" lon="11.985175"><ele>321.5</ele><time>2026-04-24T11:41:38.062Z</time></trkpt><trkpt lat="42.087895" lon="11.985195"><ele>320.3333333333333</ele><time>2026-04-24T11:43:09.063Z</time></trkpt><trkpt lat="42.0879433" lon="11.9850733"><ele>319.1666666666667</ele><time>2026-04-24T11:43:12.064Z</time></trkpt><trkpt lat="42.08799" lon="11.9849583"><ele>318.0</ele><time>2026-04-24T11:43:14.066Z</time></trkpt><trkpt lat="42.08801" lon="11.98485"><ele>314.5</ele><time>2026-04-24T11:43:16.063Z</time></trkpt><trkpt lat="42.0880067" lon="11.9847533"><ele>311.0</ele><time>2026-04-24T11:43:18.063Z</time></trkpt><trkpt lat="42.088035" lon="11.98466"><ele>307.5</ele><time>2026-04-24T11:43:20.063Z</time></trkpt><trkpt lat="42.08805" lon="11.9845567"><ele>304.0</ele><time>2026-04-24T11:43:22.065Z</time></trkpt><trkpt lat="42.088035" lon="11.984445"><ele>300.5</ele><time>2026-04-24T11:43:25.065Z</time></trkpt><trkpt lat="42.0880783" lon="11.9843717"><ele>297.0</ele><time>2026-04-24T11:43:28.063Z</time></trkpt><trkpt lat="42.08813" lon="11.9842683"><ele>297.0</ele><time>2026-04-24T11:43:31.065Z</time></trkpt><trkpt lat="42.0881817" lon="11.9841967"><ele>297.0</ele><time>2026-04-24T11:43:33.063Z</time></trkpt><trkpt lat="42.0882417" lon="11.9841483"><ele>297.0</ele><time>2026-04-24T11:43:35.063Z</time></trkpt><trkpt lat="42.0883117" lon="11.984125"><ele>297.0</ele><time>2026-04-24T11:43:37.064Z</time></trkpt><trkpt lat="42.0883833" lon="11.9841233"><ele>297.0</ele><time>2026-04-24T11:43:39.063Z</time></trkpt><trkpt lat="42.0884583" lon="11.9840983"><ele>297.0</ele><time>2026-04-24T11:43:41.063Z</time></trkpt><trkpt lat="42.0885233" lon="11.9840683"><ele>297.0</ele><time>2026-04-24T11:43:43.065Z</time></trkpt><trkpt lat="42.0885917" lon="11.9840117"><ele>293.3333333333333</ele><time>2026-04-24T11:43:46.063Z</time></trkpt><trkpt lat="42.0886667" lon="11.98402"><ele>289.6666666666667</ele><time>2026-04-24T11:43:50.063Z</time></trkpt><trkpt lat="42.0887417" lon="11.98399"><ele>286.0</ele><time>2026-04-24T11:43:53.065Z</time></trkpt><trkpt lat="42.08881" lon="11.9839517"><ele>282.33333333333337</ele><time>2026-04-24T11:43:55.063Z</time></trkpt><trkpt lat="42.0889017" lon="11.9839083"><ele>278.6666666666667</ele><time>2026-04-24T11:43:57.065Z</time></trkpt><trkpt lat="42.0889867" lon="11.983825"><ele>275.0</ele><time>2026-04-24T11:43:59.063Z</time></trkpt><trkpt lat="42.0890617" lon="11.9836967"><ele>275.2</ele><time>2026-04-24T11:44:01.064Z</time></trkpt><trkpt lat="42.08914" lon="11.9836067"><ele>275.4</ele><time>2026-04-24T11:44:03.065Z</time></trkpt><trkpt lat="42.0892267" lon="11.98356"><ele>275.6</ele><time>2026-04-24T11:44:05.064Z</time></trkpt><trkpt lat="42.0893267" lon="11.9835267"><ele>275.8</ele><time>2026-04-24T11:44:07.066Z</time></trkpt><trkpt lat="42.0894183" lon="11.983475"><ele>276.0</ele><time>2026-04-24T11:44:09.062Z</time></trkpt><trkpt lat="42.0895233" lon="11.9834167"><ele>276.0</ele><time>2026-04-24T11:44:11.063Z</time></trkpt><trkpt lat="42.089605" lon="11.9833717"><ele>276.0</ele><time>2026-04-24T11:44:13.066Z</time></trkpt><trkpt lat="42.0896667" lon="11.98333"><ele>276.0</ele><time>2026-04-24T11:44:15.062Z</time></trkpt><trkpt lat="42.0897433" lon="11.9832667"><ele>276.0</ele><time>2026-04-24T11:44:17.062Z</time></trkpt><trkpt lat="42.0898333" lon="11.9832083"><ele>276.0</ele><time>2026-04-24T11:44:19.064Z</time></trkpt><trkpt lat="42.0899333" lon="11.9831967"><ele>276.0</ele><time>2026-04-24T11:44:21.063Z</time></trkpt><trkpt lat="42.0900217" lon="11.983245"><ele>275.3333333333333</ele><time>2026-04-24T11:44:23.065Z</time></trkpt><trkpt lat="42.09009" lon="11.9833067"><ele>274.6666666666667</ele><time>2026-04-24T11:44:25.062Z</time></trkpt><trkpt lat="42.0901683" lon="11.9833283"><ele>274.0</ele><time>2026-04-24T11:44:27.064Z</time></trkpt><trkpt lat="42.090255" lon="11.983315"><ele>273.33333333333337</ele><time>2026-04-24T11:44:29.063Z</time></trkpt><trkpt lat="42.090275" lon="11.9833983"><ele>272.6666666666667</ele><time>2026-04-24T11:45:03.063Z</time></trkpt><trkpt lat="42.0902067" lon="11.98337"><ele>272.0</ele><time>2026-04-24T11:45:05.063Z</time></trkpt><trkpt lat="42.090115" lon="11.983315"><ele>272.0</ele><time>2026-04-24T11:45:07.063Z</time></trkpt><trkpt lat="42.09002" lon="11.9832467"><ele>272.0</ele><time>2026-04-24T11:45:09.064Z</time></trkpt><trkpt lat="42.0899367" lon="11.9832083"><ele>272.0</ele><time>2026-04-24T11:45:11.064Z</time></trkpt><trkpt lat="42.0898617" lon="11.9832083"><ele>272.0</ele><time>2026-04-24T11:45:13.064Z</time></trkpt><trkpt lat="42.0897833" lon="11.9832567"><ele>272.0</ele><time>2026-04-24T11:45:16.064Z</time></trkpt><trkpt lat="42.0897083" lon="11.9833133"><ele>272.0</ele><time>2026-04-24T11:45:19.063Z</time></trkpt><trkpt lat="42.0896517" lon="11.983355"><ele>272.8</ele><time>2026-04-24T11:45:21.065Z</time></trkpt><trkpt lat="42.08958" lon="11.9834083"><ele>273.6</ele><time>2026-04-24T11:45:23.064Z</time></trkpt><trkpt lat="42.0894983" lon="11.9834533"><ele>274.40000000000003</ele><time>2026-04-24T11:45:25.062Z</time></trkpt><trkpt lat="42.0894117" lon="11.9835"><ele>275.2</ele><time>2026-04-24T11:45:27.064Z</time></trkpt><trkpt lat="42.0893233" lon="11.9835417"><ele>276.0</ele><time>2026-04-24T11:45:29.068Z</time></trkpt><trkpt lat="42.089225" lon="11.9835783"><ele>276.0</ele><time>2026-04-24T11:45:31.065Z</time></trkpt><trkpt lat="42.0891317" lon="11.98365"><ele>276.0</ele><time>2026-04-24T11:45:33.066Z</time></trkpt><trkpt lat="42.0890517" lon="11.9837667"><ele>276.0</ele><time>2026-04-24T11:45:35.067Z</time></trkpt><trkpt lat="42.08898" lon="11.9838733"><ele>276.0</ele><time>2026-04-24T11:45:37.063Z</time></trkpt><trkpt lat="42.08891" lon="11.9839067"><ele>276.0</ele><time>2026-04-24T11:45:39.063Z</time></trkpt><trkpt lat="42.0888483" lon="11.983885"><ele>275.8333333333333</ele><time>2026-04-24T11:45:41.064Z</time></trkpt><trkpt lat="42.0887767" lon="11.9838233"><ele>275.6666666666667</ele><time>2026-04-24T11:45:44.064Z</time></trkpt><trkpt lat="42.088705" lon="11.9837933"><ele>275.5</ele><time>2026-04-24T11:45:46.065Z</time></trkpt><trkpt lat="42.0886167" lon="11.9837683"><ele>275.33333333333337</ele><time>2026-04-24T11:45:48.062Z</time></trkpt><trkpt lat="42.0885417" lon="11.9837733"><ele>275.1666666666667</ele><time>2026-04-24T11:45:50.062Z</time></trkpt><trkpt lat="42.088465" lon="11.9838333"><ele>275.0</ele><time>2026-04-24T11:45:52.062Z</time></trkpt><trkpt lat="42.0883817" lon="11.983855"><ele>275.0</ele><time>2026-04-24T11:45:54.063Z</time></trkpt><trkpt lat="42.0882767" lon="11.9838317"><ele>275.0</ele><time>2026-04-24T11:45:56.063Z</time></trkpt><trkpt lat="42.0882" lon="11.9837933"><ele>275.0</ele><time>2026-04-24T11:45:58.064Z</time></trkpt><trkpt lat="42.0881467" lon="11.9837417"><ele>275.0</ele><time>2026-04-24T11:46:00.065Z</time></trkpt><trkpt lat="42.0881517" lon="11.98355"><ele>275.0</ele><time>2026-04-24T11:46:23.063Z</time></trkpt><trkpt lat="42.088155" lon="11.983465"><ele>276.6666666666667</ele><time>2026-04-24T11:46:25.063Z</time></trkpt><trkpt lat="42.0881283" lon="11.9833617"><ele>278.33333333333337</ele><time>2026-04-24T11:46:28.065Z</time></trkpt><trkpt lat="42.08807" lon="11.9832667"><ele>280.0</ele><time>2026-04-24T11:46:31.063Z</time></trkpt><trkpt lat="42.0880583" lon="11.9831767"><ele>281.6666666666667</ele><time>2026-04-24T11:46:33.064Z</time></trkpt><trkpt lat="42.088045" lon="11.9830767"><ele>283.3333333333333</ele><time>2026-04-24T11:46:35.064Z</time></trkpt><trkpt lat="42.0880617" lon="11.9829783"><ele>285.0</ele><time>2026-04-24T11:46:38.063Z</time></trkpt><trkpt lat="42.0880933" lon="11.9828767"><ele>285.0</ele><time>2026-04-24T11:46:46.063Z</time></trkpt><trkpt lat="42.088155" lon="11.98279"><ele>285.0</ele><time>2026-04-24T11:46:49.065Z</time></trkpt><trkpt lat="42.0882133" lon="11.9826933"><ele>285.0</ele><time>2026-04-24T11:47:02.065Z</time></trkpt><trkpt lat="42.0882417" lon="11.9826133"><ele>285.0</ele><time>2026-04-24T11:47:05.064Z</time></trkpt><trkpt lat="42.0883033" lon="11.982525"><ele>285.0</ele><time>2026-04-24T11:47:13.063Z</time></trkpt><trkpt lat="42.0884433" lon="11.982455"><ele>281.6</ele><time>2026-04-24T11:47:38.062Z</time></trkpt><trkpt lat="42.0885117" lon="11.9822783"><ele>278.2</ele><time>2026-04-24T11:48:01.064Z</time></trkpt><trkpt lat="42.0885433" lon="11.9821517"><ele>274.8</ele><time>2026-04-24T11:48:04.063Z</time></trkpt><trkpt lat="42.088575" lon="11.98206"><ele>271.4</ele><time>2026-04-24T11:48:06.065Z</time></trkpt><trkpt lat="42.0886183" lon="11.98199"><ele>268.0</ele><time>2026-04-24T11:48:08.064Z</time></trkpt><trkpt lat="42.088665" lon="11.98192"><ele>268.0</ele><time>2026-04-24T11:48:10.064Z</time></trkpt><trkpt lat="42.0886867" lon="11.9818383"><ele>268.0</ele><time>2026-04-24T11:48:12.066Z</time></trkpt><trkpt lat="42.088715" lon="11.9817533"><ele>268.0</ele><time>2026-04-24T11:48:14.064Z</time></trkpt><trkpt lat="42.088755" lon="11.98167"><ele>268.0</ele><time>2026-04-24T11:48:16.065Z</time></trkpt><trkpt lat="42.0887667" lon="11.981565"><ele>268.0</ele><time>2026-04-24T11:48:19.064Z</time></trkpt><trkpt lat="42.0887633" lon="11.981465"><ele>268.0</ele><time>2026-04-24T11:48:21.062Z</time></trkpt><trkpt lat="42.0887617" lon="11.9813633"><ele>268.0</ele><time>2026-04-24T11:48:23.066Z</time></trkpt><trkpt lat="42.088785" lon="11.9812817"><ele>266.8</ele><time>2026-04-24T11:48:25.065Z</time></trkpt><trkpt lat="42.08881" lon="11.9812"><ele>265.6</ele><time>2026-04-24T11:48:27.063Z</time></trkpt><trkpt lat="42.0888167" lon="11.9810517"><ele>264.4</ele><time>2026-04-24T11:48:29.062Z</time></trkpt><trkpt lat="42.0888033" lon="11.980895"><ele>263.2</ele><time>2026-04-24T11:48:31.063Z</time></trkpt><trkpt lat="42.0888017" lon="11.9807783"><ele>262.0</ele><time>2026-04-24T11:48:33.064Z</time></trkpt><trkpt lat="42.08882" lon="11.9806783"><ele>260.3333333333333</ele><time>2026-04-24T11:48:35.063Z</time></trkpt><trkpt lat="42.088845" lon="11.9806"><ele>258.66666666666663</ele><time>2026-04-24T11:48:37.065Z</time></trkpt><trkpt lat="42.0888483" lon="11.9805"><ele>257.0</ele><time>2026-04-24T11:48:40.062Z</time></trkpt><trkpt lat="42.088895" lon="11.98039"><ele>255.33333333333331</ele><time>2026-04-24T11:49:19.063Z</time></trkpt><trkpt lat="42.0889367" lon="11.9802733"><ele>253.66666666666666</ele><time>2026-04-24T11:49:21.064Z</time></trkpt><trkpt lat="42.0889667" lon="11.9801567"><ele>252.0</ele><time>2026-04-24T11:49:23.063Z</time></trkpt><trkpt lat="42.0889833" lon="11.9799817"><ele>251.16666666666666</ele><time>2026-04-24T11:49:25.064Z</time></trkpt><trkpt lat="42.0890017" lon="11.979865"><ele>250.33333333333331</ele><time>2026-04-24T11:49:26.063Z</time></trkpt><trkpt lat="42.08902" lon="11.9797433"><ele>249.5</ele><time>2026-04-24T11:49:27.064Z</time></trkpt><trkpt lat="42.089035" lon="11.979635"><ele>248.66666666666666</ele><time>2026-04-24T11:49:28.064Z</time></trkpt><trkpt lat="42.0890483" lon="11.9795433"><ele>247.83333333333331</ele><time>2026-04-24T11:49:29.064Z</time></trkpt><trkpt lat="42.0890583" lon="11.97943"><ele>247.0</ele><time>2026-04-24T11:49:31.063Z</time></trkpt><trkpt lat="42.0890867" lon="11.9793483"><ele>247.0</ele><time>2026-04-24T11:49:37.063Z</time></trkpt><trkpt lat="42.0890833" lon="11.979235"><ele>247.0</ele><time>2026-04-24T11:49:40.062Z</time></trkpt><trkpt lat="42.089065" lon="11.9791533"><ele>247.0</ele><time>2026-04-24T11:49:42.064Z</time></trkpt><trkpt lat="42.0890217" lon="11.9790833"><ele>247.0</ele><time>2026-04-24T11:49:44.063Z</time></trkpt><trkpt lat="42.0890117" lon="11.97897"><ele>247.0</ele><time>2026-04-24T11:49:47.061Z</time></trkpt><trkpt lat="42.0890117" lon="11.9788733"><ele>247.0</ele><time>2026-04-24T11:49:52.063Z</time></trkpt><trkpt lat="42.0890117" lon="11.97878"><ele>247.0</ele><time>2026-04-24T11:49:55.063Z</time></trkpt><trkpt lat="42.0889983" lon="11.9786867"><ele>245.16666666666666</ele><time>2026-04-24T11:50:00.063Z</time></trkpt><trkpt lat="42.088983" lon="11.9785801"><ele>243.33333333333331</ele><time>2026-04-24T11:50:13.182Z</time></trkpt><trkpt lat="42.0890271" lon="11.9784905"><ele>241.5</ele><time>2026-04-24T11:50:16.166Z</time></trkpt><trkpt lat="42.0890637" lon="11.9784066"><ele>239.66666666666669</ele><time>2026-04-24T11:50:18.191Z</time></trkpt><trkpt lat="42.0890877" lon="11.9783105"><ele>237.83333333333334</ele><time>2026-04-24T11:50:20.096Z</time></trkpt><trkpt lat="42.0891322" lon="11.9782146"><ele>236.0</ele><time>2026-04-24T11:50:22.136Z</time></trkpt><trkpt lat="42.0891513" lon="11.9781131"><ele>233.83333333333334</ele><time>2026-04-24T11:50:25.121Z</time></trkpt><trkpt lat="42.0891507" lon="11.9780051"><ele>231.66666666666669</ele><time>2026-04-24T11:50:28.214Z</time></trkpt><trkpt lat="42.0890847" lon="11.9779389"><ele>229.5</ele><time>2026-04-24T11:50:34.184Z</time></trkpt><trkpt lat="42.0890216" lon="11.9778929"><ele>227.33333333333331</ele><time>2026-04-24T11:50:37.169Z</time></trkpt><trkpt lat="42.0889595" lon="11.9777734"><ele>225.16666666666666</ele><time>2026-04-24T11:50:39.089Z</time></trkpt><trkpt lat="42.0889474" lon="11.9776301"><ele>223.0</ele><time>2026-04-24T11:50:41.09Z</time></trkpt><trkpt lat="42.0889607" lon="11.9774981"><ele>220.66666666666666</ele><time>2026-04-24T11:50:43.114Z</time></trkpt><trkpt lat="42.0889269" lon="11.9774188"><ele>218.33333333333331</ele><time>2026-04-24T11:50:45.166Z</time></trkpt><trkpt lat="42.088884" lon="11.9773336"><ele>216.0</ele><time>2026-04-24T11:50:47.191Z</time></trkpt><trkpt lat="42.0888467" lon="11.9772501"><ele>213.66666666666669</ele><time>2026-04-24T11:50:49.11Z</time></trkpt><trkpt lat="42.0888033" lon="11.977125"><ele>211.33333333333334</ele><time>2026-04-24T11:50:52.065Z</time></trkpt><trkpt lat="42.088755" lon="11.9770517"><ele>209.0</ele><time>2026-04-24T11:50:54.065Z</time></trkpt><trkpt lat="42.0887083" lon="11.9769867"><ele>209.00000000000003</ele><time>2026-04-24T11:50:56.066Z</time></trkpt><trkpt lat="42.0886617" lon="11.9769283"><ele>209.0</ele><time>2026-04-24T11:50:58.063Z</time></trkpt><trkpt lat="42.0885917" lon="11.9769183"><ele>209.0</ele><time>2026-04-24T11:51:02.066Z</time></trkpt><trkpt lat="42.0885183" lon="11.9768817"><ele>209.0</ele><time>2026-04-24T11:51:05.064Z</time></trkpt><trkpt lat="42.0884683" lon="11.9768267"><ele>209.00000000000003</ele><time>2026-04-24T11:51:07.065Z</time></trkpt><trkpt lat="42.08841" lon="11.9767433"><ele>209.0</ele><time>2026-04-24T11:51:09.064Z</time></trkpt><trkpt lat="42.088305" lon="11.9766217"><ele>206.33333333333334</ele><time>2026-04-24T11:54:03.065Z</time></trkpt><trkpt lat="42.0882233" lon="11.9765233"><ele>203.66666666666669</ele><time>2026-04-24T11:54:06.065Z</time></trkpt><trkpt lat="42.0881733" lon="11.976435"><ele>201.0</ele><time>2026-04-24T11:54:08.065Z</time></trkpt><trkpt lat="42.08813" lon="11.9763733"><ele>198.33333333333331</ele><time>2026-04-24T11:54:10.063Z</time></trkpt><trkpt lat="42.0880867" lon="11.9762767"><ele>195.66666666666666</ele><time>2026-04-24T11:54:13.063Z</time></trkpt><trkpt lat="42.088055" lon="11.9762033"><ele>193.0</ele><time>2026-04-24T11:54:15.063Z</time></trkpt><trkpt lat="42.0879933" lon="11.97611"><ele>192.99999999999997</ele><time>2026-04-24T11:54:17.065Z</time></trkpt><trkpt lat="42.08793" lon="11.9760333"><ele>193.0</ele><time>2026-04-24T11:54:19.066Z</time></trkpt><trkpt lat="42.0878633" lon="11.9760283"><ele>193.0</ele><time>2026-04-24T11:54:21.063Z</time></trkpt><trkpt lat="42.087795" lon="11.97602"><ele>193.0</ele><time>2026-04-24T11:54:23.065Z</time></trkpt><trkpt lat="42.08773" lon="11.9759467"><ele>192.99999999999997</ele><time>2026-04-24T11:54:26.064Z</time></trkpt><trkpt lat="42.087675" lon="11.9758933"><ele>193.0</ele><time>2026-04-24T11:54:29.063Z</time></trkpt><trkpt lat="42.0875917" lon="11.9758167"><ele>191.49999999999997</ele><time>2026-04-24T11:54:32.066Z</time></trkpt><trkpt lat="42.08753" lon="11.9757583"><ele>190.0</ele><time>2026-04-24T11:54:34.064Z</time></trkpt><trkpt lat="42.0874767" lon="11.9756333"><ele>188.5</ele><time>2026-04-24T11:54:36.065Z</time></trkpt><trkpt lat="42.08743" lon="11.9755183"><ele>187.0</ele><time>2026-04-24T11:54:38.063Z</time></trkpt><trkpt lat="42.0873633" lon="11.9754483"><ele>185.5</ele><time>2026-04-24T11:54:41.063Z</time></trkpt><trkpt lat="42.0873033" lon="11.9754033"><ele>184.0</ele><time>2026-04-24T11:54:43.065Z</time></trkpt><trkpt lat="42.0872233" lon="11.975425"><ele>184.0</ele><time>2026-04-24T11:54:46.065Z</time></trkpt><trkpt lat="42.087165" lon="11.9754733"><ele>184.0</ele><time>2026-04-24T11:54:48.065Z</time></trkpt><trkpt lat="42.0870967" lon="11.9755033"><ele>184.0</ele><time>2026-04-24T11:54:50.065Z</time></trkpt><trkpt lat="42.087" lon="11.97548"><ele>184.0</ele><time>2026-04-24T11:54:53.065Z</time></trkpt><trkpt lat="42.08693" lon="11.97542"><ele>184.0</ele><time>2026-04-24T11:54:55.066Z</time></trkpt><trkpt lat="42.08686" lon="11.9753733"><ele>184.0</ele><time>2026-04-24T11:54:57.064Z</time></trkpt><trkpt lat="42.0867817" lon="11.9753533"><ele>184.0</ele><time>2026-04-24T11:55:00.066Z</time></trkpt><trkpt lat="42.0867017" lon="11.9753117"><ele>184.0</ele><time>2026-04-24T11:55:03.064Z</time></trkpt><trkpt lat="42.086625" lon="11.9753233"><ele>184.0</ele><time>2026-04-24T11:55:08.064Z</time></trkpt><trkpt lat="42.0865633" lon="11.9753433"><ele>184.0</ele><time>2026-04-24T11:55:10.064Z</time></trkpt><trkpt lat="42.0864933" lon="11.9753617"><ele>184.0</ele><time>2026-04-24T11:55:12.065Z</time></trkpt><trkpt lat="42.0864117" lon="11.9753717"><ele>184.0</ele><time>2026-04-24T11:55:14.064Z</time></trkpt><trkpt lat="42.0863483" lon="11.9753833"><ele>184.0</ele><time>2026-04-24T11:55:16.066Z</time></trkpt><trkpt lat="42.08627" lon="11.97541"><ele>185.0</ele><time>2026-04-24T11:55:18.066Z</time></trkpt><trkpt lat="42.0862017" lon="11.9753933"><ele>186.0</ele><time>2026-04-24T11:55:20.066Z</time></trkpt><trkpt lat="42.0861517" lon="11.97533"><ele>187.0</ele><time>2026-04-24T11:55:22.065Z</time></trkpt><trkpt lat="42.08611" lon="11.9752533"><ele>188.0</ele><time>2026-04-24T11:55:24.064Z</time></trkpt><trkpt lat="42.0860567" lon="11.9751617"><ele>189.0</ele><time>2026-04-24T11:55:26.065Z</time></trkpt><trkpt lat="42.0859967" lon="11.9750767"><ele>190.0</ele><time>2026-04-24T11:55:28.064Z</time></trkpt><trkpt lat="42.085965" lon="11.97499"><ele>188.5</ele><time>2026-04-24T11:55:30.067Z</time></trkpt><trkpt lat="42.0859267" lon="11.974915"><ele>187.0</ele><time>2026-04-24T11:55:32.066Z</time></trkpt><trkpt lat="42.0858583" lon="11.9748967"><ele>185.5</ele><time>2026-04-24T11:55:35.065Z</time></trkpt><trkpt lat="42.0857683" lon="11.9749183"><ele>184.0</ele><time>2026-04-24T11:55:38.064Z</time></trkpt><trkpt lat="42.0856967" lon="11.9749017"><ele>182.5</ele><time>2026-04-24T11:55:40.065Z</time></trkpt><trkpt lat="42.0856417" lon="11.9748333"><ele>181.0</ele><time>2026-04-24T11:55:42.063Z</time></trkpt><trkpt lat="42.0855783" lon="11.974775"><ele>181.0</ele><time>2026-04-24T11:55:44.065Z</time></trkpt><trkpt lat="42.0854767" lon="11.9747183"><ele>181.0</ele><time>2026-04-24T11:55:46.065Z</time></trkpt><trkpt lat="42.0853833" lon="11.974675"><ele>181.0</ele><time>2026-04-24T11:55:48.064Z</time></trkpt><trkpt lat="42.0853017" lon="11.97465"><ele>181.0</ele><time>2026-04-24T11:55:50.065Z</time></trkpt><trkpt lat="42.08522" lon="11.974605"><ele>181.0</ele><time>2026-04-24T11:55:52.064Z</time></trkpt><trkpt lat="42.0851517" lon="11.97453"><ele>181.0</ele><time>2026-04-24T11:55:54.065Z</time></trkpt><trkpt lat="42.085065" lon="11.9745033"><ele>181.0</ele><time>2026-04-24T11:55:57.065Z</time></trkpt><trkpt lat="42.08497" lon="11.9744867"><ele>181.0</ele><time>2026-04-24T11:55:59.065Z</time></trkpt><trkpt lat="42.08486" lon="11.9744283"><ele>181.0</ele><time>2026-04-24T11:56:01.064Z</time></trkpt><trkpt lat="42.0847767" lon="11.974355"><ele>181.0</ele><time>2026-04-24T11:56:03.063Z</time></trkpt><trkpt lat="42.0846983" lon="11.9743167"><ele>182.5</ele><time>2026-04-24T11:56:05.064Z</time></trkpt><trkpt lat="42.0846117" lon="11.974285"><ele>184.0</ele><time>2026-04-24T11:56:08.064Z</time></trkpt><trkpt lat="42.0845433" lon="11.974285"><ele>185.5</ele><time>2026-04-24T11:56:11.066Z</time></trkpt><trkpt lat="42.0844683" lon="11.9742217"><ele>187.0</ele><time>2026-04-24T11:58:09.066Z</time></trkpt><trkpt lat="42.0843717" lon="11.9742167"><ele>188.5</ele><time>2026-04-24T11:58:21.064Z</time></trkpt><trkpt lat="42.0843033" lon="11.9742133"><ele>190.0</ele><time>2026-04-24T11:58:23.064Z</time></trkpt><trkpt lat="42.0842017" lon="11.97419"><ele>190.0</ele><time>2026-04-24T11:58:26.066Z</time></trkpt><trkpt lat="42.0841333" lon="11.9741483"><ele>190.0</ele><time>2026-04-24T11:58:28.064Z</time></trkpt><trkpt lat="42.0840717" lon="11.974075"><ele>190.0</ele><time>2026-04-24T11:58:31.066Z</time></trkpt><trkpt lat="42.08403" lon="11.9739817"><ele>190.0</ele><time>2026-04-24T11:58:34.065Z</time></trkpt><trkpt lat="42.08397" lon="11.9738983"><ele>190.0</ele><time>2026-04-24T11:58:37.065Z</time></trkpt><trkpt lat="42.083915" lon="11.9738167"><ele>190.0</ele><time>2026-04-24T11:58:40.064Z</time></trkpt><trkpt lat="42.0838567" lon="11.973715"><ele>190.0</ele><time>2026-04-24T11:58:43.064Z</time></trkpt><trkpt lat="42.0838067" lon="11.9736367"><ele>190.0</ele><time>2026-04-24T11:58:46.064Z</time></trkpt><trkpt lat="42.0837417" lon="11.9735733"><ele>190.0</ele><time>2026-04-24T11:58:51.066Z</time></trkpt><trkpt lat="42.08369" lon="11.9735217"><ele>190.0</ele><time>2026-04-24T11:58:54.064Z</time></trkpt><trkpt lat="42.08363" lon="11.9734367"><ele>190.0</ele><time>2026-04-24T11:58:57.065Z</time></trkpt><trkpt lat="42.0835717" lon="11.9733633"><ele>190.0</ele><time>2026-04-24T11:59:00.064Z</time></trkpt><trkpt lat="42.0835017" lon="11.9733233"><ele>188.33333333333334</ele><time>2026-04-24T11:59:04.062Z</time></trkpt><trkpt lat="42.0834117" lon="11.9732617"><ele>186.66666666666669</ele><time>2026-04-24T11:59:07.064Z</time></trkpt><trkpt lat="42.083355" lon="11.9731783"><ele>185.0</ele><time>2026-04-24T11:59:09.063Z</time></trkpt><trkpt lat="42.0833033" lon="11.9730933"><ele>183.33333333333334</ele><time>2026-04-24T11:59:11.063Z</time></trkpt><trkpt lat="42.0832717" lon="11.973"><ele>181.66666666666666</ele><time>2026-04-24T11:59:13.064Z</time></trkpt><trkpt lat="42.0832067" lon="11.9728867"><ele>180.0</ele><time>2026-04-24T11:59:15.063Z</time></trkpt><trkpt lat="42.0831333" lon="11.9727883"><ele>180.0</ele><time>2026-04-24T11:59:17.064Z</time></trkpt><trkpt lat="42.083085" lon="11.9726967"><ele>180.0</ele><time>2026-04-24T11:59:19.064Z</time></trkpt><trkpt lat="42.083015" lon="11.9726033"><ele>180.0</ele><time>2026-04-24T11:59:21.064Z</time></trkpt><trkpt lat="42.0829383" lon="11.9725083"><ele>180.0</ele><time>2026-04-24T11:59:23.065Z</time></trkpt><trkpt lat="42.0828583" lon="11.9724383"><ele>180.0</ele><time>2026-04-24T11:59:25.066Z</time></trkpt><trkpt lat="42.0827833" lon="11.9723517"><ele>176.66666666666666</ele><time>2026-04-24T11:59:27.065Z</time></trkpt><trkpt lat="42.082705" lon="11.972275"><ele>173.33333333333334</ele><time>2026-04-24T11:59:29.065Z</time></trkpt><trkpt lat="42.0826417" lon="11.9722217"><ele>170.0</ele><time>2026-04-24T11:59:31.065Z</time></trkpt><trkpt lat="42.0825933" lon="11.9721567"><ele>166.66666666666669</ele><time>2026-04-24T11:59:33.066Z</time></trkpt><trkpt lat="42.0825467" lon="11.972055"><ele>163.33333333333334</ele><time>2026-04-24T11:59:35.063Z</time></trkpt><trkpt lat="42.0824933" lon="11.971955"><ele>160.0</ele><time>2026-04-24T11:59:37.063Z</time></trkpt><trkpt lat="42.0824417" lon="11.9718717"><ele>160.5</ele><time>2026-04-24T11:59:39.063Z</time></trkpt><trkpt lat="42.082385" lon="11.97181"><ele>161.0</ele><time>2026-04-24T11:59:41.066Z</time></trkpt><trkpt lat="42.082305" lon="11.9716833"><ele>161.5</ele><time>2026-04-24T12:00:37.066Z</time></trkpt><trkpt lat="42.0822483" lon="11.9716333"><ele>162.0</ele><time>2026-04-24T12:00:40.064Z</time></trkpt><trkpt lat="42.0821817" lon="11.97161"><ele>162.5</ele><time>2026-04-24T12:00:43.063Z</time></trkpt><trkpt lat="42.08211" lon="11.971605"><ele>163.0</ele><time>2026-04-24T12:00:45.065Z</time></trkpt><trkpt lat="42.082035" lon="11.971605"><ele>161.14285714285714</ele><time>2026-04-24T12:00:47.063Z</time></trkpt><trkpt lat="42.08196" lon="11.9716"><ele>159.28571428571428</ele><time>2026-04-24T12:00:49.064Z</time></trkpt><trkpt lat="42.081895" lon="11.97159"><ele>157.42857142857142</ele><time>2026-04-24T12:00:51.066Z</time></trkpt><trkpt lat="42.08181" lon="11.971555"><ele>155.57142857142856</ele><time>2026-04-24T12:00:54.062Z</time></trkpt><trkpt lat="42.08175" lon="11.9715233"><ele>153.71428571428572</ele><time>2026-04-24T12:00:56.064Z</time></trkpt><trkpt lat="42.0816767" lon="11.9715167"><ele>151.85714285714283</ele><time>2026-04-24T12:00:58.064Z</time></trkpt><trkpt lat="42.0816067" lon="11.9715117"><ele>150.0</ele><time>2026-04-24T12:01:00.066Z</time></trkpt><trkpt lat="42.0815267" lon="11.9715067"><ele>150.0</ele><time>2026-04-24T12:01:03.063Z</time></trkpt><trkpt lat="42.0814383" lon="11.9714867"><ele>150.0</ele><time>2026-04-24T12:01:07.064Z</time></trkpt><trkpt lat="42.081365" lon="11.9714167"><ele>150.0</ele><time>2026-04-24T12:01:10.063Z</time></trkpt><trkpt lat="42.0813967" lon="11.9713383"><ele>150.0</ele><time>2026-04-24T12:01:15.065Z</time></trkpt><trkpt lat="42.0814717" lon="11.97133"><ele>150.0</ele><time>2026-04-24T12:01:19.066Z</time></trkpt><trkpt lat="42.08152" lon="11.9712683"><ele>150.0</ele><time>2026-04-24T12:01:24.064Z</time></trkpt><trkpt lat="42.081465" lon="11.9712233"><ele>150.0</ele><time>2026-04-24T12:01:29.063Z</time></trkpt><trkpt lat="42.081396" lon="11.9712387"><ele>150.0</ele><time>2026-04-24T12:01:32.121Z</time></trkpt><trkpt lat="42.081336" lon="11.9711768"><ele>150.0</ele><time>2026-04-24T12:01:34.146Z</time></trkpt><trkpt lat="42.0813212" lon="11.9710704"><ele>150.0</ele><time>2026-04-24T12:01:37.131Z</time></trkpt><trkpt lat="42.0813335" lon="11.9709798"><ele>150.0</ele><time>2026-04-24T12:01:40.11Z</time></trkpt><trkpt lat="42.0813234" lon="11.9708498"><ele>150.0</ele><time>2026-04-24T12:01:44.168Z</time></trkpt><trkpt lat="42.0813048" lon="11.9707475"><ele>149.33333333333334</ele><time>2026-04-24T12:01:46.087Z</time></trkpt><trkpt lat="42.0812986" lon="11.9706362"><ele>148.66666666666666</ele><time>2026-04-24T12:01:48.112Z</time></trkpt><trkpt lat="42.0812973" lon="11.9705391"><ele>148.0</ele><time>2026-04-24T12:01:50.138Z</time></trkpt><trkpt lat="42.0813233" lon="11.9704601"><ele>147.33333333333331</ele><time>2026-04-24T12:01:53.189Z</time></trkpt><trkpt lat="42.0813551" lon="11.9703735"><ele>146.66666666666666</ele><time>2026-04-24T12:03:45.172Z</time></trkpt><trkpt lat="42.0814259" lon="11.9703157"><ele>146.0</ele><time>2026-04-24T12:03:47.05Z</time></trkpt><trkpt lat="42.0814116" lon="11.9701728"><ele>146.0</ele><time>2026-04-24T12:03:48.064Z</time></trkpt><trkpt lat="42.0814184" lon="11.9700872"><ele>146.0</ele><time>2026-04-24T12:03:49.065Z</time></trkpt><trkpt lat="42.0814363" lon="11.9699942"><ele>146.0</ele><time>2026-04-24T12:03:50.064Z</time></trkpt><trkpt lat="42.0814667" lon="11.9699031"><ele>146.0</ele><time>2026-04-24T12:03:51.066Z</time></trkpt><trkpt lat="42.0814992" lon="11.9698162"><ele>146.0</ele><time>2026-04-24T12:03:52.064Z</time></trkpt><trkpt lat="42.0815256" lon="11.9697268"><ele>146.0</ele><time>2026-04-24T12:03:53.063Z</time></trkpt><trkpt lat="42.081539" lon="11.9696281"><ele>146.0</ele><time>2026-04-24T12:03:54.066Z</time></trkpt><trkpt lat="42.0815417" lon="11.9695161"><ele>145.16666666666666</ele><time>2026-04-24T12:03:55.065Z</time></trkpt><trkpt lat="42.0815472" lon="11.9694003"><ele>144.33333333333331</ele><time>2026-04-24T12:03:56.067Z</time></trkpt><trkpt lat="42.0815577" lon="11.9692878"><ele>143.5</ele><time>2026-04-24T12:03:57.065Z</time></trkpt><trkpt lat="42.0815782" lon="11.9691826"><ele>142.66666666666666</ele><time>2026-04-24T12:03:58.064Z</time></trkpt><trkpt lat="42.0816044" lon="11.9690897"><ele>141.83333333333334</ele><time>2026-04-24T12:03:59.065Z</time></trkpt><trkpt lat="42.081645" lon="11.9689433"><ele>141.0</ele><time>2026-04-24T12:04:01.064Z</time></trkpt><trkpt lat="42.0816283" lon="11.968775"><ele>140.16666666666666</ele><time>2026-04-24T12:04:03.063Z</time></trkpt><trkpt lat="42.0815983" lon="11.9686867"><ele>139.33333333333334</ele><time>2026-04-24T12:04:04.063Z</time></trkpt><trkpt lat="42.0815717" lon="11.9685933"><ele>138.5</ele><time>2026-04-24T12:04:05.063Z</time></trkpt><trkpt lat="42.08155" lon="11.9684883"><ele>137.66666666666669</ele><time>2026-04-24T12:04:06.064Z</time></trkpt><trkpt lat="42.0815317" lon="11.9683633"><ele>136.83333333333334</ele><time>2026-04-24T12:04:07.064Z</time></trkpt><trkpt lat="42.0815167" lon="11.968235"><ele>136.0</ele><time>2026-04-24T12:04:08.064Z</time></trkpt><trkpt lat="42.0815017" lon="11.968105"><ele>134.66666666666669</ele><time>2026-04-24T12:04:09.063Z</time></trkpt><trkpt lat="42.0814933" lon="11.9679883"><ele>133.33333333333334</ele><time>2026-04-24T12:04:10.064Z</time></trkpt><trkpt lat="42.08149" lon="11.9678783"><ele>132.0</ele><time>2026-04-24T12:04:11.063Z</time></trkpt><trkpt lat="42.08149" lon="11.967775"><ele>130.66666666666666</ele><time>2026-04-24T12:04:12.063Z</time></trkpt><trkpt lat="42.081495" lon="11.9676833"><ele>129.33333333333331</ele><time>2026-04-24T12:04:13.062Z</time></trkpt><trkpt lat="42.0814867" lon="11.9675267"><ele>128.0</ele><time>2026-04-24T12:04:15.065Z</time></trkpt><trkpt lat="42.0814667" lon="11.9673817"><ele>126.80000000000001</ele><time>2026-04-24T12:04:17.063Z</time></trkpt><trkpt lat="42.0814067" lon="11.96726"><ele>125.60000000000001</ele><time>2026-04-24T12:04:19.065Z</time></trkpt><trkpt lat="42.08135" lon="11.9672217"><ele>124.39999999999999</ele><time>2026-04-24T12:04:20.067Z</time></trkpt><trkpt lat="42.0812433" lon="11.96714"><ele>123.19999999999999</ele><time>2026-04-24T12:04:22.063Z</time></trkpt><trkpt lat="42.0811667" lon="11.9670467"><ele>122.0</ele><time>2026-04-24T12:04:24.065Z</time></trkpt><trkpt lat="42.08112" lon="11.96692"><ele>121.99999999999999</ele><time>2026-04-24T12:04:26.065Z</time></trkpt><trkpt lat="42.081035" lon="11.9668133"><ele>122.0</ele><time>2026-04-24T12:04:28.064Z</time></trkpt><trkpt lat="42.08099" lon="11.96675"><ele>122.0</ele><time>2026-04-24T12:04:29.063Z</time></trkpt><trkpt lat="42.080945" lon="11.96668"><ele>122.0</ele><time>2026-04-24T12:04:30.064Z</time></trkpt><trkpt lat="42.0808983" lon="11.966605"><ele>121.99999999999999</ele><time>2026-04-24T12:04:31.065Z</time></trkpt><trkpt lat="42.08085" lon="11.9665367"><ele>122.0</ele><time>2026-04-24T12:04:32.065Z</time></trkpt><trkpt lat="42.080775" lon="11.9664383"><ele>122.16666666666666</ele><time>2026-04-24T12:04:34.064Z</time></trkpt><trkpt lat="42.080735" lon="11.966345"><ele>122.33333333333333</ele><time>2026-04-24T12:04:36.064Z</time></trkpt><trkpt lat="42.0807217" lon="11.9662383"><ele>122.5</ele><time>2026-04-24T12:04:38.065Z</time></trkpt><trkpt lat="42.0807167" lon="11.9661517"><ele>122.66666666666666</ele><time>2026-04-24T12:04:41.064Z</time></trkpt><trkpt lat="42.0807283" lon="11.9660383"><ele>122.83333333333333</ele><time>2026-04-24T12:07:26.064Z</time></trkpt><trkpt lat="42.080765" lon="11.9658883"><ele>123.0</ele><time>2026-04-24T12:08:28.062Z</time></trkpt><trkpt lat="42.0807833" lon="11.9657417"><ele>122.60000000000001</ele><time>2026-04-24T12:09:04.062Z</time></trkpt><trkpt lat="42.0808416" lon="11.9656312"><ele>122.20000000000002</ele><time>2026-04-24T12:10:02.089Z</time></trkpt><trkpt lat="42.0809086" lon="11.9654932"><ele>121.8</ele><time>2026-04-24T12:10:04.063Z</time></trkpt><trkpt lat="42.0809444" lon="11.9653965"><ele>121.4</ele><time>2026-04-24T12:10:05.063Z</time></trkpt><trkpt lat="42.0809794" lon="11.9653048"><ele>121.0</ele><time>2026-04-24T12:10:06.065Z</time></trkpt><trkpt lat="42.0810199" lon="11.9652133"><ele>121.00000000000001</ele><time>2026-04-24T12:10:07.064Z</time></trkpt><trkpt lat="42.0810669" lon="11.9651194"><ele>121.0</ele><time>2026-04-24T12:10:08.067Z</time></trkpt><trkpt lat="42.0811199" lon="11.9650257"><ele>121.0</ele><time>2026-04-24T12:10:09.063Z</time></trkpt><trkpt lat="42.0811754" lon="11.964933"><ele>121.0</ele><time>2026-04-24T12:10:10.065Z</time></trkpt><trkpt lat="42.0812271" lon="11.9648427"><ele>121.00000000000001</ele><time>2026-04-24T12:10:11.065Z</time></trkpt><trkpt lat="42.0812733" lon="11.9647536"><ele>121.0</ele><time>2026-04-24T12:10:12.066Z</time></trkpt><trkpt lat="42.081313" lon="11.9646599"><ele>120.66666666666667</ele><time>2026-04-24T12:10:13.063Z</time></trkpt><trkpt lat="42.0813486" lon="11.9645618"><ele>120.33333333333334</ele><time>2026-04-24T12:10:14.065Z</time></trkpt><trkpt lat="42.0813834" lon="11.9644629"><ele>120.0</ele><time>2026-04-24T12:10:15.065Z</time></trkpt><trkpt lat="42.0814225" lon="11.9643698"><ele>119.66666666666666</ele><time>2026-04-24T12:10:16.063Z</time></trkpt><trkpt lat="42.0814678" lon="11.9642855"><ele>119.33333333333333</ele><time>2026-04-24T12:10:17.064Z</time></trkpt><trkpt lat="42.0815123" lon="11.9642131"><ele>119.0</ele><time>2026-04-24T12:10:18.062Z</time></trkpt><trkpt lat="42.0815483" lon="11.9640917"><ele>119.49999999999999</ele><time>2026-04-24T12:10:20.064Z</time></trkpt><trkpt lat="42.0815317" lon="11.9639617"><ele>120.0</ele><time>2026-04-24T12:10:22.065Z</time></trkpt><trkpt lat="42.0815567" lon="11.9638017"><ele>120.5</ele><time>2026-04-24T12:10:24.064Z</time></trkpt><trkpt lat="42.0815917" lon="11.96373"><ele>121.0</ele><time>2026-04-24T12:10:25.065Z</time></trkpt><trkpt lat="42.0816383" lon="11.9636667"><ele>121.49999999999999</ele><time>2026-04-24T12:10:26.064Z</time></trkpt><trkpt lat="42.0817017" lon="11.9636233"><ele>122.0</ele><time>2026-04-24T12:10:27.064Z</time></trkpt><trkpt lat="42.0817733" lon="11.963585"><ele>121.99999999999999</ele><time>2026-04-24T12:10:28.064Z</time></trkpt><trkpt lat="42.0818517" lon="11.96355"><ele>122.0</ele><time>2026-04-24T12:10:29.064Z</time></trkpt><trkpt lat="42.0819333" lon="11.963515"><ele>122.0</ele><time>2026-04-24T12:10:30.064Z</time></trkpt><trkpt lat="42.0820183" lon="11.9634867"><ele>122.0</ele><time>2026-04-24T12:10:31.065Z</time></trkpt><trkpt lat="42.0821067" lon="11.9634633"><ele>121.99999999999999</ele><time>2026-04-24T12:10:32.066Z</time></trkpt><trkpt lat="42.0822017" lon="11.9634417"><ele>122.0</ele><time>2026-04-24T12:10:33.064Z</time></trkpt><trkpt lat="42.082295" lon="11.9634267"><ele>122.0</ele><time>2026-04-24T12:10:34.065Z</time></trkpt><trkpt lat="42.0823933" lon="11.9634233"><ele>121.99999999999999</ele><time>2026-04-24T12:10:35.067Z</time></trkpt><trkpt lat="42.08249" lon="11.9634367"><ele>121.99999999999999</ele><time>2026-04-24T12:10:36.065Z</time></trkpt><trkpt lat="42.0825867" lon="11.9634683"><ele>122.0</ele><time>2026-04-24T12:10:37.064Z</time></trkpt><trkpt lat="42.08268" lon="11.9635117"><ele>122.0</ele><time>2026-04-24T12:10:38.065Z</time></trkpt><trkpt lat="42.0827733" lon="11.9635633"><ele>123.8</ele><time>2026-04-24T12:10:39.064Z</time></trkpt><trkpt lat="42.0828667" lon="11.963605"><ele>125.6</ele><time>2026-04-24T12:10:40.063Z</time></trkpt><trkpt lat="42.0829633" lon="11.9636333"><ele>127.39999999999999</ele><time>2026-04-24T12:10:41.063Z</time></trkpt><trkpt lat="42.0830583" lon="11.9636533"><ele>129.2</ele><time>2026-04-24T12:10:42.064Z</time></trkpt><trkpt lat="42.0831533" lon="11.963665"><ele>131.0</ele><time>2026-04-24T12:10:43.063Z</time></trkpt><trkpt lat="42.0832467" lon="11.9636717"><ele>131.5</ele><time>2026-04-24T12:10:44.064Z</time></trkpt><trkpt lat="42.0833383" lon="11.96367"><ele>132.0</ele><time>2026-04-24T12:10:45.064Z</time></trkpt><trkpt lat="42.0834217" lon="11.9636667"><ele>132.5</ele><time>2026-04-24T12:10:46.066Z</time></trkpt><trkpt lat="42.08349" lon="11.963655"><ele>133.0</ele><time>2026-04-24T12:10:47.062Z</time></trkpt><trkpt lat="42.083585" lon="11.9636"><ele>133.5</ele><time>2026-04-24T12:10:49.063Z</time></trkpt><trkpt lat="42.083645" lon="11.9635017"><ele>134.0</ele><time>2026-04-24T12:10:51.062Z</time></trkpt><trkpt lat="42.0836883" lon="11.9633867"><ele>133.0</ele><time>2026-04-24T12:10:53.064Z</time></trkpt><trkpt lat="42.083715" lon="11.9632533"><ele>132.0</ele><time>2026-04-24T12:10:55.063Z</time></trkpt><trkpt lat="42.0837283" lon="11.9631167"><ele>131.0</ele><time>2026-04-24T12:10:57.065Z</time></trkpt><trkpt lat="42.0837667" lon="11.962985"><ele>130.0</ele><time>2026-04-24T12:10:59.064Z</time></trkpt><trkpt lat="42.08384" lon="11.9628667"><ele>129.0</ele><time>2026-04-24T12:11:01.062Z</time></trkpt><trkpt lat="42.0839233" lon="11.9627667"><ele>129.0</ele><time>2026-04-24T12:11:03.062Z</time></trkpt><trkpt lat="42.0840117" lon="11.9626717"><ele>129.0</ele><time>2026-04-24T12:11:05.064Z</time></trkpt><trkpt lat="42.08409" lon="11.9625733"><ele>129.0</ele><time>2026-04-24T12:11:07.065Z</time></trkpt><trkpt lat="42.0841433" lon="11.9624333"><ele>129.0</ele><time>2026-04-24T12:11:09.064Z</time></trkpt><trkpt lat="42.0841783" lon="11.9622817"><ele>130.6</ele><time>2026-04-24T12:11:11.064Z</time></trkpt><trkpt lat="42.0842133" lon="11.9621417"><ele>132.2</ele><time>2026-04-24T12:11:13.063Z</time></trkpt><trkpt lat="42.0842833" lon="11.9620267"><ele>133.79999999999998</ele><time>2026-04-24T12:11:15.066Z</time></trkpt><trkpt lat="42.0843617" lon="11.9618983"><ele>135.4</ele><time>2026-04-24T12:11:17.065Z</time></trkpt><trkpt lat="42.0843983" lon="11.96182"><ele>137.0</ele><time>2026-04-24T12:11:18.065Z</time></trkpt><trkpt lat="42.08443" lon="11.961745"><ele>139.0</ele><time>2026-04-24T12:11:19.065Z</time></trkpt><trkpt lat="42.0844633" lon="11.9616683"><ele>141.0</ele><time>2026-04-24T12:11:20.065Z</time></trkpt><trkpt lat="42.0844833" lon="11.9615833"><ele>143.0</ele><time>2026-04-24T12:11:21.065Z</time></trkpt><trkpt lat="42.0844967" lon="11.9614883"><ele>145.0</ele><time>2026-04-24T12:11:22.065Z</time></trkpt><trkpt lat="42.0845133" lon="11.9613783"><ele>147.0</ele><time>2026-04-24T12:11:23.065Z</time></trkpt><trkpt lat="42.0845217" lon="11.961265"><ele>149.0</ele><time>2026-04-24T12:11:24.065Z</time></trkpt><trkpt lat="42.08453" lon="11.9611517"><ele>149.0</ele><time>2026-04-24T12:11:25.064Z</time></trkpt><trkpt lat="42.0845367" lon="11.9610433"><ele>149.0</ele><time>2026-04-24T12:11:26.064Z</time></trkpt><trkpt lat="42.0845467" lon="11.9609417"><ele>149.0</ele><time>2026-04-24T12:11:27.064Z</time></trkpt><trkpt lat="42.084555" lon="11.9608417"><ele>149.0</ele><time>2026-04-24T12:11:28.064Z</time></trkpt><trkpt lat="42.0845783" lon="11.9607283"><ele>149.0</ele><time>2026-04-24T12:11:29.064Z</time></trkpt><trkpt lat="42.0845983" lon="11.96062"><ele>149.0</ele><time>2026-04-24T12:11:30.062Z</time></trkpt><trkpt lat="42.0846133" lon="11.9605267"><ele>151.2</ele><time>2026-04-24T12:11:31.063Z</time></trkpt><trkpt lat="42.0846367" lon="11.96044"><ele>153.4</ele><time>2026-04-24T12:11:32.067Z</time></trkpt><trkpt lat="42.0846433" lon="11.9603233"><ele>155.6</ele><time>2026-04-24T12:11:34.064Z</time></trkpt><trkpt lat="42.0846333" lon="11.9601717"><ele>157.8</ele><time>2026-04-24T12:12:08.064Z</time></trkpt><trkpt lat="42.08456" lon="11.9600517"><ele>160.0</ele><time>2026-04-24T12:12:10.066Z</time></trkpt><trkpt lat="42.0844917" lon="11.9599067"><ele>161.16666666666669</ele><time>2026-04-24T12:12:12.066Z</time></trkpt><trkpt lat="42.0844567" lon="11.959825"><ele>162.33333333333334</ele><time>2026-04-24T12:12:13.067Z</time></trkpt><trkpt lat="42.084425" lon="11.9597417"><ele>163.5</ele><time>2026-04-24T12:12:14.066Z</time></trkpt><trkpt lat="42.084355" lon="11.9596133"><ele>164.66666666666666</ele><time>2026-04-24T12:12:16.064Z</time></trkpt><trkpt lat="42.0842667" lon="11.9595233"><ele>165.83333333333331</ele><time>2026-04-24T12:12:18.065Z</time></trkpt><trkpt lat="42.0842033" lon="11.9594983"><ele>167.0</ele><time>2026-04-24T12:12:19.065Z</time></trkpt><trkpt lat="42.0841383" lon="11.959495"><ele>168.39999999999998</ele><time>2026-04-24T12:12:20.067Z</time></trkpt><trkpt lat="42.0840333" lon="11.9595633"><ele>169.79999999999998</ele><time>2026-04-24T12:12:22.064Z</time></trkpt><trkpt lat="42.083935" lon="11.9596717"><ele>171.2</ele><time>2026-04-24T12:12:24.065Z</time></trkpt><trkpt lat="42.0838833" lon="11.9597233"><ele>172.6</ele><time>2026-04-24T12:12:25.066Z</time></trkpt><trkpt lat="42.0837667" lon="11.95978"><ele>174.0</ele><time>2026-04-24T12:12:27.065Z</time></trkpt><trkpt lat="42.083695" lon="11.9598"><ele>174.0</ele><time>2026-04-24T12:12:28.065Z</time></trkpt><trkpt lat="42.0836233" lon="11.9598133"><ele>174.0</ele><time>2026-04-24T12:12:29.064Z</time></trkpt><trkpt lat="42.0835483" lon="11.95982"><ele>174.0</ele><time>2026-04-24T12:12:30.066Z</time></trkpt><trkpt lat="42.08346" lon="11.9598233"><ele>174.0</ele><time>2026-04-24T12:12:31.065Z</time></trkpt><trkpt lat="42.0833767" lon="11.9598283"><ele>174.0</ele><time>2026-04-24T12:12:32.065Z</time></trkpt><trkpt lat="42.083295" lon="11.9598383"><ele>174.0</ele><time>2026-04-24T12:12:33.066Z</time></trkpt><trkpt lat="42.0832117" lon="11.9598567"><ele>176.83333333333334</ele><time>2026-04-24T12:12:34.064Z</time></trkpt><trkpt lat="42.083135" lon="11.9598717"><ele>179.66666666666666</ele><time>2026-04-24T12:12:35.064Z</time></trkpt><trkpt lat="42.0830567" lon="11.9598783"><ele>182.5</ele><time>2026-04-24T12:12:36.065Z</time></trkpt><trkpt lat="42.0829917" lon="11.95987"><ele>185.33333333333331</ele><time>2026-04-24T12:12:37.065Z</time></trkpt><trkpt lat="42.0829317" lon="11.9598417"><ele>188.16666666666666</ele><time>2026-04-24T12:12:38.064Z</time></trkpt><trkpt lat="42.0828267" lon="11.95975"><ele>191.0</ele><time>2026-04-24T12:12:40.064Z</time></trkpt><trkpt lat="42.0827917" lon="11.9596767"><ele>191.0</ele><time>2026-04-24T12:12:41.063Z</time></trkpt><trkpt lat="42.0827767" lon="11.9595917"><ele>191.0</ele><time>2026-04-24T12:12:42.063Z</time></trkpt><trkpt lat="42.082775" lon="11.9594967"><ele>191.0</ele><time>2026-04-24T12:12:43.064Z</time></trkpt><trkpt lat="42.0827933" lon="11.9594"><ele>191.0</ele><time>2026-04-24T12:12:44.065Z</time></trkpt><trkpt lat="42.0828133" lon="11.95931"><ele>191.0</ele><time>2026-04-24T12:12:45.064Z</time></trkpt><trkpt lat="42.0828483" lon="11.9592283"><ele>191.0</ele><time>2026-04-24T12:12:46.062Z</time></trkpt><trkpt lat="42.0828883" lon="11.9591517"><ele>191.0</ele><time>2026-04-24T12:12:47.065Z</time></trkpt><trkpt lat="42.082915" lon="11.95907"><ele>191.8</ele><time>2026-04-24T12:12:48.065Z</time></trkpt><trkpt lat="42.0829433" lon="11.95892"><ele>192.60000000000002</ele><time>2026-04-24T12:12:50.064Z</time></trkpt><trkpt lat="42.0828917" lon="11.9587667"><ele>193.4</ele><time>2026-04-24T12:12:52.064Z</time></trkpt><trkpt lat="42.0828467" lon="11.9586883"><ele>194.2</ele><time>2026-04-24T12:12:53.063Z</time></trkpt><trkpt lat="42.0827833" lon="11.9585933"><ele>195.0</ele><time>2026-04-24T12:12:54.064Z</time></trkpt><trkpt lat="42.0827067" lon="11.95852"><ele>195.0</ele><time>2026-04-24T12:12:55.065Z</time></trkpt><trkpt lat="42.082625" lon="11.9584483"><ele>195.0</ele><time>2026-04-24T12:12:56.065Z</time></trkpt><trkpt lat="42.082555" lon="11.9583567"><ele>195.0</ele><time>2026-04-24T12:12:57.064Z</time></trkpt><trkpt lat="42.082495" lon="11.9582617"><ele>195.0</ele><time>2026-04-24T12:12:58.065Z</time></trkpt><trkpt lat="42.0824383" lon="11.9581783"><ele>195.0</ele><time>2026-04-24T12:12:59.066Z</time></trkpt><trkpt lat="42.0823817" lon="11.9581167"><ele>195.0</ele><time>2026-04-24T12:13:00.065Z</time></trkpt><trkpt lat="42.082325" lon="11.9580617"><ele>198.5</ele><time>2026-04-24T12:13:01.065Z</time></trkpt><trkpt lat="42.0822683" lon="11.9580133"><ele>202.0</ele><time>2026-04-24T12:13:02.063Z</time></trkpt><trkpt lat="42.08221" lon="11.9579717"><ele>205.5</ele><time>2026-04-24T12:13:03.064Z</time></trkpt><trkpt lat="42.0821467" lon="11.9579367"><ele>209.0</ele><time>2026-04-24T12:13:04.062Z</time></trkpt><trkpt lat="42.0820333" lon="11.9578783"><ele>212.5</ele><time>2026-04-24T12:13:06.065Z</time></trkpt><trkpt lat="42.0819633" lon="11.9577933"><ele>216.0</ele><time>2026-04-24T12:13:08.066Z</time></trkpt><trkpt lat="42.081985" lon="11.9576783"><ele>216.0</ele><time>2026-04-24T12:13:10.063Z</time></trkpt><trkpt lat="42.0820733" lon="11.95762"><ele>216.0</ele><time>2026-04-24T12:13:12.063Z</time></trkpt><trkpt lat="42.0821367" lon="11.957595"><ele>216.0</ele><time>2026-04-24T12:13:13.063Z</time></trkpt><trkpt lat="42.0822033" lon="11.9575733"><ele>216.0</ele><time>2026-04-24T12:13:14.065Z</time></trkpt><trkpt lat="42.0822683" lon="11.9575583"><ele>216.0</ele><time>2026-04-24T12:13:15.062Z</time></trkpt><trkpt lat="42.0823867" lon="11.9575583"><ele>216.0</ele><time>2026-04-24T12:13:17.064Z</time></trkpt><trkpt lat="42.0824983" lon="11.9575617"><ele>216.33333333333334</ele><time>2026-04-24T12:13:19.065Z</time></trkpt><trkpt lat="42.0826117" lon="11.9575133"><ele>216.66666666666669</ele><time>2026-04-24T12:13:21.063Z</time></trkpt><trkpt lat="42.0826767" lon="11.9574767"><ele>217.0</ele><time>2026-04-24T12:13:22.064Z</time></trkpt><trkpt lat="42.0827417" lon="11.9574517"><ele>217.33333333333334</ele><time>2026-04-24T12:13:23.061Z</time></trkpt><trkpt lat="42.0828083" lon="11.9574483"><ele>217.66666666666669</ele><time>2026-04-24T12:13:24.065Z</time></trkpt><trkpt lat="42.0828767" lon="11.957465"><ele>218.0</ele><time>2026-04-24T12:13:25.063Z</time></trkpt><trkpt lat="42.08294" lon="11.95749"><ele>218.0</ele><time>2026-04-24T12:13:26.064Z</time></trkpt><trkpt lat="42.083055" lon="11.9574967"><ele>218.0</ele><time>2026-04-24T12:13:28.062Z</time></trkpt><trkpt lat="42.0831617" lon="11.9574217"><ele>218.0</ele><time>2026-04-24T12:13:30.064Z</time></trkpt><trkpt lat="42.0832033" lon="11.95735"><ele>218.0</ele><time>2026-04-24T12:13:31.065Z</time></trkpt><trkpt lat="42.0832417" lon="11.9572633"><ele>218.0</ele><time>2026-04-24T12:13:32.063Z</time></trkpt><trkpt lat="42.0832783" lon="11.9571767"><ele>217.83333333333334</ele><time>2026-04-24T12:13:33.063Z</time></trkpt><trkpt lat="42.0833083" lon="11.95709"><ele>217.66666666666669</ele><time>2026-04-24T12:13:34.063Z</time></trkpt><trkpt lat="42.0833367" lon="11.95699"><ele>217.5</ele><time>2026-04-24T12:13:35.062Z</time></trkpt><trkpt lat="42.0833667" lon="11.95688"><ele>217.33333333333331</ele><time>2026-04-24T12:13:36.064Z</time></trkpt><trkpt lat="42.0833917" lon="11.95677"><ele>217.16666666666666</ele><time>2026-04-24T12:13:37.063Z</time></trkpt><trkpt lat="42.0834083" lon="11.95666"><ele>217.0</ele><time>2026-04-24T12:13:38.063Z</time></trkpt><trkpt lat="42.0834283" lon="11.9565633"><ele>216.99999999999997</ele><time>2026-04-24T12:13:39.064Z</time></trkpt><trkpt lat="42.08346" lon="11.9564767"><ele>217.0</ele><time>2026-04-24T12:13:40.065Z</time></trkpt><trkpt lat="42.0835017" lon="11.9563967"><ele>217.0</ele><time>2026-04-24T12:13:41.063Z</time></trkpt><trkpt lat="42.0835483" lon="11.9563183"><ele>217.0</ele><time>2026-04-24T12:13:42.062Z</time></trkpt><trkpt lat="42.0835983" lon="11.9562317"><ele>216.99999999999997</ele><time>2026-04-24T12:13:43.065Z</time></trkpt><trkpt lat="42.08365" lon="11.956145"><ele>217.0</ele><time>2026-04-24T12:13:44.063Z</time></trkpt><trkpt lat="42.0837083" lon="11.956065"><ele>216.99999999999997</ele><time>2026-04-24T12:13:45.064Z</time></trkpt><trkpt lat="42.083775" lon="11.9559867"><ele>217.0</ele><time>2026-04-24T12:13:46.064Z</time></trkpt><trkpt lat="42.0838433" lon="11.9559167"><ele>217.0</ele><time>2026-04-24T12:13:47.063Z</time></trkpt><trkpt lat="42.0839133" lon="11.95585"><ele>217.0</ele><time>2026-04-24T12:13:48.065Z</time></trkpt><trkpt lat="42.0839817" lon="11.9557833"><ele>216.99999999999997</ele><time>2026-04-24T12:13:49.067Z</time></trkpt><trkpt lat="42.0840533" lon="11.955715"><ele>217.0</ele><time>2026-04-24T12:13:50.062Z</time></trkpt><trkpt lat="42.0841233" lon="11.9556517"><ele>216.57142857142858</ele><time>2026-04-24T12:13:51.063Z</time></trkpt><trkpt lat="42.0841917" lon="11.9555917"><ele>216.14285714285714</ele><time>2026-04-24T12:13:52.064Z</time></trkpt><trkpt lat="42.0842567" lon="11.955535"><ele>215.71428571428572</ele><time>2026-04-24T12:13:53.063Z</time></trkpt><trkpt lat="42.0843167" lon="11.9554733"><ele>215.28571428571428</ele><time>2026-04-24T12:13:54.065Z</time></trkpt><trkpt lat="42.0843683" lon="11.9554067"><ele>214.85714285714286</ele><time>2026-04-24T12:13:55.064Z</time></trkpt><trkpt lat="42.0844117" lon="11.9553333"><ele>214.42857142857144</ele><time>2026-04-24T12:13:56.063Z</time></trkpt><trkpt lat="42.08444" lon="11.95525"><ele>214.0</ele><time>2026-04-24T12:13:57.064Z</time></trkpt><trkpt lat="42.08446" lon="11.955155"><ele>213.99999999999997</ele><time>2026-04-24T12:13:58.063Z</time></trkpt><trkpt lat="42.08449" lon="11.95506"><ele>214.0</ele><time>2026-04-24T12:13:59.063Z</time></trkpt><trkpt lat="42.0845167" lon="11.9549667"><ele>214.0</ele><time>2026-04-24T12:14:00.064Z</time></trkpt><trkpt lat="42.0845383" lon="11.954885"><ele>214.0</ele><time>2026-04-24T12:14:01.065Z</time></trkpt><trkpt lat="42.08461" lon="11.9547583"><ele>213.99999999999997</ele><time>2026-04-24T12:14:03.063Z</time></trkpt><trkpt lat="42.084665" lon="11.9547067"><ele>214.0</ele><time>2026-04-24T12:14:04.062Z</time></trkpt><trkpt lat="42.0847233" lon="11.954655"><ele>213.66666666666666</ele><time>2026-04-24T12:14:05.064Z</time></trkpt><trkpt lat="42.0847867" lon="11.9546083"><ele>213.33333333333331</ele><time>2026-04-24T12:14:06.064Z</time></trkpt><trkpt lat="42.0848533" lon="11.9545533"><ele>213.0</ele><time>2026-04-24T12:14:07.065Z</time></trkpt><trkpt lat="42.0849167" lon="11.9544917"><ele>212.66666666666669</ele><time>2026-04-24T12:14:08.063Z</time></trkpt><trkpt lat="42.0849833" lon="11.9544317"><ele>212.33333333333334</ele><time>2026-04-24T12:14:09.064Z</time></trkpt><trkpt lat="42.0850483" lon="11.9543733"><ele>212.0</ele><time>2026-04-24T12:14:10.064Z</time></trkpt><trkpt lat="42.08512" lon="11.9543117"><ele>212.00000000000003</ele><time>2026-04-24T12:14:11.063Z</time></trkpt><trkpt lat="42.0851883" lon="11.954245"><ele>212.0</ele><time>2026-04-24T12:14:12.062Z</time></trkpt><trkpt lat="42.0852583" lon="11.95417"><ele>212.0</ele><time>2026-04-24T12:14:13.063Z</time></trkpt><trkpt lat="42.085325" lon="11.9540933"><ele>212.0</ele><time>2026-04-24T12:14:14.063Z</time></trkpt><trkpt lat="42.08539" lon="11.95401"><ele>212.00000000000003</ele><time>2026-04-24T12:14:15.065Z</time></trkpt><trkpt lat="42.08546" lon="11.9539267"><ele>212.0</ele><time>2026-04-24T12:14:16.062Z</time></trkpt><trkpt lat="42.0855233" lon="11.95385"><ele>213.16666666666669</ele><time>2026-04-24T12:14:17.063Z</time></trkpt><trkpt lat="42.0855917" lon="11.9537717"><ele>214.33333333333334</ele><time>2026-04-24T12:14:18.064Z</time></trkpt><trkpt lat="42.08566" lon="11.9536983"><ele>215.5</ele><time>2026-04-24T12:14:19.063Z</time></trkpt><trkpt lat="42.08572" lon="11.9536433"><ele>216.66666666666669</ele><time>2026-04-24T12:14:20.065Z</time></trkpt><trkpt lat="42.0858317" lon="11.953585"><ele>217.83333333333334</ele><time>2026-04-24T12:14:22.064Z</time></trkpt><trkpt lat="42.08589" lon="11.9535417"><ele>219.0</ele><time>2026-04-24T12:14:23.062Z</time></trkpt><trkpt lat="42.08595" lon="11.9534733"><ele>219.57142857142858</ele><time>2026-04-24T12:14:24.064Z</time></trkpt><trkpt lat="42.086005" lon="11.953395"><ele>220.14285714285714</ele><time>2026-04-24T12:14:25.065Z</time></trkpt><trkpt lat="42.086045" lon="11.9533083"><ele>220.71428571428572</ele><time>2026-04-24T12:14:26.065Z</time></trkpt><trkpt lat="42.0860717" lon="11.9532217"><ele>221.28571428571428</ele><time>2026-04-24T12:14:27.063Z</time></trkpt><trkpt lat="42.0860933" lon="11.9531267"><ele>221.85714285714283</ele><time>2026-04-24T12:14:28.066Z</time></trkpt><trkpt lat="42.086115" lon="11.9530267"><ele>222.42857142857142</ele><time>2026-04-24T12:14:29.066Z</time></trkpt><trkpt lat="42.08614" lon="11.952935"><ele>223.0</ele><time>2026-04-24T12:14:30.065Z</time></trkpt><trkpt lat="42.0861933" lon="11.9528017"><ele>223.83333333333331</ele><time>2026-04-24T12:14:32.064Z</time></trkpt><trkpt lat="42.08625" lon="11.9527183"><ele>224.66666666666666</ele><time>2026-04-24T12:14:34.064Z</time></trkpt><trkpt lat="42.0863117" lon="11.9526767"><ele>225.5</ele><time>2026-04-24T12:14:37.064Z</time></trkpt><trkpt lat="42.0863717" lon="11.952595"><ele>226.33333333333331</ele><time>2026-04-24T12:14:40.063Z</time></trkpt><trkpt lat="42.0864217" lon="11.9524967"><ele>227.16666666666666</ele><time>2026-04-24T12:14:43.067Z</time></trkpt><trkpt lat="42.0865017" lon="11.9524683"><ele>228.0</ele><time>2026-04-24T12:14:48.074Z</time></trkpt><trkpt lat="42.0865867" lon="11.9524167"><ele>228.5</ele><time>2026-04-24T12:16:10.063Z</time></trkpt><trkpt lat="42.08667" lon="11.9523567"><ele>229.0</ele><time>2026-04-24T12:16:12.063Z</time></trkpt><trkpt lat="42.086725" lon="11.9523117"><ele>229.5</ele><time>2026-04-24T12:16:13.065Z</time></trkpt><trkpt lat="42.0867833" lon="11.9522683"><ele>230.0</ele><time>2026-04-24T12:16:14.065Z</time></trkpt><trkpt lat="42.0868767" lon="11.9521683"><ele>230.5</ele><time>2026-04-24T12:16:16.064Z</time></trkpt><trkpt lat="42.0869333" lon="11.9520667"><ele>231.0</ele><time>2026-04-24T12:16:18.063Z</time></trkpt><trkpt lat="42.0869867" lon="11.9519417"><ele>231.0</ele><time>2026-04-24T12:16:20.066Z</time></trkpt><trkpt lat="42.087015" lon="11.9518017"><ele>231.00000000000003</ele><time>2026-04-24T12:16:22.064Z</time></trkpt><trkpt lat="42.08702" lon="11.9516533"><ele>231.00000000000003</ele><time>2026-04-24T12:16:24.064Z</time></trkpt><trkpt lat="42.0870333" lon="11.951505"><ele>231.0</ele><time>2026-04-24T12:16:26.065Z</time></trkpt><trkpt lat="42.0870333" lon="11.951345"><ele>231.0</ele><time>2026-04-24T12:16:28.066Z</time></trkpt><trkpt lat="42.0870283" lon="11.9512533"><ele>234.20000000000002</ele><time>2026-04-24T12:16:29.063Z</time></trkpt><trkpt lat="42.0870217" lon="11.9511683"><ele>237.40000000000003</ele><time>2026-04-24T12:16:30.064Z</time></trkpt><trkpt lat="42.08701" lon="11.9510183"><ele>240.6</ele><time>2026-04-24T12:16:32.064Z</time></trkpt><trkpt lat="42.0869633" lon="11.9508733"><ele>243.8</ele><time>2026-04-24T12:16:34.063Z</time></trkpt><trkpt lat="42.086925" lon="11.9507283"><ele>247.0</ele><time>2026-04-24T12:16:36.064Z</time></trkpt><trkpt lat="42.0869183" lon="11.9505933"><ele>248.0</ele><time>2026-04-24T12:16:38.063Z</time></trkpt><trkpt lat="42.0869533" lon="11.9504683"><ele>249.0</ele><time>2026-04-24T12:16:40.063Z</time></trkpt><trkpt lat="42.0870183" lon="11.9503233"><ele>250.0</ele><time>2026-04-24T12:16:42.065Z</time></trkpt><trkpt lat="42.0870817" lon="11.9501883"><ele>251.0</ele><time>2026-04-24T12:16:44.066Z</time></trkpt><trkpt lat="42.0871217" lon="11.9500567"><ele>252.0</ele><time>2026-04-24T12:16:46.065Z</time></trkpt><trkpt lat="42.08718" lon="11.949935"><ele>252.39999999999998</ele><time>2026-04-24T12:16:48.065Z</time></trkpt><trkpt lat="42.087245" lon="11.9498433"><ele>252.79999999999998</ele><time>2026-04-24T12:16:50.064Z</time></trkpt><trkpt lat="42.0873333" lon="11.9497967"><ele>253.2</ele><time>2026-04-24T12:16:52.063Z</time></trkpt><trkpt lat="42.0874517" lon="11.949785"><ele>253.6</ele><time>2026-04-24T12:16:54.065Z</time></trkpt><trkpt lat="42.08755" lon="11.94977"><ele>254.0</ele><time>2026-04-24T12:16:56.066Z</time></trkpt><trkpt lat="42.0876367" lon="11.949715"><ele>252.0</ele><time>2026-04-24T12:16:58.066Z</time></trkpt><trkpt lat="42.0877133" lon="11.949625"><ele>249.99999999999997</ele><time>2026-04-24T12:17:00.063Z</time></trkpt><trkpt lat="42.0877767" lon="11.9495183"><ele>247.99999999999997</ele><time>2026-04-24T12:17:02.064Z</time></trkpt><trkpt lat="42.0878383" lon="11.949415"><ele>246.0</ele><time>2026-04-24T12:17:04.066Z</time></trkpt><trkpt lat="42.0878883" lon="11.9493"><ele>244.0</ele><time>2026-04-24T12:17:06.063Z</time></trkpt><trkpt lat="42.0879383" lon="11.9491933"><ele>243.99999999999997</ele><time>2026-04-24T12:17:08.065Z</time></trkpt><trkpt lat="42.0879833" lon="11.949115"><ele>244.0</ele><time>2026-04-24T12:17:10.064Z</time></trkpt><trkpt lat="42.0879917" lon="11.9490233"><ele>243.99999999999997</ele><time>2026-04-24T12:17:12.063Z</time></trkpt><trkpt lat="42.0880467" lon="11.9489517"><ele>243.99999999999997</ele><time>2026-04-24T12:17:14.066Z</time></trkpt><trkpt lat="42.0881017" lon="11.9488833"><ele>244.0</ele><time>2026-04-24T12:17:16.064Z</time></trkpt><trkpt lat="42.0881633" lon="11.948825"><ele>243.99999999999997</ele><time>2026-04-24T12:17:18.063Z</time></trkpt><trkpt lat="42.0882217" lon="11.94877"><ele>243.99999999999997</ele><time>2026-04-24T12:17:20.063Z</time></trkpt><trkpt lat="42.0882717" lon="11.9486883"><ele>241.99999999999997</ele><time>2026-04-24T12:17:23.066Z</time></trkpt><trkpt lat="42.0883367" lon="11.9485917"><ele>240.0</ele><time>2026-04-24T12:17:26.064Z</time></trkpt><trkpt lat="42.08839" lon="11.94854"><ele>238.0</ele><time>2026-04-24T12:17:28.065Z</time></trkpt><trkpt lat="42.0884417" lon="11.9484833"><ele>236.0</ele><time>2026-04-24T12:17:30.063Z</time></trkpt><trkpt lat="42.0885033" lon="11.9484367"><ele>233.99999999999997</ele><time>2026-04-24T12:17:32.063Z</time></trkpt><trkpt lat="42.088565" lon="11.94837"><ele>232.0</ele><time>2026-04-24T12:17:34.062Z</time></trkpt><trkpt lat="42.08863" lon="11.9482833"><ele>231.99999999999997</ele><time>2026-04-24T12:17:36.064Z</time></trkpt><trkpt lat="42.0886917" lon="11.94819"><ele>232.0</ele><time>2026-04-24T12:17:38.066Z</time></trkpt><trkpt lat="42.0887183" lon="11.9481083"><ele>232.0</ele><time>2026-04-24T12:17:40.064Z</time></trkpt><trkpt lat="42.0887567" lon="11.9480367"><ele>232.0</ele><time>2026-04-24T12:17:42.063Z</time></trkpt><trkpt lat="42.0888317" lon="11.94803"><ele>231.99999999999997</ele><time>2026-04-24T12:17:45.064Z</time></trkpt><trkpt lat="42.0889183" lon="11.9480567"><ele>232.0</ele><time>2026-04-24T12:17:48.065Z</time></trkpt><trkpt lat="42.0889817" lon="11.94807"><ele>232.0</ele><time>2026-04-24T12:17:50.067Z</time></trkpt><trkpt lat="42.0890583" lon="11.9480517"><ele>232.0</ele><time>2026-04-24T12:17:52.068Z</time></trkpt><trkpt lat="42.0891617" lon="11.9480167"><ele>232.0</ele><time>2026-04-24T12:17:54.063Z</time></trkpt><trkpt lat="42.0892683" lon="11.94799"><ele>232.0</ele><time>2026-04-24T12:17:56.063Z</time></trkpt><trkpt lat="42.0893817" lon="11.94797"><ele>232.0</ele><time>2026-04-24T12:17:58.063Z</time></trkpt><trkpt lat="42.0894817" lon="11.947955"><ele>230.39999999999998</ele><time>2026-04-24T12:18:00.064Z</time></trkpt><trkpt lat="42.0895833" lon="11.94793"><ele>228.79999999999998</ele><time>2026-04-24T12:18:02.065Z</time></trkpt><trkpt lat="42.089675" lon="11.9478983"><ele>227.2</ele><time>2026-04-24T12:18:04.066Z</time></trkpt><trkpt lat="42.089765" lon="11.9478633"><ele>225.6</ele><time>2026-04-24T12:18:06.064Z</time></trkpt><trkpt lat="42.0898617" lon="11.9478067"><ele>224.0</ele><time>2026-04-24T12:18:08.065Z</time></trkpt><trkpt lat="42.0899517" lon="11.94773"><ele>224.6</ele><time>2026-04-24T12:18:10.063Z</time></trkpt><trkpt lat="42.090035" lon="11.9476717"><ele>225.2</ele><time>2026-04-24T12:18:12.063Z</time></trkpt><trkpt lat="42.0901133" lon="11.9476067"><ele>225.79999999999998</ele><time>2026-04-24T12:18:15.063Z</time></trkpt><trkpt lat="42.0901917" lon="11.94754"><ele>226.39999999999998</ele><time>2026-04-24T12:18:17.063Z</time></trkpt><trkpt lat="42.0902733" lon="11.94746"><ele>227.0</ele><time>2026-04-24T12:18:19.064Z</time></trkpt><trkpt lat="42.09036" lon="11.9473817"><ele>227.00000000000003</ele><time>2026-04-24T12:18:21.065Z</time></trkpt><trkpt lat="42.09043" lon="11.9472917"><ele>227.0</ele><time>2026-04-24T12:18:23.063Z</time></trkpt><trkpt lat="42.0904883" lon="11.9471917"><ele>227.0</ele><time>2026-04-24T12:18:25.063Z</time></trkpt><trkpt lat="42.090525" lon="11.94708"><ele>227.0</ele><time>2026-04-24T12:18:27.064Z</time></trkpt><trkpt lat="42.0905317" lon="11.9469767"><ele>227.00000000000003</ele><time>2026-04-24T12:18:29.062Z</time></trkpt><trkpt lat="42.0905033" lon="11.9468867"><ele>227.0</ele><time>2026-04-24T12:18:31.064Z</time></trkpt><trkpt lat="42.0904533" lon="11.9468283"><ele>227.00000000000003</ele><time>2026-04-24T12:18:33.064Z</time></trkpt><trkpt lat="42.0903767" lon="11.946815"><ele>227.0</ele><time>2026-04-24T12:18:52.063Z</time></trkpt><trkpt lat="42.0903487" lon="11.9468951"><ele>227.0</ele><time>2026-04-24T12:18:56.086Z</time></trkpt><trkpt lat="42.0902513" lon="11.9468693"><ele>227.0</ele><time>2026-04-24T12:18:58.178Z</time></trkpt><trkpt lat="42.090177" lon="11.9468777"><ele>227.00000000000003</ele><time>2026-04-24T12:19:00.139Z</time></trkpt><trkpt lat="42.0901058" lon="11.9469954"><ele>227.0</ele><time>2026-04-24T12:19:03.124Z</time></trkpt><trkpt lat="42.090015" lon="11.9469417"><ele>227.00000000000003</ele><time>2026-04-24T12:19:04.063Z</time></trkpt><trkpt lat="42.089945" lon="11.946965"><ele>227.0</ele><time>2026-04-24T12:19:06.063Z</time></trkpt><trkpt lat="42.089865" lon="11.946995"><ele>227.0</ele><time>2026-04-24T12:19:08.063Z</time></trkpt><trkpt lat="42.0897917" lon="11.9470217"><ele>227.0</ele><time>2026-04-24T12:19:10.062Z</time></trkpt><trkpt lat="42.08966" lon="11.9470633"><ele>227.00000000000003</ele><time>2026-04-24T12:19:30.063Z</time></trkpt><trkpt lat="42.0895967" lon="11.9470883"><ele>227.0</ele><time>2026-04-24T12:19:31.063Z</time></trkpt><trkpt lat="42.08953" lon="11.9471067"><ele>229.0</ele><time>2026-04-24T12:19:32.066Z</time></trkpt><trkpt lat="42.0894017" lon="11.94713"><ele>231.0</ele><time>2026-04-24T12:19:34.063Z</time></trkpt><trkpt lat="42.0892867" lon="11.947125"><ele>233.0</ele><time>2026-04-24T12:19:36.062Z</time></trkpt><trkpt lat="42.0891767" lon="11.94712"><ele>235.0</ele><time>2026-04-24T12:19:38.063Z</time></trkpt><trkpt lat="42.0890633" lon="11.9471133"><ele>235.85714285714283</ele><time>2026-04-24T12:19:40.064Z</time></trkpt><trkpt lat="42.0889967" lon="11.947095"><ele>236.7142857142857</ele><time>2026-04-24T12:19:41.064Z</time></trkpt><trkpt lat="42.0889283" lon="11.94707"><ele>237.57142857142856</ele><time>2026-04-24T12:19:42.066Z</time></trkpt><trkpt lat="42.0888567" lon="11.9470483"><ele>238.42857142857144</ele><time>2026-04-24T12:19:43.065Z</time></trkpt><trkpt lat="42.0887867" lon="11.9470233"><ele>239.2857142857143</ele><time>2026-04-24T12:19:44.065Z</time></trkpt><trkpt lat="42.088715" lon="11.9469967"><ele>240.14285714285717</ele><time>2026-04-24T12:19:45.064Z</time></trkpt><trkpt lat="42.08865" lon="11.94697"><ele>241.0</ele><time>2026-04-24T12:19:46.064Z</time></trkpt><trkpt lat="42.0885867" lon="11.9469417"><ele>240.99999999999997</ele><time>2026-04-24T12:19:47.065Z</time></trkpt><trkpt lat="42.0885183" lon="11.9469217"><ele>241.0</ele><time>2026-04-24T12:19:48.064Z</time></trkpt><trkpt lat="42.0884517" lon="11.9469067"><ele>241.0</ele><time>2026-04-24T12:19:49.065Z</time></trkpt><trkpt lat="42.0883867" lon="11.9468967"><ele>241.0</ele><time>2026-04-24T12:19:50.065Z</time></trkpt><trkpt lat="42.0883183" lon="11.9468983"><ele>240.99999999999997</ele><time>2026-04-24T12:19:51.065Z</time></trkpt><trkpt lat="42.0882533" lon="11.9469"><ele>241.0</ele><time>2026-04-24T12:19:52.064Z</time></trkpt><trkpt lat="42.0881417" lon="11.9469267"><ele>243.8</ele><time>2026-04-24T12:19:54.065Z</time></trkpt><trkpt lat="42.0880433" lon="11.9469633"><ele>246.60000000000002</ele><time>2026-04-24T12:19:56.065Z</time></trkpt><trkpt lat="42.08794" lon="11.94701"><ele>249.4</ele><time>2026-04-24T12:19:58.065Z</time></trkpt><trkpt lat="42.087845" lon="11.9470617"><ele>252.2</ele><time>2026-04-24T12:20:00.066Z</time></trkpt><trkpt lat="42.0877683" lon="11.9470983"><ele>255.0</ele><time>2026-04-24T12:20:02.066Z</time></trkpt><trkpt lat="42.0876833" lon="11.94714"><ele>255.0</ele><time>2026-04-24T12:20:05.065Z</time></trkpt><trkpt lat="42.087615" lon="11.9471567"><ele>255.0</ele><time>2026-04-24T12:20:07.07Z</time></trkpt><trkpt lat="42.0875367" lon="11.9471633"><ele>255.0</ele><time>2026-04-24T12:20:09.063Z</time></trkpt><trkpt lat="42.08746" lon="11.9471533"><ele>255.0</ele><time>2026-04-24T12:20:11.064Z</time></trkpt><trkpt lat="42.0873617" lon="11.9471533"><ele>255.0</ele><time>2026-04-24T12:20:14.064Z</time></trkpt><trkpt lat="42.0872883" lon="11.9471233"><ele>255.0</ele><time>2026-04-24T12:20:16.066Z</time></trkpt><trkpt lat="42.0872217" lon="11.9470633"><ele>258.4</ele><time>2026-04-24T12:20:18.064Z</time></trkpt><trkpt lat="42.0871483" lon="11.9470033"><ele>261.8</ele><time>2026-04-24T12:20:20.065Z</time></trkpt><trkpt lat="42.087065" lon="11.9469683"><ele>265.2</ele><time>2026-04-24T12:20:23.065Z</time></trkpt><trkpt lat="42.08698" lon="11.9469967"><ele>268.6</ele><time>2026-04-24T12:20:25.064Z</time></trkpt><trkpt lat="42.086875" lon="11.9470383"><ele>272.0</ele><time>2026-04-24T12:20:27.064Z</time></trkpt><trkpt lat="42.0867833" lon="11.94699"><ele>272.0</ele><time>2026-04-24T12:20:29.065Z</time></trkpt><trkpt lat="42.086755" lon="11.9468667"><ele>272.0</ele><time>2026-04-24T12:20:31.065Z</time></trkpt><trkpt lat="42.0867483" lon="11.9466983"><ele>272.0</ele><time>2026-04-24T12:20:33.064Z</time></trkpt><trkpt lat="42.0867433" lon="11.9466133"><ele>272.0</ele><time>2026-04-24T12:20:34.064Z</time></trkpt><trkpt lat="42.0867233" lon="11.946525"><ele>272.0</ele><time>2026-04-24T12:20:35.064Z</time></trkpt><trkpt lat="42.0867033" lon="11.946425"><ele>272.0</ele><time>2026-04-24T12:20:36.064Z</time></trkpt><trkpt lat="42.0866883" lon="11.9463217"><ele>272.1666666666667</ele><time>2026-04-24T12:20:37.062Z</time></trkpt><trkpt lat="42.0866767" lon="11.9462317"><ele>272.33333333333337</ele><time>2026-04-24T12:20:38.065Z</time></trkpt><trkpt lat="42.08668" lon="11.946145"><ele>272.5</ele><time>2026-04-24T12:20:40.063Z</time></trkpt><trkpt lat="42.0866667" lon="11.9460533"><ele>272.6666666666667</ele><time>2026-04-24T12:27:43.063Z</time></trkpt><trkpt lat="42.0866333" lon="11.9459117"><ele>272.8333333333333</ele><time>2026-04-24T12:27:45.062Z</time></trkpt><trkpt lat="42.0866133" lon="11.9457817"><ele>273.0</ele><time>2026-04-24T12:27:47.063Z</time></trkpt><trkpt lat="42.086635" lon="11.9456767"><ele>272.5</ele><time>2026-04-24T12:27:49.064Z</time></trkpt><trkpt lat="42.0866267" lon="11.9455683"><ele>272.0</ele><time>2026-04-24T12:27:51.065Z</time></trkpt><trkpt lat="42.0866367" lon="11.9454667"><ele>271.5</ele><time>2026-04-24T12:27:53.065Z</time></trkpt><trkpt lat="42.086705" lon="11.9454483"><ele>271.0</ele><time>2026-04-24T12:28:59.065Z</time></trkpt><trkpt lat="42.0867683" lon="11.9453983"><ele>270.5</ele><time>2026-04-24T12:30:25.064Z</time></trkpt><trkpt lat="42.0868933" lon="11.9453817"><ele>270.0</ele><time>2026-04-24T12:30:27.065Z</time></trkpt><trkpt lat="42.08698" lon="11.94537"><ele>270.0</ele><time>2026-04-24T12:30:28.064Z</time></trkpt><trkpt lat="42.087075" lon="11.9453567"><ele>270.0</ele><time>2026-04-24T12:30:29.065Z</time></trkpt><trkpt lat="42.08718" lon="11.94534"><ele>270.0</ele><time>2026-04-24T12:30:30.065Z</time></trkpt><trkpt lat="42.0872917" lon="11.9453183"><ele>270.0</ele><time>2026-04-24T12:30:31.064Z</time></trkpt><trkpt lat="42.0874033" lon="11.9452967"><ele>270.0</ele><time>2026-04-24T12:30:32.067Z</time></trkpt><trkpt lat="42.0875167" lon="11.945275"><ele>269.8</ele><time>2026-04-24T12:30:33.066Z</time></trkpt><trkpt lat="42.0876317" lon="11.94525"><ele>269.6</ele><time>2026-04-24T12:30:34.065Z</time></trkpt><trkpt lat="42.08774" lon="11.9452217"><ele>269.4</ele><time>2026-04-24T12:30:35.064Z</time></trkpt><trkpt lat="42.0878417" lon="11.94518"><ele>269.2</ele><time>2026-04-24T12:30:36.065Z</time></trkpt><trkpt lat="42.08794" lon="11.94512"><ele>269.0</ele><time>2026-04-24T12:30:37.063Z</time></trkpt><trkpt lat="42.0880467" lon="11.9450567"><ele>268.25</ele><time>2026-04-24T12:30:38.064Z</time></trkpt><trkpt lat="42.0881567" lon="11.945005"><ele>267.5</ele><time>2026-04-24T12:30:39.067Z</time></trkpt><trkpt lat="42.08827" lon="11.9449583"><ele>266.75</ele><time>2026-04-24T12:30:40.065Z</time></trkpt><trkpt lat="42.0883817" lon="11.9449133"><ele>266.0</ele><time>2026-04-24T12:30:41.065Z</time></trkpt><trkpt lat="42.0884883" lon="11.9448683"><ele>267.8</ele><time>2026-04-24T12:30:42.066Z</time></trkpt><trkpt lat="42.0885967" lon="11.9448367"><ele>269.6</ele><time>2026-04-24T12:30:43.065Z</time></trkpt><trkpt lat="42.088705" lon="11.9448183"><ele>271.4</ele><time>2026-04-24T12:30:44.065Z</time></trkpt><trkpt lat="42.0888117" lon="11.9448017"><ele>273.2</ele><time>2026-04-24T12:30:45.063Z</time></trkpt><trkpt lat="42.088915" lon="11.9447783"><ele>275.0</ele><time>2026-04-24T12:30:46.065Z</time></trkpt><trkpt lat="42.0890167" lon="11.94475"><ele>275.0</ele><time>2026-04-24T12:30:47.062Z</time></trkpt><trkpt lat="42.0891183" lon="11.944725"><ele>275.0</ele><time>2026-04-24T12:30:48.064Z</time></trkpt><trkpt lat="42.0892117" lon="11.9447017"><ele>275.0</ele><time>2026-04-24T12:30:49.066Z</time></trkpt><trkpt lat="42.089295" lon="11.9446733"><ele>275.0</ele><time>2026-04-24T12:30:50.064Z</time></trkpt><trkpt lat="42.0893783" lon="11.9446367"><ele>275.0</ele><time>2026-04-24T12:30:51.064Z</time></trkpt><trkpt lat="42.0894633" lon="11.944585"><ele>275.0</ele><time>2026-04-24T12:30:52.066Z</time></trkpt><trkpt lat="42.089555" lon="11.944525"><ele>275.0</ele><time>2026-04-24T12:30:53.062Z</time></trkpt><trkpt lat="42.08965" lon="11.9444583"><ele>275.0</ele><time>2026-04-24T12:30:54.064Z</time></trkpt><trkpt lat="42.0897433" lon="11.944395"><ele>275.0</ele><time>2026-04-24T12:30:55.065Z</time></trkpt><trkpt lat="42.0898383" lon="11.9443383"><ele>275.0</ele><time>2026-04-24T12:30:56.064Z</time></trkpt><trkpt lat="42.0899367" lon="11.9442883"><ele>274.33333333333337</ele><time>2026-04-24T12:30:57.065Z</time></trkpt><trkpt lat="42.0900367" lon="11.9442533"><ele>273.6666666666667</ele><time>2026-04-24T12:30:58.064Z</time></trkpt><trkpt lat="42.0901367" lon="11.9442333"><ele>273.0</ele><time>2026-04-24T12:30:59.066Z</time></trkpt><trkpt lat="42.09023" lon="11.9442183"><ele>272.3333333333333</ele><time>2026-04-24T12:31:00.064Z</time></trkpt><trkpt lat="42.0903083" lon="11.9442067"><ele>271.66666666666663</ele><time>2026-04-24T12:31:01.065Z</time></trkpt><trkpt lat="42.0903767" lon="11.944185"><ele>271.0</ele><time>2026-04-24T12:31:02.065Z</time></trkpt><trkpt lat="42.0904467" lon="11.9441533"><ele>271.0</ele><time>2026-04-24T12:31:03.066Z</time></trkpt><trkpt lat="42.0905183" lon="11.9441167"><ele>271.0</ele><time>2026-04-24T12:31:04.065Z</time></trkpt><trkpt lat="42.0905917" lon="11.9440833"><ele>271.0</ele><time>2026-04-24T12:31:05.063Z</time></trkpt><trkpt lat="42.090665" lon="11.944065"><ele>271.0</ele><time>2026-04-24T12:31:06.064Z</time></trkpt><trkpt lat="42.0907383" lon="11.94405"><ele>271.0</ele><time>2026-04-24T12:31:07.063Z</time></trkpt><trkpt lat="42.0908067" lon="11.944025"><ele>271.0</ele><time>2026-04-24T12:31:08.137Z</time></trkpt><trkpt lat="42.0908733" lon="11.9439933"><ele>271.0</ele><time>2026-04-24T12:31:09.064Z</time></trkpt><trkpt lat="42.0909467" lon="11.9439633"><ele>271.3333333333333</ele><time>2026-04-24T12:31:10.066Z</time></trkpt><trkpt lat="42.0910217" lon="11.9439367"><ele>271.66666666666663</ele><time>2026-04-24T12:31:11.067Z</time></trkpt><trkpt lat="42.0910967" lon="11.9439117"><ele>272.0</ele><time>2026-04-24T12:31:12.065Z</time></trkpt><trkpt lat="42.09117" lon="11.9438733"><ele>272.3333333333333</ele><time>2026-04-24T12:31:13.064Z</time></trkpt><trkpt lat="42.0912383" lon="11.9438233"><ele>272.6666666666667</ele><time>2026-04-24T12:31:14.064Z</time></trkpt><trkpt lat="42.0912983" lon="11.94376"><ele>273.0</ele><time>2026-04-24T12:31:15.064Z</time></trkpt><trkpt lat="42.091355" lon="11.943685"><ele>273.0</ele><time>2026-04-24T12:31:16.064Z</time></trkpt><trkpt lat="42.0914133" lon="11.9436067"><ele>273.0</ele><time>2026-04-24T12:31:17.064Z</time></trkpt><trkpt lat="42.0914767" lon="11.943535"><ele>273.0</ele><time>2026-04-24T12:31:18.064Z</time></trkpt><trkpt lat="42.091545" lon="11.943465"><ele>273.0</ele><time>2026-04-24T12:31:19.064Z</time></trkpt><trkpt lat="42.0916183" lon="11.9433983"><ele>273.0</ele><time>2026-04-24T12:31:20.066Z</time></trkpt><trkpt lat="42.0916933" lon="11.943335"><ele>273.0</ele><time>2026-04-24T12:31:21.063Z</time></trkpt><trkpt lat="42.0917683" lon="11.9432717"><ele>274.1666666666667</ele><time>2026-04-24T12:31:22.064Z</time></trkpt><trkpt lat="42.0918383" lon="11.9431983"><ele>275.3333333333333</ele><time>2026-04-24T12:31:23.065Z</time></trkpt><trkpt lat="42.091905" lon="11.9431217"><ele>276.5</ele><time>2026-04-24T12:31:24.064Z</time></trkpt><trkpt lat="42.0919733" lon="11.943045"><ele>277.66666666666663</ele><time>2026-04-24T12:31:25.064Z</time></trkpt><trkpt lat="42.0920383" lon="11.942965"><ele>278.8333333333333</ele><time>2026-04-24T12:31:26.063Z</time></trkpt><trkpt lat="42.0921033" lon="11.9428883"><ele>280.0</ele><time>2026-04-24T12:31:27.064Z</time></trkpt><trkpt lat="42.092175" lon="11.9428267"><ele>280.0</ele><time>2026-04-24T12:31:28.065Z</time></trkpt><trkpt lat="42.092245" lon="11.942775"><ele>280.0</ele><time>2026-04-24T12:31:29.064Z</time></trkpt><trkpt lat="42.092315" lon="11.9426617"><ele>280.0</ele><time>2026-04-24T12:31:31.065Z</time></trkpt><trkpt lat="42.0923333" lon="11.94251"><ele>280.0</ele><time>2026-04-24T12:31:33.066Z</time></trkpt><trkpt lat="42.092385" lon="11.942345"><ele>280.0</ele><time>2026-04-24T12:31:35.064Z</time></trkpt><trkpt lat="42.0924317" lon="11.9422617"><ele>280.5</ele><time>2026-04-24T12:31:36.066Z</time></trkpt><trkpt lat="42.0924833" lon="11.9421733"><ele>281.0</ele><time>2026-04-24T12:31:37.066Z</time></trkpt><trkpt lat="42.09254" lon="11.9420867"><ele>281.5</ele><time>2026-04-24T12:31:38.066Z</time></trkpt><trkpt lat="42.092595" lon="11.9420083"><ele>282.0</ele><time>2026-04-24T12:31:39.065Z</time></trkpt><trkpt lat="42.0926433" lon="11.9419433"><ele>282.5</ele><time>2026-04-24T12:31:40.064Z</time></trkpt><trkpt lat="42.0927517" lon="11.94186"><ele>283.0</ele><time>2026-04-24T12:31:42.065Z</time></trkpt><trkpt lat="42.0928133" lon="11.9418017"><ele>283.0</ele><time>2026-04-24T12:31:43.065Z</time></trkpt><trkpt lat="42.092895" lon="11.9417433"><ele>283.0</ele><time>2026-04-24T12:31:44.067Z</time></trkpt><trkpt lat="42.09298" lon="11.941695"><ele>283.0</ele><time>2026-04-24T12:31:45.065Z</time></trkpt><trkpt lat="42.093065" lon="11.9416483"><ele>283.0</ele><time>2026-04-24T12:31:46.063Z</time></trkpt><trkpt lat="42.0931517" lon="11.94159"><ele>283.0</ele><time>2026-04-24T12:31:47.063Z</time></trkpt><trkpt lat="42.09324" lon="11.94151"><ele>279.75</ele><time>2026-04-24T12:31:48.062Z</time></trkpt><trkpt lat="42.0933267" lon="11.9414017"><ele>276.5</ele><time>2026-04-24T12:31:49.061Z</time></trkpt><trkpt lat="42.0934117" lon="11.9412783"><ele>273.25</ele><time>2026-04-24T12:31:50.063Z</time></trkpt><trkpt lat="42.0934883" lon="11.94115"><ele>270.0</ele><time>2026-04-24T12:31:51.063Z</time></trkpt><trkpt lat="42.09356" lon="11.9410217"><ele>270.0</ele><time>2026-04-24T12:31:52.063Z</time></trkpt><trkpt lat="42.0936267" lon="11.940915"><ele>270.0</ele><time>2026-04-24T12:31:53.064Z</time></trkpt><trkpt lat="42.0936917" lon="11.9408383"><ele>270.0</ele><time>2026-04-24T12:31:54.064Z</time></trkpt><trkpt lat="42.0937617" lon="11.9407783"><ele>270.0</ele><time>2026-04-24T12:31:55.063Z</time></trkpt><trkpt lat="42.0938317" lon="11.940715"><ele>270.0</ele><time>2026-04-24T12:31:56.064Z</time></trkpt><trkpt lat="42.09391" lon="11.940645"><ele>269.5</ele><time>2026-04-24T12:31:57.064Z</time></trkpt><trkpt lat="42.0939933" lon="11.9405633"><ele>269.0</ele><time>2026-04-24T12:31:58.062Z</time></trkpt><trkpt lat="42.0940783" lon="11.94047"><ele>268.5</ele><time>2026-04-24T12:31:59.063Z</time></trkpt><trkpt lat="42.09416" lon="11.9403583"><ele>268.0</ele><time>2026-04-24T12:32:00.065Z</time></trkpt><trkpt lat="42.0942433" lon="11.9402367"><ele>268.16666666666663</ele><time>2026-04-24T12:32:01.064Z</time></trkpt><trkpt lat="42.0943267" lon="11.94012"><ele>268.3333333333333</ele><time>2026-04-24T12:32:02.065Z</time></trkpt><trkpt lat="42.0943967" lon="11.9400167"><ele>268.5</ele><time>2026-04-24T12:32:03.065Z</time></trkpt><trkpt lat="42.0944517" lon="11.9399283"><ele>268.6666666666667</ele><time>2026-04-24T12:32:04.065Z</time></trkpt><trkpt lat="42.09449" lon="11.93985"><ele>268.83333333333337</ele><time>2026-04-24T12:32:05.064Z</time></trkpt><trkpt lat="42.0945133" lon="11.9397633"><ele>269.0</ele><time>2026-04-24T12:32:06.064Z</time></trkpt><trkpt lat="42.0945267" lon="11.9396633"><ele>269.0</ele><time>2026-04-24T12:32:07.063Z</time></trkpt><trkpt lat="42.0945467" lon="11.939555"><ele>269.0</ele><time>2026-04-24T12:32:08.066Z</time></trkpt><trkpt lat="42.0945683" lon="11.9394533"><ele>269.0</ele><time>2026-04-24T12:32:09.065Z</time></trkpt><trkpt lat="42.09459" lon="11.9393633"><ele>269.0</ele><time>2026-04-24T12:32:10.065Z</time></trkpt><trkpt lat="42.0946533" lon="11.9392283"><ele>269.0</ele><time>2026-04-24T12:32:12.067Z</time></trkpt><trkpt lat="42.0947717" lon="11.9391517"><ele>268.33333333333337</ele><time>2026-04-24T12:32:14.064Z</time></trkpt><trkpt lat="42.094845" lon="11.9391333"><ele>267.6666666666667</ele><time>2026-04-24T12:32:15.063Z</time></trkpt><trkpt lat="42.0949367" lon="11.9391217"><ele>267.0</ele><time>2026-04-24T12:32:16.062Z</time></trkpt><trkpt lat="42.0950267" lon="11.9390867"><ele>266.3333333333333</ele><time>2026-04-24T12:32:17.063Z</time></trkpt><trkpt lat="42.0951033" lon="11.939025"><ele>265.66666666666663</ele><time>2026-04-24T12:32:18.064Z</time></trkpt><trkpt lat="42.09517" lon="11.93894"><ele>265.0</ele><time>2026-04-24T12:32:19.065Z</time></trkpt><trkpt lat="42.0952417" lon="11.938845"><ele>267.6</ele><time>2026-04-24T12:32:20.064Z</time></trkpt><trkpt lat="42.0953333" lon="11.9387533"><ele>270.2</ele><time>2026-04-24T12:32:21.064Z</time></trkpt><trkpt lat="42.0954283" lon="11.9386733"><ele>272.8</ele><time>2026-04-24T12:32:22.064Z</time></trkpt><trkpt lat="42.095515" lon="11.9385967"><ele>275.4</ele><time>2026-04-24T12:32:23.062Z</time></trkpt><trkpt lat="42.0955917" lon="11.9385367"><ele>278.0</ele><time>2026-04-24T12:32:24.065Z</time></trkpt><trkpt lat="42.095665" lon="11.9385"><ele>278.0</ele><time>2026-04-24T12:32:25.065Z</time></trkpt><trkpt lat="42.095745" lon="11.9384933"><ele>278.0</ele><time>2026-04-24T12:32:26.066Z</time></trkpt><trkpt lat="42.095835" lon="11.9384933"><ele>278.0</ele><time>2026-04-24T12:32:27.065Z</time></trkpt><trkpt lat="42.095935" lon="11.9384933"><ele>278.0</ele><time>2026-04-24T12:32:28.062Z</time></trkpt><trkpt lat="42.0960267" lon="11.9384917"><ele>278.0</ele><time>2026-04-24T12:32:29.064Z</time></trkpt><trkpt lat="42.0961083" lon="11.938495"><ele>278.0</ele><time>2026-04-24T12:32:30.065Z</time></trkpt><trkpt lat="42.096175" lon="11.93849"><ele>278.33333333333337</ele><time>2026-04-24T12:32:31.063Z</time></trkpt><trkpt lat="42.0962683" lon="11.9384517"><ele>278.6666666666667</ele><time>2026-04-24T12:32:33.066Z</time></trkpt><trkpt lat="42.0963333" lon="11.9384133"><ele>279.0</ele><time>2026-04-24T12:32:35.066Z</time></trkpt><trkpt lat="42.0963967" lon="11.9383567"><ele>279.3333333333333</ele><time>2026-04-24T12:32:37.064Z</time></trkpt><trkpt lat="42.0965017" lon="11.9382783"><ele>279.66666666666663</ele><time>2026-04-24T12:32:39.066Z</time></trkpt><trkpt lat="42.09657" lon="11.9382333"><ele>280.0</ele><time>2026-04-24T12:32:40.066Z</time></trkpt><trkpt lat="42.096645" lon="11.9381917"><ele>281.5</ele><time>2026-04-24T12:32:41.066Z</time></trkpt><trkpt lat="42.0967267" lon="11.9381517"><ele>283.0</ele><time>2026-04-24T12:32:42.066Z</time></trkpt><trkpt lat="42.0968033" lon="11.9381017"><ele>284.5</ele><time>2026-04-24T12:32:43.063Z</time></trkpt><trkpt lat="42.0968717" lon="11.93805"><ele>286.0</ele><time>2026-04-24T12:32:44.065Z</time></trkpt><trkpt lat="42.09693" lon="11.93801"><ele>287.5</ele><time>2026-04-24T12:32:45.066Z</time></trkpt><trkpt lat="42.0970167" lon="11.937965"><ele>289.0</ele><time>2026-04-24T12:32:47.066Z</time></trkpt><trkpt lat="42.09708" lon="11.937925"><ele>289.0</ele><time>2026-04-24T12:33:25.064Z</time></trkpt><trkpt lat="42.09717" lon="11.9378767"><ele>289.0</ele><time>2026-04-24T12:34:14.063Z</time></trkpt><trkpt lat="42.0972933" lon="11.93781"><ele>289.0</ele><time>2026-04-24T12:34:16.062Z</time></trkpt><trkpt lat="42.0973583" lon="11.9377467"><ele>289.0</ele><time>2026-04-24T12:34:17.064Z</time></trkpt><trkpt lat="42.0974133" lon="11.9376667"><ele>289.0</ele><time>2026-04-24T12:34:18.064Z</time></trkpt><trkpt lat="42.097455" lon="11.9375733"><ele>288.5</ele><time>2026-04-24T12:34:19.065Z</time></trkpt><trkpt lat="42.0974867" lon="11.9374783"><ele>288.0</ele><time>2026-04-24T12:34:20.064Z</time></trkpt><trkpt lat="42.097515" lon="11.9373817"><ele>287.5</ele><time>2026-04-24T12:34:21.064Z</time></trkpt><trkpt lat="42.0975517" lon="11.937295"><ele>287.0</ele><time>2026-04-24T12:34:22.063Z</time></trkpt><trkpt lat="42.0976017" lon="11.9372283"><ele>286.5</ele><time>2026-04-24T12:34:23.064Z</time></trkpt><trkpt lat="42.09766" lon="11.9371717"><ele>286.0</ele><time>2026-04-24T12:34:24.063Z</time></trkpt><trkpt lat="42.0977383" lon="11.937125"><ele>286.0</ele><time>2026-04-24T12:34:25.064Z</time></trkpt><trkpt lat="42.097815" lon="11.93708"><ele>286.0</ele><time>2026-04-24T12:34:26.063Z</time></trkpt><trkpt lat="42.0978917" lon="11.9370417"><ele>286.0</ele><time>2026-04-24T12:34:27.065Z</time></trkpt><trkpt lat="42.0979767" lon="11.9370167"><ele>286.0</ele><time>2026-04-24T12:34:28.064Z</time></trkpt><trkpt lat="42.098065" lon="11.9369983"><ele>286.0</ele><time>2026-04-24T12:34:29.065Z</time></trkpt><trkpt lat="42.098155" lon="11.9369917"><ele>286.0</ele><time>2026-04-24T12:34:30.063Z</time></trkpt><trkpt lat="42.0982467" lon="11.93699"><ele>286.0</ele><time>2026-04-24T12:34:31.065Z</time></trkpt><trkpt lat="42.09834" lon="11.93699"><ele>286.0</ele><time>2026-04-24T12:34:32.065Z</time></trkpt><trkpt lat="42.09843" lon="11.9369783"><ele>286.0</ele><time>2026-04-24T12:34:33.066Z</time></trkpt><trkpt lat="42.09852" lon="11.936955"><ele>286.0</ele><time>2026-04-24T12:34:34.062Z</time></trkpt><trkpt lat="42.0985917" lon="11.93692"><ele>286.0</ele><time>2026-04-24T12:34:35.064Z</time></trkpt><trkpt lat="42.098655" lon="11.9368683"><ele>286.0</ele><time>2026-04-24T12:34:36.066Z</time></trkpt><trkpt lat="42.0987083" lon="11.9368067"><ele>286.0</ele><time>2026-04-24T12:34:37.063Z</time></trkpt><trkpt lat="42.098765" lon="11.93675"><ele>286.0</ele><time>2026-04-24T12:34:38.063Z</time></trkpt><trkpt lat="42.09883" lon="11.9367133"><ele>286.0</ele><time>2026-04-24T12:34:39.062Z</time></trkpt><trkpt lat="42.0989033" lon="11.9367067"><ele>286.0</ele><time>2026-04-24T12:34:40.065Z</time></trkpt><trkpt lat="42.098985" lon="11.9367267"><ele>286.0</ele><time>2026-04-24T12:34:41.064Z</time></trkpt><trkpt lat="42.09907" lon="11.9367633"><ele>286.0</ele><time>2026-04-24T12:34:42.066Z</time></trkpt><trkpt lat="42.0991583" lon="11.9367967"><ele>284.40000000000003</ele><time>2026-04-24T12:34:43.065Z</time></trkpt><trkpt lat="42.0992533" lon="11.9368317"><ele>282.8</ele><time>2026-04-24T12:34:44.066Z</time></trkpt><trkpt lat="42.09935" lon="11.9368683"><ele>281.20000000000005</ele><time>2026-04-24T12:34:45.064Z</time></trkpt><trkpt lat="42.09944" lon="11.9368967"><ele>279.6</ele><time>2026-04-24T12:34:46.066Z</time></trkpt><trkpt lat="42.0995217" lon="11.9369017"><ele>278.0</ele><time>2026-04-24T12:34:47.064Z</time></trkpt><trkpt lat="42.099605" lon="11.9368883"><ele>278.0</ele><time>2026-04-24T12:34:48.065Z</time></trkpt><trkpt lat="42.099695" lon="11.936875"><ele>278.0</ele><time>2026-04-24T12:34:49.066Z</time></trkpt><trkpt lat="42.0997833" lon="11.9368667"><ele>278.0</ele><time>2026-04-24T12:34:50.065Z</time></trkpt><trkpt lat="42.0998717" lon="11.9368633"><ele>278.0</ele><time>2026-04-24T12:34:51.066Z</time></trkpt><trkpt lat="42.0999567" lon="11.93687"><ele>278.0</ele><time>2026-04-24T12:34:52.065Z</time></trkpt><trkpt lat="42.1000383" lon="11.93689"><ele>278.0</ele><time>2026-04-24T12:34:53.066Z</time></trkpt><trkpt lat="42.1001233" lon="11.936925"><ele>278.4</ele><time>2026-04-24T12:34:54.065Z</time></trkpt><trkpt lat="42.1002117" lon="11.93696"><ele>278.8</ele><time>2026-04-24T12:34:55.064Z</time></trkpt><trkpt lat="42.100305" lon="11.9369783"><ele>279.2</ele><time>2026-04-24T12:34:56.066Z</time></trkpt><trkpt lat="42.1003983" lon="11.93697"><ele>279.6</ele><time>2026-04-24T12:34:57.065Z</time></trkpt><trkpt lat="42.1004917" lon="11.9369417"><ele>280.0</ele><time>2026-04-24T12:34:58.063Z</time></trkpt><trkpt lat="42.1005833" lon="11.9369017"><ele>280.0</ele><time>2026-04-24T12:34:59.065Z</time></trkpt><trkpt lat="42.1006767" lon="11.9368617"><ele>280.0</ele><time>2026-04-24T12:35:00.061Z</time></trkpt><trkpt lat="42.1007717" lon="11.9368233"><ele>280.0</ele><time>2026-04-24T12:35:01.063Z</time></trkpt><trkpt lat="42.1008617" lon="11.9368067"><ele>280.0</ele><time>2026-04-24T12:35:02.063Z</time></trkpt><trkpt lat="42.1009567" lon="11.9368167"><ele>280.0</ele><time>2026-04-24T12:35:03.062Z</time></trkpt><trkpt lat="42.1010667" lon="11.936845"><ele>281.2</ele><time>2026-04-24T12:35:04.062Z</time></trkpt><trkpt lat="42.1011833" lon="11.936865"><ele>282.4</ele><time>2026-04-24T12:35:05.062Z</time></trkpt><trkpt lat="42.1012983" lon="11.9368717"><ele>283.6</ele><time>2026-04-24T12:35:06.063Z</time></trkpt><trkpt lat="42.1014067" lon="11.93687"><ele>284.8</ele><time>2026-04-24T12:35:07.063Z</time></trkpt><trkpt lat="42.1014867" lon="11.9368567"><ele>286.0</ele><time>2026-04-24T12:35:08.063Z</time></trkpt><trkpt lat="42.1015983" lon="11.93677"><ele>290.2</ele><time>2026-04-24T12:35:10.064Z</time></trkpt><trkpt lat="42.1016617" lon="11.9366917"><ele>294.40000000000003</ele><time>2026-04-24T12:35:11.065Z</time></trkpt><trkpt lat="42.1017383" lon="11.9366"><ele>298.6</ele><time>2026-04-24T12:35:12.062Z</time></trkpt><trkpt lat="42.1018217" lon="11.9365033"><ele>302.8</ele><time>2026-04-24T12:35:13.062Z</time></trkpt><trkpt lat="42.1019017" lon="11.9364067"><ele>307.0</ele><time>2026-04-24T12:35:14.064Z</time></trkpt><trkpt lat="42.1019683" lon="11.93631"><ele>307.0</ele><time>2026-04-24T12:35:15.066Z</time></trkpt><trkpt lat="42.1020317" lon="11.9361967"><ele>307.0</ele><time>2026-04-24T12:35:16.065Z</time></trkpt><trkpt lat="42.10209" lon="11.9360733"><ele>307.0</ele><time>2026-04-24T12:35:17.064Z</time></trkpt><trkpt lat="42.1021517" lon="11.935945"><ele>307.0</ele><time>2026-04-24T12:35:18.064Z</time></trkpt><trkpt lat="42.1022167" lon="11.93582"><ele>307.0</ele><time>2026-04-24T12:35:19.065Z</time></trkpt><trkpt lat="42.1022767" lon="11.9357033"><ele>308.0</ele><time>2026-04-24T12:35:20.066Z</time></trkpt><trkpt lat="42.1023317" lon="11.9355967"><ele>309.0</ele><time>2026-04-24T12:35:21.064Z</time></trkpt><trkpt lat="42.1023883" lon="11.935505"><ele>310.0</ele><time>2026-04-24T12:35:22.065Z</time></trkpt><trkpt lat="42.1024533" lon="11.9354417"><ele>311.0</ele><time>2026-04-24T12:35:23.064Z</time></trkpt><trkpt lat="42.1025183" lon="11.9353983"><ele>312.0</ele><time>2026-04-24T12:35:24.064Z</time></trkpt><trkpt lat="42.1025817" lon="11.93536"><ele>313.0</ele><time>2026-04-24T12:35:25.064Z</time></trkpt><trkpt lat="42.1026433" lon="11.935315"><ele>313.0</ele><time>2026-04-24T12:35:26.066Z</time></trkpt><trkpt lat="42.1027083" lon="11.9352633"><ele>313.0</ele><time>2026-04-24T12:35:27.065Z</time></trkpt><trkpt lat="42.1027617" lon="11.9352117"><ele>313.0</ele><time>2026-04-24T12:35:28.064Z</time></trkpt><trkpt lat="42.1028433" lon="11.9351467"><ele>313.0</ele><time>2026-04-24T12:35:30.064Z</time></trkpt><trkpt lat="42.102915" lon="11.935125"><ele>313.0</ele><time>2026-04-24T12:35:32.066Z</time></trkpt><trkpt lat="42.1030283" lon="11.93514"><ele>313.0</ele><time>2026-04-24T12:35:34.064Z</time></trkpt><trkpt lat="42.1030933" lon="11.935175"><ele>313.0</ele><time>2026-04-24T12:35:35.066Z</time></trkpt><trkpt lat="42.1031667" lon="11.935225"><ele>313.0</ele><time>2026-04-24T12:35:36.065Z</time></trkpt><trkpt lat="42.1032467" lon="11.93527"><ele>313.0</ele><time>2026-04-24T12:35:37.065Z</time></trkpt><trkpt lat="42.1033383" lon="11.9353017"><ele>313.0</ele><time>2026-04-24T12:35:38.064Z</time></trkpt><trkpt lat="42.1034183" lon="11.9353267"><ele>313.0</ele><time>2026-04-24T12:35:39.064Z</time></trkpt><trkpt lat="42.1035183" lon="11.9354333"><ele>313.8</ele><time>2026-04-24T12:35:41.064Z</time></trkpt><trkpt lat="42.10358" lon="11.9355267"><ele>314.6</ele><time>2026-04-24T12:35:42.063Z</time></trkpt><trkpt lat="42.1036567" lon="11.935605"><ele>315.4</ele><time>2026-04-24T12:35:43.064Z</time></trkpt><trkpt lat="42.1037433" lon="11.9356483"><ele>316.2</ele><time>2026-04-24T12:35:44.065Z</time></trkpt><trkpt lat="42.10384" lon="11.9356517"><ele>317.0</ele><time>2026-04-24T12:35:45.065Z</time></trkpt><trkpt lat="42.1039583" lon="11.9356267"><ele>318.0</ele><time>2026-04-24T12:35:46.064Z</time></trkpt><trkpt lat="42.1040817" lon="11.93559"><ele>319.0</ele><time>2026-04-24T12:35:47.065Z</time></trkpt><trkpt lat="42.1041983" lon="11.9355567"><ele>320.0</ele><time>2026-04-24T12:35:48.063Z</time></trkpt><trkpt lat="42.1042933" lon="11.9355167"><ele>321.0</ele><time>2026-04-24T12:35:49.064Z</time></trkpt><trkpt lat="42.10437" lon="11.93547"><ele>322.0</ele><time>2026-04-24T12:35:50.064Z</time></trkpt><trkpt lat="42.1044383" lon="11.9354017"><ele>322.0</ele><time>2026-04-24T12:35:51.064Z</time></trkpt><trkpt lat="42.104495" lon="11.9352983"><ele>322.0</ele><time>2026-04-24T12:35:52.064Z</time></trkpt><trkpt lat="42.1045483" lon="11.9351733"><ele>322.0</ele><time>2026-04-24T12:35:53.064Z</time></trkpt><trkpt lat="42.1046017" lon="11.9350483"><ele>322.0</ele><time>2026-04-24T12:35:54.063Z</time></trkpt><trkpt lat="42.10466" lon="11.9349217"><ele>322.0</ele><time>2026-04-24T12:35:55.063Z</time></trkpt><trkpt lat="42.104715" lon="11.9348083"><ele>323.40000000000003</ele><time>2026-04-24T12:35:56.066Z</time></trkpt><trkpt lat="42.10476" lon="11.9346917"><ele>324.8</ele><time>2026-04-24T12:35:57.064Z</time></trkpt><trkpt lat="42.1048067" lon="11.9345717"><ele>326.2</ele><time>2026-04-24T12:35:58.063Z</time></trkpt><trkpt lat="42.10485" lon="11.9344583"><ele>327.6</ele><time>2026-04-24T12:35:59.064Z</time></trkpt><trkpt lat="42.104885" lon="11.93434"><ele>329.0</ele><time>2026-04-24T12:36:00.067Z</time></trkpt><trkpt lat="42.1049083" lon="11.9342067"><ele>331.0</ele><time>2026-04-24T12:36:01.064Z</time></trkpt><trkpt lat="42.1049283" lon="11.9340833"><ele>333.0</ele><time>2026-04-24T12:36:02.066Z</time></trkpt><trkpt lat="42.1049583" lon="11.9339883"><ele>335.0</ele><time>2026-04-24T12:36:03.064Z</time></trkpt><trkpt lat="42.1050117" lon="11.9339233"><ele>337.0</ele><time>2026-04-24T12:36:04.065Z</time></trkpt><trkpt lat="42.1050867" lon="11.9338767"><ele>339.0</ele><time>2026-04-24T12:36:05.062Z</time></trkpt><trkpt lat="42.1051767" lon="11.933825"><ele>341.0</ele><time>2026-04-24T12:36:06.063Z</time></trkpt><trkpt lat="42.1052767" lon="11.9337633"><ele>341.0</ele><time>2026-04-24T12:36:07.064Z</time></trkpt><trkpt lat="42.10537" lon="11.9337017"><ele>341.0</ele><time>2026-04-24T12:36:08.065Z</time></trkpt><trkpt lat="42.10545" lon="11.9336383"><ele>341.0</ele><time>2026-04-24T12:36:09.062Z</time></trkpt><trkpt lat="42.10553" lon="11.9335667"><ele>341.0</ele><time>2026-04-24T12:36:10.069Z</time></trkpt><trkpt lat="42.1056083" lon="11.933505"><ele>341.0</ele><time>2026-04-24T12:36:11.062Z</time></trkpt><trkpt lat="42.1056933" lon="11.9334717"><ele>341.33333333333337</ele><time>2026-04-24T12:36:12.062Z</time></trkpt><trkpt lat="42.1057717" lon="11.93343"><ele>341.6666666666667</ele><time>2026-04-24T12:36:13.063Z</time></trkpt><trkpt lat="42.1058367" lon="11.9333733"><ele>342.0</ele><time>2026-04-24T12:36:14.068Z</time></trkpt><trkpt lat="42.105895" lon="11.9333"><ele>342.3333333333333</ele><time>2026-04-24T12:36:15.064Z</time></trkpt><trkpt lat="42.10594" lon="11.9332183"><ele>342.66666666666663</ele><time>2026-04-24T12:36:16.063Z</time></trkpt><trkpt lat="42.105975" lon="11.9331317"><ele>343.0</ele><time>2026-04-24T12:36:17.064Z</time></trkpt><trkpt lat="42.1059983" lon="11.9330283"><ele>343.85714285714283</ele><time>2026-04-24T12:36:18.065Z</time></trkpt><trkpt lat="42.1060267" lon="11.9329167"><ele>344.7142857142857</ele><time>2026-04-24T12:36:19.064Z</time></trkpt><trkpt lat="42.1060567" lon="11.932815"><ele>345.57142857142856</ele><time>2026-04-24T12:36:20.066Z</time></trkpt><trkpt lat="42.106085" lon="11.9327233"><ele>346.42857142857144</ele><time>2026-04-24T12:36:21.064Z</time></trkpt><trkpt lat="42.1061117" lon="11.93264"><ele>347.2857142857143</ele><time>2026-04-24T12:36:22.064Z</time></trkpt><trkpt lat="42.10614" lon="11.9325567"><ele>348.1428571428571</ele><time>2026-04-24T12:36:23.064Z</time></trkpt><trkpt lat="42.106165" lon="11.9324783"><ele>349.0</ele><time>2026-04-24T12:36:24.063Z</time></trkpt><trkpt lat="42.1061883" lon="11.932345"><ele>350.2</ele><time>2026-04-24T12:36:26.065Z</time></trkpt><trkpt lat="42.1061767" lon="11.9322083"><ele>351.4</ele><time>2026-04-24T12:37:02.065Z</time></trkpt><trkpt lat="42.106145" lon="11.9320883"><ele>352.6</ele><time>2026-04-24T12:38:27.064Z</time></trkpt><trkpt lat="42.1060817" lon="11.9320683"><ele>353.8</ele><time>2026-04-24T12:38:29.065Z</time></trkpt><trkpt lat="42.1059567" lon="11.932095"><ele>355.0</ele><time>2026-04-24T12:38:31.064Z</time></trkpt><trkpt lat="42.1058817" lon="11.9321033"><ele>355.0</ele><time>2026-04-24T12:38:32.064Z</time></trkpt><trkpt lat="42.105795" lon="11.9321033"><ele>355.0</ele><time>2026-04-24T12:38:33.062Z</time></trkpt><trkpt lat="42.105705" lon="11.9320967"><ele>355.0</ele><time>2026-04-24T12:38:34.061Z</time></trkpt><trkpt lat="42.1056117" lon="11.93209"><ele>355.0</ele><time>2026-04-24T12:38:35.065Z</time></trkpt><trkpt lat="42.1055117" lon="11.9320867"><ele>355.0</ele><time>2026-04-24T12:38:36.064Z</time></trkpt><trkpt lat="42.1054083" lon="11.9320833"><ele>355.6</ele><time>2026-04-24T12:38:37.062Z</time></trkpt><trkpt lat="42.105305" lon="11.9320783"><ele>356.2</ele><time>2026-04-24T12:38:38.063Z</time></trkpt><trkpt lat="42.1052033" lon="11.932065"><ele>356.79999999999995</ele><time>2026-04-24T12:38:39.065Z</time></trkpt><trkpt lat="42.1051033" lon="11.93204"><ele>357.4</ele><time>2026-04-24T12:38:40.063Z</time></trkpt><trkpt lat="42.105005" lon="11.9319983"><ele>358.0</ele><time>2026-04-24T12:38:41.065Z</time></trkpt><trkpt lat="42.1049117" lon="11.9319417"><ele>358.0</ele><time>2026-04-24T12:38:42.064Z</time></trkpt><trkpt lat="42.10482" lon="11.9318683"><ele>358.0</ele><time>2026-04-24T12:38:43.067Z</time></trkpt><trkpt lat="42.1047333" lon="11.931785"><ele>358.0</ele><time>2026-04-24T12:38:44.065Z</time></trkpt><trkpt lat="42.1046433" lon="11.9316917"><ele>358.0</ele><time>2026-04-24T12:38:45.064Z</time></trkpt><trkpt lat="42.1045533" lon="11.9315833"><ele>358.0</ele><time>2026-04-24T12:38:46.063Z</time></trkpt><trkpt lat="42.10446" lon="11.93146"><ele>360.5</ele><time>2026-04-24T12:38:47.065Z</time></trkpt><trkpt lat="42.10437" lon="11.9313383"><ele>363.0</ele><time>2026-04-24T12:38:48.064Z</time></trkpt><trkpt lat="42.10428" lon="11.9312217"><ele>365.5</ele><time>2026-04-24T12:38:49.065Z</time></trkpt><trkpt lat="42.1042" lon="11.9311083"><ele>368.0</ele><time>2026-04-24T12:38:50.064Z</time></trkpt><trkpt lat="42.1041417" lon="11.9310033"><ele>368.0</ele><time>2026-04-24T12:38:51.064Z</time></trkpt><trkpt lat="42.1041" lon="11.9309083"><ele>368.0</ele><time>2026-04-24T12:38:52.064Z</time></trkpt><trkpt lat="42.1040783" lon="11.9308267"><ele>368.0</ele><time>2026-04-24T12:38:53.062Z</time></trkpt><trkpt lat="42.104065" lon="11.9307033"><ele>368.0</ele><time>2026-04-24T12:38:55.063Z</time></trkpt><trkpt lat="42.1040967" lon="11.930545"><ele>368.0</ele><time>2026-04-24T12:38:57.064Z</time></trkpt><trkpt lat="42.1041317" lon="11.9304567"><ele>368.0</ele><time>2026-04-24T12:38:58.063Z</time></trkpt><trkpt lat="42.1041833" lon="11.93036"><ele>368.75</ele><time>2026-04-24T12:38:59.064Z</time></trkpt><trkpt lat="42.10425" lon="11.9302533"><ele>369.5</ele><time>2026-04-24T12:39:00.064Z</time></trkpt><trkpt lat="42.1043283" lon="11.93014"><ele>370.25</ele><time>2026-04-24T12:39:01.064Z</time></trkpt><trkpt lat="42.1044033" lon="11.9300183"><ele>371.0</ele><time>2026-04-24T12:39:02.065Z</time></trkpt><trkpt lat="42.104475" lon="11.9298983"><ele>371.0</ele><time>2026-04-24T12:39:03.064Z</time></trkpt><trkpt lat="42.1045433" lon="11.9297883"><ele>371.0</ele><time>2026-04-24T12:39:04.063Z</time></trkpt><trkpt lat="42.1045983" lon="11.9296817"><ele>371.0</ele><time>2026-04-24T12:39:05.064Z</time></trkpt><trkpt lat="42.10463" lon="11.9295767"><ele>371.0</ele><time>2026-04-24T12:39:06.064Z</time></trkpt><trkpt lat="42.104645" lon="11.9294733"><ele>371.0</ele><time>2026-04-24T12:39:07.063Z</time></trkpt><trkpt lat="42.1046517" lon="11.9293667"><ele>371.0</ele><time>2026-04-24T12:39:08.063Z</time></trkpt><trkpt lat="42.104655" lon="11.9292617"><ele>369.5</ele><time>2026-04-24T12:39:09.062Z</time></trkpt><trkpt lat="42.1046583" lon="11.929155"><ele>368.0</ele><time>2026-04-24T12:39:10.062Z</time></trkpt><trkpt lat="42.104655" lon="11.9290433"><ele>366.5</ele><time>2026-04-24T12:39:11.064Z</time></trkpt><trkpt lat="42.1046417" lon="11.92893"><ele>365.0</ele><time>2026-04-24T12:39:12.061Z</time></trkpt><trkpt lat="42.1046167" lon="11.9288133"><ele>363.5</ele><time>2026-04-24T12:39:13.062Z</time></trkpt><trkpt lat="42.10458" lon="11.9286967"><ele>362.0</ele><time>2026-04-24T12:39:14.063Z</time></trkpt><trkpt lat="42.1045383" lon="11.9285767"><ele>362.0</ele><time>2026-04-24T12:39:15.063Z</time></trkpt><trkpt lat="42.1045033" lon="11.9284467"><ele>362.0</ele><time>2026-04-24T12:39:16.064Z</time></trkpt><trkpt lat="42.1044683" lon="11.9283083"><ele>362.0</ele><time>2026-04-24T12:39:17.065Z</time></trkpt><trkpt lat="42.1044333" lon="11.928175"><ele>362.0</ele><time>2026-04-24T12:39:18.062Z</time></trkpt><trkpt lat="42.104395" lon="11.928045"><ele>362.0</ele><time>2026-04-24T12:39:19.066Z</time></trkpt><trkpt lat="42.1043533" lon="11.92792"><ele>361.8</ele><time>2026-04-24T12:39:20.065Z</time></trkpt><trkpt lat="42.1043117" lon="11.9277967"><ele>361.6</ele><time>2026-04-24T12:39:21.064Z</time></trkpt><trkpt lat="42.1042733" lon="11.9276733"><ele>361.40000000000003</ele><time>2026-04-24T12:39:22.065Z</time></trkpt><trkpt lat="42.1042367" lon="11.92755"><ele>361.20000000000005</ele><time>2026-04-24T12:39:23.066Z</time></trkpt><trkpt lat="42.1042033" lon="11.927425"><ele>361.0</ele><time>2026-04-24T12:39:24.065Z</time></trkpt><trkpt lat="42.1041733" lon="11.9272983"><ele>361.0</ele><time>2026-04-24T12:39:25.064Z</time></trkpt><trkpt lat="42.10415" lon="11.92717"><ele>361.0</ele><time>2026-04-24T12:39:26.067Z</time></trkpt><trkpt lat="42.1041317" lon="11.92704"><ele>361.0</ele><time>2026-04-24T12:39:27.065Z</time></trkpt><trkpt lat="42.1041167" lon="11.9269067"><ele>361.0</ele><time>2026-04-24T12:39:28.063Z</time></trkpt><trkpt lat="42.104105" lon="11.92677"><ele>361.0</ele><time>2026-04-24T12:39:29.065Z</time></trkpt><trkpt lat="42.10409" lon="11.9266367"><ele>361.4</ele><time>2026-04-24T12:39:30.064Z</time></trkpt><trkpt lat="42.10408" lon="11.9264983"><ele>361.8</ele><time>2026-04-24T12:39:31.066Z</time></trkpt><trkpt lat="42.1040717" lon="11.9263567"><ele>362.2</ele><time>2026-04-24T12:39:32.064Z</time></trkpt><trkpt lat="42.104065" lon="11.9262133"><ele>362.59999999999997</ele><time>2026-04-24T12:39:33.063Z</time></trkpt><trkpt lat="42.1040583" lon="11.9260717"><ele>363.0</ele><time>2026-04-24T12:39:34.062Z</time></trkpt><trkpt lat="42.1040517" lon="11.9259283"><ele>360.0</ele><time>2026-04-24T12:39:35.064Z</time></trkpt><trkpt lat="42.1040433" lon="11.9257867"><ele>357.0</ele><time>2026-04-24T12:39:36.063Z</time></trkpt><trkpt lat="42.10404" lon="11.9256433"><ele>354.0</ele><time>2026-04-24T12:39:37.063Z</time></trkpt><trkpt lat="42.1040367" lon="11.9255033"><ele>351.0</ele><time>2026-04-24T12:39:38.064Z</time></trkpt><trkpt lat="42.1040317" lon="11.9253617"><ele>348.0</ele><time>2026-04-24T12:39:39.063Z</time></trkpt><trkpt lat="42.1040217" lon="11.9252183"><ele>348.0</ele><time>2026-04-24T12:39:40.062Z</time></trkpt><trkpt lat="42.1040117" lon="11.925075"><ele>348.0</ele><time>2026-04-24T12:39:41.065Z</time></trkpt><trkpt lat="42.1040017" lon="11.9249317"><ele>348.0</ele><time>2026-04-24T12:39:42.063Z</time></trkpt><trkpt lat="42.103995" lon="11.9247883"><ele>348.0</ele><time>2026-04-24T12:39:43.062Z</time></trkpt><trkpt lat="42.1039883" lon="11.9246417"><ele>348.0</ele><time>2026-04-24T12:39:44.064Z</time></trkpt><trkpt lat="42.1039867" lon="11.9244933"><ele>347.75</ele><time>2026-04-24T12:39:45.064Z</time></trkpt><trkpt lat="42.103985" lon="11.9243433"><ele>347.5</ele><time>2026-04-24T12:39:46.063Z</time></trkpt><trkpt lat="42.1039817" lon="11.92419"><ele>347.25</ele><time>2026-04-24T12:39:47.064Z</time></trkpt><trkpt lat="42.10398" lon="11.924035"><ele>347.0</ele><time>2026-04-24T12:39:48.065Z</time></trkpt><trkpt lat="42.1039767" lon="11.92388"><ele>346.5</ele><time>2026-04-24T12:39:49.064Z</time></trkpt><trkpt lat="42.1039667" lon="11.9237217"><ele>346.0</ele><time>2026-04-24T12:39:50.066Z</time></trkpt><trkpt lat="42.1039533" lon="11.9235633"><ele>345.5</ele><time>2026-04-24T12:39:51.064Z</time></trkpt><trkpt lat="42.1039417" lon="11.9234033"><ele>345.0</ele><time>2026-04-24T12:39:52.064Z</time></trkpt><trkpt lat="42.10393" lon="11.923245"><ele>344.8</ele><time>2026-04-24T12:39:53.064Z</time></trkpt><trkpt lat="42.103915" lon="11.9230933"><ele>344.6</ele><time>2026-04-24T12:39:54.064Z</time></trkpt><trkpt lat="42.1039017" lon="11.92295"><ele>344.4</ele><time>2026-04-24T12:39:55.066Z</time></trkpt><trkpt lat="42.1038867" lon="11.9228133"><ele>344.2</ele><time>2026-04-24T12:39:56.065Z</time></trkpt><trkpt lat="42.1038733" lon="11.9226783"><ele>344.0</ele><time>2026-04-24T12:39:57.063Z</time></trkpt><trkpt lat="42.1038583" lon="11.922545"><ele>344.0</ele><time>2026-04-24T12:39:58.064Z</time></trkpt><trkpt lat="42.1038433" lon="11.92241"><ele>344.0</ele><time>2026-04-24T12:39:59.064Z</time></trkpt><trkpt lat="42.103825" lon="11.9222783"><ele>344.0</ele><time>2026-04-24T12:40:00.063Z</time></trkpt><trkpt lat="42.1038083" lon="11.92215"><ele>344.0</ele><time>2026-04-24T12:40:01.064Z</time></trkpt><trkpt lat="42.10379" lon="11.9220233"><ele>344.0</ele><time>2026-04-24T12:40:02.064Z</time></trkpt><trkpt lat="42.1037733" lon="11.9219"><ele>344.0</ele><time>2026-04-24T12:40:03.063Z</time></trkpt><trkpt lat="42.1037583" lon="11.921785"><ele>344.0</ele><time>2026-04-24T12:40:04.062Z</time></trkpt><trkpt lat="42.10375" lon="11.9216783"><ele>344.0</ele><time>2026-04-24T12:40:05.063Z</time></trkpt><trkpt lat="42.1037433" lon="11.9215783"><ele>344.0</ele><time>2026-04-24T12:40:06.063Z</time></trkpt><trkpt lat="42.10374" lon="11.9214817"><ele>344.0</ele><time>2026-04-24T12:40:07.065Z</time></trkpt><trkpt lat="42.103735" lon="11.9213783"><ele>344.0</ele><time>2026-04-24T12:40:08.066Z</time></trkpt><trkpt lat="42.1037217" lon="11.92127"><ele>343.5</ele><time>2026-04-24T12:40:09.062Z</time></trkpt><trkpt lat="42.1037067" lon="11.9211667"><ele>343.0</ele><time>2026-04-24T12:40:10.063Z</time></trkpt><trkpt lat="42.1036917" lon="11.9210667"><ele>342.5</ele><time>2026-04-24T12:40:11.063Z</time></trkpt><trkpt lat="42.1036783" lon="11.9209633"><ele>342.0</ele><time>2026-04-24T12:40:12.063Z</time></trkpt><trkpt lat="42.1036683" lon="11.9208483"><ele>341.5</ele><time>2026-04-24T12:40:13.063Z</time></trkpt><trkpt lat="42.1036667" lon="11.9207267"><ele>341.0</ele><time>2026-04-24T12:40:14.067Z</time></trkpt><trkpt lat="42.10367" lon="11.9205983"><ele>340.4</ele><time>2026-04-24T12:40:15.065Z</time></trkpt><trkpt lat="42.10367" lon="11.9204667"><ele>339.8</ele><time>2026-04-24T12:40:16.063Z</time></trkpt><trkpt lat="42.1036667" lon="11.9203317"><ele>339.2</ele><time>2026-04-24T12:40:17.064Z</time></trkpt><trkpt lat="42.103665" lon="11.9201933"><ele>338.59999999999997</ele><time>2026-04-24T12:40:18.064Z</time></trkpt><trkpt lat="42.103665" lon="11.92005"><ele>338.0</ele><time>2026-04-24T12:40:19.063Z</time></trkpt><trkpt lat="42.1036633" lon="11.9199067"><ele>337.79999999999995</ele><time>2026-04-24T12:40:20.065Z</time></trkpt><trkpt lat="42.103655" lon="11.9197617"><ele>337.6</ele><time>2026-04-24T12:40:21.062Z</time></trkpt><trkpt lat="42.103645" lon="11.9196183"><ele>337.4</ele><time>2026-04-24T12:40:22.064Z</time></trkpt><trkpt lat="42.1036333" lon="11.919475"><ele>337.20000000000005</ele><time>2026-04-24T12:40:23.064Z</time></trkpt><trkpt lat="42.1036183" lon="11.9193317"><ele>337.0</ele><time>2026-04-24T12:40:24.065Z</time></trkpt><trkpt lat="42.1035967" lon="11.9191917"><ele>337.0</ele><time>2026-04-24T12:40:25.063Z</time></trkpt><trkpt lat="42.103565" lon="11.91906"><ele>337.0</ele><time>2026-04-24T12:40:26.066Z</time></trkpt><trkpt lat="42.10352" lon="11.9189367"><ele>337.0</ele><time>2026-04-24T12:40:27.064Z</time></trkpt><trkpt lat="42.1034617" lon="11.9188233"><ele>337.0</ele><time>2026-04-24T12:40:28.064Z</time></trkpt><trkpt lat="42.103395" lon="11.9187167"><ele>337.0</ele><time>2026-04-24T12:40:29.065Z</time></trkpt><trkpt lat="42.103325" lon="11.91861"><ele>337.0</ele><time>2026-04-24T12:40:30.064Z</time></trkpt><trkpt lat="42.1032533" lon="11.9184967"><ele>337.0</ele><time>2026-04-24T12:40:31.063Z</time></trkpt><trkpt lat="42.10318" lon="11.9183767"><ele>337.0</ele><time>2026-04-24T12:40:32.064Z</time></trkpt><trkpt lat="42.103095" lon="11.9182517"><ele>337.0</ele><time>2026-04-24T12:40:33.063Z</time></trkpt><trkpt lat="42.1029917" lon="11.9181167"><ele>338.0</ele><time>2026-04-24T12:40:34.063Z</time></trkpt><trkpt lat="42.1028667" lon="11.917965"><ele>339.0</ele><time>2026-04-24T12:40:35.062Z</time></trkpt><trkpt lat="42.1027183" lon="11.9177933"><ele>340.0</ele><time>2026-04-24T12:40:36.063Z</time></trkpt><trkpt lat="42.1025533" lon="11.9175983"><ele>339.3333333333333</ele><time>2026-04-24T12:40:37.06Z</time></trkpt><trkpt lat="42.1023933" lon="11.9173983"><ele>338.6666666666667</ele><time>2026-04-24T12:40:38.063Z</time></trkpt><trkpt lat="42.1022483" lon="11.9172167"><ele>338.0</ele><time>2026-04-24T12:40:39.062Z</time></trkpt><trkpt lat="42.1021183" lon="11.917055"><ele>338.0</ele><time>2026-04-24T12:40:40.063Z</time></trkpt><trkpt lat="42.101985" lon="11.9169067"><ele>338.0</ele><time>2026-04-24T12:40:41.063Z</time></trkpt><trkpt lat="42.10184" lon="11.9167633"><ele>338.0</ele><time>2026-04-24T12:40:42.063Z</time></trkpt><trkpt lat="42.101685" lon="11.9166267"><ele>340.33333333333337</ele><time>2026-04-24T12:40:43.062Z</time></trkpt><trkpt lat="42.1015233" lon="11.9165033"><ele>342.6666666666667</ele><time>2026-04-24T12:40:44.066Z</time></trkpt><trkpt lat="42.1013633" lon="11.9164"><ele>345.0</ele><time>2026-04-24T12:40:45.064Z</time></trkpt><trkpt lat="42.1012117" lon="11.9163133"><ele>345.0</ele><time>2026-04-24T12:40:46.064Z</time></trkpt><trkpt lat="42.1010683" lon="11.9162367"><ele>345.0</ele><time>2026-04-24T12:40:47.065Z</time></trkpt><trkpt lat="42.1009283" lon="11.91617"><ele>345.0</ele><time>2026-04-24T12:40:48.066Z</time></trkpt><trkpt lat="42.10078" lon="11.916105"><ele>344.0</ele><time>2026-04-24T12:40:49.065Z</time></trkpt><trkpt lat="42.1006367" lon="11.91604"><ele>343.0</ele><time>2026-04-24T12:40:50.065Z</time></trkpt><trkpt lat="42.1005017" lon="11.915965"><ele>342.0</ele><time>2026-04-24T12:40:51.066Z</time></trkpt><trkpt lat="42.100355" lon="11.915875"><ele>345.6666666666667</ele><time>2026-04-24T12:40:52.065Z</time></trkpt><trkpt lat="42.1002033" lon="11.9157783"><ele>349.33333333333337</ele><time>2026-04-24T12:40:53.064Z</time></trkpt><trkpt lat="42.100055" lon="11.9156933"><ele>353.0</ele><time>2026-04-24T12:40:54.064Z</time></trkpt><trkpt lat="42.0999183" lon="11.915625"><ele>352.5</ele><time>2026-04-24T12:40:55.064Z</time></trkpt><trkpt lat="42.0997883" lon="11.9155767"><ele>352.0</ele><time>2026-04-24T12:40:56.066Z</time></trkpt><trkpt lat="42.0996683" lon="11.91554"><ele>351.5</ele><time>2026-04-24T12:40:57.065Z</time></trkpt><trkpt lat="42.0995533" lon="11.9155117"><ele>351.0</ele><time>2026-04-24T12:40:58.065Z</time></trkpt><trkpt lat="42.09944" lon="11.91549"><ele>351.0</ele><time>2026-04-24T12:40:59.064Z</time></trkpt><trkpt lat="42.0993317" lon="11.9154767"><ele>351.0</ele><time>2026-04-24T12:41:00.066Z</time></trkpt><trkpt lat="42.0992317" lon="11.91547"><ele>351.0</ele><time>2026-04-24T12:41:01.063Z</time></trkpt><trkpt lat="42.0991333" lon="11.9154617"><ele>351.0</ele><time>2026-04-24T12:41:02.066Z</time></trkpt><trkpt lat="42.0990333" lon="11.9154467"><ele>351.0</ele><time>2026-04-24T12:41:03.065Z</time></trkpt><trkpt lat="42.0989367" lon="11.9154183"><ele>352.0</ele><time>2026-04-24T12:41:04.065Z</time></trkpt><trkpt lat="42.0988433" lon="11.915385"><ele>353.0</ele><time>2026-04-24T12:41:05.064Z</time></trkpt><trkpt lat="42.0987533" lon="11.9153433"><ele>354.0</ele><time>2026-04-24T12:41:06.063Z</time></trkpt><trkpt lat="42.0986733" lon="11.9152967"><ele>355.0</ele><time>2026-04-24T12:41:07.065Z</time></trkpt><trkpt lat="42.0985983" lon="11.9152383"><ele>356.0</ele><time>2026-04-24T12:41:08.067Z</time></trkpt><trkpt lat="42.09853" lon="11.9151583"><ele>356.8</ele><time>2026-04-24T12:41:09.064Z</time></trkpt><trkpt lat="42.0984717" lon="11.9150617"><ele>357.6</ele><time>2026-04-24T12:41:10.064Z</time></trkpt><trkpt lat="42.0984167" lon="11.9149683"><ele>358.4</ele><time>2026-04-24T12:41:11.066Z</time></trkpt><trkpt lat="42.0983633" lon="11.9148733"><ele>359.2</ele><time>2026-04-24T12:41:12.067Z</time></trkpt><trkpt lat="42.0983017" lon="11.9147717"><ele>360.0</ele><time>2026-04-24T12:41:13.065Z</time></trkpt><trkpt lat="42.0982233" lon="11.914675"><ele>361.4</ele><time>2026-04-24T12:41:14.064Z</time></trkpt><trkpt lat="42.0981333" lon="11.9145767"><ele>362.8</ele><time>2026-04-24T12:41:15.063Z</time></trkpt><trkpt lat="42.09805" lon="11.9144817"><ele>364.20000000000005</ele><time>2026-04-24T12:41:16.064Z</time></trkpt><trkpt lat="42.09798" lon="11.9143917"><ele>365.6</ele><time>2026-04-24T12:41:17.066Z</time></trkpt><trkpt lat="42.097925" lon="11.9143117"><ele>367.0</ele><time>2026-04-24T12:41:18.064Z</time></trkpt><trkpt lat="42.097875" lon="11.914235"><ele>367.0</ele><time>2026-04-24T12:41:19.067Z</time></trkpt><trkpt lat="42.097825" lon="11.91414"><ele>367.0</ele><time>2026-04-24T12:41:20.064Z</time></trkpt><trkpt lat="42.0977767" lon="11.9140167"><ele>367.0</ele><time>2026-04-24T12:41:21.065Z</time></trkpt><trkpt lat="42.09773" lon="11.9138733"><ele>367.0</ele><time>2026-04-24T12:41:22.064Z</time></trkpt><trkpt lat="42.0976883" lon="11.91372"><ele>367.0</ele><time>2026-04-24T12:41:23.064Z</time></trkpt><trkpt lat="42.0976467" lon="11.9135667"><ele>367.0</ele><time>2026-04-24T12:41:24.064Z</time></trkpt><trkpt lat="42.0976083" lon="11.91342"><ele>367.0</ele><time>2026-04-24T12:41:25.063Z</time></trkpt><trkpt lat="42.097575" lon="11.9132767"><ele>367.0</ele><time>2026-04-24T12:41:26.064Z</time></trkpt><trkpt lat="42.0975417" lon="11.9131483"><ele>367.0</ele><time>2026-04-24T12:41:27.063Z</time></trkpt><trkpt lat="42.0975017" lon="11.91303"><ele>367.0</ele><time>2026-04-24T12:41:28.065Z</time></trkpt><trkpt lat="42.09745" lon="11.91292"><ele>366.66666666666663</ele><time>2026-04-24T12:41:29.064Z</time></trkpt><trkpt lat="42.0973917" lon="11.9128167"><ele>366.3333333333333</ele><time>2026-04-24T12:41:30.065Z</time></trkpt><trkpt lat="42.0973367" lon="11.912725"><ele>366.0</ele><time>2026-04-24T12:41:31.066Z</time></trkpt><trkpt lat="42.0972933" lon="11.9126267"><ele>365.6666666666667</ele><time>2026-04-24T12:41:32.066Z</time></trkpt><trkpt lat="42.09726" lon="11.9125183"><ele>365.33333333333337</ele><time>2026-04-24T12:41:33.063Z</time></trkpt><trkpt lat="42.0972367" lon="11.91241"><ele>365.0</ele><time>2026-04-24T12:41:34.064Z</time></trkpt><trkpt lat="42.0972217" lon="11.9122917"><ele>365.8</ele><time>2026-04-24T12:41:35.065Z</time></trkpt><trkpt lat="42.097215" lon="11.9121633"><ele>366.6</ele><time>2026-04-24T12:41:36.064Z</time></trkpt><trkpt lat="42.0972067" lon="11.91203"><ele>367.4</ele><time>2026-04-24T12:41:37.064Z</time></trkpt><trkpt lat="42.0971917" lon="11.9119017"><ele>368.2</ele><time>2026-04-24T12:41:38.064Z</time></trkpt><trkpt lat="42.0971617" lon="11.9117867"><ele>369.0</ele><time>2026-04-24T12:41:39.065Z</time></trkpt><trkpt lat="42.0971167" lon="11.91169"><ele>367.3333333333333</ele><time>2026-04-24T12:41:40.064Z</time></trkpt><trkpt lat="42.09706" lon="11.9116067"><ele>365.6666666666667</ele><time>2026-04-24T12:41:41.066Z</time></trkpt><trkpt lat="42.0969983" lon="11.911535"><ele>364.0</ele><time>2026-04-24T12:41:42.064Z</time></trkpt><trkpt lat="42.0969417" lon="11.911465"><ele>362.33333333333337</ele><time>2026-04-24T12:41:43.065Z</time></trkpt><trkpt lat="42.0968983" lon="11.9113867"><ele>360.6666666666667</ele><time>2026-04-24T12:41:44.064Z</time></trkpt><trkpt lat="42.0968767" lon="11.9113"><ele>359.0</ele><time>2026-04-24T12:41:45.063Z</time></trkpt><trkpt lat="42.09686" lon="11.9112083"><ele>359.0</ele><time>2026-04-24T12:41:46.064Z</time></trkpt><trkpt lat="42.0968417" lon="11.9111117"><ele>359.0</ele><time>2026-04-24T12:41:47.064Z</time></trkpt><trkpt lat="42.0968217" lon="11.911005"><ele>359.0</ele><time>2026-04-24T12:41:48.066Z</time></trkpt><trkpt lat="42.0968017" lon="11.9108933"><ele>359.0</ele><time>2026-04-24T12:41:49.065Z</time></trkpt><trkpt lat="42.09678" lon="11.9107783"><ele>359.0</ele><time>2026-04-24T12:41:50.064Z</time></trkpt><trkpt lat="42.096765" lon="11.9106567"><ele>359.0</ele><time>2026-04-24T12:41:51.064Z</time></trkpt><trkpt lat="42.09675" lon="11.9105283"><ele>356.6</ele><time>2026-04-24T12:41:52.065Z</time></trkpt><trkpt lat="42.0967267" lon="11.9103967"><ele>354.2</ele><time>2026-04-24T12:41:53.064Z</time></trkpt><trkpt lat="42.0967" lon="11.91027"><ele>351.8</ele><time>2026-04-24T12:41:54.062Z</time></trkpt><trkpt lat="42.0966717" lon="11.9101517"><ele>349.40000000000003</ele><time>2026-04-24T12:41:55.063Z</time></trkpt><trkpt lat="42.0966383" lon="11.91004"><ele>347.0</ele><time>2026-04-24T12:41:56.065Z</time></trkpt><trkpt lat="42.0965983" lon="11.90994"><ele>345.2857142857143</ele><time>2026-04-24T12:41:57.066Z</time></trkpt><trkpt lat="42.096555" lon="11.9098467"><ele>343.57142857142856</ele><time>2026-04-24T12:41:58.063Z</time></trkpt><trkpt lat="42.096515" lon="11.9097617"><ele>341.85714285714283</ele><time>2026-04-24T12:41:59.063Z</time></trkpt><trkpt lat="42.0964817" lon="11.90968"><ele>340.1428571428571</ele><time>2026-04-24T12:42:00.064Z</time></trkpt><trkpt lat="42.0964483" lon="11.9096"><ele>338.42857142857144</ele><time>2026-04-24T12:42:01.064Z</time></trkpt><trkpt lat="42.0964083" lon="11.909525"><ele>336.71428571428567</ele><time>2026-04-24T12:42:02.063Z</time></trkpt><trkpt lat="42.0963667" lon="11.9094583"><ele>335.0</ele><time>2026-04-24T12:42:03.063Z</time></trkpt><trkpt lat="42.096285" lon="11.9093533"><ele>335.0</ele><time>2026-04-24T12:42:05.062Z</time></trkpt><trkpt lat="42.0962167" lon="11.90928"><ele>335.0</ele><time>2026-04-24T12:42:07.065Z</time></trkpt><trkpt lat="42.0961533" lon="11.909275"><ele>335.0</ele><time>2026-04-24T12:46:00.064Z</time></trkpt><trkpt lat="42.0960667" lon="11.9092733"><ele>335.0</ele><time>2026-04-24T12:46:02.064Z</time></trkpt><trkpt lat="42.095955" lon="11.909275"><ele>335.0</ele><time>2026-04-24T12:46:04.065Z</time></trkpt><trkpt lat="42.0958917" lon="11.9092667"><ele>335.0</ele><time>2026-04-24T12:46:05.062Z</time></trkpt><trkpt lat="42.095825" lon="11.9092533"><ele>335.1666666666667</ele><time>2026-04-24T12:46:06.064Z</time></trkpt><trkpt lat="42.095755" lon="11.9092417"><ele>335.33333333333337</ele><time>2026-04-24T12:46:07.064Z</time></trkpt><trkpt lat="42.0956783" lon="11.909245"><ele>335.5</ele><time>2026-04-24T12:46:08.065Z</time></trkpt><trkpt lat="42.0955983" lon="11.9092717"><ele>335.6666666666667</ele><time>2026-04-24T12:46:09.062Z</time></trkpt><trkpt lat="42.0955233" lon="11.9093267"><ele>335.8333333333333</ele><time>2026-04-24T12:46:10.064Z</time></trkpt><trkpt lat="42.0954517" lon="11.9094033"><ele>336.0</ele><time>2026-04-24T12:46:11.064Z</time></trkpt><trkpt lat="42.0953767" lon="11.9094933"><ele>334.0</ele><time>2026-04-24T12:46:12.065Z</time></trkpt><trkpt lat="42.0952983" lon="11.9095917"><ele>332.0</ele><time>2026-04-24T12:46:13.062Z</time></trkpt><trkpt lat="42.0952233" lon="11.9097017"><ele>330.0</ele><time>2026-04-24T12:46:14.063Z</time></trkpt><trkpt lat="42.09515" lon="11.9098117"><ele>328.0</ele><time>2026-04-24T12:46:15.066Z</time></trkpt><trkpt lat="42.0950817" lon="11.9099217"><ele>326.0</ele><time>2026-04-24T12:46:16.062Z</time></trkpt><trkpt lat="42.09502" lon="11.9100383"><ele>326.8</ele><time>2026-04-24T12:46:17.063Z</time></trkpt><trkpt lat="42.0949633" lon="11.9101533"><ele>327.6</ele><time>2026-04-24T12:46:18.063Z</time></trkpt><trkpt lat="42.0949033" lon="11.9102433"><ele>328.4</ele><time>2026-04-24T12:46:19.063Z</time></trkpt><trkpt lat="42.0948317" lon="11.9103083"><ele>329.2</ele><time>2026-04-24T12:46:20.064Z</time></trkpt><trkpt lat="42.0947433" lon="11.9103567"><ele>330.0</ele><time>2026-04-24T12:46:21.064Z</time></trkpt><trkpt lat="42.0946467" lon="11.9103967"><ele>328.6666666666667</ele><time>2026-04-24T12:46:22.062Z</time></trkpt><trkpt lat="42.0945517" lon="11.910435"><ele>327.3333333333333</ele><time>2026-04-24T12:46:23.063Z</time></trkpt><trkpt lat="42.0944633" lon="11.910475"><ele>326.0</ele><time>2026-04-24T12:46:24.062Z</time></trkpt><trkpt lat="42.0943783" lon="11.9105017"><ele>324.66666666666663</ele><time>2026-04-24T12:46:25.064Z</time></trkpt><trkpt lat="42.0942983" lon="11.9105133"><ele>323.3333333333333</ele><time>2026-04-24T12:46:26.065Z</time></trkpt><trkpt lat="42.0942333" lon="11.9105267"><ele>322.0</ele><time>2026-04-24T12:46:27.064Z</time></trkpt><trkpt lat="42.0941483" lon="11.9105817"><ele>322.0</ele><time>2026-04-24T12:46:29.064Z</time></trkpt><trkpt lat="42.0941133" lon="11.9106983"><ele>322.0</ele><time>2026-04-24T12:46:31.064Z</time></trkpt><trkpt lat="42.094105" lon="11.910785"><ele>322.0</ele><time>2026-04-24T12:46:32.065Z</time></trkpt><trkpt lat="42.0941033" lon="11.9108867"><ele>322.0</ele><time>2026-04-24T12:46:33.065Z</time></trkpt><trkpt lat="42.0941017" lon="11.9109917"><ele>322.0</ele><time>2026-04-24T12:46:34.064Z</time></trkpt><trkpt lat="42.094095" lon="11.9110967"><ele>322.0</ele><time>2026-04-24T12:46:35.064Z</time></trkpt><trkpt lat="42.0940767" lon="11.9111983"><ele>322.3333333333333</ele><time>2026-04-24T12:46:36.066Z</time></trkpt><trkpt lat="42.0940433" lon="11.9113017"><ele>322.66666666666663</ele><time>2026-04-24T12:46:37.065Z</time></trkpt><trkpt lat="42.0939967" lon="11.9114067"><ele>323.0</ele><time>2026-04-24T12:46:38.065Z</time></trkpt><trkpt lat="42.0939433" lon="11.9115067"><ele>323.3333333333333</ele><time>2026-04-24T12:46:39.066Z</time></trkpt><trkpt lat="42.0938867" lon="11.9115967"><ele>323.6666666666667</ele><time>2026-04-24T12:46:40.063Z</time></trkpt><trkpt lat="42.09382" lon="11.9116817"><ele>324.0</ele><time>2026-04-24T12:46:41.062Z</time></trkpt><trkpt lat="42.0937417" lon="11.9117767"><ele>324.0</ele><time>2026-04-24T12:46:42.061Z</time></trkpt><trkpt lat="42.093655" lon="11.9118767"><ele>324.0</ele><time>2026-04-24T12:46:43.064Z</time></trkpt><trkpt lat="42.093565" lon="11.9119583"><ele>324.0</ele><time>2026-04-24T12:46:44.064Z</time></trkpt><trkpt lat="42.09347" lon="11.9120167"><ele>324.0</ele><time>2026-04-24T12:46:45.063Z</time></trkpt><trkpt lat="42.093375" lon="11.912055"><ele>324.0</ele><time>2026-04-24T12:46:46.064Z</time></trkpt><trkpt lat="42.0932817" lon="11.9120817"><ele>321.4</ele><time>2026-04-24T12:46:47.062Z</time></trkpt><trkpt lat="42.0931867" lon="11.9120983"><ele>318.79999999999995</ele><time>2026-04-24T12:46:48.065Z</time></trkpt><trkpt lat="42.093085" lon="11.9121017"><ele>316.20000000000005</ele><time>2026-04-24T12:46:49.062Z</time></trkpt><trkpt lat="42.0929817" lon="11.9120967"><ele>313.6</ele><time>2026-04-24T12:46:50.065Z</time></trkpt><trkpt lat="42.0928767" lon="11.912085"><ele>311.0</ele><time>2026-04-24T12:46:51.064Z</time></trkpt><trkpt lat="42.0927683" lon="11.9120683"><ele>311.0</ele><time>2026-04-24T12:46:52.064Z</time></trkpt><trkpt lat="42.0926617" lon="11.91205"><ele>311.0</ele><time>2026-04-24T12:46:53.063Z</time></trkpt><trkpt lat="42.0925533" lon="11.9120367"><ele>311.0</ele><time>2026-04-24T12:46:54.064Z</time></trkpt><trkpt lat="42.0924483" lon="11.9120333"><ele>311.0</ele><time>2026-04-24T12:46:55.065Z</time></trkpt><trkpt lat="42.0923533" lon="11.9120383"><ele>311.0</ele><time>2026-04-24T12:46:56.064Z</time></trkpt><trkpt lat="42.09226" lon="11.9120417"><ele>309.0</ele><time>2026-04-24T12:46:57.064Z</time></trkpt><trkpt lat="42.09216" lon="11.9120367"><ele>307.0</ele><time>2026-04-24T12:46:58.064Z</time></trkpt><trkpt lat="42.0920533" lon="11.912035"><ele>305.0</ele><time>2026-04-24T12:46:59.062Z</time></trkpt><trkpt lat="42.0919433" lon="11.9120433"><ele>303.0</ele><time>2026-04-24T12:47:00.063Z</time></trkpt><trkpt lat="42.0918333" lon="11.912065"><ele>301.0</ele><time>2026-04-24T12:47:01.064Z</time></trkpt><trkpt lat="42.0917233" lon="11.912095"><ele>301.0</ele><time>2026-04-24T12:47:02.063Z</time></trkpt><trkpt lat="42.091615" lon="11.9121267"><ele>301.0</ele><time>2026-04-24T12:47:03.064Z</time></trkpt><trkpt lat="42.0915117" lon="11.9121717"><ele>301.0</ele><time>2026-04-24T12:47:04.064Z</time></trkpt><trkpt lat="42.0914033" lon="11.912215"><ele>301.0</ele><time>2026-04-24T12:47:05.065Z</time></trkpt><trkpt lat="42.091295" lon="11.9122567"><ele>301.0</ele><time>2026-04-24T12:47:06.064Z</time></trkpt><trkpt lat="42.0911917" lon="11.9122917"><ele>299.8</ele><time>2026-04-24T12:47:07.064Z</time></trkpt><trkpt lat="42.0910883" lon="11.91231"><ele>298.6</ele><time>2026-04-24T12:47:08.067Z</time></trkpt><trkpt lat="42.0909883" lon="11.91232"><ele>297.4</ele><time>2026-04-24T12:47:09.065Z</time></trkpt><trkpt lat="42.0908967" lon="11.9123433"><ele>296.2</ele><time>2026-04-24T12:47:10.064Z</time></trkpt><trkpt lat="42.09082" lon="11.91238"><ele>295.0</ele><time>2026-04-24T12:47:11.064Z</time></trkpt><trkpt lat="42.090755" lon="11.9124333"><ele>295.4</ele><time>2026-04-24T12:47:12.065Z</time></trkpt><trkpt lat="42.090695" lon="11.9125117"><ele>295.8</ele><time>2026-04-24T12:47:13.063Z</time></trkpt><trkpt lat="42.0906317" lon="11.912605"><ele>296.2</ele><time>2026-04-24T12:47:14.065Z</time></trkpt><trkpt lat="42.0905633" lon="11.9127133"><ele>296.6</ele><time>2026-04-24T12:47:15.065Z</time></trkpt><trkpt lat="42.0904867" lon="11.912825"><ele>297.0</ele><time>2026-04-24T12:47:16.065Z</time></trkpt><trkpt lat="42.0904033" lon="11.91293"><ele>297.0</ele><time>2026-04-24T12:47:17.064Z</time></trkpt><trkpt lat="42.0903133" lon="11.913025"><ele>297.0</ele><time>2026-04-24T12:47:18.067Z</time></trkpt><trkpt lat="42.0902267" lon="11.9131117"><ele>297.0</ele><time>2026-04-24T12:47:19.065Z</time></trkpt><trkpt lat="42.090145" lon="11.9131967"><ele>297.0</ele><time>2026-04-24T12:47:20.067Z</time></trkpt><trkpt lat="42.0900633" lon="11.913275"><ele>297.0</ele><time>2026-04-24T12:47:21.063Z</time></trkpt><trkpt lat="42.0899767" lon="11.91335"><ele>296.0</ele><time>2026-04-24T12:47:22.064Z</time></trkpt><trkpt lat="42.0898917" lon="11.9134267"><ele>295.0</ele><time>2026-04-24T12:47:23.064Z</time></trkpt><trkpt lat="42.08981" lon="11.9135083"><ele>294.0</ele><time>2026-04-24T12:47:24.064Z</time></trkpt><trkpt lat="42.0897317" lon="11.91359"><ele>293.0</ele><time>2026-04-24T12:47:25.065Z</time></trkpt><trkpt lat="42.089655" lon="11.9136717"><ele>292.0</ele><time>2026-04-24T12:47:26.067Z</time></trkpt><trkpt lat="42.08958" lon="11.9137467"><ele>292.0</ele><time>2026-04-24T12:47:27.065Z</time></trkpt><trkpt lat="42.0895033" lon="11.9138067"><ele>292.0</ele><time>2026-04-24T12:47:28.065Z</time></trkpt><trkpt lat="42.0894283" lon="11.9138467"><ele>292.0</ele><time>2026-04-24T12:47:29.066Z</time></trkpt><trkpt lat="42.0893533" lon="11.9138617"><ele>292.0</ele><time>2026-04-24T12:47:30.067Z</time></trkpt><trkpt lat="42.0892767" lon="11.9138733"><ele>292.0</ele><time>2026-04-24T12:47:31.065Z</time></trkpt><trkpt lat="42.0892033" lon="11.9138983"><ele>292.0</ele><time>2026-04-24T12:47:32.065Z</time></trkpt><trkpt lat="42.0891417" lon="11.9139467"><ele>291.16666666666663</ele><time>2026-04-24T12:47:33.064Z</time></trkpt><trkpt lat="42.089085" lon="11.914015"><ele>290.3333333333333</ele><time>2026-04-24T12:47:34.064Z</time></trkpt><trkpt lat="42.0890267" lon="11.9140917"><ele>289.5</ele><time>2026-04-24T12:47:35.066Z</time></trkpt><trkpt lat="42.0889633" lon="11.9141717"><ele>288.6666666666667</ele><time>2026-04-24T12:47:36.067Z</time></trkpt><trkpt lat="42.0888933" lon="11.9142433"><ele>287.83333333333337</ele><time>2026-04-24T12:47:37.066Z</time></trkpt><trkpt lat="42.088815" lon="11.9142967"><ele>287.0</ele><time>2026-04-24T12:47:38.066Z</time></trkpt><trkpt lat="42.0887283" lon="11.914335"><ele>286.83333333333337</ele><time>2026-04-24T12:47:39.064Z</time></trkpt><trkpt lat="42.08864" lon="11.9143617"><ele>286.6666666666667</ele><time>2026-04-24T12:47:40.065Z</time></trkpt><trkpt lat="42.0885483" lon="11.914385"><ele>286.5</ele><time>2026-04-24T12:47:41.065Z</time></trkpt><trkpt lat="42.0884617" lon="11.9144083"><ele>286.3333333333333</ele><time>2026-04-24T12:47:42.062Z</time></trkpt><trkpt lat="42.0883783" lon="11.9144417"><ele>286.16666666666663</ele><time>2026-04-24T12:47:43.064Z</time></trkpt><trkpt lat="42.0883017" lon="11.9144917"><ele>286.0</ele><time>2026-04-24T12:47:44.065Z</time></trkpt><trkpt lat="42.0882333" lon="11.91455"><ele>286.0</ele><time>2026-04-24T12:47:45.065Z</time></trkpt><trkpt lat="42.088175" lon="11.9146133"><ele>286.0</ele><time>2026-04-24T12:47:46.063Z</time></trkpt><trkpt lat="42.0881183" lon="11.914675"><ele>286.0</ele><time>2026-04-24T12:47:47.066Z</time></trkpt><trkpt lat="42.0880533" lon="11.914725"><ele>286.0</ele><time>2026-04-24T12:47:48.065Z</time></trkpt><trkpt lat="42.08798" lon="11.914765"><ele>286.0</ele><time>2026-04-24T12:47:49.064Z</time></trkpt><trkpt lat="42.0879017" lon="11.914795"><ele>286.0</ele><time>2026-04-24T12:47:50.064Z</time></trkpt><trkpt lat="42.0878183" lon="11.91483"><ele>286.0</ele><time>2026-04-24T12:47:51.064Z</time></trkpt><trkpt lat="42.0877317" lon="11.914875"><ele>286.0</ele><time>2026-04-24T12:47:52.065Z</time></trkpt><trkpt lat="42.08765" lon="11.9149417"><ele>286.0</ele><time>2026-04-24T12:47:53.063Z</time></trkpt><trkpt lat="42.0875717" lon="11.9150217"><ele>286.0</ele><time>2026-04-24T12:47:54.064Z</time></trkpt><trkpt lat="42.087495" lon="11.915095"><ele>286.0</ele><time>2026-04-24T12:47:55.063Z</time></trkpt><trkpt lat="42.0874233" lon="11.9151617"><ele>284.8333333333333</ele><time>2026-04-24T12:47:56.065Z</time></trkpt><trkpt lat="42.08735" lon="11.9152283"><ele>283.66666666666663</ele><time>2026-04-24T12:47:57.064Z</time></trkpt><trkpt lat="42.0872783" lon="11.9152983"><ele>282.5</ele><time>2026-04-24T12:47:58.064Z</time></trkpt><trkpt lat="42.0872033" lon="11.9153683"><ele>281.3333333333333</ele><time>2026-04-24T12:47:59.064Z</time></trkpt><trkpt lat="42.0871283" lon="11.9154317"><ele>280.1666666666667</ele><time>2026-04-24T12:48:00.065Z</time></trkpt><trkpt lat="42.08705" lon="11.9154883"><ele>279.0</ele><time>2026-04-24T12:48:01.063Z</time></trkpt><trkpt lat="42.086975" lon="11.9155417"><ele>279.0</ele><time>2026-04-24T12:48:02.064Z</time></trkpt><trkpt lat="42.0869033" lon="11.9155967"><ele>279.0</ele><time>2026-04-24T12:48:03.065Z</time></trkpt><trkpt lat="42.08683" lon="11.9156483"><ele>279.0</ele><time>2026-04-24T12:48:04.064Z</time></trkpt><trkpt lat="42.0867583" lon="11.9156817"><ele>279.0</ele><time>2026-04-24T12:48:05.063Z</time></trkpt><trkpt lat="42.086685" lon="11.915705"><ele>279.0</ele><time>2026-04-24T12:48:06.064Z</time></trkpt><trkpt lat="42.0866167" lon="11.9157383"><ele>279.0</ele><time>2026-04-24T12:48:07.066Z</time></trkpt><trkpt lat="42.0865567" lon="11.9158017"><ele>279.1666666666667</ele><time>2026-04-24T12:48:08.067Z</time></trkpt><trkpt lat="42.086495" lon="11.9158817"><ele>279.3333333333333</ele><time>2026-04-24T12:48:09.067Z</time></trkpt><trkpt lat="42.0864283" lon="11.9159533"><ele>279.5</ele><time>2026-04-24T12:48:10.067Z</time></trkpt><trkpt lat="42.08635" lon="11.9160167"><ele>279.66666666666663</ele><time>2026-04-24T12:48:11.064Z</time></trkpt><trkpt lat="42.086265" lon="11.9160717"><ele>279.8333333333333</ele><time>2026-04-24T12:48:12.063Z</time></trkpt><trkpt lat="42.086185" lon="11.9161317"><ele>280.0</ele><time>2026-04-24T12:48:13.064Z</time></trkpt><trkpt lat="42.0861083" lon="11.916205"><ele>278.0</ele><time>2026-04-24T12:48:14.065Z</time></trkpt><trkpt lat="42.0860317" lon="11.9162833"><ele>276.0</ele><time>2026-04-24T12:48:15.063Z</time></trkpt><trkpt lat="42.0859533" lon="11.9163617"><ele>274.0</ele><time>2026-04-24T12:48:16.064Z</time></trkpt><trkpt lat="42.0858817" lon="11.91644"><ele>272.0</ele><time>2026-04-24T12:48:17.065Z</time></trkpt><trkpt lat="42.08581" lon="11.9165167"><ele>270.0</ele><time>2026-04-24T12:48:18.063Z</time></trkpt><trkpt lat="42.085735" lon="11.91659"><ele>269.6666666666667</ele><time>2026-04-24T12:48:19.064Z</time></trkpt><trkpt lat="42.085655" lon="11.9166533"><ele>269.3333333333333</ele><time>2026-04-24T12:48:20.064Z</time></trkpt><trkpt lat="42.08557" lon="11.916705"><ele>269.0</ele><time>2026-04-24T12:48:21.064Z</time></trkpt><trkpt lat="42.0854833" lon="11.91674"><ele>268.66666666666663</ele><time>2026-04-24T12:48:22.064Z</time></trkpt><trkpt lat="42.0854" lon="11.9167617"><ele>268.3333333333333</ele><time>2026-04-24T12:48:23.063Z</time></trkpt><trkpt lat="42.0853217" lon="11.9167683"><ele>268.0</ele><time>2026-04-24T12:48:24.066Z</time></trkpt><trkpt lat="42.085245" lon="11.91676"><ele>268.5</ele><time>2026-04-24T12:48:25.065Z</time></trkpt><trkpt lat="42.0851617" lon="11.9167467"><ele>269.0</ele><time>2026-04-24T12:48:26.067Z</time></trkpt><trkpt lat="42.0850767" lon="11.9167367"><ele>269.5</ele><time>2026-04-24T12:48:27.065Z</time></trkpt><trkpt lat="42.084995" lon="11.9167367"><ele>270.0</ele><time>2026-04-24T12:48:28.065Z</time></trkpt><trkpt lat="42.084915" lon="11.916745"><ele>270.5</ele><time>2026-04-24T12:48:29.064Z</time></trkpt><trkpt lat="42.084835" lon="11.91676"><ele>271.0</ele><time>2026-04-24T12:48:30.065Z</time></trkpt><trkpt lat="42.084755" lon="11.9167783"><ele>271.0</ele><time>2026-04-24T12:48:31.063Z</time></trkpt><trkpt lat="42.0846717" lon="11.9167917"><ele>271.0</ele><time>2026-04-24T12:48:32.064Z</time></trkpt><trkpt lat="42.0845917" lon="11.9167967"><ele>271.0</ele><time>2026-04-24T12:48:33.065Z</time></trkpt><trkpt lat="42.0845183" lon="11.91679"><ele>271.0</ele><time>2026-04-24T12:48:34.062Z</time></trkpt><trkpt lat="42.08445" lon="11.91678"><ele>271.0</ele><time>2026-04-24T12:48:35.063Z</time></trkpt><trkpt lat="42.0843783" lon="11.9167633"><ele>271.0</ele><time>2026-04-24T12:48:37.064Z</time></trkpt><trkpt lat="42.0843767" lon="11.9168517"><ele>271.0</ele><time>2026-04-24T12:48:51.063Z</time></trkpt><trkpt lat="42.0843183" lon="11.9169"><ele>271.0</ele><time>2026-04-24T12:48:54.063Z</time></trkpt><trkpt lat="42.0842117" lon="11.9168933"><ele>271.0</ele><time>2026-04-24T12:48:57.062Z</time></trkpt><trkpt lat="42.0841217" lon="11.916885"><ele>271.0</ele><time>2026-04-24T12:48:59.062Z</time></trkpt><trkpt lat="42.084045" lon="11.916885"><ele>271.0</ele><time>2026-04-24T12:49:01.063Z</time></trkpt><trkpt lat="42.08395" lon="11.9168917"><ele>271.0</ele><time>2026-04-24T12:49:03.063Z</time></trkpt><trkpt lat="42.08383" lon="11.9169067"><ele>272.3333333333333</ele><time>2026-04-24T12:49:05.065Z</time></trkpt><trkpt lat="42.0837017" lon="11.9169167"><ele>273.66666666666663</ele><time>2026-04-24T12:49:07.064Z</time></trkpt><trkpt lat="42.0836317" lon="11.916925"><ele>275.0</ele><time>2026-04-24T12:49:08.065Z</time></trkpt><trkpt lat="42.08356" lon="11.9169367"><ele>276.3333333333333</ele><time>2026-04-24T12:49:09.065Z</time></trkpt><trkpt lat="42.0834867" lon="11.91696"><ele>277.6666666666667</ele><time>2026-04-24T12:49:10.064Z</time></trkpt><trkpt lat="42.08341" lon="11.916985"><ele>279.0</ele><time>2026-04-24T12:49:11.064Z</time></trkpt><trkpt lat="42.0833367" lon="11.917005"><ele>280.1666666666667</ele><time>2026-04-24T12:49:12.065Z</time></trkpt><trkpt lat="42.08326" lon="11.9170267"><ele>281.3333333333333</ele><time>2026-04-24T12:49:13.064Z</time></trkpt><trkpt lat="42.0831833" lon="11.9170483"><ele>282.5</ele><time>2026-04-24T12:49:14.067Z</time></trkpt><trkpt lat="42.0831083" lon="11.9170667"><ele>283.66666666666663</ele><time>2026-04-24T12:49:15.066Z</time></trkpt><trkpt lat="42.08304" lon="11.917085"><ele>284.8333333333333</ele><time>2026-04-24T12:49:16.065Z</time></trkpt><trkpt lat="42.0829617" lon="11.9170867"><ele>286.0</ele><time>2026-04-24T12:49:17.065Z</time></trkpt><trkpt lat="42.0828783" lon="11.91708"><ele>286.0</ele><time>2026-04-24T12:49:18.064Z</time></trkpt><trkpt lat="42.0828" lon="11.9170733"><ele>286.0</ele><time>2026-04-24T12:49:19.065Z</time></trkpt><trkpt lat="42.08272" lon="11.9170683"><ele>286.0</ele><time>2026-04-24T12:49:20.065Z</time></trkpt><trkpt lat="42.08264" lon="11.9170667"><ele>286.0</ele><time>2026-04-24T12:49:21.064Z</time></trkpt><trkpt lat="42.0825583" lon="11.917065"><ele>286.0</ele><time>2026-04-24T12:49:22.064Z</time></trkpt><trkpt lat="42.0824783" lon="11.9170683"><ele>286.0</ele><time>2026-04-24T12:49:23.066Z</time></trkpt><trkpt lat="42.0823983" lon="11.9170783"><ele>288.3333333333333</ele><time>2026-04-24T12:49:24.065Z</time></trkpt><trkpt lat="42.0823167" lon="11.91709"><ele>290.66666666666663</ele><time>2026-04-24T12:49:25.063Z</time></trkpt><trkpt lat="42.08224" lon="11.9170967"><ele>293.0</ele><time>2026-04-24T12:49:26.066Z</time></trkpt><trkpt lat="42.0821717" lon="11.9170967"><ele>295.3333333333333</ele><time>2026-04-24T12:49:27.065Z</time></trkpt><trkpt lat="42.0820683" lon="11.9170717"><ele>297.6666666666667</ele><time>2026-04-24T12:49:29.065Z</time></trkpt><trkpt lat="42.0820017" lon="11.91703"><ele>300.0</ele><time>2026-04-24T12:49:30.065Z</time></trkpt><trkpt lat="42.0819417" lon="11.91699"><ele>300.0</ele><time>2026-04-24T12:49:31.066Z</time></trkpt><trkpt lat="42.0818783" lon="11.9169533"><ele>300.0</ele><time>2026-04-24T12:49:32.066Z</time></trkpt><trkpt lat="42.0818083" lon="11.9169233"><ele>300.0</ele><time>2026-04-24T12:49:33.064Z</time></trkpt><trkpt lat="42.08173" lon="11.9168967"><ele>300.0</ele><time>2026-04-24T12:49:34.065Z</time></trkpt><trkpt lat="42.08165" lon="11.9168683"><ele>300.0</ele><time>2026-04-24T12:49:35.066Z</time></trkpt><trkpt lat="42.08157" lon="11.9168317"><ele>300.0</ele><time>2026-04-24T12:49:36.064Z</time></trkpt><trkpt lat="42.0814967" lon="11.9167883"><ele>300.5</ele><time>2026-04-24T12:49:37.063Z</time></trkpt><trkpt lat="42.08143" lon="11.9167367"><ele>301.0</ele><time>2026-04-24T12:49:38.066Z</time></trkpt><trkpt lat="42.0813667" lon="11.9166917"><ele>301.5</ele><time>2026-04-24T12:49:39.065Z</time></trkpt><trkpt lat="42.0813" lon="11.916645"><ele>302.0</ele><time>2026-04-24T12:49:40.064Z</time></trkpt><trkpt lat="42.0812317" lon="11.9166017"><ele>302.5</ele><time>2026-04-24T12:49:41.065Z</time></trkpt><trkpt lat="42.0811733" lon="11.9165667"><ele>303.0</ele><time>2026-04-24T12:49:42.066Z</time></trkpt><trkpt lat="42.0810733" lon="11.9165383"><ele>301.0</ele><time>2026-04-24T12:49:44.065Z</time></trkpt><trkpt lat="42.0809467" lon="11.9165633"><ele>299.0</ele><time>2026-04-24T12:49:46.064Z</time></trkpt><trkpt lat="42.0808733" lon="11.9165867"><ele>297.0</ele><time>2026-04-24T12:49:47.063Z</time></trkpt><trkpt lat="42.0808033" lon="11.9166133"><ele>295.0</ele><time>2026-04-24T12:49:48.064Z</time></trkpt><trkpt lat="42.0807383" lon="11.91665"><ele>293.0</ele><time>2026-04-24T12:49:49.065Z</time></trkpt><trkpt lat="42.0806717" lon="11.916695"><ele>291.0</ele><time>2026-04-24T12:49:50.065Z</time></trkpt><trkpt lat="42.08061" lon="11.9167333"><ele>293.3333333333333</ele><time>2026-04-24T12:49:51.066Z</time></trkpt><trkpt lat="42.0805383" lon="11.9167567"><ele>295.6666666666667</ele><time>2026-04-24T12:49:52.067Z</time></trkpt><trkpt lat="42.08046" lon="11.91677"><ele>298.0</ele><time>2026-04-24T12:49:53.065Z</time></trkpt><trkpt lat="42.0803817" lon="11.9167817"><ele>300.33333333333337</ele><time>2026-04-24T12:49:54.064Z</time></trkpt><trkpt lat="42.0803" lon="11.9167867"><ele>302.6666666666667</ele><time>2026-04-24T12:49:55.064Z</time></trkpt><trkpt lat="42.0802233" lon="11.91679"><ele>305.0</ele><time>2026-04-24T12:49:56.064Z</time></trkpt><trkpt lat="42.080155" lon="11.9167933"><ele>305.0</ele><time>2026-04-24T12:49:57.063Z</time></trkpt><trkpt lat="42.0800383" lon="11.9168367"><ele>305.0</ele><time>2026-04-24T12:49:59.065Z</time></trkpt><trkpt lat="42.0799767" lon="11.9168733"><ele>305.0</ele><time>2026-04-24T12:50:00.063Z</time></trkpt><trkpt lat="42.0799067" lon="11.91691"><ele>305.0</ele><time>2026-04-24T12:50:01.064Z</time></trkpt><trkpt lat="42.0798367" lon="11.9169317"><ele>305.0</ele><time>2026-04-24T12:50:02.064Z</time></trkpt><trkpt lat="42.0797733" lon="11.9169467"><ele>305.0</ele><time>2026-04-24T12:50:03.063Z</time></trkpt><trkpt lat="42.07971" lon="11.9169467"><ele>304.8</ele><time>2026-04-24T12:50:04.061Z</time></trkpt><trkpt lat="42.07959" lon="11.9169217"><ele>304.6</ele><time>2026-04-24T12:50:06.062Z</time></trkpt><trkpt lat="42.0794667" lon="11.9168433"><ele>304.4</ele><time>2026-04-24T12:50:08.062Z</time></trkpt><trkpt lat="42.0793983" lon="11.91679"><ele>304.2</ele><time>2026-04-24T12:50:09.064Z</time></trkpt><trkpt lat="42.0793317" lon="11.9167283"><ele>304.0</ele><time>2026-04-24T12:50:10.064Z</time></trkpt><trkpt lat="42.0792633" lon="11.9166683"><ele>302.2857142857143</ele><time>2026-04-24T12:50:11.062Z</time></trkpt><trkpt lat="42.0792" lon="11.9166133"><ele>300.5714285714286</ele><time>2026-04-24T12:50:12.064Z</time></trkpt><trkpt lat="42.0791333" lon="11.9165533"><ele>298.8571428571429</ele><time>2026-04-24T12:50:13.063Z</time></trkpt><trkpt lat="42.0790783" lon="11.9165033"><ele>297.1428571428571</ele><time>2026-04-24T12:50:14.063Z</time></trkpt><trkpt lat="42.079015" lon="11.91644"><ele>295.42857142857144</ele><time>2026-04-24T12:50:15.063Z</time></trkpt><trkpt lat="42.0789583" lon="11.91638"><ele>293.7142857142857</ele><time>2026-04-24T12:50:16.064Z</time></trkpt><trkpt lat="42.0789017" lon="11.9163183"><ele>292.0</ele><time>2026-04-24T12:50:17.065Z</time></trkpt><trkpt lat="42.0788417" lon="11.9162617"><ele>291.66666666666663</ele><time>2026-04-24T12:50:18.064Z</time></trkpt><trkpt lat="42.0787783" lon="11.9162117"><ele>291.3333333333333</ele><time>2026-04-24T12:50:19.064Z</time></trkpt><trkpt lat="42.078715" lon="11.916165"><ele>291.0</ele><time>2026-04-24T12:50:20.065Z</time></trkpt><trkpt lat="42.0786533" lon="11.91611"><ele>290.6666666666667</ele><time>2026-04-24T12:50:21.065Z</time></trkpt><trkpt lat="42.0785967" lon="11.9160533"><ele>290.33333333333337</ele><time>2026-04-24T12:50:22.064Z</time></trkpt><trkpt lat="42.07854" lon="11.9160017"><ele>290.0</ele><time>2026-04-24T12:50:23.063Z</time></trkpt><trkpt lat="42.0784433" lon="11.91594"><ele>290.0</ele><time>2026-04-24T12:50:25.065Z</time></trkpt><trkpt lat="42.0783133" lon="11.915925"><ele>290.0</ele><time>2026-04-24T12:50:27.063Z</time></trkpt><trkpt lat="42.07824" lon="11.9159267"><ele>290.0</ele><time>2026-04-24T12:50:28.064Z</time></trkpt><trkpt lat="42.0781733" lon="11.9159233"><ele>290.0</ele><time>2026-04-24T12:50:29.064Z</time></trkpt><trkpt lat="42.0780717" lon="11.9158633"><ele>290.0</ele><time>2026-04-24T12:50:31.065Z</time></trkpt><trkpt lat="42.0779817" lon="11.9157583"><ele>289.33333333333337</ele><time>2026-04-24T12:50:33.065Z</time></trkpt><trkpt lat="42.07792" lon="11.9156867"><ele>288.6666666666667</ele><time>2026-04-24T12:50:35.063Z</time></trkpt><trkpt lat="42.0778667" lon="11.91564"><ele>288.0</ele><time>2026-04-24T12:50:37.065Z</time></trkpt><trkpt lat="42.0778117" lon="11.915585"><ele>287.3333333333333</ele><time>2026-04-24T12:50:39.062Z</time></trkpt><trkpt lat="42.0777583" lon="11.915515"><ele>286.66666666666663</ele><time>2026-04-24T12:50:41.064Z</time></trkpt><trkpt lat="42.07767" lon="11.915405"><ele>286.0</ele><time>2026-04-24T12:50:43.063Z</time></trkpt><trkpt lat="42.0776267" lon="11.915335"><ele>286.0</ele><time>2026-04-24T12:50:44.064Z</time></trkpt><trkpt lat="42.0775883" lon="11.9152633"><ele>286.0</ele><time>2026-04-24T12:50:45.062Z</time></trkpt><trkpt lat="42.0775267" lon="11.9151383"><ele>286.0</ele><time>2026-04-24T12:50:47.064Z</time></trkpt><trkpt lat="42.07751" lon="11.9150333"><ele>286.0</ele><time>2026-04-24T12:50:49.062Z</time></trkpt><trkpt lat="42.0774533" lon="11.9149783"><ele>286.0</ele><time>2026-04-24T12:50:52.064Z</time></trkpt><trkpt lat="42.0773417" lon="11.9149267"><ele>286.0</ele><time>2026-04-24T12:52:35.063Z</time></trkpt><trkpt lat="42.0772767" lon="11.9148233"><ele>285.5</ele><time>2026-04-24T12:52:37.062Z</time></trkpt><trkpt lat="42.0772283" lon="11.9147683"><ele>285.0</ele><time>2026-04-24T12:52:38.063Z</time></trkpt><trkpt lat="42.0771667" lon="11.9147183"><ele>284.5</ele><time>2026-04-24T12:52:39.064Z</time></trkpt><trkpt lat="42.0770917" lon="11.9146733"><ele>284.0</ele><time>2026-04-24T12:52:40.064Z</time></trkpt><trkpt lat="42.0770083" lon="11.914635"><ele>283.5</ele><time>2026-04-24T12:52:41.063Z</time></trkpt><trkpt lat="42.076925" lon="11.9146"><ele>283.0</ele><time>2026-04-24T12:52:42.064Z</time></trkpt><trkpt lat="42.0768467" lon="11.914565"><ele>283.0</ele><time>2026-04-24T12:52:43.064Z</time></trkpt><trkpt lat="42.07678" lon="11.9145267"><ele>283.0</ele><time>2026-04-24T12:52:44.064Z</time></trkpt><trkpt lat="42.07672" lon="11.9144883"><ele>283.0</ele><time>2026-04-24T12:52:45.064Z</time></trkpt><trkpt lat="42.0766583" lon="11.9144517"><ele>283.0</ele><time>2026-04-24T12:52:46.063Z</time></trkpt><trkpt lat="42.07659" lon="11.9144267"><ele>283.0</ele><time>2026-04-24T12:52:47.067Z</time></trkpt><trkpt lat="42.0765167" lon="11.9144"><ele>283.0</ele><time>2026-04-24T12:52:48.066Z</time></trkpt><trkpt lat="42.07644" lon="11.9143583"><ele>283.0</ele><time>2026-04-24T12:52:49.064Z</time></trkpt><trkpt lat="42.07636" lon="11.91431"><ele>282.16666666666663</ele><time>2026-04-24T12:52:50.064Z</time></trkpt><trkpt lat="42.0762817" lon="11.9142583"><ele>281.3333333333333</ele><time>2026-04-24T12:52:51.066Z</time></trkpt><trkpt lat="42.07621" lon="11.9142067"><ele>280.5</ele><time>2026-04-24T12:52:52.063Z</time></trkpt><trkpt lat="42.0761467" lon="11.9141633"><ele>279.6666666666667</ele><time>2026-04-24T12:52:53.066Z</time></trkpt><trkpt lat="42.0760383" lon="11.914115"><ele>278.83333333333337</ele><time>2026-04-24T12:52:55.065Z</time></trkpt><trkpt lat="42.0759617" lon="11.9141417"><ele>278.0</ele><time>2026-04-24T12:52:57.064Z</time></trkpt><trkpt lat="42.0759133" lon="11.914245"><ele>278.0</ele><time>2026-04-24T12:52:59.065Z</time></trkpt><trkpt lat="42.0758467" lon="11.91439"><ele>278.0</ele><time>2026-04-24T12:53:01.064Z</time></trkpt><trkpt lat="42.0758017" lon="11.9144683"><ele>278.0</ele><time>2026-04-24T12:53:02.064Z</time></trkpt><trkpt lat="42.07576" lon="11.9145467"><ele>278.0</ele><time>2026-04-24T12:53:03.065Z</time></trkpt><trkpt lat="42.0757267" lon="11.91463"><ele>278.0</ele><time>2026-04-24T12:53:04.064Z</time></trkpt><trkpt lat="42.0756917" lon="11.914705"><ele>278.0</ele><time>2026-04-24T12:53:05.064Z</time></trkpt><trkpt lat="42.075645" lon="11.9147683"><ele>277.33333333333337</ele><time>2026-04-24T12:53:06.063Z</time></trkpt><trkpt lat="42.07559" lon="11.91482"><ele>276.6666666666667</ele><time>2026-04-24T12:53:07.066Z</time></trkpt><trkpt lat="42.0755217" lon="11.9148567"><ele>276.0</ele><time>2026-04-24T12:53:08.063Z</time></trkpt><trkpt lat="42.0754483" lon="11.9148733"><ele>275.3333333333333</ele><time>2026-04-24T12:53:09.064Z</time></trkpt><trkpt lat="42.0753833" lon="11.9148817"><ele>274.66666666666663</ele><time>2026-04-24T12:53:10.065Z</time></trkpt><trkpt lat="42.075275" lon="11.914895"><ele>274.0</ele><time>2026-04-24T12:53:12.063Z</time></trkpt><trkpt lat="42.0751983" lon="11.9149233"><ele>274.0</ele><time>2026-04-24T12:53:14.064Z</time></trkpt><trkpt lat="42.0751033" lon="11.9149367"><ele>274.0</ele><time>2026-04-24T12:53:17.063Z</time></trkpt><trkpt lat="42.074995" lon="11.914975"><ele>274.0</ele><time>2026-04-24T12:53:19.064Z</time></trkpt><trkpt lat="42.0749333" lon="11.915015"><ele>274.0</ele><time>2026-04-24T12:53:20.065Z</time></trkpt><trkpt lat="42.0748667" lon="11.915065"><ele>274.0</ele><time>2026-04-24T12:53:21.064Z</time></trkpt><trkpt lat="42.0747983" lon="11.9151133"><ele>274.0</ele><time>2026-04-24T12:53:22.065Z</time></trkpt><trkpt lat="42.0747383" lon="11.9151617"><ele>276.16666666666663</ele><time>2026-04-24T12:53:23.063Z</time></trkpt><trkpt lat="42.0746783" lon="11.9152067"><ele>278.3333333333333</ele><time>2026-04-24T12:53:24.063Z</time></trkpt><trkpt lat="42.0746117" lon="11.91525"><ele>280.5</ele><time>2026-04-24T12:53:25.062Z</time></trkpt><trkpt lat="42.0745467" lon="11.915295"><ele>282.6666666666667</ele><time>2026-04-24T12:53:26.064Z</time></trkpt><trkpt lat="42.074485" lon="11.9153333"><ele>284.83333333333337</ele><time>2026-04-24T12:53:27.062Z</time></trkpt><trkpt lat="42.0743817" lon="11.9153883"><ele>287.0</ele><time>2026-04-24T12:53:29.063Z</time></trkpt><trkpt lat="42.074305" lon="11.91546"><ele>287.0</ele><time>2026-04-24T12:53:31.066Z</time></trkpt><trkpt lat="42.0742633" lon="11.9155833"><ele>287.0</ele><time>2026-04-24T12:53:34.064Z</time></trkpt><trkpt lat="42.0742117" lon="11.9156833"><ele>287.0</ele><time>2026-04-24T12:53:36.065Z</time></trkpt><trkpt lat="42.0741617" lon="11.9157833"><ele>287.0</ele><time>2026-04-24T12:53:39.065Z</time></trkpt><trkpt lat="42.07412" lon="11.9158733"><ele>287.0</ele><time>2026-04-24T12:53:41.062Z</time></trkpt><trkpt lat="42.0740817" lon="11.9159467"><ele>287.0</ele><time>2026-04-24T12:53:43.067Z</time></trkpt><trkpt lat="42.0740417" lon="11.9160683"><ele>288.2</ele><time>2026-04-24T12:53:45.065Z</time></trkpt><trkpt lat="42.073985" lon="11.91618"><ele>289.4</ele><time>2026-04-24T12:53:47.063Z</time></trkpt><trkpt lat="42.0739583" lon="11.916295"><ele>290.6</ele><time>2026-04-24T12:53:49.065Z</time></trkpt><trkpt lat="42.07394" lon="11.9164"><ele>291.8</ele><time>2026-04-24T12:53:51.065Z</time></trkpt><trkpt lat="42.07391" lon="11.9165183"><ele>293.0</ele><time>2026-04-24T12:53:53.064Z</time></trkpt><trkpt lat="42.0738717" lon="11.9166367"><ele>292.8</ele><time>2026-04-24T12:53:55.064Z</time></trkpt><trkpt lat="42.0738317" lon="11.9167383"><ele>292.6</ele><time>2026-04-24T12:53:57.064Z</time></trkpt><trkpt lat="42.0737967" lon="11.9168517"><ele>292.4</ele><time>2026-04-24T12:54:06.065Z</time></trkpt><trkpt lat="42.0738783" lon="11.9169433"><ele>292.2</ele><time>2026-04-24T12:54:23.063Z</time></trkpt><trkpt lat="42.0739983" lon="11.9169717"><ele>292.0</ele><time>2026-04-24T12:54:25.064Z</time></trkpt><trkpt lat="42.0740633" lon="11.9169533"><ele>292.8333333333333</ele><time>2026-04-24T12:54:26.064Z</time></trkpt><trkpt lat="42.074125" lon="11.9169217"><ele>293.66666666666663</ele><time>2026-04-24T12:54:27.063Z</time></trkpt><trkpt lat="42.074245" lon="11.9168983"><ele>294.5</ele><time>2026-04-24T12:54:29.064Z</time></trkpt><trkpt lat="42.0743067" lon="11.9169283"><ele>295.3333333333333</ele><time>2026-04-24T12:54:30.063Z</time></trkpt><trkpt lat="42.0743733" lon="11.9169667"><ele>296.1666666666667</ele><time>2026-04-24T12:54:31.063Z</time></trkpt><trkpt lat="42.074445" lon="11.917"><ele>297.0</ele><time>2026-04-24T12:54:32.063Z</time></trkpt><trkpt lat="42.0745567" lon="11.9170683"><ele>297.0</ele><time>2026-04-24T12:54:34.063Z</time></trkpt><trkpt lat="42.0746133" lon="11.9171083"><ele>297.0</ele><time>2026-04-24T12:54:35.062Z</time></trkpt><trkpt lat="42.0747167" lon="11.9171567"><ele>297.0</ele><time>2026-04-24T12:54:37.062Z</time></trkpt><trkpt lat="42.074815" lon="11.9172467"><ele>297.0</ele><time>2026-04-24T12:54:39.064Z</time></trkpt><trkpt lat="42.0748717" lon="11.9173183"><ele>297.0</ele><time>2026-04-24T12:54:40.064Z</time></trkpt><trkpt lat="42.0749283" lon="11.917385"><ele>297.0</ele><time>2026-04-24T12:54:41.065Z</time></trkpt><trkpt lat="42.07499" lon="11.9174533"><ele>297.8333333333333</ele><time>2026-04-24T12:54:42.063Z</time></trkpt><trkpt lat="42.075055" lon="11.9175183"><ele>298.6666666666667</ele><time>2026-04-24T12:54:43.064Z</time></trkpt><trkpt lat="42.07511" lon="11.917575"><ele>299.5</ele><time>2026-04-24T12:54:44.062Z</time></trkpt><trkpt lat="42.0752267" lon="11.917605"><ele>300.33333333333337</ele><time>2026-04-24T12:54:46.064Z</time></trkpt><trkpt lat="42.0752983" lon="11.9176067"><ele>301.1666666666667</ele><time>2026-04-24T12:54:47.062Z</time></trkpt><trkpt lat="42.0753667" lon="11.917615"><ele>302.0</ele><time>2026-04-24T12:54:48.063Z</time></trkpt><trkpt lat="42.0754683" lon="11.9176417"><ele>302.0</ele><time>2026-04-24T12:54:50.066Z</time></trkpt><trkpt lat="42.07554" lon="11.9176433"><ele>302.0</ele><time>2026-04-24T12:54:59.065Z</time></trkpt><trkpt lat="42.0756167" lon="11.9176417"><ele>302.0</ele><time>2026-04-24T12:55:05.064Z</time></trkpt><trkpt lat="42.07572" lon="11.9176417"><ele>302.0</ele><time>2026-04-24T12:55:07.063Z</time></trkpt><trkpt lat="42.0758183" lon="11.9176833"><ele>302.0</ele><time>2026-04-24T12:55:09.063Z</time></trkpt><trkpt lat="42.0758733" lon="11.9177367"><ele>302.0</ele><time>2026-04-24T12:55:11.065Z</time></trkpt><trkpt lat="42.0759617" lon="11.9177933"><ele>303.5</ele><time>2026-04-24T12:55:13.064Z</time></trkpt><trkpt lat="42.076045" lon="11.917845"><ele>305.0</ele><time>2026-04-24T12:55:15.064Z</time></trkpt><trkpt lat="42.0761117" lon="11.9178533"><ele>306.5</ele><time>2026-04-24T12:55:17.065Z</time></trkpt><trkpt lat="42.07619" lon="11.91785"><ele>308.0</ele><time>2026-04-24T12:55:19.065Z</time></trkpt><trkpt lat="42.0762767" lon="11.9178783"><ele>309.5</ele><time>2026-04-24T12:55:21.063Z</time></trkpt><trkpt lat="42.0763383" lon="11.91795"><ele>311.0</ele><time>2026-04-24T12:55:23.064Z</time></trkpt><trkpt lat="42.0763633" lon="11.91803"><ele>311.0</ele><time>2026-04-24T12:55:25.063Z</time></trkpt><trkpt lat="42.0764167" lon="11.91811"><ele>311.0</ele><time>2026-04-24T12:55:38.064Z</time></trkpt><trkpt lat="42.0765267" lon="11.9181733"><ele>311.0</ele><time>2026-04-24T12:55:40.063Z</time></trkpt><trkpt lat="42.0766033" lon="11.918225"><ele>311.0</ele><time>2026-04-24T12:55:41.063Z</time></trkpt><trkpt lat="42.0766767" lon="11.9182567"><ele>311.0</ele><time>2026-04-24T12:55:42.063Z</time></trkpt><trkpt lat="42.0767467" lon="11.918265"><ele>311.0</ele><time>2026-04-24T12:55:43.062Z</time></trkpt><trkpt lat="42.07681" lon="11.918255"><ele>310.5</ele><time>2026-04-24T12:55:44.063Z</time></trkpt><trkpt lat="42.0769283" lon="11.9182383"><ele>310.0</ele><time>2026-04-24T12:55:46.063Z</time></trkpt><trkpt lat="42.0770783" lon="11.9183967"><ele>309.5</ele><time>2026-04-24T12:56:52.063Z</time></trkpt><trkpt lat="42.07716" lon="11.9185083"><ele>309.0</ele><time>2026-04-24T12:56:54.062Z</time></trkpt><trkpt lat="42.07723" lon="11.9186017"><ele>309.6666666666667</ele><time>2026-04-24T12:56:56.064Z</time></trkpt><trkpt lat="42.0772767" lon="11.918675"><ele>310.3333333333333</ele><time>2026-04-24T12:56:58.064Z</time></trkpt><trkpt lat="42.0773217" lon="11.9187383"><ele>311.0</ele><time>2026-04-24T12:57:11.064Z</time></trkpt><trkpt lat="42.07741" lon="11.9188083"><ele>311.66666666666663</ele><time>2026-04-24T12:57:13.061Z</time></trkpt><trkpt lat="42.0774867" lon="11.918895"><ele>312.3333333333333</ele><time>2026-04-24T12:57:15.064Z</time></trkpt><trkpt lat="42.0775133" lon="11.9190267"><ele>313.0</ele><time>2026-04-24T12:57:17.063Z</time></trkpt><trkpt lat="42.0775083" lon="11.919115"><ele>313.0</ele><time>2026-04-24T12:57:18.063Z</time></trkpt><trkpt lat="42.077505" lon="11.9192"><ele>313.0</ele><time>2026-04-24T12:57:19.065Z</time></trkpt><trkpt lat="42.07749" lon="11.9193267"><ele>313.0</ele><time>2026-04-24T12:57:21.064Z</time></trkpt><trkpt lat="42.0774267" lon="11.9193733"><ele>313.0</ele><time>2026-04-24T12:57:23.064Z</time></trkpt><trkpt lat="42.0773467" lon="11.9193367"><ele>313.0</ele><time>2026-04-24T12:57:25.063Z</time></trkpt><trkpt lat="42.0772617" lon="11.919315"><ele>313.0</ele><time>2026-04-24T12:57:27.065Z</time></trkpt><trkpt lat="42.07717" lon="11.91939"><ele>309.8</ele><time>2026-04-24T12:57:29.064Z</time></trkpt><trkpt lat="42.0770733" lon="11.9194817"><ele>306.6</ele><time>2026-04-24T12:57:31.065Z</time></trkpt><trkpt lat="42.07702" lon="11.919575"><ele>303.4</ele><time>2026-04-24T12:57:34.065Z</time></trkpt><trkpt lat="42.077015" lon="11.9197"><ele>300.2</ele><time>2026-04-24T12:57:36.065Z</time></trkpt><trkpt lat="42.07696" lon="11.91983"><ele>297.0</ele><time>2026-04-24T12:57:38.063Z</time></trkpt><trkpt lat="42.0769117" lon="11.9199"><ele>297.0</ele><time>2026-04-24T12:57:39.064Z</time></trkpt><trkpt lat="42.07685" lon="11.9200417"><ele>297.0</ele><time>2026-04-24T12:57:41.064Z</time></trkpt><trkpt lat="42.0767717" lon="11.9201317"><ele>297.0</ele><time>2026-04-24T12:57:43.065Z</time></trkpt><trkpt lat="42.0766533" lon="11.9201467"><ele>297.0</ele><time>2026-04-24T12:57:45.063Z</time></trkpt><trkpt lat="42.0765317" lon="11.9202183"><ele>294.57142857142856</ele><time>2026-04-24T12:57:47.065Z</time></trkpt><trkpt lat="42.07647" lon="11.9202717"><ele>292.14285714285717</ele><time>2026-04-24T12:57:48.064Z</time></trkpt><trkpt lat="42.0764133" lon="11.9203267"><ele>289.7142857142857</ele><time>2026-04-24T12:57:49.064Z</time></trkpt><trkpt lat="42.0763667" lon="11.9203883"><ele>287.2857142857143</ele><time>2026-04-24T12:57:50.064Z</time></trkpt><trkpt lat="42.076305" lon="11.9205117"><ele>284.8571428571429</ele><time>2026-04-24T12:57:52.065Z</time></trkpt><trkpt lat="42.0762817" lon="11.9205917"><ele>282.42857142857144</ele><time>2026-04-24T12:57:53.065Z</time></trkpt><trkpt lat="42.0762483" lon="11.9206683"><ele>280.0</ele><time>2026-04-24T12:57:54.064Z</time></trkpt><trkpt lat="42.0761933" lon="11.9208117"><ele>279.16666666666663</ele><time>2026-04-24T12:57:56.066Z</time></trkpt><trkpt lat="42.0761667" lon="11.920965"><ele>278.3333333333333</ele><time>2026-04-24T12:57:58.066Z</time></trkpt><trkpt lat="42.0761517" lon="11.9210517"><ele>277.5</ele><time>2026-04-24T12:57:59.066Z</time></trkpt><trkpt lat="42.07613" lon="11.9211783"><ele>276.6666666666667</ele><time>2026-04-24T12:58:01.065Z</time></trkpt><trkpt lat="42.076115" lon="11.9212983"><ele>275.83333333333337</ele><time>2026-04-24T12:58:04.065Z</time></trkpt><trkpt lat="42.0761283" lon="11.9213917"><ele>275.0</ele><time>2026-04-24T12:58:08.063Z</time></trkpt><trkpt lat="42.0760767" lon="11.9214867"><ele>275.0</ele><time>2026-04-24T12:58:11.066Z</time></trkpt><trkpt lat="42.075995" lon="11.9215533"><ele>275.0</ele><time>2026-04-24T12:58:13.065Z</time></trkpt><trkpt lat="42.075935" lon="11.92165"><ele>275.0</ele><time>2026-04-24T12:58:15.064Z</time></trkpt><trkpt lat="42.0758717" lon="11.9217433"><ele>275.0</ele><time>2026-04-24T12:58:17.065Z</time></trkpt><trkpt lat="42.0757567" lon="11.92177"><ele>275.0</ele><time>2026-04-24T12:58:19.063Z</time></trkpt><trkpt lat="42.0756583" lon="11.921775"><ele>275.1666666666667</ele><time>2026-04-24T12:58:21.063Z</time></trkpt><trkpt lat="42.0755667" lon="11.9218467"><ele>275.33333333333337</ele><time>2026-04-24T12:58:23.065Z</time></trkpt><trkpt lat="42.0754967" lon="11.9218817"><ele>275.5</ele><time>2026-04-24T12:58:26.064Z</time></trkpt><trkpt lat="42.0754183" lon="11.9218217"><ele>275.6666666666667</ele><time>2026-04-24T12:58:47.062Z</time></trkpt><trkpt lat="42.0753567" lon="11.9217833"><ele>275.8333333333333</ele><time>2026-04-24T12:58:49.063Z</time></trkpt><trkpt lat="42.075295" lon="11.9217517"><ele>276.0</ele><time>2026-04-24T12:58:51.064Z</time></trkpt><trkpt lat="42.07522" lon="11.9217233"><ele>274.6666666666667</ele><time>2026-04-24T12:58:53.066Z</time></trkpt><trkpt lat="42.07515" lon="11.9216833"><ele>273.3333333333333</ele><time>2026-04-24T12:58:56.062Z</time></trkpt><trkpt lat="42.0751033" lon="11.9216017"><ele>272.0</ele><time>2026-04-24T12:59:09.062Z</time></trkpt><trkpt lat="42.0750467" lon="11.9215367"><ele>270.66666666666663</ele><time>2026-04-24T12:59:12.065Z</time></trkpt><trkpt lat="42.0749833" lon="11.9215083"><ele>269.3333333333333</ele><time>2026-04-24T12:59:14.065Z</time></trkpt><trkpt lat="42.0749067" lon="11.9214783"><ele>268.0</ele><time>2026-04-24T12:59:16.062Z</time></trkpt><trkpt lat="42.074835" lon="11.921425"><ele>267.5</ele><time>2026-04-24T12:59:18.064Z</time></trkpt><trkpt lat="42.074775" lon="11.9213633"><ele>267.0</ele><time>2026-04-24T12:59:20.065Z</time></trkpt><trkpt lat="42.0747017" lon="11.9213167"><ele>266.5</ele><time>2026-04-24T12:59:22.066Z</time></trkpt><trkpt lat="42.07463" lon="11.9213283"><ele>266.0</ele><time>2026-04-24T12:59:24.065Z</time></trkpt><trkpt lat="42.0745417" lon="11.9213567"><ele>265.5</ele><time>2026-04-24T12:59:27.064Z</time></trkpt><trkpt lat="42.0744633" lon="11.92134"><ele>265.0</ele><time>2026-04-24T12:59:29.063Z</time></trkpt><trkpt lat="42.0743817" lon="11.9212883"><ele>265.0</ele><time>2026-04-24T12:59:32.065Z</time></trkpt><trkpt lat="42.074335" lon="11.9212217"><ele>265.0</ele><time>2026-04-24T12:59:34.064Z</time></trkpt><trkpt lat="42.0742717" lon="11.92117"><ele>265.0</ele><time>2026-04-24T12:59:36.064Z</time></trkpt><trkpt lat="42.0742" lon="11.92112"><ele>265.0</ele><time>2026-04-24T12:59:38.064Z</time></trkpt><trkpt lat="42.07413" lon="11.9210917"><ele>265.0</ele><time>2026-04-24T12:59:40.064Z</time></trkpt><trkpt lat="42.0740417" lon="11.921065"><ele>265.0</ele><time>2026-04-24T12:59:42.065Z</time></trkpt><trkpt lat="42.0739567" lon="11.9210733"><ele>264.0</ele><time>2026-04-24T12:59:44.063Z</time></trkpt><trkpt lat="42.073875" lon="11.9211067"><ele>263.0</ele><time>2026-04-24T12:59:46.064Z</time></trkpt><trkpt lat="42.0738067" lon="11.9211367"><ele>262.0</ele><time>2026-04-24T12:59:48.064Z</time></trkpt><trkpt lat="42.0737417" lon="11.9211267"><ele>261.0</ele><time>2026-04-24T12:59:51.065Z</time></trkpt><trkpt lat="42.0736833" lon="11.9211667"><ele>260.0</ele><time>2026-04-24T12:59:56.065Z</time></trkpt><trkpt lat="42.0736067" lon="11.9212033"><ele>259.0</ele><time>2026-04-24T13:00:00.064Z</time></trkpt><trkpt lat="42.0735317" lon="11.9211567"><ele>259.0</ele><time>2026-04-24T13:00:03.066Z</time></trkpt><trkpt lat="42.0735133" lon="11.9210733"><ele>259.0</ele><time>2026-04-24T13:00:06.064Z</time></trkpt><trkpt lat="42.0734567" lon="11.92099"><ele>259.0</ele><time>2026-04-24T13:00:10.065Z</time></trkpt><trkpt lat="42.0733783" lon="11.92095"><ele>259.0</ele><time>2026-04-24T13:00:13.063Z</time></trkpt><trkpt lat="42.073315" lon="11.9209267"><ele>259.0</ele><time>2026-04-24T13:00:15.064Z</time></trkpt><trkpt lat="42.07323" lon="11.920905"><ele>259.0</ele><time>2026-04-24T13:00:18.064Z</time></trkpt><trkpt lat="42.0731517" lon="11.9208983"><ele>257.16666666666663</ele><time>2026-04-24T13:00:21.063Z</time></trkpt><trkpt lat="42.0730683" lon="11.920925"><ele>255.33333333333331</ele><time>2026-04-24T13:00:24.063Z</time></trkpt><trkpt lat="42.07301" lon="11.9209667"><ele>253.5</ele><time>2026-04-24T13:00:26.066Z</time></trkpt><trkpt lat="42.0729617" lon="11.92103"><ele>251.66666666666669</ele><time>2026-04-24T13:00:28.064Z</time></trkpt><trkpt lat="42.0728433" lon="11.9211067"><ele>249.83333333333334</ele><time>2026-04-24T13:00:42.064Z</time></trkpt><trkpt lat="42.0727783" lon="11.9210983"><ele>248.0</ele><time>2026-04-24T13:00:44.065Z</time></trkpt><trkpt lat="42.0727183" lon="11.9210533"><ele>248.00000000000003</ele><time>2026-04-24T13:00:46.066Z</time></trkpt><trkpt lat="42.0726617" lon="11.9210133"><ele>248.0</ele><time>2026-04-24T13:00:48.064Z</time></trkpt><trkpt lat="42.0726083" lon="11.920935"><ele>248.0</ele><time>2026-04-24T13:00:51.064Z</time></trkpt><trkpt lat="42.0724817" lon="11.9209833"><ele>248.0</ele><time>2026-04-24T13:03:05.064Z</time></trkpt><trkpt lat="42.07239" lon="11.9209683"><ele>248.00000000000003</ele><time>2026-04-24T13:03:08.065Z</time></trkpt><trkpt lat="42.072315" lon="11.9209933"><ele>248.0</ele><time>2026-04-24T13:03:10.064Z</time></trkpt><trkpt lat="42.072235" lon="11.921035"><ele>246.83333333333334</ele><time>2026-04-24T13:03:12.062Z</time></trkpt><trkpt lat="42.0721467" lon="11.92107"><ele>245.66666666666669</ele><time>2026-04-24T13:03:14.064Z</time></trkpt><trkpt lat="42.072045" lon="11.9211333"><ele>244.5</ele><time>2026-04-24T13:03:20.064Z</time></trkpt><trkpt lat="42.071985" lon="11.9212"><ele>243.33333333333331</ele><time>2026-04-24T13:03:22.064Z</time></trkpt><trkpt lat="42.0719283" lon="11.9212517"><ele>242.16666666666666</ele><time>2026-04-24T13:03:24.065Z</time></trkpt><trkpt lat="42.071845" lon="11.9212683"><ele>241.0</ele><time>2026-04-24T13:03:27.066Z</time></trkpt><trkpt lat="42.0717517" lon="11.9212367"><ele>240.99999999999997</ele><time>2026-04-24T13:03:30.064Z</time></trkpt><trkpt lat="42.0716917" lon="11.9211833"><ele>241.0</ele><time>2026-04-24T13:03:32.064Z</time></trkpt><trkpt lat="42.0716183" lon="11.92116"><ele>241.0</ele><time>2026-04-24T13:03:34.064Z</time></trkpt><trkpt lat="42.07156" lon="11.92112"><ele>241.0</ele><time>2026-04-24T13:03:36.063Z</time></trkpt><trkpt lat="42.0714983" lon="11.92108"><ele>240.99999999999997</ele><time>2026-04-24T13:03:38.065Z</time></trkpt><trkpt lat="42.0714183" lon="11.92102"><ele>241.0</ele><time>2026-04-24T13:03:40.064Z</time></trkpt><trkpt lat="42.071335" lon="11.9209883"><ele>240.16666666666666</ele><time>2026-04-24T13:03:42.065Z</time></trkpt><trkpt lat="42.0712633" lon="11.9209983"><ele>239.33333333333331</ele><time>2026-04-24T13:03:44.063Z</time></trkpt><trkpt lat="42.0712017" lon="11.9210433"><ele>238.5</ele><time>2026-04-24T13:03:46.064Z</time></trkpt><trkpt lat="42.0711433" lon="11.9210817"><ele>237.66666666666669</ele><time>2026-04-24T13:03:48.064Z</time></trkpt><trkpt lat="42.071055" lon="11.9211133"><ele>236.83333333333334</ele><time>2026-04-24T13:03:51.064Z</time></trkpt><trkpt lat="42.0709583" lon="11.9211517"><ele>236.0</ele><time>2026-04-24T13:03:57.065Z</time></trkpt><trkpt lat="42.0708917" lon="11.921215"><ele>236.0</ele><time>2026-04-24T13:03:59.065Z</time></trkpt><trkpt lat="42.0708033" lon="11.9212833"><ele>236.00000000000003</ele><time>2026-04-24T13:04:01.063Z</time></trkpt><trkpt lat="42.0707133" lon="11.921315"><ele>236.00000000000003</ele><time>2026-04-24T13:04:03.065Z</time></trkpt><trkpt lat="42.07063" lon="11.921295"><ele>236.0</ele><time>2026-04-24T13:04:05.064Z</time></trkpt><trkpt lat="42.0705417" lon="11.9212483"><ele>236.0</ele><time>2026-04-24T13:04:07.064Z</time></trkpt><trkpt lat="42.0704433" lon="11.9211883"><ele>233.20000000000002</ele><time>2026-04-24T13:04:09.065Z</time></trkpt><trkpt lat="42.070355" lon="11.9211667"><ele>230.40000000000003</ele><time>2026-04-24T13:04:11.063Z</time></trkpt><trkpt lat="42.07027" lon="11.921205"><ele>227.6</ele><time>2026-04-24T13:04:13.065Z</time></trkpt><trkpt lat="42.070185" lon="11.9212717"><ele>224.8</ele><time>2026-04-24T13:04:15.064Z</time></trkpt><trkpt lat="42.0700967" lon="11.92138"><ele>222.0</ele><time>2026-04-24T13:04:17.066Z</time></trkpt><trkpt lat="42.0700467" lon="11.9214333"><ele>222.0</ele><time>2026-04-24T13:04:18.066Z</time></trkpt><trkpt lat="42.0699517" lon="11.9215317"><ele>222.0</ele><time>2026-04-24T13:04:20.065Z</time></trkpt><trkpt lat="42.0698767" lon="11.921585"><ele>222.0</ele><time>2026-04-24T13:04:23.064Z</time></trkpt><trkpt lat="42.0698067" lon="11.9216367"><ele>222.0</ele><time>2026-04-24T13:04:25.065Z</time></trkpt><trkpt lat="42.0697283" lon="11.9217283"><ele>222.0</ele><time>2026-04-24T13:04:27.065Z</time></trkpt><trkpt lat="42.0696567" lon="11.921805"><ele>221.39999999999998</ele><time>2026-04-24T13:04:29.065Z</time></trkpt><trkpt lat="42.0695533" lon="11.9218217"><ele>220.79999999999998</ele><time>2026-04-24T13:04:31.064Z</time></trkpt><trkpt lat="42.0694483" lon="11.92183"><ele>220.2</ele><time>2026-04-24T13:04:33.064Z</time></trkpt><trkpt lat="42.0693683" lon="11.9218783"><ele>219.6</ele><time>2026-04-24T13:04:35.066Z</time></trkpt><trkpt lat="42.0692833" lon="11.9219083"><ele>219.0</ele><time>2026-04-24T13:04:37.064Z</time></trkpt><trkpt lat="42.069185" lon="11.9218817"><ele>215.0</ele><time>2026-04-24T13:04:39.064Z</time></trkpt><trkpt lat="42.0690833" lon="11.9218617"><ele>210.99999999999997</ele><time>2026-04-24T13:04:41.065Z</time></trkpt><trkpt lat="42.0689967" lon="11.9219033"><ele>207.0</ele><time>2026-04-24T13:04:43.065Z</time></trkpt><trkpt lat="42.0689083" lon="11.921985"><ele>203.0</ele><time>2026-04-24T13:04:45.065Z</time></trkpt><trkpt lat="42.06884" lon="11.9220567"><ele>199.0</ele><time>2026-04-24T13:04:47.066Z</time></trkpt><trkpt lat="42.0687633" lon="11.9221383"><ele>199.0</ele><time>2026-04-24T13:04:49.064Z</time></trkpt><trkpt lat="42.0686967" lon="11.922225"><ele>199.0</ele><time>2026-04-24T13:04:51.066Z</time></trkpt><trkpt lat="42.068615" lon="11.9223083"><ele>199.0</ele><time>2026-04-24T13:04:53.066Z</time></trkpt><trkpt lat="42.0685333" lon="11.9223767"><ele>199.0</ele><time>2026-04-24T13:04:55.065Z</time></trkpt><trkpt lat="42.0684617" lon="11.92246"><ele>199.0</ele><time>2026-04-24T13:04:57.066Z</time></trkpt><trkpt lat="42.0683883" lon="11.9225183"><ele>198.99999999999997</ele><time>2026-04-24T13:04:59.064Z</time></trkpt><trkpt lat="42.0683233" lon="11.9226067"><ele>199.0</ele><time>2026-04-24T13:05:02.065Z</time></trkpt><trkpt lat="42.0682883" lon="11.922685"><ele>199.0</ele><time>2026-04-24T13:05:04.062Z</time></trkpt><trkpt lat="42.068225" lon="11.922775"><ele>199.0</ele><time>2026-04-24T13:05:06.065Z</time></trkpt><trkpt lat="42.0681433" lon="11.922825"><ele>198.99999999999997</ele><time>2026-04-24T13:05:08.064Z</time></trkpt><trkpt lat="42.0680567" lon="11.9228433"><ele>199.0</ele><time>2026-04-24T13:05:10.062Z</time></trkpt><trkpt lat="42.0679583" lon="11.92288"><ele>196.49999999999997</ele><time>2026-04-24T13:05:12.065Z</time></trkpt><trkpt lat="42.0678633" lon="11.9229267"><ele>194.0</ele><time>2026-04-24T13:05:14.065Z</time></trkpt><trkpt lat="42.0678017" lon="11.9229683"><ele>191.5</ele><time>2026-04-24T13:05:16.065Z</time></trkpt><trkpt lat="42.0677583" lon="11.9230383"><ele>189.0</ele><time>2026-04-24T13:05:18.065Z</time></trkpt><trkpt lat="42.0677383" lon="11.92313"><ele>186.5</ele><time>2026-04-24T13:05:20.064Z</time></trkpt><trkpt lat="42.0677183" lon="11.9232267"><ele>184.0</ele><time>2026-04-24T13:05:22.063Z</time></trkpt><trkpt lat="42.0676617" lon="11.9233283"><ele>184.0</ele><time>2026-04-24T13:05:24.064Z</time></trkpt><trkpt lat="42.0676017" lon="11.9233733"><ele>184.0</ele><time>2026-04-24T13:05:26.064Z</time></trkpt><trkpt lat="42.067545" lon="11.923455"><ele>184.0</ele><time>2026-04-24T13:08:01.064Z</time></trkpt><trkpt lat="42.0674817" lon="11.9235017"><ele>184.0</ele><time>2026-04-24T13:08:04.063Z</time></trkpt><trkpt lat="42.0674067" lon="11.923465"><ele>184.0</ele><time>2026-04-24T13:08:07.063Z</time></trkpt><trkpt lat="42.0673333" lon="11.9234467"><ele>184.0</ele><time>2026-04-24T13:08:09.063Z</time></trkpt><trkpt lat="42.06727" lon="11.9233883"><ele>182.0</ele><time>2026-04-24T13:08:11.063Z</time></trkpt><trkpt lat="42.0672017" lon="11.923315"><ele>180.0</ele><time>2026-04-24T13:08:13.064Z</time></trkpt><trkpt lat="42.0671333" lon="11.92326"><ele>178.0</ele><time>2026-04-24T13:08:15.063Z</time></trkpt><trkpt lat="42.0670283" lon="11.923175"><ele>176.0</ele><time>2026-04-24T13:08:17.065Z</time></trkpt><trkpt lat="42.0669717" lon="11.9231183"><ele>174.0</ele><time>2026-04-24T13:08:18.062Z</time></trkpt><trkpt lat="42.0669067" lon="11.92307"><ele>172.0</ele><time>2026-04-24T13:08:19.065Z</time></trkpt><trkpt lat="42.0668333" lon="11.9230383"><ele>172.0</ele><time>2026-04-24T13:08:20.066Z</time></trkpt><trkpt lat="42.0667583" lon="11.9230183"><ele>172.0</ele><time>2026-04-24T13:08:21.065Z</time></trkpt><trkpt lat="42.0666933" lon="11.9230017"><ele>172.0</ele><time>2026-04-24T13:08:22.065Z</time></trkpt><trkpt lat="42.0665967" lon="11.9229933"><ele>172.0</ele><time>2026-04-24T13:08:24.066Z</time></trkpt><trkpt lat="42.0665333" lon="11.923015"><ele>172.0</ele><time>2026-04-24T13:08:26.063Z</time></trkpt><trkpt lat="42.0664533" lon="11.923045"><ele>172.0</ele><time>2026-04-24T13:09:02.064Z</time></trkpt><trkpt lat="42.0663733" lon="11.9230233"><ele>172.66666666666669</ele><time>2026-04-24T13:09:06.065Z</time></trkpt><trkpt lat="42.06631" lon="11.9230433"><ele>173.33333333333334</ele><time>2026-04-24T13:09:49.065Z</time></trkpt><trkpt lat="42.066255" lon="11.9230883"><ele>174.0</ele><time>2026-04-24T13:09:51.065Z</time></trkpt><trkpt lat="42.0661517" lon="11.9231433"><ele>174.66666666666666</ele><time>2026-04-24T13:09:53.066Z</time></trkpt><trkpt lat="42.0660867" lon="11.9231717"><ele>175.33333333333331</ele><time>2026-04-24T13:09:54.065Z</time></trkpt><trkpt lat="42.06602" lon="11.9232083"><ele>176.0</ele><time>2026-04-24T13:09:55.064Z</time></trkpt><trkpt lat="42.06592" lon="11.9232567"><ele>176.0</ele><time>2026-04-24T13:09:57.065Z</time></trkpt><trkpt lat="42.06585" lon="11.9232033"><ele>176.0</ele><time>2026-04-24T13:10:08.065Z</time></trkpt><trkpt lat="42.06577" lon="11.9231583"><ele>176.0</ele><time>2026-04-24T13:10:28.065Z</time></trkpt><trkpt lat="42.0657217" lon="11.9232167"><ele>176.0</ele><time>2026-04-24T13:10:34.064Z</time></trkpt><trkpt lat="42.065705" lon="11.92338"><ele>176.0</ele><time>2026-04-24T13:10:55.062Z</time></trkpt><trkpt lat="42.0656317" lon="11.92344"><ele>176.0</ele><time>2026-04-24T13:10:57.062Z</time></trkpt><trkpt lat="42.065555" lon="11.92351"><ele>175.33333333333331</ele><time>2026-04-24T13:10:59.062Z</time></trkpt><trkpt lat="42.0654633" lon="11.923565"><ele>174.66666666666666</ele><time>2026-04-24T13:11:01.063Z</time></trkpt><trkpt lat="42.06535" lon="11.923635"><ele>174.0</ele><time>2026-04-24T13:11:03.062Z</time></trkpt><trkpt lat="42.0652917" lon="11.9236783"><ele>173.33333333333334</ele><time>2026-04-24T13:11:04.064Z</time></trkpt><trkpt lat="42.0652367" lon="11.9237217"><ele>172.66666666666669</ele><time>2026-04-24T13:11:05.062Z</time></trkpt><trkpt lat="42.0651833" lon="11.9237683"><ele>172.0</ele><time>2026-04-24T13:11:06.063Z</time></trkpt><trkpt lat="42.0651333" lon="11.923825"><ele>172.0</ele><time>2026-04-24T13:11:07.063Z</time></trkpt><trkpt lat="42.0650817" lon="11.923885"><ele>172.0</ele><time>2026-04-24T13:11:08.063Z</time></trkpt><trkpt lat="42.0650217" lon="11.923935"><ele>172.0</ele><time>2026-04-24T13:11:09.064Z</time></trkpt><trkpt lat="42.06496" lon="11.9239767"><ele>172.0</ele><time>2026-04-24T13:11:10.063Z</time></trkpt><trkpt lat="42.0648567" lon="11.9240367"><ele>172.0</ele><time>2026-04-24T13:11:12.063Z</time></trkpt><trkpt lat="42.0647867" lon="11.924075"><ele>172.0</ele><time>2026-04-24T13:11:14.064Z</time></trkpt><trkpt lat="42.0647067" lon="11.9241017"><ele>172.33333333333334</ele><time>2026-04-24T13:11:18.064Z</time></trkpt><trkpt lat="42.064635" lon="11.9240833"><ele>172.66666666666669</ele><time>2026-04-24T13:11:22.063Z</time></trkpt><trkpt lat="42.0645533" lon="11.9241183"><ele>173.0</ele><time>2026-04-24T13:11:28.065Z</time></trkpt><trkpt lat="42.0644883" lon="11.9241667"><ele>173.33333333333334</ele><time>2026-04-24T13:11:30.064Z</time></trkpt><trkpt lat="42.0644167" lon="11.9241733"><ele>173.66666666666666</ele><time>2026-04-24T13:11:32.064Z</time></trkpt><trkpt lat="42.06433" lon="11.9241567"><ele>174.0</ele><time>2026-04-24T13:11:35.062Z</time></trkpt><trkpt lat="42.0642417" lon="11.92418"><ele>174.0</ele><time>2026-04-24T13:11:37.064Z</time></trkpt><trkpt lat="42.0641483" lon="11.9241967"><ele>174.0</ele><time>2026-04-24T13:11:39.063Z</time></trkpt><trkpt lat="42.0640467" lon="11.92425"><ele>174.0</ele><time>2026-04-24T13:11:41.065Z</time></trkpt><trkpt lat="42.06392" lon="11.9243017"><ele>174.0</ele><time>2026-04-24T13:11:43.064Z</time></trkpt><trkpt lat="42.063855" lon="11.9243333"><ele>174.0</ele><time>2026-04-24T13:11:44.063Z</time></trkpt><trkpt lat="42.0637867" lon="11.9243783"><ele>175.0</ele><time>2026-04-24T13:11:45.064Z</time></trkpt><trkpt lat="42.0637183" lon="11.9244317"><ele>176.0</ele><time>2026-04-24T13:11:46.065Z</time></trkpt><trkpt lat="42.0636433" lon="11.92447"><ele>177.0</ele><time>2026-04-24T13:11:47.065Z</time></trkpt><trkpt lat="42.0635683" lon="11.924495"><ele>178.0</ele><time>2026-04-24T13:11:48.063Z</time></trkpt><trkpt lat="42.0634867" lon="11.924515"><ele>179.0</ele><time>2026-04-24T13:11:49.064Z</time></trkpt><trkpt lat="42.0634067" lon="11.9245367"><ele>180.0</ele><time>2026-04-24T13:11:50.064Z</time></trkpt><trkpt lat="42.06333" lon="11.9245467"><ele>180.0</ele><time>2026-04-24T13:11:51.065Z</time></trkpt><trkpt lat="42.0632517" lon="11.9245417"><ele>180.0</ele><time>2026-04-24T13:11:52.064Z</time></trkpt><trkpt lat="42.0631667" lon="11.92452"><ele>180.0</ele><time>2026-04-24T13:11:53.063Z</time></trkpt><trkpt lat="42.0630867" lon="11.9244983"><ele>180.0</ele><time>2026-04-24T13:11:54.064Z</time></trkpt><trkpt lat="42.0630167" lon="11.9244867"><ele>180.0</ele><time>2026-04-24T13:11:55.064Z</time></trkpt><trkpt lat="42.0628883" lon="11.9245133"><ele>180.0</ele><time>2026-04-24T13:11:57.063Z</time></trkpt><trkpt lat="42.0628233" lon="11.92453"><ele>180.0</ele><time>2026-04-24T13:11:58.063Z</time></trkpt><trkpt lat="42.0627317" lon="11.924515"><ele>180.0</ele><time>2026-04-24T13:12:00.063Z</time></trkpt><trkpt lat="42.0626083" lon="11.9244767"><ele>180.0</ele><time>2026-04-24T13:12:11.064Z</time></trkpt><trkpt lat="42.0625167" lon="11.924455"><ele>180.0</ele><time>2026-04-24T13:12:13.069Z</time></trkpt><trkpt lat="42.06242" lon="11.92445"><ele>180.0</ele><time>2026-04-24T13:12:15.063Z</time></trkpt><trkpt lat="42.062305" lon="11.9244583"><ele>180.14285714285714</ele><time>2026-04-24T13:12:17.064Z</time></trkpt><trkpt lat="42.0622383" lon="11.92445"><ele>180.2857142857143</ele><time>2026-04-24T13:12:18.064Z</time></trkpt><trkpt lat="42.0621633" lon="11.9244433"><ele>180.42857142857144</ele><time>2026-04-24T13:12:19.064Z</time></trkpt><trkpt lat="42.0620817" lon="11.92444"><ele>180.57142857142856</ele><time>2026-04-24T13:12:20.065Z</time></trkpt><trkpt lat="42.0620017" lon="11.924435"><ele>180.71428571428572</ele><time>2026-04-24T13:12:21.062Z</time></trkpt><trkpt lat="42.06193" lon="11.924425"><ele>180.85714285714286</ele><time>2026-04-24T13:12:22.064Z</time></trkpt><trkpt lat="42.0618667" lon="11.9244183"><ele>181.0</ele><time>2026-04-24T13:12:23.063Z</time></trkpt><trkpt lat="42.0617967" lon="11.9244"><ele>181.0</ele><time>2026-04-24T13:12:25.063Z</time></trkpt><trkpt lat="42.0617217" lon="11.9243567"><ele>181.0</ele><time>2026-04-24T13:12:27.063Z</time></trkpt><trkpt lat="42.06163" lon="11.9243017"><ele>181.0</ele><time>2026-04-24T13:12:29.063Z</time></trkpt><trkpt lat="42.0615183" lon="11.9242367"><ele>181.0</ele><time>2026-04-24T13:12:31.064Z</time></trkpt><trkpt lat="42.06144" lon="11.9242017"><ele>181.0</ele><time>2026-04-24T13:12:32.064Z</time></trkpt><trkpt lat="42.0613633" lon="11.924165"><ele>178.0</ele><time>2026-04-24T13:12:33.064Z</time></trkpt><trkpt lat="42.0612983" lon="11.92413"><ele>175.0</ele><time>2026-04-24T13:12:34.065Z</time></trkpt><trkpt lat="42.0611917" lon="11.9240567"><ele>172.0</ele><time>2026-04-24T13:12:36.062Z</time></trkpt><trkpt lat="42.0611083" lon="11.9240083"><ele>169.0</ele><time>2026-04-24T13:12:38.064Z</time></trkpt><trkpt lat="42.0610117" lon="11.9240083"><ele>166.0</ele><time>2026-04-24T13:12:40.063Z</time></trkpt><trkpt lat="42.0609067" lon="11.9240617"><ele>166.0</ele><time>2026-04-24T13:12:42.063Z</time></trkpt><trkpt lat="42.0607883" lon="11.92412"><ele>166.0</ele><time>2026-04-24T13:12:44.063Z</time></trkpt><trkpt lat="42.060725" lon="11.9241483"><ele>166.0</ele><time>2026-04-24T13:12:45.063Z</time></trkpt><trkpt lat="42.0606667" lon="11.924185"><ele>166.0</ele><time>2026-04-24T13:12:46.063Z</time></trkpt><trkpt lat="42.0605733" lon="11.92427"><ele>166.0</ele><time>2026-04-24T13:12:48.065Z</time></trkpt><trkpt lat="42.0604583" lon="11.92432"><ele>166.4</ele><time>2026-04-24T13:12:50.066Z</time></trkpt><trkpt lat="42.0603567" lon="11.9243717"><ele>166.8</ele><time>2026-04-24T13:12:52.064Z</time></trkpt><trkpt lat="42.0602317" lon="11.9243483"><ele>167.20000000000002</ele><time>2026-04-24T13:12:54.063Z</time></trkpt><trkpt lat="42.06014" lon="11.9243167"><ele>167.60000000000002</ele><time>2026-04-24T13:12:55.064Z</time></trkpt><trkpt lat="42.060035" lon="11.9242633"><ele>168.0</ele><time>2026-04-24T13:12:56.065Z</time></trkpt><trkpt lat="42.05994" lon="11.9242083"><ele>168.0</ele><time>2026-04-24T13:12:57.064Z</time></trkpt><trkpt lat="42.05987" lon="11.9241683"><ele>168.0</ele><time>2026-04-24T13:12:58.063Z</time></trkpt><trkpt lat="42.0597967" lon="11.9241067"><ele>168.0</ele><time>2026-04-24T13:13:00.064Z</time></trkpt><trkpt lat="42.05973" lon="11.9240717"><ele>168.0</ele><time>2026-04-24T13:13:04.064Z</time></trkpt><trkpt lat="42.0596633" lon="11.9240133"><ele>168.0</ele><time>2026-04-24T13:13:06.065Z</time></trkpt><trkpt lat="42.059575" lon="11.9239033"><ele>168.0</ele><time>2026-04-24T13:13:08.066Z</time></trkpt><trkpt lat="42.0595267" lon="11.92383"><ele>168.0</ele><time>2026-04-24T13:13:09.064Z</time></trkpt><trkpt lat="42.0594833" lon="11.9237567"><ele>168.0</ele><time>2026-04-24T13:13:10.064Z</time></trkpt><trkpt lat="42.05945" lon="11.9236783"><ele>168.0</ele><time>2026-04-24T13:13:11.064Z</time></trkpt><trkpt lat="42.059415" lon="11.9236017"><ele>168.0</ele><time>2026-04-24T13:13:12.065Z</time></trkpt><trkpt lat="42.0593733" lon="11.9235333"><ele>168.0</ele><time>2026-04-24T13:13:13.066Z</time></trkpt><trkpt lat="42.0592783" lon="11.92344"><ele>168.0</ele><time>2026-04-24T13:13:15.065Z</time></trkpt><trkpt lat="42.05916" lon="11.9234033"><ele>168.0</ele><time>2026-04-24T13:13:17.064Z</time></trkpt><trkpt lat="42.0590917" lon="11.9234017"><ele>168.0</ele><time>2026-04-24T13:13:18.065Z</time></trkpt><trkpt lat="42.05901" lon="11.92341"><ele>168.0</ele><time>2026-04-24T13:13:19.065Z</time></trkpt><trkpt lat="42.0589283" lon="11.9234133"><ele>168.0</ele><time>2026-04-24T13:13:20.064Z</time></trkpt><trkpt lat="42.0588433" lon="11.9234183"><ele>168.0</ele><time>2026-04-24T13:13:21.065Z</time></trkpt><trkpt lat="42.05877" lon="11.9234217"><ele>168.0</ele><time>2026-04-24T13:13:22.064Z</time></trkpt><trkpt lat="42.0587067" lon="11.9234217"><ele>168.0</ele><time>2026-04-24T13:13:23.064Z</time></trkpt><trkpt lat="42.058605" lon="11.923395"><ele>168.0</ele><time>2026-04-24T13:13:25.063Z</time></trkpt><trkpt lat="42.0584883" lon="11.9234133"><ele>168.0</ele><time>2026-04-24T13:13:27.064Z</time></trkpt><trkpt lat="42.0584083" lon="11.9234283"><ele>168.0</ele><time>2026-04-24T13:13:28.065Z</time></trkpt><trkpt lat="42.0583267" lon="11.9234433"><ele>168.0</ele><time>2026-04-24T13:13:29.065Z</time></trkpt><trkpt lat="42.0582483" lon="11.9234617"><ele>165.8</ele><time>2026-04-24T13:13:30.064Z</time></trkpt><trkpt lat="42.0581733" lon="11.9234917"><ele>163.60000000000002</ele><time>2026-04-24T13:13:31.064Z</time></trkpt><trkpt lat="42.0581067" lon="11.92352"><ele>161.39999999999998</ele><time>2026-04-24T13:13:32.065Z</time></trkpt><trkpt lat="42.0579933" lon="11.9235217"><ele>159.2</ele><time>2026-04-24T13:13:34.063Z</time></trkpt><trkpt lat="42.0579033" lon="11.9234983"><ele>157.0</ele><time>2026-04-24T13:13:36.064Z</time></trkpt><trkpt lat="42.0578017" lon="11.9235133"><ele>157.0</ele><time>2026-04-24T13:13:38.066Z</time></trkpt><trkpt lat="42.0576967" lon="11.92355"><ele>157.0</ele><time>2026-04-24T13:13:40.064Z</time></trkpt><trkpt lat="42.0575983" lon="11.923575"><ele>157.0</ele><time>2026-04-24T13:13:42.064Z</time></trkpt><trkpt lat="42.0574833" lon="11.9236383"><ele>157.0</ele><time>2026-04-24T13:13:44.065Z</time></trkpt><trkpt lat="42.05742" lon="11.923665"><ele>157.0</ele><time>2026-04-24T13:13:45.065Z</time></trkpt><trkpt lat="42.0573017" lon="11.92369"><ele>155.66666666666669</ele><time>2026-04-24T13:13:47.065Z</time></trkpt><trkpt lat="42.0572017" lon="11.9237183"><ele>154.33333333333334</ele><time>2026-04-24T13:13:49.065Z</time></trkpt><trkpt lat="42.0570967" lon="11.9237567"><ele>153.0</ele><time>2026-04-24T13:13:51.064Z</time></trkpt><trkpt lat="42.0570283" lon="11.9237717"><ele>151.66666666666666</ele><time>2026-04-24T13:13:52.064Z</time></trkpt><trkpt lat="42.0569633" lon="11.9237783"><ele>150.33333333333331</ele><time>2026-04-24T13:13:53.065Z</time></trkpt><trkpt lat="42.056895" lon="11.92377"><ele>149.0</ele><time>2026-04-24T13:13:54.066Z</time></trkpt><trkpt lat="42.0567733" lon="11.9237317"><ele>149.0</ele><time>2026-04-24T13:13:56.064Z</time></trkpt><trkpt lat="42.0567117" lon="11.9237067"><ele>149.0</ele><time>2026-04-24T13:13:57.067Z</time></trkpt><trkpt lat="42.0566067" lon="11.9236583"><ele>149.0</ele><time>2026-04-24T13:13:59.065Z</time></trkpt><trkpt lat="42.056535" lon="11.9236133"><ele>149.0</ele><time>2026-04-24T13:14:01.064Z</time></trkpt><trkpt lat="42.0564467" lon="11.9235317"><ele>149.0</ele><time>2026-04-24T13:14:03.064Z</time></trkpt><trkpt lat="42.0563383" lon="11.92346"><ele>148.14285714285714</ele><time>2026-04-24T13:14:05.064Z</time></trkpt><trkpt lat="42.05627" lon="11.9234417"><ele>147.28571428571428</ele><time>2026-04-24T13:14:06.067Z</time></trkpt><trkpt lat="42.0562" lon="11.9234283"><ele>146.42857142857142</ele><time>2026-04-24T13:14:07.063Z</time></trkpt><trkpt lat="42.0561333" lon="11.923415"><ele>145.57142857142856</ele><time>2026-04-24T13:14:08.063Z</time></trkpt><trkpt lat="42.0560617" lon="11.9234017"><ele>144.71428571428572</ele><time>2026-04-24T13:14:09.065Z</time></trkpt><trkpt lat="42.0559867" lon="11.9233817"><ele>143.85714285714283</ele><time>2026-04-24T13:14:10.064Z</time></trkpt><trkpt lat="42.0559117" lon="11.923375"><ele>143.0</ele><time>2026-04-24T13:14:11.064Z</time></trkpt><trkpt lat="42.0558383" lon="11.9233633"><ele>140.33333333333331</ele><time>2026-04-24T13:14:12.064Z</time></trkpt><trkpt lat="42.0557683" lon="11.92335"><ele>137.66666666666666</ele><time>2026-04-24T13:14:13.065Z</time></trkpt><trkpt lat="42.0557" lon="11.923325"><ele>135.0</ele><time>2026-04-24T13:14:14.066Z</time></trkpt><trkpt lat="42.0556367" lon="11.923295"><ele>132.33333333333334</ele><time>2026-04-24T13:14:15.064Z</time></trkpt><trkpt lat="42.055575" lon="11.92327"><ele>129.66666666666669</ele><time>2026-04-24T13:14:16.065Z</time></trkpt><trkpt lat="42.055485" lon="11.923225"><ele>127.0</ele><time>2026-04-24T13:14:18.066Z</time></trkpt><trkpt lat="42.0554" lon="11.923155"><ele>127.0</ele><time>2026-04-24T13:14:20.066Z</time></trkpt><trkpt lat="42.0553267" lon="11.923085"><ele>126.99999999999999</ele><time>2026-04-24T13:14:22.064Z</time></trkpt><trkpt lat="42.0552233" lon="11.92309"><ele>126.99999999999999</ele><time>2026-04-24T13:14:24.065Z</time></trkpt><trkpt lat="42.0551033" lon="11.923055"><ele>127.0</ele><time>2026-04-24T13:14:26.064Z</time></trkpt><trkpt lat="42.05504" lon="11.923015"><ele>127.0</ele><time>2026-04-24T13:14:27.064Z</time></trkpt><trkpt lat="42.0549733" lon="11.922985"><ele>124.00000000000001</ele><time>2026-04-24T13:14:28.066Z</time></trkpt><trkpt lat="42.054905" lon="11.9229583"><ele>121.0</ele><time>2026-04-24T13:14:29.064Z</time></trkpt><trkpt lat="42.0548383" lon="11.92293"><ele>118.0</ele><time>2026-04-24T13:14:30.064Z</time></trkpt><trkpt lat="42.0547767" lon="11.922895"><ele>115.0</ele><time>2026-04-24T13:14:31.063Z</time></trkpt><trkpt lat="42.0546767" lon="11.92281"><ele>112.00000000000001</ele><time>2026-04-24T13:14:33.064Z</time></trkpt><trkpt lat="42.0546283" lon="11.92275"><ele>109.0</ele><time>2026-04-24T13:14:34.066Z</time></trkpt><trkpt lat="42.054575" lon="11.9226883"><ele>109.0</ele><time>2026-04-24T13:14:35.065Z</time></trkpt><trkpt lat="42.05452" lon="11.92263"><ele>109.0</ele><time>2026-04-24T13:14:36.064Z</time></trkpt><trkpt lat="42.054435" lon="11.922515"><ele>109.0</ele><time>2026-04-24T13:14:38.065Z</time></trkpt><trkpt lat="42.0543567" lon="11.92247"><ele>109.0</ele><time>2026-04-24T13:14:40.065Z</time></trkpt><trkpt lat="42.05429" lon="11.9225083"><ele>109.0</ele><time>2026-04-24T13:14:42.063Z</time></trkpt><trkpt lat="42.0542983" lon="11.922675"><ele>109.00000000000001</ele><time>2026-04-24T13:16:20.064Z</time></trkpt><trkpt lat="42.0542883" lon="11.9228033"><ele>109.0</ele><time>2026-04-24T13:16:23.064Z</time></trkpt><trkpt lat="42.05428" lon="11.9228917"><ele>109.0</ele><time>2026-04-24T13:16:25.065Z</time></trkpt><trkpt lat="42.0543033" lon="11.9229917"><ele>109.0</ele><time>2026-04-24T13:16:27.063Z</time></trkpt><trkpt lat="42.0543317" lon="11.9230983"><ele>109.00000000000001</ele><time>2026-04-24T13:16:29.064Z</time></trkpt><trkpt lat="42.05436" lon="11.923205"><ele>109.0</ele><time>2026-04-24T13:16:31.063Z</time></trkpt><trkpt lat="42.054385" lon="11.9233517"><ele>107.80000000000001</ele><time>2026-04-24T13:16:33.064Z</time></trkpt><trkpt lat="42.0543917" lon="11.923485"><ele>106.60000000000001</ele><time>2026-04-24T13:16:35.065Z</time></trkpt><trkpt lat="42.0543567" lon="11.92361"><ele>105.4</ele><time>2026-04-24T13:16:37.066Z</time></trkpt><trkpt lat="42.0543033" lon="11.9237183"><ele>104.2</ele><time>2026-04-24T13:16:39.064Z</time></trkpt><trkpt lat="42.0542333" lon="11.923815"><ele>103.0</ele><time>2026-04-24T13:16:41.064Z</time></trkpt><trkpt lat="42.0541517" lon="11.92393"><ele>99.85714285714285</ele><time>2026-04-24T13:16:43.064Z</time></trkpt><trkpt lat="42.05411" lon="11.9240017"><ele>96.71428571428571</ele><time>2026-04-24T13:16:44.064Z</time></trkpt><trkpt lat="42.05407" lon="11.9240783"><ele>93.57142857142857</ele><time>2026-04-24T13:16:45.065Z</time></trkpt><trkpt lat="42.0540333" lon="11.9241617"><ele>90.42857142857142</ele><time>2026-04-24T13:16:46.064Z</time></trkpt><trkpt lat="42.0539983" lon="11.9242483"><ele>87.28571428571428</ele><time>2026-04-24T13:16:47.063Z</time></trkpt><trkpt lat="42.0539667" lon="11.9243317"><ele>84.14285714285714</ele><time>2026-04-24T13:16:48.064Z</time></trkpt><trkpt lat="42.0539367" lon="11.92441"><ele>81.0</ele><time>2026-04-24T13:16:49.064Z</time></trkpt><trkpt lat="42.0538717" lon="11.9245333"><ele>80.8</ele><time>2026-04-24T13:16:51.065Z</time></trkpt><trkpt lat="42.0537917" lon="11.9246417"><ele>80.6</ele><time>2026-04-24T13:16:53.065Z</time></trkpt><trkpt lat="42.0537267" lon="11.924735"><ele>80.4</ele><time>2026-04-24T13:16:55.066Z</time></trkpt><trkpt lat="42.0537" lon="11.9248217"><ele>80.2</ele><time>2026-04-24T13:16:57.064Z</time></trkpt><trkpt lat="42.0537" lon="11.9249433"><ele>80.0</ele><time>2026-04-24T13:16:59.064Z</time></trkpt><trkpt lat="42.0536867" lon="11.9250817"><ele>79.5</ele><time>2026-04-24T13:17:01.062Z</time></trkpt><trkpt lat="42.0536733" lon="11.9252217"><ele>79.0</ele><time>2026-04-24T13:17:03.064Z</time></trkpt><trkpt lat="42.05367" lon="11.92536"><ele>78.5</ele><time>2026-04-24T13:17:05.065Z</time></trkpt><trkpt lat="42.05365" lon="11.92549"><ele>78.0</ele><time>2026-04-24T13:17:07.063Z</time></trkpt><trkpt lat="42.0536167" lon="11.9255633"><ele>77.5</ele><time>2026-04-24T13:17:08.064Z</time></trkpt><trkpt lat="42.0535767" lon="11.9256433"><ele>77.0</ele><time>2026-04-24T13:17:09.062Z</time></trkpt><trkpt lat="42.053535" lon="11.925715"><ele>77.0</ele><time>2026-04-24T13:17:10.064Z</time></trkpt><trkpt lat="42.0534583" lon="11.9258167"><ele>77.0</ele><time>2026-04-24T13:17:12.064Z</time></trkpt><trkpt lat="42.0533917" lon="11.9258883"><ele>77.0</ele><time>2026-04-24T13:17:14.065Z</time></trkpt><trkpt lat="42.0532717" lon="11.9259433"><ele>77.0</ele><time>2026-04-24T13:18:15.065Z</time></trkpt><trkpt lat="42.0531983" lon="11.92596"><ele>77.0</ele><time>2026-04-24T13:18:37.064Z</time></trkpt><trkpt lat="42.053115" lon="11.926"><ele>75.2</ele><time>2026-04-24T13:18:40.063Z</time></trkpt><trkpt lat="42.053035" lon="11.9260183"><ele>73.4</ele><time>2026-04-24T13:18:42.063Z</time></trkpt><trkpt lat="42.05294" lon="11.9260267"><ele>71.6</ele><time>2026-04-24T13:18:44.064Z</time></trkpt><trkpt lat="42.0528333" lon="11.9260383"><ele>69.8</ele><time>2026-04-24T13:18:46.062Z</time></trkpt><trkpt lat="42.0527083" lon="11.926035"><ele>68.0</ele><time>2026-04-24T13:18:48.062Z</time></trkpt><trkpt lat="42.0526417" lon="11.9260317"><ele>68.0</ele><time>2026-04-24T13:18:49.065Z</time></trkpt><trkpt lat="42.05257" lon="11.926035"><ele>68.0</ele><time>2026-04-24T13:18:50.064Z</time></trkpt><trkpt lat="42.05249" lon="11.9260367"><ele>68.0</ele><time>2026-04-24T13:18:51.064Z</time></trkpt><trkpt lat="42.0524033" lon="11.926035"><ele>68.0</ele><time>2026-04-24T13:18:52.064Z</time></trkpt><trkpt lat="42.0523083" lon="11.9260283"><ele>68.0</ele><time>2026-04-24T13:18:53.062Z</time></trkpt><trkpt lat="42.05221" lon="11.9260233"><ele>68.0</ele><time>2026-04-24T13:18:54.063Z</time></trkpt><trkpt lat="42.05211" lon="11.9260167"><ele>66.2</ele><time>2026-04-24T13:18:55.064Z</time></trkpt><trkpt lat="42.0520117" lon="11.9260083"><ele>64.4</ele><time>2026-04-24T13:18:56.064Z</time></trkpt><trkpt lat="42.05191" lon="11.9259983"><ele>62.60000000000001</ele><time>2026-04-24T13:18:57.064Z</time></trkpt><trkpt lat="42.0518117" lon="11.92599"><ele>60.800000000000004</ele><time>2026-04-24T13:18:58.063Z</time></trkpt><trkpt lat="42.0517133" lon="11.925985"><ele>59.0</ele><time>2026-04-24T13:18:59.064Z</time></trkpt><trkpt lat="42.0516167" lon="11.9259817"><ele>57.6</ele><time>2026-04-24T13:19:00.064Z</time></trkpt><trkpt lat="42.0515183" lon="11.92598"><ele>56.2</ele><time>2026-04-24T13:19:01.064Z</time></trkpt><trkpt lat="42.0514217" lon="11.925975"><ele>54.800000000000004</ele><time>2026-04-24T13:19:02.064Z</time></trkpt><trkpt lat="42.0513233" lon="11.9259683"><ele>53.400000000000006</ele><time>2026-04-24T13:19:03.061Z</time></trkpt><trkpt lat="42.0512217" lon="11.9259633"><ele>52.0</ele><time>2026-04-24T13:19:04.064Z</time></trkpt><trkpt lat="42.0511167" lon="11.925955"><ele>52.0</ele><time>2026-04-24T13:19:05.064Z</time></trkpt><trkpt lat="42.0510117" lon="11.925945"><ele>52.0</ele><time>2026-04-24T13:19:06.064Z</time></trkpt><trkpt lat="42.0509067" lon="11.9259367"><ele>52.0</ele><time>2026-04-24T13:19:07.062Z</time></trkpt><trkpt lat="42.0507983" lon="11.9259267"><ele>52.0</ele><time>2026-04-24T13:19:08.066Z</time></trkpt><trkpt lat="42.0506917" lon="11.92592"><ele>52.0</ele><time>2026-04-24T13:19:09.063Z</time></trkpt><trkpt lat="42.050585" lon="11.9259133"><ele>50.2</ele><time>2026-04-24T13:19:10.063Z</time></trkpt><trkpt lat="42.0504783" lon="11.9259033"><ele>48.400000000000006</ele><time>2026-04-24T13:19:11.064Z</time></trkpt><trkpt lat="42.0503733" lon="11.9258933"><ele>46.599999999999994</ele><time>2026-04-24T13:19:12.065Z</time></trkpt><trkpt lat="42.050265" lon="11.925885"><ele>44.8</ele><time>2026-04-24T13:19:13.063Z</time></trkpt><trkpt lat="42.05016" lon="11.9258733"><ele>43.0</ele><time>2026-04-24T13:19:14.065Z</time></trkpt><trkpt lat="42.0500533" lon="11.9258617"><ele>42.4</ele><time>2026-04-24T13:19:15.063Z</time></trkpt><trkpt lat="42.0499467" lon="11.92585"><ele>41.8</ele><time>2026-04-24T13:19:16.064Z</time></trkpt><trkpt lat="42.0498417" lon="11.9258317"><ele>41.2</ele><time>2026-04-24T13:19:17.063Z</time></trkpt><trkpt lat="42.049735" lon="11.9258183"><ele>40.6</ele><time>2026-04-24T13:19:18.064Z</time></trkpt><trkpt lat="42.0496233" lon="11.925805"><ele>40.0</ele><time>2026-04-24T13:19:19.063Z</time></trkpt><trkpt lat="42.0495067" lon="11.9257983"><ele>40.0</ele><time>2026-04-24T13:19:20.065Z</time></trkpt><trkpt lat="42.04939" lon="11.9257967"><ele>40.0</ele><time>2026-04-24T13:19:21.066Z</time></trkpt><trkpt lat="42.0492767" lon="11.9257917"><ele>40.0</ele><time>2026-04-24T13:19:22.064Z</time></trkpt><trkpt lat="42.0491667" lon="11.9257833"><ele>40.0</ele><time>2026-04-24T13:19:23.064Z</time></trkpt><trkpt lat="42.0490617" lon="11.9257733"><ele>40.0</ele><time>2026-04-24T13:19:24.061Z</time></trkpt><trkpt lat="42.0489533" lon="11.9257667"><ele>39.4</ele><time>2026-04-24T13:19:25.064Z</time></trkpt><trkpt lat="42.0488433" lon="11.92576"><ele>38.8</ele><time>2026-04-24T13:19:26.065Z</time></trkpt><trkpt lat="42.0487333" lon="11.925755"><ele>38.2</ele><time>2026-04-24T13:19:27.065Z</time></trkpt><trkpt lat="42.048625" lon="11.9257483"><ele>37.6</ele><time>2026-04-24T13:19:28.063Z</time></trkpt><trkpt lat="42.0485183" lon="11.9257367"><ele>37.0</ele><time>2026-04-24T13:19:29.063Z</time></trkpt><trkpt lat="42.0484117" lon="11.9257267"><ele>37.0</ele><time>2026-04-24T13:19:30.062Z</time></trkpt><trkpt lat="42.0483067" lon="11.92572"><ele>37.0</ele><time>2026-04-24T13:19:31.063Z</time></trkpt><trkpt lat="42.0482" lon="11.92571"><ele>37.0</ele><time>2026-04-24T13:19:32.064Z</time></trkpt><trkpt lat="42.04809" lon="11.9256983"><ele>37.0</ele><time>2026-04-24T13:19:33.064Z</time></trkpt><trkpt lat="42.047975" lon="11.9256833"><ele>37.0</ele><time>2026-04-24T13:19:34.064Z</time></trkpt><trkpt lat="42.0478583" lon="11.9256733"><ele>35.6</ele><time>2026-04-24T13:19:35.064Z</time></trkpt><trkpt lat="42.0477467" lon="11.9256633"><ele>34.2</ele><time>2026-04-24T13:19:36.063Z</time></trkpt><trkpt lat="42.0476367" lon="11.9256517"><ele>32.8</ele><time>2026-04-24T13:19:37.064Z</time></trkpt><trkpt lat="42.04753" lon="11.9256383"><ele>31.4</ele><time>2026-04-24T13:19:38.063Z</time></trkpt><trkpt lat="42.047425" lon="11.925625"><ele>30.0</ele><time>2026-04-24T13:19:39.064Z</time></trkpt><trkpt lat="42.04732" lon="11.925615"><ele>29.6</ele><time>2026-04-24T13:19:40.063Z</time></trkpt><trkpt lat="42.0472133" lon="11.9256083"><ele>29.2</ele><time>2026-04-24T13:19:41.065Z</time></trkpt><trkpt lat="42.047105" lon="11.9255983"><ele>28.799999999999997</ele><time>2026-04-24T13:19:42.062Z</time></trkpt><trkpt lat="42.0469967" lon="11.925585"><ele>28.4</ele><time>2026-04-24T13:19:43.064Z</time></trkpt><trkpt lat="42.04689" lon="11.9255733"><ele>28.0</ele><time>2026-04-24T13:19:44.065Z</time></trkpt><trkpt lat="42.046785" lon="11.92557"><ele>28.0</ele><time>2026-04-24T13:19:45.064Z</time></trkpt><trkpt lat="42.0466833" lon="11.9255667"><ele>27.999999999999996</ele><time>2026-04-24T13:19:46.064Z</time></trkpt><trkpt lat="42.0465817" lon="11.9255583"><ele>27.999999999999996</ele><time>2026-04-24T13:19:47.062Z</time></trkpt><trkpt lat="42.0464817" lon="11.925545"><ele>28.0</ele><time>2026-04-24T13:19:48.065Z</time></trkpt><trkpt lat="42.0463817" lon="11.9255333"><ele>28.0</ele><time>2026-04-24T13:19:49.064Z</time></trkpt><trkpt lat="42.0462833" lon="11.9255367"><ele>28.000000000000004</ele><time>2026-04-24T13:19:50.064Z</time></trkpt><trkpt lat="42.04619" lon="11.9255517"><ele>28.0</ele><time>2026-04-24T13:19:51.063Z</time></trkpt><trkpt lat="42.046105" lon="11.9255683"><ele>28.0</ele><time>2026-04-24T13:19:52.065Z</time></trkpt><trkpt lat="42.046025" lon="11.9255717"><ele>28.0</ele><time>2026-04-24T13:19:53.063Z</time></trkpt><trkpt lat="42.045945" lon="11.925555"><ele>28.000000000000004</ele><time>2026-04-24T13:19:54.065Z</time></trkpt><trkpt lat="42.0458617" lon="11.92553"><ele>28.0</ele><time>2026-04-24T13:19:55.062Z</time></trkpt><trkpt lat="42.0457733" lon="11.92551"><ele>27.500000000000004</ele><time>2026-04-24T13:19:56.064Z</time></trkpt><trkpt lat="42.04569" lon="11.9254933"><ele>27.0</ele><time>2026-04-24T13:19:57.063Z</time></trkpt><trkpt lat="42.045605" lon="11.9254733"><ele>26.5</ele><time>2026-04-24T13:19:58.066Z</time></trkpt><trkpt lat="42.0455183" lon="11.925455"><ele>26.0</ele><time>2026-04-24T13:19:59.063Z</time></trkpt><trkpt lat="42.0454317" lon="11.9254417"><ele>25.500000000000004</ele><time>2026-04-24T13:20:00.065Z</time></trkpt><trkpt lat="42.0453467" lon="11.9254317"><ele>25.0</ele><time>2026-04-24T13:20:01.065Z</time></trkpt><trkpt lat="42.04526" lon="11.92542"><ele>25.000000000000004</ele><time>2026-04-24T13:20:02.063Z</time></trkpt><trkpt lat="42.045175" lon="11.92541"><ele>25.0</ele><time>2026-04-24T13:20:03.064Z</time></trkpt><trkpt lat="42.0450917" lon="11.9253967"><ele>25.0</ele><time>2026-04-24T13:20:04.065Z</time></trkpt><trkpt lat="42.0450083" lon="11.9253867"><ele>25.0</ele><time>2026-04-24T13:20:05.063Z</time></trkpt><trkpt lat="42.044925" lon="11.9253783"><ele>25.000000000000004</ele><time>2026-04-24T13:20:06.064Z</time></trkpt><trkpt lat="42.0448367" lon="11.9253733"><ele>25.0</ele><time>2026-04-24T13:20:07.063Z</time></trkpt><trkpt lat="42.04475" lon="11.92537"><ele>24.833333333333336</ele><time>2026-04-24T13:20:08.064Z</time></trkpt><trkpt lat="42.0446633" lon="11.9253667"><ele>24.666666666666668</ele><time>2026-04-24T13:20:09.064Z</time></trkpt><trkpt lat="42.04458" lon="11.9253667"><ele>24.5</ele><time>2026-04-24T13:20:10.064Z</time></trkpt><trkpt lat="42.044495" lon="11.9253717"><ele>24.333333333333336</ele><time>2026-04-24T13:20:11.064Z</time></trkpt><trkpt lat="42.044405" lon="11.925385"><ele>24.166666666666668</ele><time>2026-04-24T13:20:12.064Z</time></trkpt><trkpt lat="42.0443133" lon="11.925405"><ele>24.0</ele><time>2026-04-24T13:20:13.064Z</time></trkpt><trkpt lat="42.0442267" lon="11.92543"><ele>24.0</ele><time>2026-04-24T13:20:14.064Z</time></trkpt><trkpt lat="42.0441467" lon="11.9254567"><ele>24.0</ele><time>2026-04-24T13:20:15.066Z</time></trkpt><trkpt lat="42.0440733" lon="11.9254833"><ele>24.0</ele><time>2026-04-24T13:20:16.065Z</time></trkpt><trkpt lat="42.0440117" lon="11.9255017"><ele>24.0</ele><time>2026-04-24T13:20:17.064Z</time></trkpt><trkpt lat="42.0439133" lon="11.9255233"><ele>24.0</ele><time>2026-04-24T13:20:19.066Z</time></trkpt><trkpt lat="42.0438367" lon="11.92552"><ele>24.0</ele><time>2026-04-24T13:20:22.064Z</time></trkpt><trkpt lat="42.0437367" lon="11.92549"><ele>23.2</ele><time>2026-04-24T13:21:57.064Z</time></trkpt><trkpt lat="42.0436667" lon="11.925465"><ele>22.4</ele><time>2026-04-24T13:21:58.065Z</time></trkpt><trkpt lat="42.04359" lon="11.925435"><ele>21.6</ele><time>2026-04-24T13:21:59.064Z</time></trkpt><trkpt lat="42.0435" lon="11.9253983"><ele>20.8</ele><time>2026-04-24T13:22:00.063Z</time></trkpt><trkpt lat="42.0434017" lon="11.92536"><ele>20.0</ele><time>2026-04-24T13:22:01.064Z</time></trkpt><trkpt lat="42.04329" lon="11.92532"><ele>19.5</ele><time>2026-04-24T13:22:02.065Z</time></trkpt><trkpt lat="42.0431767" lon="11.925275"><ele>19.0</ele><time>2026-04-24T13:22:03.065Z</time></trkpt><trkpt lat="42.0430617" lon="11.9252317"><ele>18.5</ele><time>2026-04-24T13:22:04.066Z</time></trkpt><trkpt lat="42.04294" lon="11.9251933"><ele>18.0</ele><time>2026-04-24T13:22:05.064Z</time></trkpt><trkpt lat="42.0428167" lon="11.925165"><ele>18.0</ele><time>2026-04-24T13:22:06.066Z</time></trkpt><trkpt lat="42.0426883" lon="11.92515"><ele>18.0</ele><time>2026-04-24T13:22:07.065Z</time></trkpt><trkpt lat="42.0425567" lon="11.925145"><ele>18.0</ele><time>2026-04-24T13:22:08.065Z</time></trkpt><trkpt lat="42.0424233" lon="11.9251383"><ele>18.0</ele><time>2026-04-24T13:22:09.064Z</time></trkpt><trkpt lat="42.04229" lon="11.9251317"><ele>16.75</ele><time>2026-04-24T13:22:10.064Z</time></trkpt><trkpt lat="42.0421567" lon="11.9251217"><ele>15.5</ele><time>2026-04-24T13:22:11.064Z</time></trkpt><trkpt lat="42.04202" lon="11.9251067"><ele>14.25</ele><time>2026-04-24T13:22:12.065Z</time></trkpt><trkpt lat="42.0418817" lon="11.9250933"><ele>13.0</ele><time>2026-04-24T13:22:13.066Z</time></trkpt><trkpt lat="42.0417483" lon="11.92508"><ele>12.75</ele><time>2026-04-24T13:22:14.065Z</time></trkpt><trkpt lat="42.0416117" lon="11.925065"><ele>12.5</ele><time>2026-04-24T13:22:15.063Z</time></trkpt><trkpt lat="42.0414733" lon="11.9250517"><ele>12.25</ele><time>2026-04-24T13:22:16.065Z</time></trkpt><trkpt lat="42.0413317" lon="11.9250367"><ele>12.0</ele><time>2026-04-24T13:22:17.064Z</time></trkpt><trkpt lat="42.041185" lon="11.92502"><ele>12.0</ele><time>2026-04-24T13:22:18.064Z</time></trkpt><trkpt lat="42.04103" lon="11.9250083"><ele>12.0</ele><time>2026-04-24T13:22:19.065Z</time></trkpt><trkpt lat="42.040875" lon="11.9249983"><ele>12.0</ele><time>2026-04-24T13:22:20.064Z</time></trkpt><trkpt lat="42.0407233" lon="11.9249883"><ele>11.0</ele><time>2026-04-24T13:22:21.066Z</time></trkpt><trkpt lat="42.0405817" lon="11.92498"><ele>10.0</ele><time>2026-04-24T13:22:22.063Z</time></trkpt><trkpt lat="42.04045" lon="11.9249733"><ele>9.0</ele><time>2026-04-24T13:22:23.064Z</time></trkpt><trkpt lat="42.040335" lon="11.9249683"><ele>8.0</ele><time>2026-04-24T13:22:24.064Z</time></trkpt><trkpt lat="42.0402367" lon="11.9249733"><ele>7.999999999999999</ele><time>2026-04-24T13:22:25.064Z</time></trkpt><trkpt lat="42.0401517" lon="11.92499"><ele>8.0</ele><time>2026-04-24T13:22:26.064Z</time></trkpt><trkpt lat="42.0400833" lon="11.9250217"><ele>8.0</ele><time>2026-04-24T13:22:27.065Z</time></trkpt><trkpt lat="42.040025" lon="11.92508"><ele>8.0</ele><time>2026-04-24T13:22:28.064Z</time></trkpt><trkpt lat="42.03997" lon="11.9251733"><ele>7.999999999999999</ele><time>2026-04-24T13:22:29.065Z</time></trkpt><trkpt lat="42.039915" lon="11.9253233"><ele>8.0</ele><time>2026-04-24T13:22:30.064Z</time></trkpt><trkpt lat="42.03985" lon="11.92551"><ele>7.0</ele><time>2026-04-24T13:22:31.064Z</time></trkpt><trkpt lat="42.0397783" lon="11.9257217"><ele>6.0</ele><time>2026-04-24T13:22:32.066Z</time></trkpt><trkpt lat="42.0397017" lon="11.92596"><ele>5.0</ele><time>2026-04-24T13:22:33.065Z</time></trkpt><trkpt lat="42.0396217" lon="11.9262033"><ele>5.0</ele><time>2026-04-24T13:22:34.064Z</time></trkpt><trkpt lat="42.03955" lon="11.9264167"><ele>5.0</ele><time>2026-04-24T13:22:35.063Z</time></trkpt><trkpt lat="42.0394917" lon="11.926595"><ele>5.0</ele><time>2026-04-24T13:22:36.065Z</time></trkpt><trkpt lat="42.0394417" lon="11.9267417"><ele>5.0</ele><time>2026-04-24T13:22:37.065Z</time></trkpt><trkpt lat="42.0393967" lon="11.9268733"><ele>5.0</ele><time>2026-04-24T13:22:38.065Z</time></trkpt><trkpt lat="42.0393483" lon="11.92701"><ele>5.0</ele><time>2026-04-24T13:22:39.065Z</time></trkpt><trkpt lat="42.0393033" lon="11.9271383"><ele>5.0</ele><time>2026-04-24T13:22:40.065Z</time></trkpt><trkpt lat="42.0392633" lon="11.9272567"><ele>5.0</ele><time>2026-04-24T13:22:41.065Z</time></trkpt><trkpt lat="42.0392283" lon="11.92737"><ele>5.0</ele><time>2026-04-24T13:22:42.065Z</time></trkpt><trkpt lat="42.0391983" lon="11.9274767"><ele>5.0</ele><time>2026-04-24T13:22:43.064Z</time></trkpt><trkpt lat="42.03917" lon="11.9275683"><ele>5.0</ele><time>2026-04-24T13:22:44.066Z</time></trkpt><trkpt lat="42.039145" lon="11.9276483"><ele>5.0</ele><time>2026-04-24T13:22:45.063Z</time></trkpt><trkpt lat="42.0391033" lon="11.9277567"><ele>5.0</ele><time>2026-04-24T13:22:47.066Z</time></trkpt><trkpt lat="42.0390898" lon="11.9278429"><ele>5.0</ele><time>2026-04-24T13:23:31.114Z</time></trkpt><trkpt lat="42.0389426" lon="11.9281818"><ele>5.0</ele><time>2026-04-24T13:23:51.064Z</time></trkpt><trkpt lat="42.0388796" lon="11.9283078"><ele>5.0</ele><time>2026-04-24T13:23:52.063Z</time></trkpt><trkpt lat="42.0388121" lon="11.9284308"><ele>5.0</ele><time>2026-04-24T13:23:53.062Z</time></trkpt><trkpt lat="42.0387402" lon="11.9285501"><ele>5.0</ele><time>2026-04-24T13:23:54.064Z</time></trkpt><trkpt lat="42.038673" lon="11.92867"><ele>5.5</ele><time>2026-04-24T13:23:55.062Z</time></trkpt><trkpt lat="42.0386061" lon="11.9287968"><ele>6.0</ele><time>2026-04-24T13:23:56.065Z</time></trkpt><trkpt lat="42.0385432" lon="11.9289317"><ele>6.5</ele><time>2026-04-24T13:23:57.065Z</time></trkpt><trkpt lat="42.0384805" lon="11.9290674"><ele>7.0</ele><time>2026-04-24T13:23:58.066Z</time></trkpt><trkpt lat="42.038414" lon="11.9291958"><ele>7.000000000000001</ele><time>2026-04-24T13:23:59.066Z</time></trkpt><trkpt lat="42.0383542" lon="11.9293098"><ele>7.0</ele><time>2026-04-24T13:24:00.065Z</time></trkpt><trkpt lat="42.0383094" lon="11.9294046"><ele>7.0</ele><time>2026-04-24T13:24:01.062Z</time></trkpt><trkpt lat="42.0382775" lon="11.9294832"><ele>7.0</ele><time>2026-04-24T13:24:02.065Z</time></trkpt><trkpt lat="42.0382518" lon="11.9295666"><ele>7.000000000000001</ele><time>2026-04-24T13:24:03.065Z</time></trkpt><trkpt lat="42.0382264" lon="11.9296625"><ele>7.0</ele><time>2026-04-24T13:24:04.063Z</time></trkpt><trkpt lat="42.038199" lon="11.9297698"><ele>7.0</ele><time>2026-04-24T13:24:05.063Z</time></trkpt><trkpt lat="42.0381735" lon="11.9298845"><ele>6.999999999999999</ele><time>2026-04-24T13:24:06.064Z</time></trkpt><trkpt lat="42.0381456" lon="11.9300123"><ele>6.999999999999999</ele><time>2026-04-24T13:24:07.063Z</time></trkpt><trkpt lat="42.0381169" lon="11.9301492"><ele>7.0</ele><time>2026-04-24T13:24:08.067Z</time></trkpt><trkpt lat="42.0380896" lon="11.9302966"><ele>7.0</ele><time>2026-04-24T13:24:09.065Z</time></trkpt><trkpt lat="42.0380561" lon="11.9304667"><ele>7.0</ele><time>2026-04-24T13:24:10.065Z</time></trkpt><trkpt lat="42.0380167" lon="11.930664"><ele>7.0</ele><time>2026-04-24T13:24:11.066Z</time></trkpt><trkpt lat="42.0379718" lon="11.9308737"><ele>7.0</ele><time>2026-04-24T13:24:12.064Z</time></trkpt><trkpt lat="42.0379248" lon="11.931082"><ele>8.0</ele><time>2026-04-24T13:24:13.064Z</time></trkpt><trkpt lat="42.0378778" lon="11.9312805"><ele>9.0</ele><time>2026-04-24T13:24:14.064Z</time></trkpt><trkpt lat="42.0378352" lon="11.9314681"><ele>10.0</ele><time>2026-04-24T13:24:15.064Z</time></trkpt><trkpt lat="42.0377972" lon="11.9316502"><ele>11.0</ele><time>2026-04-24T13:24:16.065Z</time></trkpt><trkpt lat="42.0377637" lon="11.9318327"><ele>11.25</ele><time>2026-04-24T13:24:17.062Z</time></trkpt><trkpt lat="42.0377324" lon="11.9320159"><ele>11.5</ele><time>2026-04-24T13:24:18.064Z</time></trkpt><trkpt lat="42.0377011" lon="11.9321991"><ele>11.75</ele><time>2026-04-24T13:24:19.064Z</time></trkpt><trkpt lat="42.037665" lon="11.9323796"><ele>12.0</ele><time>2026-04-24T13:24:20.064Z</time></trkpt><trkpt lat="42.037618" lon="11.932555"><ele>12.333333333333332</ele><time>2026-04-24T13:24:21.063Z</time></trkpt><trkpt lat="42.0375585" lon="11.9327323"><ele>12.666666666666666</ele><time>2026-04-24T13:24:22.064Z</time></trkpt><trkpt lat="42.0374886" lon="11.9329163"><ele>13.0</ele><time>2026-04-24T13:24:23.062Z</time></trkpt><trkpt lat="42.0374171" lon="11.9331089"><ele>13.0</ele><time>2026-04-24T13:24:24.066Z</time></trkpt><trkpt lat="42.0373406" lon="11.9333131"><ele>13.0</ele><time>2026-04-24T13:24:25.065Z</time></trkpt><trkpt lat="42.0372585" lon="11.9335274"><ele>13.0</ele><time>2026-04-24T13:24:26.065Z</time></trkpt><trkpt lat="42.0371744" lon="11.9337433"><ele>13.666666666666666</ele><time>2026-04-24T13:24:27.064Z</time></trkpt><trkpt lat="42.0370934" lon="11.9339567"><ele>14.333333333333332</ele><time>2026-04-24T13:24:28.065Z</time></trkpt><trkpt lat="42.0370179" lon="11.9341674"><ele>15.0</ele><time>2026-04-24T13:24:29.063Z</time></trkpt><trkpt lat="42.0369451" lon="11.9343732"><ele>15.333333333333332</ele><time>2026-04-24T13:24:30.064Z</time></trkpt><trkpt lat="42.0368775" lon="11.9345706"><ele>15.666666666666666</ele><time>2026-04-24T13:24:31.064Z</time></trkpt><trkpt lat="42.0368167" lon="11.9347597"><ele>16.0</ele><time>2026-04-24T13:24:32.063Z</time></trkpt><trkpt lat="42.0367616" lon="11.9349411"><ele>16.5</ele><time>2026-04-24T13:24:33.064Z</time></trkpt><trkpt lat="42.0367101" lon="11.9351189"><ele>17.0</ele><time>2026-04-24T13:24:34.064Z</time></trkpt><trkpt lat="42.0366548" lon="11.9352993"><ele>17.5</ele><time>2026-04-24T13:24:35.063Z</time></trkpt><trkpt lat="42.0365953" lon="11.9354839"><ele>18.0</ele><time>2026-04-24T13:24:36.065Z</time></trkpt><trkpt lat="42.0365298" lon="11.9356743"><ele>17.0</ele><time>2026-04-24T13:24:37.063Z</time></trkpt><trkpt lat="42.0364659" lon="11.9358577"><ele>16.0</ele><time>2026-04-24T13:24:38.065Z</time></trkpt><trkpt lat="42.0364081" lon="11.9360252"><ele>15.0</ele><time>2026-04-24T13:24:39.065Z</time></trkpt><trkpt lat="42.0363563" lon="11.9361723"><ele>14.0</ele><time>2026-04-24T13:24:40.064Z</time></trkpt><trkpt lat="42.0363111" lon="11.9363027"><ele>14.0</ele><time>2026-04-24T13:24:41.063Z</time></trkpt><trkpt lat="42.0362751" lon="11.9364121"><ele>13.999999999999998</ele><time>2026-04-24T13:24:42.062Z</time></trkpt><trkpt lat="42.0362465" lon="11.9365004"><ele>13.999999999999998</ele><time>2026-04-24T13:24:43.063Z</time></trkpt><trkpt lat="42.0362019" lon="11.9366168"><ele>14.0</ele><time>2026-04-24T13:24:45.065Z</time></trkpt><trkpt lat="42.0361633" lon="11.9367383"><ele>14.0</ele><time>2026-04-24T13:25:39.063Z</time></trkpt><trkpt lat="42.0361233" lon="11.936865"><ele>14.399999999999999</ele><time>2026-04-24T13:27:26.064Z</time></trkpt><trkpt lat="42.03608" lon="11.9370117"><ele>14.799999999999999</ele><time>2026-04-24T13:27:28.063Z</time></trkpt><trkpt lat="42.0360433" lon="11.93711"><ele>15.200000000000001</ele><time>2026-04-24T13:27:29.065Z</time></trkpt><trkpt lat="42.036" lon="11.93722"><ele>15.600000000000001</ele><time>2026-04-24T13:27:30.063Z</time></trkpt><trkpt lat="42.035955" lon="11.9373417"><ele>16.0</ele><time>2026-04-24T13:27:31.065Z</time></trkpt><trkpt lat="42.035905" lon="11.937475"><ele>16.5</ele><time>2026-04-24T13:27:32.066Z</time></trkpt><trkpt lat="42.03585" lon="11.9376233"><ele>17.0</ele><time>2026-04-24T13:27:33.064Z</time></trkpt><trkpt lat="42.035795" lon="11.937775"><ele>17.5</ele><time>2026-04-24T13:27:34.065Z</time></trkpt><trkpt lat="42.0357417" lon="11.9379167"><ele>18.0</ele><time>2026-04-24T13:27:35.065Z</time></trkpt><trkpt lat="42.0356917" lon="11.93804"><ele>18.0</ele><time>2026-04-24T13:27:36.064Z</time></trkpt><trkpt lat="42.0356467" lon="11.93815"><ele>18.0</ele><time>2026-04-24T13:27:37.064Z</time></trkpt><trkpt lat="42.0356033" lon="11.9382433"><ele>18.0</ele><time>2026-04-24T13:27:38.063Z</time></trkpt><trkpt lat="42.0355667" lon="11.9383233"><ele>18.0</ele><time>2026-04-24T13:27:39.066Z</time></trkpt><trkpt lat="42.0355067" lon="11.93845"><ele>18.0</ele><time>2026-04-24T13:27:41.065Z</time></trkpt><trkpt lat="42.0354633" lon="11.938545"><ele>18.0</ele><time>2026-04-24T13:27:43.066Z</time></trkpt><trkpt lat="42.035435" lon="11.9386517"><ele>18.8</ele><time>2026-04-24T13:28:24.066Z</time></trkpt><trkpt lat="42.0353767" lon="11.9387767"><ele>19.6</ele><time>2026-04-24T13:30:29.065Z</time></trkpt><trkpt lat="42.0352783" lon="11.93883"><ele>20.400000000000002</ele><time>2026-04-24T13:30:31.065Z</time></trkpt><trkpt lat="42.035205" lon="11.93885"><ele>21.200000000000003</ele><time>2026-04-24T13:30:32.065Z</time></trkpt><trkpt lat="42.035115" lon="11.93887"><ele>22.0</ele><time>2026-04-24T13:30:33.064Z</time></trkpt><trkpt lat="42.0350167" lon="11.9388883"><ele>21.75</ele><time>2026-04-24T13:30:34.064Z</time></trkpt><trkpt lat="42.0349117" lon="11.9389067"><ele>21.5</ele><time>2026-04-24T13:30:35.067Z</time></trkpt><trkpt lat="42.0347983" lon="11.9389283"><ele>21.25</ele><time>2026-04-24T13:30:36.065Z</time></trkpt><trkpt lat="42.0346833" lon="11.93895"><ele>21.0</ele><time>2026-04-24T13:30:37.065Z</time></trkpt><trkpt lat="42.0345667" lon="11.9389717"><ele>21.0</ele><time>2026-04-24T13:30:38.065Z</time></trkpt><trkpt lat="42.03445" lon="11.9389933"><ele>21.0</ele><time>2026-04-24T13:30:39.065Z</time></trkpt><trkpt lat="42.0343333" lon="11.9390167"><ele>21.0</ele><time>2026-04-24T13:30:40.064Z</time></trkpt><trkpt lat="42.0342217" lon="11.9390383"><ele>21.0</ele><time>2026-04-24T13:30:41.065Z</time></trkpt><trkpt lat="42.0341117" lon="11.9390583"><ele>20.25</ele><time>2026-04-24T13:30:42.065Z</time></trkpt><trkpt lat="42.0339983" lon="11.9390783"><ele>19.5</ele><time>2026-04-24T13:30:43.063Z</time></trkpt><trkpt lat="42.0338817" lon="11.9390983"><ele>18.75</ele><time>2026-04-24T13:30:44.065Z</time></trkpt><trkpt lat="42.0337633" lon="11.9391183"><ele>18.0</ele><time>2026-04-24T13:30:45.064Z</time></trkpt><trkpt lat="42.0336433" lon="11.93914"><ele>18.0</ele><time>2026-04-24T13:30:46.066Z</time></trkpt><trkpt lat="42.033525" lon="11.9391633"><ele>18.0</ele><time>2026-04-24T13:30:47.063Z</time></trkpt><trkpt lat="42.03341" lon="11.939185"><ele>18.0</ele><time>2026-04-24T13:30:48.063Z</time></trkpt><trkpt lat="42.0333033" lon="11.9392033"><ele>18.0</ele><time>2026-04-24T13:30:49.063Z</time></trkpt><trkpt lat="42.0332067" lon="11.9392233"><ele>18.0</ele><time>2026-04-24T13:30:50.064Z</time></trkpt><trkpt lat="42.0331183" lon="11.9392367"><ele>17.666666666666668</ele><time>2026-04-24T13:30:51.064Z</time></trkpt><trkpt lat="42.03304" lon="11.9392517"><ele>17.333333333333332</ele><time>2026-04-24T13:30:52.064Z</time></trkpt><trkpt lat="42.03297" lon="11.9392733"><ele>17.0</ele><time>2026-04-24T13:30:53.064Z</time></trkpt><trkpt lat="42.0328867" lon="11.939375"><ele>16.666666666666664</ele><time>2026-04-24T13:30:55.063Z</time></trkpt><trkpt lat="42.03287" lon="11.9394583"><ele>16.333333333333332</ele><time>2026-04-24T13:30:56.065Z</time></trkpt><trkpt lat="42.0328533" lon="11.9396117"><ele>16.0</ele><time>2026-04-24T13:30:58.067Z</time></trkpt><trkpt lat="42.0328033" lon="11.9397233"><ele>16.0</ele><time>2026-04-24T13:31:01.064Z</time></trkpt><trkpt lat="42.032725" lon="11.93978"><ele>16.0</ele><time>2026-04-24T13:31:03.065Z</time></trkpt><trkpt lat="42.0326767" lon="11.93992"><ele>16.0</ele><time>2026-04-24T13:31:05.064Z</time></trkpt><trkpt lat="42.032645" lon="11.9400717"><ele>13.0</ele><time>2026-04-24T13:31:07.065Z</time></trkpt><trkpt lat="42.0326217" lon="11.9401767"><ele>13.0</ele><time>2026-04-24T13:31:09.065Z</time></trkpt></trkseg></trk></gpx>